# Wetter Temperatur Luftdruck Luftfeuchtigkeit Sichtweite Windgeschwindigkeit Windrichtung Zeit
1 Clouds 14 1019 55 10000 1.54 0 12:37 22.04.2021
2 Clear 14 1019 58 10000 1.54 0 12:18 22.04.2021
3 Clear 13 1019 58 10000 1.03 0 11:42 22.04.2021
4 Clear 12 1019 66 10000 0.51 0 11:21 22.04.2021
5 Clear 12 1019 62 10000 2.06 110 10:42 22.04.2021
6 Clear 11 1019 71 10000 2.57 110 10:20 22.04.2021
7 Clear 9 1019 81 10000 2.57 110 09:39 22.04.2021
8 Clouds 7 1019 100 10000 1.03 0 08:57 22.04.2021
9 Clouds 6 1019 100 10000 1.03 0 08:38 22.04.2021
10 Clouds 5 1019 100 10000 1.03 0 08:18 22.04.2021
11 Clouds 4 1019 100 10000 0.75 100 07:36 22.04.2021
12 Clouds 4 1019 100 10000 1.54 0 07:18 22.04.2021
13 Clouds 4 1018 100 10000 0.51 0 06:22 22.04.2021
14 Clouds 4 1018 100 10000 0.51 0 05:24 22.04.2021
15 Clouds 5 1018 100 10000 0.51 0 02:49 22.04.2021
16 Clouds 6 1019 52 10000 1.53 166 00:41 22.04.2021
17 Clouds 6 1017 93 10000 2.57 120 23:42 21.04.2021
18 Clouds 7 1017 93 10000 2.06 100 23:22 21.04.2021
19 Clouds 8 1017 87 10000 2.06 100 22:41 21.04.2021
20 Clouds 8 1017 81 10000 2.06 100 22:23 21.04.2021
21 Clouds 8 1017 93 10000 1.54 90 21:42 21.04.2021
22 Clouds 9 1017 87 10000 2.57 90 21:23 21.04.2021
23 Rain 9 1016 87 10000 3.09 100 20:38 21.04.2021
24 Rain 9 1016 87 10000 2.57 100 20:18 21.04.2021
25 Rain 11 1016 87 10000 2.06 80 19:38 21.04.2021
26 Rain 11 1016 87 10000 2.57 110 19:20 21.04.2021
27 Rain 12 1016 71 10000 1.03 0 18:44 21.04.2021
28 Rain 12 1015 71 10000 4.63 150 18:22 21.04.2021
29 Rain 13 1015 62 10000 3.6 130 17:46 21.04.2021
30 Rain 14 1014 44 10000 3.09 80 17:24 21.04.2021
31 Rain 15 1014 44 10000 3.09 300 16:42 21.04.2021
32 Clouds 16 1014 36 10000 2.57 0 15:56 21.04.2021
33 Clouds 16 1014 36 10000 2.57 0 15:37 21.04.2021
34 Clouds 15 1015 41 10000 2.57 0 14:47 21.04.2021
35 Clouds 14 1015 44 10000 2.06 300 14:29 21.04.2021
36 Clouds 14 1015 47 10000 3.09 320 13:51 21.04.2021
37 Clouds 15 1016 51 10000 3.6 280 13:24 21.04.2021
38 Clouds 14 1016 44 10000 3.09 260 12:56 21.04.2021
39 Clouds 13 1016 44 10000 3.09 260 12:29 21.04.2021
40 Clear 12 1016 47 10000 2.06 270 11:47 21.04.2021
41 Clear 12 1016 50 10000 1.3 284 11:25 21.04.2021
42 Clear 11 1016 54 10000 1.54 0 10:43 21.04.2021
43 Clear 10 1016 66 10000 0.51 0 09:59 21.04.2021
44 Clear 10 1016 66 10000 0.51 0 09:35 21.04.2021
45 Clouds 6 1016 93 10000 0.58 244 08:54 21.04.2021
46 Clouds 5 1016 93 10000 0.82 202 08:27 21.04.2021
47 Clouds 4 1015 100 10000 1.54 140 07:59 21.04.2021
48 Clear 1 1015 100 10000 0.51 0 07:29 21.04.2021
49 Clouds 2 1015 100 10000 1.03 110 06:23 21.04.2021
50 Clear 3 1015 93 10000 0.51 0 04:41 21.04.2021
51 Clear 4 1015 87 10000 0.51 0 00:50 21.04.2021
52 Clear 6 1015 93 10000 1.03 130 23:48 20.04.2021
53 Clear 6 1015 81 10000 0.51 0 22:56 20.04.2021
54 Clear 6 1015 81 10000 0.51 0 22:36 20.04.2021
55 Clear 7 1014 75 10000 1.03 120 22:18 20.04.2021
56 Clouds 8 1014 70 10000 0.51 0 21:44 20.04.2021
57 Clear 9 1014 57 10000 1.03 270 21:23 20.04.2021
58 Clouds 11 1014 54 10000 1.54 30 20:41 20.04.2021
59 Clouds 12 1013 44 10000 1.03 0 20:22 20.04.2021
60 Clouds 14 1013 41 10000 1.54 0 19:52 20.04.2021
61 Clouds 13 1013 41 10000 1.54 0 19:33 20.04.2021
62 Clouds 14 1014 44 10000 3.6 60 18:54 20.04.2021
63 Clouds 14 1014 44 10000 3.6 60 18:35 20.04.2021
64 Clouds 14 1014 47 10000 2.06 10 17:43 20.04.2021
65 Rain 14 1014 54 10000 4.12 0 16:57 20.04.2021
66 Rain 14 1014 54 10000 4.12 0 16:36 20.04.2021
67 Rain 15 1014 39 10000 3.6 90 15:42 20.04.2021
68 Clouds 15 1014 39 10000 2.06 0 15:23 20.04.2021
69 Clouds 14 1014 41 10000 3.09 320 14:52 20.04.2021
70 Clear 14 1014 44 10000 2.57 280 14:27 20.04.2021
71 Clear 13 1015 47 10000 1.54 0 13:31 20.04.2021
72 Clear 13 1015 41 10000 1.03 0 12:55 20.04.2021
73 Clear 12 1017 31 10000 1.34 300 12:31 20.04.2021
74 Clear 11 1016 50 10000 2.06 280 11:58 20.04.2021
75 Clear 11 1016 50 10000 2.06 280 11:38 20.04.2021
76 Clear 10 1016 53 10000 1.54 0 11:19 20.04.2021
77 Clear 9 1016 57 10000 1.54 0 10:42 20.04.2021
78 Clouds 8 1016 61 10000 1.03 0 10:20 20.04.2021
79 Clouds 6 1017 75 10000 0.51 0 09:20 20.04.2021
80 Clouds 5 1017 87 10000 0.51 0 08:53 20.04.2021
81 Clouds 2 1016 100 10000 0.51 0 07:59 20.04.2021
82 Clouds 2 1016 100 10000 0.51 0 07:33 20.04.2021
83 Clouds 1 1016 100 10000 1.03 0 05:48 20.04.2021
84 Clouds 1 1017 100 10000 1.03 0 05:30 20.04.2021
85 Clouds 1 1017 100 10000 0.51 0 04:40 20.04.2021
86 Clouds 3 1017 93 10000 1.54 150 00:52 20.04.2021
87 Clouds 4 1017 87 10000 1.03 90 00:20 20.04.2021
88 Clouds 6 1017 87 10000 1.54 130 23:31 19.04.2021
89 Clouds 6 1017 75 10000 1.03 0 22:45 19.04.2021
90 Clouds 6 1017 81 10000 0.51 0 22:26 19.04.2021
91 Clouds 6 1017 75 10000 0.51 0 21:43 19.04.2021
92 Clouds 8 1017 61 10000 0.51 0 21:20 19.04.2021
93 Clouds 10 1017 50 10000 1.03 0 20:41 19.04.2021
94 Clouds 11 1017 46 10000 1.54 30 20:20 19.04.2021
95 Clouds 11 1017 43 10000 1.54 40 19:50 19.04.2021
96 Clouds 11 1016 43 10000 1.54 40 19:27 19.04.2021
97 Clouds 11 1017 46 10000 3.09 330 18:59 19.04.2021
98 Clouds 12 1017 46 10000 3.09 330 18:38 19.04.2021
99 Clouds 12 1017 47 10000 2.57 350 18:19 19.04.2021
100 Clouds 12 1017 47 10000 3.09 340 17:43 19.04.2021
101 Clouds 12 1017 47 10000 3.6 320 17:23 19.04.2021
102 Clouds 12 1017 44 10000 3.6 330 16:43 19.04.2021
103 Clouds 12 1017 47 10000 3.09 330 16:24 19.04.2021
104 Clouds 11 1017 46 10000 3.6 350 15:42 19.04.2021
105 Clouds 12 1017 46 10000 3.09 350 15:23 19.04.2021
106 Rain 12 1017 54 10000 4.63 330 14:43 19.04.2021
107 Clouds 12 1017 40 10000 1.54 0 14:23 19.04.2021
108 Clouds 12 1017 46 10000 2.06 70 13:49 19.04.2021
109 Clouds 12 1018 43 10000 2.06 110 13:26 19.04.2021
110 Clouds 10 1018 50 10000 3.09 10 12:47 19.04.2021
111 Clouds 10 1018 50 10000 3.09 170 12:26 19.04.2021
112 Clouds 10 1019 50 10000 3.09 170 11:55 19.04.2021
113 Clouds 9 1018 61 10000 1.54 0 11:27 19.04.2021
114 Clouds 8 1019 66 10000 2.06 150 10:55 19.04.2021
115 Clouds 7 1019 66 10000 2.06 150 10:36 19.04.2021
116 Clear 7 1019 70 10000 0.51 0 10:18 19.04.2021
117 Clear 6 1019 81 10000 1.54 160 09:38 19.04.2021
118 Clear 6 1019 81 10000 1.54 160 09:38 19.04.2021
119 Clouds 4 1019 87 10000 1.03 90 09:19 19.04.2021
120 Clouds 1 1019 100 10000 0.51 0 08:30 19.04.2021
121 Clouds 0 1019 100 10000 1.03 100 07:49 19.04.2021
122 Clouds 0 1019 100 7000 0.51 0 07:20 19.04.2021
123 Clouds 0 1019 100 7000 0.51 0 06:44 19.04.2021
124 Clear 2 1019 100 10000 0.51 0 02:38 19.04.2021
125 Clouds 3 1019 100 10000 2.06 130 01:30 19.04.2021
126 Clouds 4 1019 87 10000 0.51 0 00:30 19.04.2021
127 Clouds 4 1020 93 10000 1.03 0 23:19 18.04.2021
128 Clouds 3 1020 87 10000 0.51 0 22:52 18.04.2021
129 Clouds 4 1020 75 10000 0.51 0 22:31 18.04.2021
130 Clouds 4 1019 75 10000 0.51 0 21:45 18.04.2021
131 Clouds 5 1019 75 10000 2.06 300 21:23 18.04.2021
132 Clouds 6 1019 70 10000 2.57 290 20:41 18.04.2021
133 Clouds 6 1019 65 10000 2.57 320 20:21 18.04.2021
134 Clouds 7 1019 61 10000 3.6 330 19:56 18.04.2021
135 Clouds 7 1019 61 10000 3.6 330 19:35 18.04.2021
136 Clouds 7 1018 61 10000 4.12 350 18:54 18.04.2021
137 Clouds 8 1018 61 10000 3.09 360 18:31 18.04.2021
138 Clouds 8 1018 57 10000 3.6 10 17:59 18.04.2021
139 Clouds 8 1018 57 10000 3.6 10 17:41 18.04.2021
140 Clouds 8 1017 53 10000 3.09 10 17:23 18.04.2021
141 Clouds 9 1017 57 10000 3.09 360 16:41 18.04.2021
142 Clouds 8 1018 57 10000 3.6 20 16:18 18.04.2021
143 Clouds 8 1017 57 10000 5.66 340 15:39 18.04.2021
144 Clouds 9 1017 53 10000 3.09 10 15:20 18.04.2021
145 Clouds 9 1017 53 10000 2.57 310 14:42 18.04.2021
146 Clouds 8 1017 57 10000 3.6 320 14:19 18.04.2021
147 Clouds 9 1018 57 10000 2.57 330 13:53 18.04.2021
148 Clouds 8 1018 61 10000 2.57 20 13:30 18.04.2021
149 Clouds 8 1018 57 10000 2.06 350 12:43 18.04.2021
150 Clouds 8 1018 57 10000 2.06 10 12:23 18.04.2021
151 Clouds 7 1018 61 10000 2.06 0 11:41 18.04.2021
152 Clouds 7 1018 57 10000 2.57 110 11:20 18.04.2021
153 Clouds 6 1018 65 10000 1.54 240 10:46 18.04.2021
154 Clouds 6 1018 70 10000 1.03 0 10:21 18.04.2021
155 Clouds 4 1018 81 10000 1.68 44 09:44 18.04.2021
156 Clouds 4 1018 87 10000 1.56 53 09:26 18.04.2021
157 Rain 3 1018 86 10000 0.51 0 08:48 18.04.2021
158 Rain 2 1018 100 10000 1.18 68 08:29 18.04.2021
159 Snow 2 1018 100 10000 1.18 68 07:53 18.04.2021
160 Snow 1 1018 100 10000 1.18 68 07:35 18.04.2021
161 Clouds 1 1017 100 7000 0.51 0 05:39 18.04.2021
162 Clouds 1 1017 100 10000 0.51 0 05:21 18.04.2021
163 Clouds 2 1018 93 10000 0.51 0 02:24 18.04.2021
164 Clouds 2 1018 93 10000 0.51 0 01:41 18.04.2021
165 Clear 4 1018 87 10000 2.06 340 00:29 18.04.2021
166 Clouds 5 1018 65 10000 1.03 0 23:30 17.04.2021
167 Clouds 6 1018 56 10000 1.54 10 22:49 17.04.2021
168 Clouds 7 1018 57 10000 2.06 40 22:30 17.04.2021
169 Clouds 7 1018 57 10000 3.09 40 21:45 17.04.2021
170 Clouds 7 1018 57 10000 2.06 0 21:25 17.04.2021
171 Clouds 7 1018 57 10000 2.06 60 20:43 17.04.2021
172 Clouds 8 1017 49 10000 3.09 60 20:23 17.04.2021
173 Clouds 8 1017 53 10000 2.57 50 19:43 17.04.2021
174 Clouds 8 1017 46 10000 2.57 50 19:20 17.04.2021
175 Clouds 8 1017 49 10000 3.6 50 18:51 17.04.2021
176 Clouds 9 1017 46 10000 4.12 50 18:25 17.04.2021
177 Clouds 9 1017 43 10000 4.63 70 17:43 17.04.2021
178 Clouds 9 1017 43 10000 4.12 50 17:21 17.04.2021
179 Clouds 10 1017 40 10000 4.63 30 16:40 17.04.2021
180 Clouds 9 1017 46 10000 3.6 60 16:22 17.04.2021
181 Clouds 9 1018 46 10000 3.6 0 15:23 17.04.2021
182 Clouds 8 1018 46 10000 4.12 40 14:44 17.04.2021
183 Clouds 8 1018 53 10000 4.63 60 14:20 17.04.2021
184 Clouds 7 1018 53 10000 5.14 50 13:44 17.04.2021
185 Clouds 7 1018 57 10000 3.09 50 12:55 17.04.2021
186 Clouds 6 1018 57 10000 3.09 50 12:33 17.04.2021
187 Clouds 5 1019 61 10000 3.09 0 11:51 17.04.2021
188 Clouds 4 1019 65 10000 3.6 360 11:33 17.04.2021
189 Clouds 4 1019 65 10000 2.57 10 10:56 17.04.2021
190 Clouds 4 1019 65 10000 2.57 10 10:38 17.04.2021
191 Clouds 2 1019 70 10000 2.57 10 09:47 17.04.2021
192 Clear 1 1019 75 10000 1.54 0 08:54 17.04.2021
193 Clear 1 1019 86 10000 2.58 56 08:29 17.04.2021
194 Clear 0 1019 93 10000 2.58 56 07:45 17.04.2021
195 Clear -1 1019 74 10000 1.54 340 05:43 17.04.2021
196 Clear 1 1019 75 10000 1.54 20 03:46 17.04.2021
197 Clear 3 1020 60 10000 1.03 0 00:56 17.04.2021
198 Clouds 3 1020 56 10000 2.06 360 00:30 17.04.2021
199 Clouds 3 1020 56 10000 2.06 10 23:59 16.04.2021
200 Clouds 4 1020 56 10000 2.06 10 23:34 16.04.2021
201 Clouds 5 1019 49 10000 3.6 70 22:51 16.04.2021
202 Clouds 6 1019 49 10000 3.09 0 22:23 16.04.2021
203 Clouds 6 1019 45 10000 3.09 60 21:57 16.04.2021
204 Clouds 6 1019 45 10000 3.09 60 21:38 16.04.2021
205 Clouds 7 1019 42 10000 3.6 60 20:55 16.04.2021
206 Clouds 7 1019 42 10000 3.6 60 20:36 16.04.2021
207 Clouds 7 1018 39 10000 2.57 0 19:58 16.04.2021
208 Clouds 8 1018 39 10000 2.57 0 19:40 16.04.2021
209 Clouds 8 1018 42 10000 2.06 0 19:18 16.04.2021
210 Clouds 8 1018 42 10000 3.6 40 18:25 16.04.2021
211 Clouds 8 1018 40 10000 3.09 50 17:48 16.04.2021
212 Clouds 9 1018 40 10000 3.6 50 17:19 16.04.2021
213 Clouds 8 1018 40 10000 4.63 30 16:44 16.04.2021
214 Clouds 9 1018 40 10000 5.14 40 16:26 16.04.2021
215 Clouds 9 1019 43 10000 5.14 40 15:54 16.04.2021
216 Clouds 8 1019 43 10000 4.63 90 15:29 16.04.2021
217 Clouds 8 1019 46 10000 4.12 50 14:43 16.04.2021
218 Clouds 8 1019 46 10000 3.6 40 14:20 16.04.2021
219 Clouds 7 1019 49 10000 3.6 50 13:55 16.04.2021
220 Clouds 7 1019 49 10000 4.63 30 13:22 16.04.2021
221 Clouds 6 1019 53 10000 4.12 20 12:53 16.04.2021
222 Clouds 6 1020 52 10000 3.6 30 12:33 16.04.2021
223 Clouds 5 1020 52 10000 3.6 30 11:59 16.04.2021
224 Clouds 5 1020 52 10000 3.6 50 11:38 16.04.2021
225 Clouds 4 1020 60 10000 3.09 70 11:19 16.04.2021
226 Clouds 4 1020 60 10000 2.57 30 10:40 16.04.2021
227 Clouds 3 1020 65 10000 3.09 70 10:20 16.04.2021
228 Clear 2 1020 65 10000 3.09 60 09:44 16.04.2021
229 Clear 2 1020 69 10000 1.03 0 09:21 16.04.2021
230 Clear 1 1020 75 10000 3.82 51 08:42 16.04.2021
231 Clear 0 1020 86 10000 1.03 0 08:18 16.04.2021
232 Clear -1 1020 93 10000 2.61 54 07:41 16.04.2021
233 Clear -2 1020 86 10000 0.51 0 06:59 16.04.2021
234 Clear -2 1019 100 10000 0.51 0 06:28 16.04.2021
235 Clouds -1 1020 86 10000 1.03 0 04:23 16.04.2021
236 Clear 1 1021 69 10000 1.54 0 01:38 16.04.2021
237 Clear 2 1021 64 10000 1.03 0 00:42 16.04.2021
238 Clouds 2 1021 56 10000 1.03 0 00:20 16.04.2021
239 Clouds 2 1021 56 10000 2.06 360 23:45 15.04.2021
240 Clouds 3 1021 56 10000 2.06 10 23:25 15.04.2021
241 Clouds 3 1021 56 10000 2.06 360 22:47 15.04.2021
242 Clouds 3 1021 52 10000 1.03 0 22:23 15.04.2021
243 Clouds 4 1021 48 10000 1.54 0 21:43 15.04.2021
244 Clouds 4 1021 56 10000 1.54 0 21:24 15.04.2021
245 Clouds 4 1021 48 10000 1.54 0 20:47 15.04.2021
246 Clouds 5 1021 48 10000 1.54 0 20:25 15.04.2021
247 Clouds 5 1021 48 10000 1.54 0 20:25 15.04.2021
248 Clouds 5 1021 45 10000 3.6 70 19:47 15.04.2021
249 Clouds 6 1021 49 10000 4.12 70 19:28 15.04.2021
250 Clouds 6 1021 45 10000 4.12 50 18:59 15.04.2021
251 Clouds 7 1021 45 10000 4.12 50 18:37 15.04.2021
252 Clouds 7 1021 45 10000 4.12 80 18:18 15.04.2021
253 Clouds 7 1021 42 10000 4.12 0 17:44 15.04.2021
254 Clouds 7 1021 45 10000 3.6 30 17:24 15.04.2021
255 Clouds 6 1021 42 10000 5.14 20 16:43 15.04.2021
256 Clouds 7 1021 42 10000 4.12 50 16:24 15.04.2021
257 Clouds 7 1021 39 10000 4.12 40 15:47 15.04.2021
258 Clouds 7 1022 39 10000 4.12 40 15:27 15.04.2021
259 Clouds 6 1022 45 10000 5.14 50 14:43 15.04.2021
260 Clouds 7 1022 42 10000 5.14 50 14:25 15.04.2021
261 Clouds 6 1022 46 10000 4.12 20 13:48 15.04.2021
262 Clouds 6 1022 45 10000 3.6 50 13:23 15.04.2021
263 Clouds 6 1023 45 10000 4.12 30 12:49 15.04.2021
264 Clouds 5 1023 52 10000 4.63 30 12:26 15.04.2021
265 Clouds 5 1023 56 10000 4.12 50 11:48 15.04.2021
266 Clouds 5 1023 56 10000 3.6 10 11:27 15.04.2021
267 Clouds 5 1023 56 10000 3.6 10 11:27 15.04.2021
268 Clouds 4 1023 56 10000 3.09 60 10:58 15.04.2021
269 Clouds 3 1023 60 10000 2.06 100 10:39 15.04.2021
270 Clouds 3 1023 60 10000 2.06 100 10:20 15.04.2021
271 Clear 2 1023 86 10000 3.17 55 09:29 15.04.2021
272 Clear 1 1023 93 10000 3.17 55 08:52 15.04.2021
273 Clear 0 1023 93 10000 1.71 60 08:29 15.04.2021
274 Clear -2 1023 100 10000 1.71 60 07:33 15.04.2021
275 Clear -2 1023 100 10000 0.51 0 06:56 15.04.2021
276 Clear -2 1023 100 10000 0.51 0 06:33 15.04.2021
277 Clear -2 1023 100 10000 0.51 0 04:54 15.04.2021
278 Clear -1 1023 80 10000 0.51 0 03:58 15.04.2021
279 Clouds 1 1024 64 10000 1.03 0 23:51 14.04.2021
280 Clear 1 1024 60 10000 0.51 0 23:30 14.04.2021
281 Clear 2 1024 56 10000 1.54 60 22:47 14.04.2021
282 Clear 2 1024 56 10000 1.54 60 22:29 14.04.2021
283 Clouds 3 1024 48 10000 1.03 0 21:56 14.04.2021
284 Clouds 3 1024 48 10000 1.03 0 21:37 14.04.2021
285 Clouds 4 1023 45 10000 1.54 40 21:18 14.04.2021
286 Clouds 5 1023 39 10000 2.57 60 20:37 14.04.2021
287 Clouds 5 1023 36 10000 2.57 60 20:19 14.04.2021
288 Clouds 7 1023 33 10000 2.57 50 19:39 14.04.2021
289 Clouds 6 1023 36 10000 4.12 40 19:18 14.04.2021
290 Clouds 7 1022 39 10000 3.6 40 18:50 14.04.2021
291 Clouds 7 1023 36 10000 2.57 60 18:19 14.04.2021
292 Clouds 7 1023 36 10000 2.57 60 17:55 14.04.2021
293 Clouds 8 1023 36 10000 4.12 70 17:24 14.04.2021
294 Clouds 7 1023 36 10000 4.63 50 16:43 14.04.2021
295 Clouds 8 1023 36 10000 3.6 60 16:22 14.04.2021
296 Clouds 8 1023 37 10000 3.6 70 15:40 14.04.2021
297 Clouds 7 1024 42 10000 2.57 30 15:22 14.04.2021
298 Clouds 7 1024 42 10000 4.63 50 14:42 14.04.2021
299 Clouds 6 1024 45 10000 3.6 50 14:22 14.04.2021
300 Clouds 6 1024 42 10000 4.12 80 13:48 14.04.2021
301 Clouds 5 1024 52 10000 5.66 70 12:54 14.04.2021
302 Clouds 6 1024 52 10000 5.66 70 12:32 14.04.2021
303 Clear 5 1024 52 10000 2.57 0 11:42 14.04.2021
304 Clouds 4 1024 52 10000 3.6 40 11:23 14.04.2021
305 Clouds 4 1024 52 10000 3.6 50 10:35 14.04.2021
306 Clear 2 1025 80 10000 4.4 50 09:56 14.04.2021
307 Clear 2 1025 80 10000 4.4 50 09:38 14.04.2021
308 Clear 1 1025 86 10000 3.45 52 09:18 14.04.2021
309 Clear 0 1025 86 10000 0.51 0 08:33 14.04.2021
310 Clear -1 1024 100 10000 0.51 260 07:51 14.04.2021
311 Clear -2 1024 100 7000 0.51 0 06:39 14.04.2021
312 Clear -2 1025 100 10000 0.51 0 05:52 14.04.2021
313 Clear -1 1026 100 9000 0.51 0 02:57 14.04.2021
314 Clear -1 1026 100 10000 0.51 0 01:28 14.04.2021
315 Clear 0 1027 86 10000 0.51 0 00:34 14.04.2021
316 Clouds 1 1027 93 10000 0.51 0 23:39 13.04.2021
317 Clouds 1 1027 75 10000 0.51 0 22:55 13.04.2021
318 Clouds 2 1027 75 10000 0.51 0 22:36 13.04.2021
319 Clouds 2 1027 70 10000 1.03 0 22:18 13.04.2021
320 Clouds 3 1027 70 10000 0.51 0 21:40 13.04.2021
321 Clouds 2 1027 70 10000 1.54 0 21:20 13.04.2021
322 Clouds 3 1027 70 10000 1.54 0 20:39 13.04.2021
323 Clear 3 1027 56 10000 2.57 360 20:20 13.04.2021
324 Clouds 5 1026 60 10000 2.57 360 19:27 13.04.2021
325 Clouds 5 1026 60 10000 2.57 350 18:58 13.04.2021
326 Clouds 6 1026 56 10000 2.57 0 18:35 13.04.2021
327 Rain 6 1026 49 10000 4.12 40 17:45 13.04.2021
328 Rain 7 1026 45 10000 3.6 330 17:23 13.04.2021
329 Clouds 7 1027 52 10000 3.6 360 16:57 13.04.2021
330 Clouds 7 1027 52 10000 3.6 360 16:38 13.04.2021
331 Clouds 6 1027 56 10000 4.63 10 16:19 13.04.2021
332 Clouds 7 1027 42 10000 3.6 60 15:39 13.04.2021
333 Clouds 7 1027 45 10000 3.6 40 14:59 13.04.2021
334 Clouds 6 1027 45 10000 3.6 40 14:38 13.04.2021
335 Clouds 6 1027 45 10000 3.6 70 14:18 13.04.2021
336 Clouds 7 1027 42 10000 4.12 60 13:41 13.04.2021
337 Clouds 7 1027 42 10000 4.12 60 13:22 13.04.2021
338 Clouds 6 1027 52 10000 4.12 60 12:52 13.04.2021
339 Clouds 6 1027 56 10000 3.6 20 12:23 13.04.2021
340 Clouds 5 1027 52 10000 2.06 0 11:40 13.04.2021
341 Clouds 5 1027 65 10000 1.03 0 11:18 13.04.2021
342 Clear 4 1027 75 10000 1.03 0 10:41 13.04.2021
343 Clouds 3 1028 75 10000 1.03 0 10:20 13.04.2021
344 Clear 2 1028 80 10000 1.03 0 09:52 13.04.2021
345 Clear 2 1028 93 10000 0.51 0 09:26 13.04.2021
346 Clouds 1 1028 100 10000 0.51 0 08:47 13.04.2021
347 Clouds -1 1028 100 10000 1.03 180 08:24 13.04.2021
348 Clear -1 1028 72 10000 1.11 117 07:51 13.04.2021
349 Clouds -3 1027 100 9000 1.54 110 07:29 13.04.2021
350 Clear -3 1027 100 10000 1.03 150 06:27 13.04.2021
351 Clouds -2 1027 100 7000 1.03 80 03:44 13.04.2021
352 Clouds -1 1027 100 7000 1.03 100 01:34 13.04.2021
353 Clouds 0 1027 100 9000 1.17 130 23:55 12.04.2021
354 Clouds 0 1027 100 9000 1.17 130 23:33 12.04.2021
355 Clear 0 1027 100 10000 0.51 0 22:55 12.04.2021
356 Clear 0 1027 100 10000 0.51 0 22:36 12.04.2021
357 Clouds 1 1027 87 10000 1.03 80 21:49 12.04.2021
358 Clouds 2 1027 80 10000 1.18 99 21:25 12.04.2021
359 Clouds 2 1027 80 10000 1.06 96 20:59 12.04.2021
360 Clouds 4 1027 70 10000 1.54 90 20:36 12.04.2021
361 Clouds 3 1026 65 10000 1.03 0 20:18 12.04.2021
362 Clouds 5 1026 70 10000 2.06 90 19:40 12.04.2021
363 Clouds 5 1026 70 10000 2.57 80 19:21 12.04.2021
364 Clouds 5 1026 70 10000 2.06 70 18:51 12.04.2021
365 Clouds 5 1026 70 10000 2.06 70 18:33 12.04.2021
366 Clouds 6 1026 70 10000 2.06 80 17:59 12.04.2021
367 Clouds 6 1026 70 10000 2.57 50 17:40 12.04.2021
368 Clouds 5 1026 70 10000 2.06 60 17:19 12.04.2021
369 Clouds 5 1026 70 10000 2.57 10 16:38 12.04.2021
370 Clouds 5 1026 70 10000 1.54 20 16:19 12.04.2021
371 Clouds 4 1026 75 10000 2.57 20 15:39 12.04.2021
372 Clouds 4 1025 81 10000 3.09 360 14:57 12.04.2021
373 Clouds 4 1025 81 10000 3.09 360 14:39 12.04.2021
374 Clouds 4 1025 81 10000 2.57 360 14:19 12.04.2021
375 Clouds 4 1025 81 10000 2.06 350 13:40 12.04.2021
376 Clouds 3 1025 87 10000 2.57 350 13:19 12.04.2021
377 Clouds 3 1025 87 7000 3.09 340 12:43 12.04.2021
378 Clouds 3 1025 93 7000 2.57 360 12:22 12.04.2021
379 Rain 2 1025 93 6000 3.6 340 11:41 12.04.2021
380 Rain 2 1025 93 6000 3.6 320 10:51 12.04.2021
381 Rain 2 1025 93 6000 3.6 320 10:51 12.04.2021
382 Rain 2 1024 93 9000 2.06 290 10:28 12.04.2021
383 Snow 2 1024 100 9000 2.57 290 09:53 12.04.2021
384 Snow 2 1023 100 5000 2.06 320 09:25 12.04.2021
385 Snow 1 1023 100 4000 1.54 310 08:54 12.04.2021
386 Snow 1 1022 100 4000 1.54 10 07:58 12.04.2021
387 Snow 1 1022 100 4000 2.06 360 07:30 12.04.2021
388 Snow 1 1021 100 8000 2.06 360 06:40 12.04.2021
389 Rain 1 1020 100 10000 2.57 350 05:48 12.04.2021
390 Rain 4 1018 87 10000 4.63 310 03:19 12.04.2021
391 Rain 7 1016 87 10000 3.09 280 00:30 12.04.2021
392 Rain 7 1015 100 10000 2.06 310 23:56 11.04.2021
393 Rain 7 1015 100 10000 2.06 310 23:38 11.04.2021
394 Rain 7 1015 100 10000 1.54 320 23:19 11.04.2021
395 Rain 8 1015 93 7000 1.54 320 22:38 11.04.2021
396 Clouds 8 1014 93 10000 1.54 0 22:19 11.04.2021
397 Clouds 8 1014 100 10000 3.09 340 21:42 11.04.2021
398 Rain 9 1013 100 10000 3.6 330 21:24 11.04.2021
399 Rain 9 1013 93 6000 5.14 310 20:42 11.04.2021
400 Rain 10 1012 82 10000 4.12 310 20:23 11.04.2021
401 Rain 11 1011 71 10000 4.12 310 19:43 11.04.2021
402 Clouds 11 1011 58 10000 6.17 290 19:21 11.04.2021
403 Rain 12 1010 55 10000 6.69 300 18:57 11.04.2021
404 Clouds 14 1010 55 10000 6.69 300 18:39 11.04.2021
405 Rain 13 1010 51 10000 5.14 280 18:20 11.04.2021
406 Clouds 15 1010 51 10000 7.72 290 17:40 11.04.2021
407 Clouds 15 1010 51 10000 7.72 290 17:40 11.04.2021
408 Clouds 15 1009 48 10000 5.66 270 17:22 11.04.2021
409 Rain 16 1009 51 10000 6.69 270 16:42 11.04.2021
410 Rain 17 1009 48 10000 3.09 350 16:21 11.04.2021
411 Clouds 17 1009 42 10000 5.14 270 15:46 11.04.2021
412 Clouds 17 1009 42 10000 5.14 270 15:46 11.04.2021
413 Clear 18 1009 39 10000 2.06 290 15:26 11.04.2021
414 Clouds 17 1009 42 10000 3.09 300 14:51 11.04.2021
415 Clear 17 1009 45 10000 2.06 270 14:24 11.04.2021
416 Clear 16 1009 39 10000 1.54 270 13:44 11.04.2021
417 Clear 16 1009 39 10000 1.54 270 13:26 11.04.2021
418 Clear 15 1010 47 10000 1.54 0 12:40 11.04.2021
419 Clear 14 1010 47 10000 2.06 310 12:20 11.04.2021
420 Clouds 14 1010 54 10000 0.51 0 11:45 11.04.2021
421 Clouds 13 1011 58 10000 1.54 0 11:20 11.04.2021
422 Clouds 12 1011 58 10000 1.03 0 10:45 11.04.2021
423 Clouds 11 1011 71 10000 1.03 0 10:23 11.04.2021
424 Clouds 11 1011 76 10000 1.03 0 09:50 11.04.2021
425 Clouds 10 1011 81 10000 1.03 0 09:29 11.04.2021
426 Clouds 8 1012 67 10000 0.89 296 08:40 11.04.2021
427 Clouds 6 1011 100 10000 0.68 168 07:54 11.04.2021
428 Clouds 6 1011 100 10000 0.51 0 07:19 11.04.2021
429 Clouds 7 1012 47 10000 0.88 159 05:48 11.04.2021
430 Clouds 7 1012 47 10000 0.88 168 05:23 11.04.2021
431 Clouds 7 1012 47 10000 0.88 168 04:51 11.04.2021
432 Clouds 7 1012 47 10000 0.88 168 04:33 11.04.2021
433 Clouds 8 1012 87 10000 1.03 0 01:27 11.04.2021
434 Clouds 8 1012 87 10000 0.51 0 00:32 11.04.2021
435 Clear 9 1012 81 10000 1.03 0 23:46 10.04.2021
436 Clouds 9 1012 76 10000 0.51 0 22:57 10.04.2021
437 Clouds 10 1012 71 10000 1.54 0 22:28 10.04.2021
438 Clouds 10 1012 71 10000 1.54 0 22:28 10.04.2021
439 Clouds 10 1012 71 10000 1.03 0 21:54 10.04.2021
440 Clouds 12 1012 47 10000 1.03 0 21:25 10.04.2021
441 Clouds 12 1012 47 10000 2.57 300 20:57 10.04.2021
442 Clouds 13 1012 47 10000 2.57 300 20:37 10.04.2021
443 Clouds 13 1012 47 10000 2.06 300 20:18 10.04.2021
444 Clouds 14 1012 47 10000 2.06 280 19:42 10.04.2021
445 Clouds 14 1012 47 10000 1.54 280 19:24 10.04.2021
446 Clouds 14 1012 44 10000 3.09 280 18:42 10.04.2021
447 Clouds 14 1012 47 10000 3.09 280 18:23 10.04.2021
448 Clouds 15 1012 44 10000 2.06 310 17:36 10.04.2021
449 Clouds 15 1013 44 10000 3.6 290 16:43 10.04.2021
450 Clouds 15 1013 44 10000 2.57 290 16:24 10.04.2021
451 Clouds 15 1013 44 10000 3.09 290 15:49 10.04.2021
452 Clouds 15 1014 47 10000 1.03 0 14:55 10.04.2021
453 Clouds 14 1014 47 10000 1.03 0 14:37 10.04.2021
454 Clouds 13 1015 54 10000 1.54 0 13:58 10.04.2021
455 Clouds 14 1015 54 10000 1.54 0 13:36 10.04.2021
456 Clouds 12 1016 58 10000 1.54 0 12:43 10.04.2021
457 Clouds 12 1016 58 10000 2.06 290 12:20 10.04.2021
458 Clouds 11 1016 58 10000 1.03 0 11:46 10.04.2021
459 Clouds 11 1016 66 10000 2.06 120 11:23 10.04.2021
460 Clouds 10 1016 76 10000 2.57 140 10:51 10.04.2021
461 Clouds 10 1016 76 10000 4.12 130 10:31 10.04.2021
462 Clouds 9 1017 81 10000 3.09 120 09:45 10.04.2021
463 Clouds 8 1017 87 10000 4.63 120 09:19 10.04.2021
464 Clouds 7 1017 81 10000 1.54 130 08:36 10.04.2021
465 Clouds 7 1017 76 10000 5.14 250 08:18 10.04.2021
466 Drizzle 6 1017 71 10000 4.12 290 07:26 10.04.2021
467 Drizzle 7 1016 66 10000 1.03 0 06:42 10.04.2021
468 Drizzle 7 1016 87 10000 1.54 190 05:36 10.04.2021
469 Clouds 7 1016 81 10000 2.06 90 03:42 10.04.2021
470 Clouds 7 1016 70 10000 1.03 0 02:48 10.04.2021
471 Clouds 7 1016 87 10000 0.51 0 01:28 10.04.2021
472 Clouds 8 1016 76 10000 1.03 0 00:37 10.04.2021
473 Clouds 7 1016 71 10000 1.03 0 23:55 09.04.2021
474 Clouds 7 1016 66 10000 1.03 0 23:30 09.04.2021
475 Clouds 10 1016 53 10000 1.54 0 22:54 09.04.2021
476 Clouds 10 1016 53 10000 1.54 0 22:36 09.04.2021
477 Clouds 12 1016 41 10000 3.6 220 21:41 09.04.2021
478 Clouds 13 1016 41 10000 2.57 0 21:22 09.04.2021
479 Clouds 13 1016 41 10000 4.12 240 20:57 09.04.2021
480 Rain 13 1016 41 10000 4.12 240 20:39 09.04.2021
481 Clouds 14 1016 38 10000 3.6 240 20:20 09.04.2021
482 Clouds 14 1016 35 10000 4.63 260 19:43 09.04.2021
483 Clouds 13 1016 35 10000 4.63 260 19:22 09.04.2021
484 Clouds 15 1016 33 10000 5.14 270 18:43 09.04.2021
485 Clouds 15 1016 33 10000 5.14 270 18:25 09.04.2021
486 Clouds 15 1016 31 10000 4.63 270 17:49 09.04.2021
487 Clouds 16 1016 34 10000 4.63 270 17:30 09.04.2021
488 Clear 16 1016 33 10000 5.14 270 16:48 09.04.2021
489 Clear 16 1016 33 10000 4.63 280 16:29 09.04.2021
490 Clear 15 1017 29 10000 3.6 250 15:47 09.04.2021
491 Clear 15 1017 31 10000 3.09 250 15:24 09.04.2021
492 Clouds 14 1017 35 10000 3.09 310 14:46 09.04.2021
493 Clear 14 1018 35 10000 3.6 230 14:28 09.04.2021
494 Clear 14 1018 35 10000 3.09 280 13:45 09.04.2021
495 Clouds 12 1018 37 10000 2.57 310 13:22 09.04.2021
496 Clouds 11 1019 40 10000 1.54 0 12:47 09.04.2021
497 Clouds 11 1019 40 10000 1.54 0 12:47 09.04.2021
498 Clouds 11 1019 40 10000 1.54 0 12:24 09.04.2021
499 Clouds 9 1020 46 10000 1.03 0 11:43 09.04.2021
500 Clouds 8 1020 49 10000 1.03 0 11:20 09.04.2021
501 Clouds 7 1020 52 10000 1.54 0 10:37 09.04.2021
502 Clouds 6 1020 70 10000 1.54 170 09:59 09.04.2021
503 Clouds 5 1020 69 10000 1.03 110 09:28 09.04.2021
504 Clouds 4 1020 80 10000 1.54 0 08:56 09.04.2021
505 Clouds 3 1020 80 10000 1.54 0 08:33 09.04.2021
506 Clear 1 1020 80 10000 1 192 07:32 09.04.2021
507 Clear 0 1020 86 10000 1.03 150 06:30 09.04.2021
508 Clear 0 1020 86 10000 1.03 150 06:30 09.04.2021
509 Clear 0 1020 86 10000 0.51 0 05:36 09.04.2021
510 Clear 1 1021 74 10000 2.57 90 03:43 09.04.2021
511 Clear 1 1021 69 10000 3.6 110 00:39 09.04.2021
512 Clear 2 1021 69 10000 3.6 120 00:21 09.04.2021
513 Clear 2 1021 69 10000 2.57 100 23:38 08.04.2021
514 Clear 3 1021 69 10000 2.57 100 22:56 08.04.2021
515 Clear 3 1021 69 10000 2.57 100 22:56 08.04.2021
516 Clear 3 1021 65 10000 2.57 120 22:31 08.04.2021
517 Clear 4 1021 65 10000 3.09 110 21:59 08.04.2021
518 Clear 4 1021 65 10000 3.09 110 21:41 08.04.2021
519 Clear 4 1021 60 10000 0.51 0 21:22 08.04.2021
520 Clear 4 1021 60 10000 0.51 0 20:59 08.04.2021
521 Clear 6 1021 56 10000 1.03 0 20:40 08.04.2021
522 Clear 8 1021 43 10000 1.54 190 20:19 08.04.2021
523 Clear 12 1021 30 10000 2.06 190 19:40 08.04.2021
524 Clear 11 1021 28 10000 1.03 0 19:19 08.04.2021
525 Clear 11 1021 28 10000 2.06 250 18:42 08.04.2021
526 Clear 11 1021 28 10000 2.06 250 18:42 08.04.2021
527 Clear 11 1021 26 10000 2.57 0 18:19 08.04.2021
528 Clear 11 1022 28 10000 3.6 290 17:42 08.04.2021
529 Clear 11 1022 28 10000 4.12 290 17:20 08.04.2021
530 Clear 11 1022 30 10000 1.03 0 16:45 08.04.2021
531 Clear 10 1023 29 10000 2.57 310 16:22 08.04.2021
532 Clear 10 1023 29 10000 2.57 320 15:46 08.04.2021
533 Clear 9 1023 29 10000 2.06 160 15:26 08.04.2021
534 Clear 9 1024 34 10000 2.57 0 14:42 08.04.2021
535 Clear 8 1024 36 10000 2.06 150 14:21 08.04.2021
536 Clear 8 1024 36 10000 1.03 0 13:48 08.04.2021
537 Clear 7 1025 39 10000 1.54 0 13:24 08.04.2021
538 Clear 7 1025 39 10000 1.54 0 12:57 08.04.2021
539 Clear 6 1025 42 10000 1.54 0 12:33 08.04.2021
540 Clear 6 1025 42 10000 1.54 0 11:57 08.04.2021
541 Clear 5 1025 56 10000 1.54 140 11:26 08.04.2021
542 Clear 4 1026 52 10000 3.09 130 10:55 08.04.2021
543 Clear 4 1026 60 10000 3.09 110 10:25 08.04.2021
544 Clear 3 1026 64 10000 3.09 110 09:46 08.04.2021
545 Clear 2 1026 64 10000 2.57 120 09:26 08.04.2021
546 Clear -1 1026 80 10000 2.06 130 08:44 08.04.2021
547 Clear -2 1025 80 10000 2.06 150 08:22 08.04.2021
548 Clear -3 1025 80 10000 1.3 165 07:45 08.04.2021
549 Clear -4 1025 86 10000 0.51 280 06:46 08.04.2021
550 Clouds -2 1025 86 10000 2.57 110 01:27 08.04.2021
551 Clouds -1 1025 80 10000 0.51 0 00:32 08.04.2021
552 Clouds -1 1025 64 10000 2.06 150 23:48 07.04.2021
553 Clouds -1 1024 69 10000 1.54 0 23:27 07.04.2021
554 Clouds 0 1024 59 10000 3.09 250 22:58 07.04.2021
555 Clouds 0 1024 59 10000 3.09 250 22:39 07.04.2021
556 Clouds 1 1024 51 10000 2.06 220 22:20 07.04.2021
557 Clouds 2 1024 44 10000 2.57 260 21:34 07.04.2021
558 Clouds 3 1024 38 10000 1.03 0 20:56 07.04.2021
559 Clouds 3 1024 38 10000 1.03 0 20:37 07.04.2021
560 Clouds 3 1024 44 10000 2.57 290 20:18 07.04.2021
561 Clouds 3 1023 41 10000 3.09 270 19:40 07.04.2021
562 Clouds 3 1023 41 10000 3.6 250 19:22 07.04.2021
563 Clouds 3 1023 38 10000 5.14 290 18:42 07.04.2021
564 Clouds 4 1023 38 10000 4.12 270 18:18 07.04.2021
565 Clouds 3 1023 38 10000 4.63 270 17:47 07.04.2021
566 Clouds 4 1023 35 10000 5.66 290 17:28 07.04.2021
567 Clouds 4 1023 35 10000 4.63 290 16:46 07.04.2021
568 Clouds 4 1023 41 10000 4.63 270 16:21 07.04.2021
569 Clouds 4 1023 41 10000 5.14 270 15:53 07.04.2021
570 Clouds 3 1022 41 10000 4.12 290 15:34 07.04.2021
571 Clouds 3 1022 41 10000 2.57 260 14:47 07.04.2021
572 Clouds 3 1022 44 10000 3.6 260 14:24 07.04.2021
573 Clouds 3 1022 41 10000 1.03 0 13:45 07.04.2021
574 Clouds 2 1022 48 10000 4.12 240 13:20 07.04.2021
575 Clouds 2 1022 55 10000 3.09 220 12:46 07.04.2021
576 Snow 1 1022 55 10000 4.63 270 12:19 07.04.2021
577 Clouds 1 1021 55 10000 4.12 280 11:45 07.04.2021
578 Clouds 1 1021 55 10000 4.63 250 11:24 07.04.2021
579 Clouds 0 1021 59 10000 3.09 250 10:50 07.04.2021
580 Snow -1 1020 59 10000 4.12 250 09:51 07.04.2021
581 Clouds -1 1020 69 10000 3.6 260 09:28 07.04.2021
582 Clouds -2 1019 69 10000 3.6 290 08:53 07.04.2021
583 Clouds -2 1019 69 10000 3.6 290 08:33 07.04.2021
584 Snow -3 1018 74 10000 4.12 280 07:54 07.04.2021
585 Snow -3 1017 69 10000 3.09 270 07:29 07.04.2021
586 Clouds -3 1017 74 10000 3.09 280 06:44 07.04.2021
587 Snow -2 1016 80 10000 2.57 290 06:18 07.04.2021
588 Snow -2 1014 93 2600 4.12 290 03:32 07.04.2021
589 Clouds 0 1014 69 10000 0.51 0 23:52 06.04.2021
590 Clouds 0 1014 74 10000 1.03 0 23:23 06.04.2021
591 Clouds 0 1014 64 10000 1.03 0 22:59 06.04.2021
592 Snow 0 1014 55 10000 3.09 360 22:22 06.04.2021
593 Snow 0 1014 55 10000 3.09 290 21:57 06.04.2021
594 Snow 0 1014 55 10000 3.09 290 21:38 06.04.2021
595 Snow 0 1014 64 10000 1.54 280 21:20 06.04.2021
596 Snow 1 1013 55 10000 3.09 320 20:50 06.04.2021
597 Snow 1 1013 55 10000 5.66 320 20:21 06.04.2021
598 Snow 1 1013 55 10000 5.14 260 19:49 06.04.2021
599 Snow 1 1012 64 10000 5.66 330 19:30 06.04.2021
600 Clouds 2 1012 45 10000 4.12 270 18:47 06.04.2021
601 Clouds 3 1012 45 10000 4.63 260 18:24 06.04.2021
602 Clouds 3 1012 52 10000 3.09 300 17:51 06.04.2021
603 Clouds 4 1012 48 10000 4.12 290 17:29 06.04.2021
604 Clouds 3 1013 44 10000 2.57 270 16:55 06.04.2021
605 Clouds 3 1013 48 10000 3.09 320 16:37 06.04.2021
606 Clouds 4 1014 44 10000 2.57 290 15:31 06.04.2021
607 Clouds 4 1014 45 10000 3.6 260 14:58 06.04.2021
608 Clouds 3 1014 45 10000 3.6 260 14:39 06.04.2021
609 Clouds 3 1014 45 10000 3.09 340 14:18 06.04.2021
610 Clouds 3 1014 48 10000 1.54 0 13:41 06.04.2021
611 Clouds 3 1015 48 10000 2.57 300 13:23 06.04.2021
612 Clouds 2 1015 48 10000 2.57 350 12:41 06.04.2021
613 Clouds 2 1015 48 10000 2.06 0 12:22 06.04.2021
614 Clouds 2 1015 48 10000 1.54 0 11:49 06.04.2021
615 Clouds 1 1015 60 10000 2.06 170 11:21 06.04.2021
616 Clouds 0 1015 59 10000 1.1 18 10:47 06.04.2021
617 Clouds 0 1015 69 10000 2.06 70 10:27 06.04.2021
618 Clear 0 1015 69 10000 0.51 0 09:49 06.04.2021
619 Clear -1 1015 74 10000 1.03 0 09:30 06.04.2021
620 Clear -1 1015 80 10000 1.03 0 08:43 06.04.2021
621 Clear -2 1015 93 10000 0.67 115 08:18 06.04.2021
622 Clouds -2 1014 93 10000 0.51 0 06:55 06.04.2021
623 Clouds -1 1015 86 10000 0.51 0 05:40 06.04.2021
624 Snow -1 1015 74 9000 0.51 0 02:57 06.04.2021
625 Snow 1 1014 86 5000 2.06 0 00:44 06.04.2021
626 Snow 2 1013 80 10000 2.57 0 00:21 06.04.2021
627 Snow 3 1012 80 10000 4.12 10 23:43 05.04.2021
628 Rain 4 1011 81 10000 4.63 340 23:19 05.04.2021
629 Clouds 4 1011 76 10000 4.63 290 22:48 05.04.2021
630 Clouds 6 1011 87 10000 3.09 260 22:26 05.04.2021
631 Rain 6 1010 87 10000 3.09 270 21:44 05.04.2021
632 Rain 7 1010 71 10000 5.66 300 21:21 05.04.2021
633 Rain 9 1009 62 10000 7.72 310 20:43 05.04.2021
634 Rain 8 1011 47 10000 4.47 295 20:25 05.04.2021
635 Rain 12 1008 40 10000 5.66 280 19:43 05.04.2021
636 Rain 12 1008 38 10000 6.69 280 19:22 05.04.2021
637 Rain 12 1009 33 10000 8.75 290 18:49 05.04.2021
638 Clouds 13 1009 33 10000 8.75 290 18:31 05.04.2021
639 Clouds 13 1009 33 10000 5.14 260 17:59 05.04.2021
640 Clouds 14 1009 33 10000 5.14 260 17:41 05.04.2021
641 Clear 14 1009 33 10000 6.69 270 17:19 05.04.2021
642 Clear 14 1009 33 10000 7.72 260 16:42 05.04.2021
643 Clear 14 1010 31 10000 7.72 280 16:20 05.04.2021
644 Clear 14 1010 29 10000 7.72 270 15:52 05.04.2021
645 Clear 15 1010 31 10000 7.2 270 15:27 05.04.2021
646 Clear 15 1010 31 10000 6.17 260 14:47 05.04.2021
647 Clear 14 1011 33 10000 6.69 260 14:27 05.04.2021
648 Clear 14 1012 33 10000 4.63 280 13:31 05.04.2021
649 Clear 13 1012 33 10000 5.66 280 12:48 05.04.2021
650 Clear 13 1012 35 10000 6.17 270 12:26 05.04.2021
651 Clear 12 1013 40 10000 4.12 0 11:54 05.04.2021
652 Clear 12 1013 40 10000 4.12 0 11:33 05.04.2021
653 Clear 9 1014 61 10000 1.03 0 10:59 05.04.2021
654 Clear 10 1014 61 10000 1.03 0 10:40 05.04.2021
655 Clear 8 1014 70 10000 2.06 110 10:19 05.04.2021
656 Clear 6 1015 87 10000 1.54 0 09:45 05.04.2021
657 Clouds 6 1016 55 10000 0.89 197 09:22 05.04.2021
658 Clear 3 1015 93 10000 1.97 236 08:40 05.04.2021
659 Clear 2 1015 100 10000 1.81 199 08:20 05.04.2021
660 Clear 1 1015 100 10000 0.51 0 07:35 05.04.2021
661 Clear 1 1016 86 10000 1.03 0 04:23 05.04.2021
662 Clear 2 1019 39 10000 1.13 175 01:35 05.04.2021
663 Clear 3 1019 100 10000 1.2 147 00:29 05.04.2021
664 Clear 3 1018 80 10000 1.03 100 23:43 04.04.2021
665 Clear 3 1018 80 10000 0.51 0 23:20 04.04.2021
666 Clear 4 1018 75 10000 0.51 0 22:50 04.04.2021
667 Clear 4 1018 60 10000 0.51 0 22:28 04.04.2021
668 Clear 7 1017 42 10000 1.54 220 21:25 04.04.2021
669 Clear 9 1017 34 10000 1.03 0 20:56 04.04.2021
670 Clear 10 1017 32 10000 2.06 50 20:29 04.04.2021
671 Clear 11 1017 32 10000 2.57 40 19:44 04.04.2021
672 Clear 11 1017 30 10000 2.06 30 19:23 04.04.2021
673 Clear 12 1017 30 10000 3.09 40 18:59 04.04.2021
674 Clear 12 1017 30 10000 3.09 40 18:40 04.04.2021
675 Clear 12 1017 30 10000 3.09 40 18:40 04.04.2021
676 Clear 12 1017 30 10000 3.6 50 18:20 04.04.2021
677 Clear 13 1018 33 10000 4.63 50 17:41 04.04.2021
678 Clear 13 1018 33 10000 4.63 50 17:41 04.04.2021
679 Clear 13 1018 35 10000 3.09 40 17:22 04.04.2021
680 Clear 12 1018 33 10000 4.12 30 16:42 04.04.2021
681 Clear 12 1018 35 10000 4.12 40 16:18 04.04.2021
682 Clear 12 1018 35 10000 4.12 10 15:34 04.04.2021
683 Clear 11 1019 35 10000 5.14 60 14:46 04.04.2021
684 Clear 11 1019 37 10000 3.09 20 14:27 04.04.2021
685 Clear 10 1019 35 10000 3.09 20 13:47 04.04.2021
686 Clear 10 1019 35 10000 3.09 0 13:23 04.04.2021
687 Clear 9 1019 43 10000 4.12 30 12:41 04.04.2021
688 Clear 9 1020 43 10000 3.09 40 12:23 04.04.2021
689 Clear 8 1020 49 10000 1.54 0 11:42 04.04.2021
690 Clear 7 1021 100 10000 3.13 120 11:23 04.04.2021
691 Clear 6 1020 56 10000 1.54 0 10:43 04.04.2021
692 Clear 5 1020 70 10000 1.54 150 09:54 04.04.2021
693 Clear 3 1021 75 10000 1.54 150 09:25 04.04.2021
694 Clear 3 1021 59 10000 3.58 42 08:53 04.04.2021
695 Clear 2 1021 59 10000 2.24 65 08:35 04.04.2021
696 Clear 1 1021 61 10000 1.79 53 07:54 04.04.2021
697 Clear 1 1021 59 10000 1.79 78 06:37 04.04.2021
698 Clear 0 1020 93 10000 0.51 0 05:33 04.04.2021
699 Clear 3 1020 64 10000 0.51 0 01:29 04.04.2021
700 Clear 3 1020 60 10000 1.54 0 00:20 04.04.2021
701 Clear 4 1020 52 10000 3.09 50 23:48 03.04.2021
702 Clear 4 1021 52 10000 2.57 0 23:29 03.04.2021
703 Clear 4 1021 49 10000 1.54 0 22:52 03.04.2021
704 Clear 5 1021 49 10000 1.54 0 22:22 03.04.2021
705 Clear 5 1021 49 10000 1.54 0 21:52 03.04.2021
706 Clear 5 1020 49 10000 2.57 10 21:25 03.04.2021
707 Clear 6 1020 45 10000 2.57 0 20:51 03.04.2021
708 Clear 6 1020 49 10000 3.6 50 20:28 03.04.2021
709 Clouds 6 1019 46 10000 3.6 50 19:51 03.04.2021
710 Clouds 8 1019 46 10000 3.6 50 19:27 03.04.2021
711 Clouds 8 1019 49 10000 4.63 50 18:53 03.04.2021
712 Clouds 8 1019 49 10000 4.63 50 18:34 03.04.2021
713 Clouds 9 1019 49 10000 4.12 50 17:55 03.04.2021
714 Clouds 9 1019 46 10000 4.63 50 17:26 03.04.2021
715 Clouds 9 1019 49 10000 4.12 0 16:54 03.04.2021
716 Clouds 9 1020 50 10000 5.14 30 16:25 03.04.2021
717 Clouds 9 1020 49 10000 5.14 60 15:52 03.04.2021
718 Clouds 9 1020 53 10000 3.6 30 15:31 03.04.2021
719 Clouds 9 1020 49 10000 5.66 50 14:49 03.04.2021
720 Clouds 8 1020 53 10000 3.6 0 14:25 03.04.2021
721 Clouds 8 1020 57 10000 4.12 50 13:55 03.04.2021
722 Clouds 8 1020 57 10000 4.12 50 13:35 03.04.2021
723 Clouds 7 1019 70 10000 3.09 40 12:59 03.04.2021
724 Clouds 6 1019 70 10000 3.09 40 12:33 03.04.2021
725 Clouds 6 1019 65 10000 4.12 40 11:44 03.04.2021
726 Clouds 5 1019 70 10000 2.57 0 11:26 03.04.2021
727 Clouds 5 1019 70 10000 2.57 20 10:45 03.04.2021
728 Clouds 5 1019 70 10000 3.09 10 10:26 03.04.2021
729 Clouds 4 1019 75 10000 2.06 50 09:39 03.04.2021
730 Clouds 4 1019 70 10000 2.57 30 09:21 03.04.2021
731 Clouds 4 1019 75 10000 2.57 350 08:35 03.04.2021
732 Clear 3 1018 75 10000 2.06 10 07:40 03.04.2021
733 Clear 3 1018 75 10000 2.06 10 07:40 03.04.2021
734 Clear 3 1018 75 10000 1.54 10 07:22 03.04.2021
735 Clear 6 1017 65 10000 1.54 0 04:24 03.04.2021
736 Clear 7 1018 57 10000 1.03 0 02:56 03.04.2021
737 Clear 7 1018 57 10000 1.03 0 02:31 03.04.2021
738 Clouds 8 1018 46 10000 1.03 0 00:45 03.04.2021
739 Clouds 9 1018 43 10000 1.54 0 00:18 03.04.2021
740 Clouds 9 1018 40 10000 1.03 0 23:44 02.04.2021
741 Clouds 9 1018 40 10000 1.03 0 23:44 02.04.2021
742 Clouds 10 1018 46 10000 1.03 0 23:18 02.04.2021
743 Clouds 11 1018 43 10000 1.03 0 22:44 02.04.2021
744 Clouds 11 1017 47 10000 1.03 0 22:25 02.04.2021
745 Clear 13 1017 50 10000 2.06 270 21:41 02.04.2021
746 Clear 12 1016 54 10000 1.03 0 21:19 02.04.2021
747 Clear 13 1016 54 10000 1.03 0 20:43 02.04.2021
748 Clear 15 1015 47 10000 2.57 40 20:21 02.04.2021
749 Clear 16 1015 48 10000 2.57 60 19:42 02.04.2021
750 Clouds 16 1015 48 10000 3.09 10 19:23 02.04.2021
751 Clouds 18 1015 45 10000 6.17 320 18:48 02.04.2021
752 Clouds 18 1014 42 10000 4.12 340 18:30 02.04.2021
753 Clouds 18 1014 42 10000 4.12 340 17:56 02.04.2021
754 Clouds 19 1014 40 10000 3.09 330 17:30 02.04.2021
755 Clouds 20 1014 42 10000 2.57 320 16:37 02.04.2021
756 Clouds 20 1015 32 10000 3.6 320 15:47 02.04.2021
757 Clouds 20 1015 37 10000 2.06 330 15:25 02.04.2021
758 Clear 19 1015 37 10000 1.03 0 14:33 02.04.2021
759 Clear 18 1016 42 10000 2.06 330 13:50 02.04.2021
760 Clear 18 1016 48 10000 2.06 330 13:28 02.04.2021
761 Clear 17 1017 48 10000 1.03 0 12:59 02.04.2021
762 Clear 16 1017 51 10000 1.9 19 12:37 02.04.2021
763 Clear 16 1017 51 10000 1.91 19 12:19 02.04.2021
764 Clear 16 1017 55 10000 1.91 19 11:44 02.04.2021
765 Clear 15 1017 67 10000 0.51 0 11:19 02.04.2021
766 Clear 14 1018 62 10000 0.51 0 10:42 02.04.2021
767 Clear 13 1018 71 10000 1.03 0 10:23 02.04.2021
768 Clear 12 1018 76 10000 1.39 47 09:46 02.04.2021
769 Clouds 11 1019 59 10000 1.15 60 09:24 02.04.2021
770 Clear 9 1018 93 10000 1.15 60 08:46 02.04.2021
771 Clear 8 1018 100 10000 0.51 0 08:26 02.04.2021
772 Clear 7 1018 100 10000 0.51 0 07:20 02.04.2021
773 Clear 8 1017 100 10000 0.51 0 06:34 02.04.2021
774 Clear 8 1018 93 10000 0.51 0 03:40 02.04.2021
775 Clear 10 1018 87 10000 1.03 0 01:40 02.04.2021
776 Clear 10 1019 87 10000 2.06 160 00:43 02.04.2021
777 Clear 12 1018 71 10000 2.06 0 23:47 01.04.2021
778 Clouds 12 1019 40 10000 1.26 132 23:27 01.04.2021
779 Clear 12 1018 76 10000 2.06 120 22:41 01.04.2021
780 Clear 13 1018 71 10000 1.03 0 22:18 01.04.2021
781 Clear 13 1018 66 10000 1.54 0 21:42 01.04.2021
782 Clear 14 1017 66 10000 1.03 0 21:22 01.04.2021
783 Clear 15 1017 55 10000 1.54 180 20:41 01.04.2021
784 Clear 17 1017 45 10000 1.54 260 20:21 01.04.2021
785 Clouds 21 1017 34 10000 1.54 0 19:41 01.04.2021
786 Clouds 20 1017 32 10000 1.54 340 19:20 01.04.2021
787 Clouds 22 1017 28 10000 1.03 0 18:44 01.04.2021
788 Clouds 22 1017 33 10000 1.54 330 18:18 01.04.2021
789 Clouds 22 1017 29 10000 1.03 0 17:41 01.04.2021
790 Clouds 22 1017 33 10000 2.06 150 17:23 01.04.2021
791 Clouds 23 1018 29 10000 1.03 0 16:48 01.04.2021
792 Clear 22 1018 35 10000 1.54 310 16:18 01.04.2021
793 Clear 22 1018 35 10000 2.57 300 15:40 01.04.2021
794 Clouds 22 1019 35 10000 1.54 0 15:19 01.04.2021
795 Clouds 21 1019 37 10000 2.06 270 14:39 01.04.2021
796 Clouds 21 1019 37 10000 2.06 270 14:39 01.04.2021
797 Clear 20 1019 37 10000 2.06 300 14:20 01.04.2021
798 Clear 20 1020 37 10000 1.03 0 13:49 01.04.2021
799 Clear 20 1020 40 10000 1.03 0 13:29 01.04.2021
800 Clear 19 1020 45 10000 0.51 0 12:47 01.04.2021
801 Clear 18 1021 45 10000 1.54 0 12:29 01.04.2021
802 Clear 17 1021 45 10000 2.06 120 11:45 01.04.2021
803 Clear 16 1022 51 10000 2.06 120 11:24 01.04.2021
804 Clear 16 1022 58 10000 2.06 130 10:53 01.04.2021
805 Clear 15 1022 62 10000 2.57 130 10:31 01.04.2021
806 Clear 14 1022 71 10000 2.06 0 09:52 01.04.2021
807 Clear 12 1022 81 10000 0.51 0 09:23 01.04.2021
808 Clear 10 1022 93 10000 0.51 0 08:33 01.04.2021
809 Clear 8 1022 93 10000 2.06 0 07:24 01.04.2021
810 Clear 9 1022 93 10000 1.03 0 06:59 01.04.2021
811 Clear 9 1022 93 10000 0.51 0 06:31 01.04.2021
812 Clear 9 1022 87 10000 1.03 0 03:28 01.04.2021
813 Clear 10 1022 81 10000 1.54 0 00:38 01.04.2021
814 Clear 11 1022 76 10000 0.51 0 23:44 31.03.2021
815 Clear 11 1022 76 10000 0.51 0 23:44 31.03.2021
816 Clear 12 1022 76 10000 3.09 90 22:59 31.03.2021
817 Clear 12 1022 76 10000 3.09 90 22:40 31.03.2021
818 Clear 12 1022 66 10000 2.57 110 22:20 31.03.2021
819 Clear 13 1022 71 10000 2.06 130 21:44 31.03.2021
820 Clear 13 1021 66 10000 0.51 0 21:20 31.03.2021
821 Clear 15 1021 55 10000 0.51 0 20:43 31.03.2021
822 Clear 16 1021 39 10000 0.51 0 20:23 31.03.2021
823 Clear 19 1021 34 10000 1.03 260 19:55 31.03.2021
824 Clear 20 1021 34 10000 1.03 260 19:36 31.03.2021
825 Clear 20 1021 28 10000 2.06 300 19:18 31.03.2021
826 Clear 22 1021 25 10000 1.54 280 18:41 31.03.2021
827 Clear 22 1022 29 10000 1.54 310 17:53 31.03.2021
828 Clear 22 1022 29 10000 1.54 310 17:34 31.03.2021
829 Clear 22 1023 29 10000 2.57 270 16:57 31.03.2021
830 Clear 22 1023 29 10000 2.57 270 16:37 31.03.2021
831 Clear 22 1023 28 10000 1.54 0 16:19 31.03.2021
832 Clear 22 1023 30 10000 1.54 300 15:48 31.03.2021
833 Clear 22 1024 28 10000 2.06 270 15:19 31.03.2021
834 Clear 21 1024 28 10000 2.06 280 14:42 31.03.2021
835 Clear 21 1025 35 10000 1.54 0 14:20 31.03.2021
836 Clear 21 1025 35 10000 1.54 0 14:20 31.03.2021
837 Clear 20 1025 40 10000 1.03 0 13:40 31.03.2021
838 Clear 18 1026 48 10000 1.03 0 12:42 31.03.2021
839 Clear 17 1026 45 10000 1.03 0 12:20 31.03.2021
840 Clear 17 1026 48 10000 1.54 0 11:41 31.03.2021
841 Clear 15 1027 51 10000 2.57 150 11:20 31.03.2021
842 Clear 15 1027 66 10000 0.51 0 10:46 31.03.2021
843 Clear 14 1027 62 10000 1.03 0 10:24 31.03.2021
844 Clear 11 1027 87 10000 1.03 290 09:38 31.03.2021
845 Clear 9 1027 93 10000 1.03 0 08:54 31.03.2021
846 Clear 9 1027 93 10000 1.03 0 08:33 31.03.2021
847 Clear 8 1027 93 10000 1.03 0 07:49 31.03.2021
848 Clear 8 1027 100 10000 0.51 0 06:38 31.03.2021
849 Clear 7 1027 100 10000 0.51 0 03:46 31.03.2021
850 Clear 8 1028 100 10000 1.03 0 01:38 31.03.2021
851 Clear 9 1028 100 10000 0.51 0 00:48 31.03.2021
852 Clear 9 1028 100 10000 0.51 0 00:19 31.03.2021
853 Clear 10 1028 44 10000 1.21 157 23:33 30.03.2021
854 Clear 10 1028 87 10000 1.03 0 22:58 30.03.2021
855 Clear 11 1028 87 10000 1.03 0 22:39 30.03.2021
856 Clear 11 1028 76 10000 0.51 0 22:21 30.03.2021
857 Clear 11 1028 76 10000 1.54 130 21:46 30.03.2021
858 Clear 12 1027 66 10000 1.03 0 21:19 30.03.2021
859 Clear 13 1027 62 10000 1.03 0 20:51 30.03.2021
860 Clear 15 1027 51 10000 1.03 0 20:28 30.03.2021
861 Clear 17 1027 42 10000 2.57 320 19:50 30.03.2021
862 Clear 19 1027 35 10000 2.06 330 19:27 30.03.2021
863 Clear 21 1028 30 10000 2.06 300 18:38 30.03.2021
864 Clear 20 1028 28 10000 2.57 320 17:52 30.03.2021
865 Clear 21 1028 28 10000 2.57 300 17:34 30.03.2021
866 Clear 21 1029 30 10000 2.06 280 16:48 30.03.2021
867 Clear 21 1029 32 10000 2.06 310 16:29 30.03.2021
868 Clear 20 1029 30 10000 1.54 0 15:43 30.03.2021
869 Clear 20 1030 34 10000 1.54 330 15:20 30.03.2021
870 Clear 19 1030 32 10000 1.54 280 14:55 30.03.2021
871 Clear 19 1030 37 10000 1.03 0 14:22 30.03.2021
872 Clear 18 1031 36 10000 1.03 0 13:57 30.03.2021
873 Clear 18 1031 36 10000 1.03 0 13:36 30.03.2021
874 Clear 16 1031 44 10000 1.03 0 12:45 30.03.2021
875 Clear 16 1032 47 10000 0.51 0 12:27 30.03.2021
876 Clear 16 1032 44 10000 0.51 0 11:52 30.03.2021
877 Clear 14 1032 54 10000 1.03 0 11:22 30.03.2021
878 Clear 13 1032 58 10000 1.54 0 10:43 30.03.2021
879 Clear 12 1032 66 10000 1.03 0 10:20 30.03.2021
880 Clear 10 1032 76 10000 1.03 0 09:43 30.03.2021
881 Clear 9 1032 76 10000 1.03 0 09:25 30.03.2021
882 Clear 7 1033 87 10000 1.03 0 08:54 30.03.2021
883 Clear 7 1033 87 10000 1.03 0 08:36 30.03.2021
884 Clear 6 1032 100 10000 0.51 0 07:51 30.03.2021
885 Clear 5 1032 100 10000 0.51 0 07:22 30.03.2021
886 Clear 5 1032 100 10000 1.08 160 05:25 30.03.2021
887 Clear 5 1032 100 10000 0.51 0 04:57 30.03.2021
888 Clear 7 1032 93 10000 0.51 0 00:30 30.03.2021
889 Clear 8 1032 81 10000 0.51 310 23:33 29.03.2021
890 Clear 9 1032 76 10000 0.51 0 22:45 29.03.2021
891 Clear 9 1032 66 10000 2.06 90 22:25 29.03.2021
892 Clear 10 1032 71 10000 1.54 100 21:43 29.03.2021
893 Clear 11 1031 62 10000 1.03 0 21:23 29.03.2021
894 Clear 12 1031 50 10000 0.51 0 20:47 29.03.2021
895 Clear 15 1031 36 10000 1.03 0 20:26 29.03.2021
896 Clear 18 1031 36 10000 1.54 0 19:48 29.03.2021
897 Clear 18 1031 30 10000 3.09 310 19:22 29.03.2021
898 Clear 20 1031 34 10000 2.57 320 18:42 29.03.2021
899 Clear 19 1031 28 10000 3.09 300 18:23 29.03.2021
900 Clear 19 1031 28 10000 2.06 300 17:45 29.03.2021
901 Clear 19 1031 26 10000 2.06 300 17:18 29.03.2021
902 Clear 19 1032 26 10000 2.57 310 16:37 29.03.2021
903 Clear 19 1032 30 10000 2.06 350 16:18 29.03.2021
904 Clear 18 1032 30 10000 2.06 260 15:35 29.03.2021
905 Clear 18 1033 34 10000 2.57 330 14:57 29.03.2021
906 Clear 17 1033 34 10000 2.57 330 14:36 29.03.2021
907 Clear 16 1033 33 10000 1.54 0 13:53 29.03.2021
908 Clear 15 1033 36 10000 2.06 0 13:30 29.03.2021
909 Clear 15 1034 47 10000 1.03 0 12:51 29.03.2021
910 Clear 14 1034 47 10000 1.03 0 12:30 29.03.2021
911 Clear 12 1034 50 10000 1.03 0 11:41 29.03.2021
912 Clear 12 1034 54 10000 1.03 0 11:22 29.03.2021
913 Clear 11 1034 66 10000 2.06 140 10:40 29.03.2021
914 Clear 9 1034 75 10000 1.54 0 09:56 29.03.2021
915 Clear 5 1034 100 10000 1.03 120 08:59 29.03.2021
916 Clear 2 1033 100 10000 1.03 100 08:29 29.03.2021
917 Clear 2 1033 100 10000 1.25 176 07:51 29.03.2021
918 Clear 2 1033 100 10000 0.51 0 06:42 29.03.2021
919 Clear 3 1033 100 10000 0.51 0 05:18 29.03.2021
920 Clear 4 1033 93 10000 0.51 0 02:22 29.03.2021
921 Clear 5 1032 87 10000 1.03 0 00:26 29.03.2021
922 Clear 5 1032 87 10000 1.03 0 23:53 28.03.2021
923 Clear 5 1032 87 10000 1.03 0 23:24 28.03.2021
924 Clear 6 1032 81 10000 1.54 130 22:42 28.03.2021
925 Clear 6 1031 81 10000 2.06 100 22:24 28.03.2021
926 Clear 7 1031 81 10000 0.51 0 21:45 28.03.2021
927 Clear 8 1031 81 10000 1.03 0 21:24 28.03.2021
928 Clear 9 1030 66 10000 0.51 0 20:51 28.03.2021
929 Clear 9 1030 66 10000 0.51 0 20:33 28.03.2021
930 Clear 13 1030 38 10000 1.03 200 19:55 28.03.2021
931 Clear 14 1030 38 10000 1.03 200 19:37 28.03.2021
932 Clear 14 1030 33 10000 1.03 0 19:18 28.03.2021
933 Clear 15 1030 31 10000 2.06 290 18:36 28.03.2021
934 Clear 15 1030 33 10000 3.09 270 17:59 28.03.2021
935 Clear 15 1030 33 10000 2.57 300 17:36 28.03.2021
936 Clear 15 1030 38 10000 2.06 310 16:55 28.03.2021
937 Clear 14 1030 38 10000 3.09 310 16:27 28.03.2021
938 Clear 13 1030 41 10000 3.09 300 15:50 28.03.2021
939 Clear 13 1030 44 10000 1.54 0 15:24 28.03.2021
940 Clear 12 1031 50 10000 1.03 0 14:40 28.03.2021
941 Clear 12 1031 50 10000 1.54 0 14:18 28.03.2021
942 Clear 11 1031 50 10000 1.03 0 13:35 28.03.2021
943 Clear 10 1032 57 10000 1.03 250 12:56 28.03.2021
944 Clear 9 1032 57 10000 1.03 250 12:34 28.03.2021
945 Clouds 9 1032 61 10000 1.03 0 11:52 28.03.2021
946 Clouds 8 1032 61 10000 1.03 0 11:32 28.03.2021
947 Clear 6 1032 70 10000 1.03 260 10:48 28.03.2021
948 Clear 6 1031 81 10000 1.03 160 10:29 28.03.2021
949 Clear 5 1031 81 10000 1.03 0 09:51 28.03.2021
950 Clear 3 1031 93 10000 1.54 0 09:28 28.03.2021
951 Clear 1 1031 100 10000 1.03 0 08:49 28.03.2021
952 Clear 0 1031 100 10000 1.54 140 08:30 28.03.2021
953 Clear -1 1030 100 10000 1.03 140 07:39 28.03.2021
954 Clear -1 1029 100 10000 0.51 0 06:20 28.03.2021
955 Clear 1 1030 100 10000 2.06 100 03:28 28.03.2021
956 Clear 2 1031 93 10000 0.51 0 00:36 28.03.2021
957 Clear 2 1031 100 10000 0.51 0 23:53 27.03.2021
958 Clear 2 1031 100 10000 0.51 0 23:34 27.03.2021
959 Clear 2 1030 93 10000 0.51 0 22:40 27.03.2021
960 Clear 3 1030 93 10000 0.51 0 22:21 27.03.2021
961 Clear 3 1030 80 10000 1.03 0 21:42 27.03.2021
962 Clear 4 1030 70 10000 1.03 0 21:21 27.03.2021
963 Clear 4 1029 81 10000 0.51 0 20:56 27.03.2021
964 Clear 4 1029 81 10000 0.51 0 20:37 27.03.2021
965 Clear 6 1029 53 10000 1.54 310 19:56 27.03.2021
966 Clear 7 1029 53 10000 1.54 310 19:37 27.03.2021
967 Clear 7 1029 49 10000 2.57 290 19:18 27.03.2021
968 Clear 8 1028 43 10000 3.6 290 18:41 27.03.2021
969 Clear 9 1028 43 10000 4.12 290 18:20 27.03.2021
970 Clear 10 1028 43 10000 5.14 290 17:29 27.03.2021
971 Clouds 10 1028 43 10000 3.6 260 16:58 27.03.2021
972 Clouds 10 1028 43 10000 3.6 260 16:38 27.03.2021
973 Clouds 10 1027 43 10000 4.12 300 16:20 27.03.2021
974 Clouds 10 1027 43 10000 4.63 280 15:39 27.03.2021
975 Clouds 10 1027 46 10000 3.6 260 14:55 27.03.2021
976 Clouds 9 1028 46 10000 4.63 260 14:24 27.03.2021
977 Clouds 9 1027 53 10000 4.63 290 13:39 27.03.2021
978 Clouds 9 1027 53 10000 3.6 280 13:19 27.03.2021
979 Clouds 8 1027 53 10000 5.14 300 12:41 27.03.2021
980 Clouds 8 1027 53 10000 4.12 300 11:49 27.03.2021
981 Clouds 8 1027 57 10000 4.12 260 11:31 27.03.2021
982 Clouds 7 1027 66 10000 4.12 270 10:49 27.03.2021
983 Clouds 7 1027 76 10000 1.03 0 10:30 27.03.2021
984 Clouds 7 1026 76 10000 1.03 310 09:47 27.03.2021
985 Clouds 6 1026 87 10000 0.51 0 09:20 27.03.2021
986 Clouds 5 1026 93 10000 1.54 80 08:39 27.03.2021
987 Clouds 5 1025 87 8000 3.09 300 07:49 27.03.2021
988 Clouds 6 1024 87 10000 5.66 300 06:59 27.03.2021
989 Clouds 6 1024 87 10000 5.66 300 06:39 27.03.2021
990 Rain 7 1022 87 10000 4.12 250 04:42 27.03.2021
991 Rain 8 1021 87 4400 4.63 230 02:19 27.03.2021
992 Rain 11 1019 62 10000 3.09 240 00:33 27.03.2021
993 Rain 10 1019 54 10000 2.57 200 23:59 26.03.2021
994 Clouds 10 1019 54 10000 2.57 200 23:25 26.03.2021
995 Clouds 11 1019 47 10000 2.06 220 22:39 26.03.2021
996 Clouds 11 1019 47 10000 4.12 160 21:45 26.03.2021
997 Clouds 11 1018 54 10000 2.06 120 21:23 26.03.2021
998 Clouds 10 1018 62 10000 1.03 0 20:55 26.03.2021
999 Clouds 11 1018 44 10000 1.54 0 20:31 26.03.2021
1000 Clouds 12 1018 44 10000 1.54 0 19:52 26.03.2021
1001 Clouds 12 1018 44 10000 1.54 0 19:33 26.03.2021
1002 Clouds 15 1018 41 10000 1.03 0 18:51 26.03.2021
1003 Clear 15 1018 41 10000 1.54 290 18:31 26.03.2021
1004 Clear 16 1018 41 10000 1.54 290 17:57 26.03.2021
1005 Clear 15 1018 41 10000 0.51 0 17:35 26.03.2021
1006 Clear 15 1018 36 10000 1.54 360 16:49 26.03.2021
1007 Clear 16 1018 41 10000 2.06 360 16:22 26.03.2021
1008 Clouds 15 1018 39 10000 3.09 320 15:36 26.03.2021
1009 Clear 15 1019 41 10000 1.54 330 14:45 26.03.2021
1010 Clear 15 1020 44 10000 1.54 0 13:52 26.03.2021
1011 Clear 14 1020 41 10000 1.54 0 13:26 26.03.2021
1012 Clear 13 1020 50 10000 1.03 0 12:40 26.03.2021
1013 Clear 12 1021 54 10000 1.03 320 11:49 26.03.2021
1014 Clear 11 1021 58 10000 1.03 220 11:31 26.03.2021
1015 Clear 11 1021 58 10000 1.03 220 11:31 26.03.2021
1016 Clear 11 1022 58 10000 1.03 0 10:44 26.03.2021
1017 Clear 9 1022 66 10000 1.54 80 10:23 26.03.2021
1018 Clear 9 1022 71 10000 2.57 100 09:41 26.03.2021
1019 Clear 7 1022 87 10000 2.06 140 08:49 26.03.2021
1020 Clear 5 1022 100 10000 0.77 239 08:31 26.03.2021
1021 Clear 5 1023 65 10000 0.45 150 07:57 26.03.2021
1022 Clouds 2 1022 100 8000 0.51 0 07:22 26.03.2021
1023 Clouds 2 1022 100 8000 0.51 0 06:56 26.03.2021
1024 Clear 2 1021 100 10000 1.03 300 05:32 26.03.2021
1025 Clear 3 1022 100 10000 1.54 140 04:23 26.03.2021
1026 Clear 5 1023 100 10000 0.51 0 01:18 26.03.2021
1027 Clear 5 1023 93 10000 0.51 0 00:18 26.03.2021
1028 Clouds 6 1023 48 10000 0.79 150 23:42 25.03.2021
1029 Clear 6 1023 93 10000 0.51 0 22:41 25.03.2021
1030 Clouds 6 1023 87 10000 1.03 0 22:20 25.03.2021
1031 Clouds 7 1022 87 10000 0.51 0 21:48 25.03.2021
1032 Clouds 8 1022 81 10000 1.03 0 21:29 25.03.2021
1033 Clouds 9 1022 71 10000 0.51 0 20:41 25.03.2021
1034 Clouds 9 1021 66 10000 0.51 0 20:23 25.03.2021
1035 Clouds 11 1021 54 10000 0.51 0 19:43 25.03.2021
1036 Clouds 12 1021 54 10000 1.54 240 19:24 25.03.2021
1037 Clouds 13 1021 47 10000 1.54 260 18:46 25.03.2021
1038 Clouds 14 1020 44 10000 2.06 280 18:26 25.03.2021
1039 Clouds 15 1020 41 10000 3.09 280 17:42 25.03.2021
1040 Clouds 15 1020 41 10000 3.6 320 17:23 25.03.2021
1041 Clouds 15 1020 36 10000 2.06 320 16:39 25.03.2021
1042 Clouds 15 1021 36 10000 3.6 290 16:20 25.03.2021
1043 Clouds 15 1021 36 10000 4.12 300 15:42 25.03.2021
1044 Clouds 14 1021 38 10000 4.12 290 15:19 25.03.2021
1045 Clouds 15 1021 36 10000 3.09 290 14:42 25.03.2021
1046 Clear 14 1021 41 10000 3.6 320 13:41 25.03.2021
1047 Clear 14 1022 41 10000 3.09 330 13:23 25.03.2021
1048 Clear 13 1022 38 10000 1.54 0 12:41 25.03.2021
1049 Clear 13 1022 41 10000 2.06 300 12:20 25.03.2021
1050 Clear 12 1022 43 10000 0.51 0 11:48 25.03.2021
1051 Clear 12 1022 43 10000 0.51 0 11:26 25.03.2021
1052 Clear 11 1023 50 10000 1.54 0 10:51 25.03.2021
1053 Clear 10 1023 53 10000 1.03 0 10:24 25.03.2021
1054 Clear 9 1023 65 10000 0.51 0 09:56 25.03.2021
1055 Clear 8 1023 65 10000 0.51 0 09:38 25.03.2021
1056 Clear 6 1023 81 10000 0.51 0 08:46 25.03.2021
1057 Clear 4 1023 93 10000 1.03 0 07:59 25.03.2021
1058 Clear 1 1022 93 10000 0.51 0 06:59 25.03.2021
1059 Clear 1 1022 93 10000 0.51 0 06:25 25.03.2021
1060 Clear 1 1022 93 10000 1.03 0 05:49 25.03.2021
1061 Clear 2 1023 93 10000 0.51 0 02:48 25.03.2021
1062 Clear 3 1023 87 10000 0.51 0 00:21 25.03.2021
1063 Clear 4 1023 81 10000 0.51 0 23:51 24.03.2021
1064 Clear 4 1023 81 10000 1.03 0 23:28 24.03.2021
1065 Clear 4 1023 81 10000 0.51 0 22:48 24.03.2021
1066 Clear 5 1023 81 10000 1.54 0 22:27 24.03.2021
1067 Clear 5 1023 70 10000 1.03 0 21:42 24.03.2021
1068 Clear 6 1023 70 10000 1.54 0 21:23 24.03.2021
1069 Clear 5 1022 81 10000 2.06 130 20:43 24.03.2021
1070 Clear 7 1022 70 10000 0.51 0 20:20 24.03.2021
1071 Clear 8 1022 53 10000 2.06 230 19:46 24.03.2021
1072 Clear 10 1022 46 10000 1.54 0 19:28 24.03.2021
1073 Clear 13 1022 41 10000 1.03 0 18:46 24.03.2021
1074 Clear 14 1022 41 10000 1.54 0 18:23 24.03.2021
1075 Clear 16 1022 27 10000 1.54 0 17:49 24.03.2021
1076 Clear 14 1022 27 10000 1.54 0 17:29 24.03.2021
1077 Clear 15 1022 29 10000 1.54 0 16:51 24.03.2021
1078 Clear 14 1022 29 10000 2.06 320 16:29 24.03.2021
1079 Clear 14 1022 29 10000 2.06 0 15:50 24.03.2021
1080 Clear 15 1022 31 10000 2.57 300 15:30 24.03.2021
1081 Clear 14 1023 26 10000 2.06 300 14:47 24.03.2021
1082 Clear 14 1023 33 10000 1.54 0 14:26 24.03.2021
1083 Clear 14 1023 33 10000 1.03 310 13:54 24.03.2021
1084 Clear 13 1023 35 10000 1.54 280 13:27 24.03.2021
1085 Clear 12 1024 43 10000 1.03 0 12:42 24.03.2021
1086 Clear 11 1024 46 10000 1.03 320 12:23 24.03.2021
1087 Clear 9 1024 50 10000 1.03 0 11:44 24.03.2021
1088 Clear 8 1025 61 10000 1.03 0 10:59 24.03.2021
1089 Clear 8 1025 61 10000 1.03 0 10:40 24.03.2021
1090 Clear 7 1025 70 10000 1.54 0 10:20 24.03.2021
1091 Clear 6 1025 65 10000 1.54 0 09:51 24.03.2021
1092 Clear 5 1025 75 10000 2.06 110 09:20 24.03.2021
1093 Clear 3 1025 87 10000 2.57 110 08:50 24.03.2021
1094 Clear 2 1025 100 10000 2.06 130 08:26 24.03.2021
1095 Clear 2 1025 100 10000 2.06 130 08:26 24.03.2021
1096 Clear 0 1025 100 10000 2.06 150 07:37 24.03.2021
1097 Clear -2 1025 100 10000 0.51 0 06:52 24.03.2021
1098 Clear -1 1025 100 10000 0.51 0 03:57 24.03.2021
1099 Clear 1 1024 93 10000 2.06 100 00:51 24.03.2021
1100 Clear 1 1025 93 10000 1.03 0 23:59 23.03.2021
1101 Clear 2 1025 86 10000 1.03 0 23:22 23.03.2021
1102 Clear 2 1025 86 10000 1.03 0 22:54 23.03.2021
1103 Clear 2 1025 86 10000 2.06 100 22:36 23.03.2021
1104 Clouds 4 1024 81 10000 1.03 0 21:54 23.03.2021
1105 Clouds 4 1024 75 10000 0.51 0 21:34 23.03.2021
1106 Clouds 5 1024 70 10000 0.51 0 20:56 23.03.2021
1107 Clouds 5 1024 70 10000 0.51 0 20:38 23.03.2021
1108 Clouds 6 1024 70 10000 1.03 90 20:19 23.03.2021
1109 Clouds 8 1024 53 10000 1.16 103 19:41 23.03.2021
1110 Clear 9 1024 49 10000 1.03 0 19:22 23.03.2021
1111 Clouds 9 1023 49 10000 1.54 0 18:38 23.03.2021
1112 Clouds 9 1023 49 10000 2.06 10 18:19 23.03.2021
1113 Clouds 9 1023 49 10000 2.06 10 18:19 23.03.2021
1114 Clouds 10 1023 46 10000 2.06 30 17:43 23.03.2021
1115 Clouds 10 1023 43 10000 2.57 20 17:21 23.03.2021
1116 Clear 10 1023 40 10000 2.57 360 16:26 23.03.2021
1117 Clear 11 1023 40 10000 1.54 0 15:51 23.03.2021
1118 Clear 10 1023 43 10000 2.06 90 15:25 23.03.2021
1119 Clear 10 1023 40 10000 2.06 0 14:49 23.03.2021
1120 Clear 9 1023 43 10000 1.54 0 14:20 23.03.2021
1121 Clear 9 1023 43 10000 3.6 350 13:48 23.03.2021
1122 Clear 8 1024 43 10000 3.09 40 13:25 23.03.2021
1123 Clear 8 1024 46 10000 2.57 360 12:46 23.03.2021
1124 Clear 7 1024 46 10000 2.57 360 12:26 23.03.2021
1125 Clear 7 1024 49 10000 1.54 0 11:49 23.03.2021
1126 Clear 6 1024 49 10000 2.06 310 11:26 23.03.2021
1127 Clear 5 1024 60 10000 1.54 0 10:43 23.03.2021
1128 Clear 4 1024 60 10000 1.54 150 10:21 23.03.2021
1129 Clear 3 1024 65 10000 2.06 140 09:54 23.03.2021
1130 Clear 2 1024 80 10000 2.06 140 09:24 23.03.2021
1131 Clear 2 1024 80 10000 2.06 130 08:55 23.03.2021
1132 Clear 1 1024 93 10000 0.51 0 08:37 23.03.2021
1133 Clear 1 1024 93 10000 0.51 0 08:19 23.03.2021
1134 Clear -2 1023 93 10000 1.54 130 07:28 23.03.2021
1135 Clear -2 1023 93 10000 1.54 110 06:53 23.03.2021
1136 Clear -2 1023 93 10000 0.51 0 04:58 23.03.2021
1137 Clear -1 1023 86 10000 0.51 0 03:19 23.03.2021
1138 Clouds 0 1023 74 10000 1.54 50 23:57 22.03.2021
1139 Clouds 1 1023 69 10000 1.03 0 23:21 22.03.2021
1140 Clouds 1 1023 69 10000 1.03 0 22:44 22.03.2021
1141 Clouds 2 1023 65 10000 1.03 0 22:21 22.03.2021
1142 Clouds 2 1023 65 10000 1.54 0 21:50 22.03.2021
1143 Clouds 2 1023 65 10000 1.54 0 21:27 22.03.2021
1144 Clouds 2 1023 65 10000 1.03 0 20:49 22.03.2021
1145 Clouds 2 1022 60 10000 2.57 350 20:29 22.03.2021
1146 Clouds 3 1022 65 10000 2.06 0 19:58 22.03.2021
1147 Clouds 3 1022 65 10000 2.06 0 19:39 22.03.2021
1148 Clouds 3 1022 60 10000 2.06 10 19:20 22.03.2021
1149 Clouds 3 1022 60 10000 3.09 360 18:41 22.03.2021
1150 Clouds 4 1021 60 10000 3.6 360 18:22 22.03.2021
1151 Clouds 5 1021 56 10000 4.12 10 17:50 22.03.2021
1152 Clouds 5 1021 60 10000 3.09 10 17:22 22.03.2021
1153 Clouds 5 1020 60 10000 2.57 0 16:55 22.03.2021
1154 Clouds 6 1020 52 10000 2.57 20 16:37 22.03.2021
1155 Clouds 6 1020 52 10000 3.09 60 15:43 22.03.2021
1156 Clouds 6 1020 52 10000 2.57 30 15:23 22.03.2021
1157 Clouds 6 1020 52 10000 3.09 30 14:59 22.03.2021
1158 Clouds 6 1020 49 10000 3.6 0 14:34 22.03.2021
1159 Clouds 5 1020 52 10000 4.63 360 13:52 22.03.2021
1160 Clouds 5 1020 52 10000 4.63 360 13:34 22.03.2021
1161 Clouds 6 1020 53 10000 5.14 10 12:59 22.03.2021
1162 Clouds 6 1020 53 10000 5.14 10 12:38 22.03.2021
1163 Clouds 6 1020 53 10000 5.14 10 12:18 22.03.2021
1164 Clouds 5 1020 56 10000 4.12 50 11:40 22.03.2021
1165 Clouds 5 1020 56 10000 4.12 50 11:20 22.03.2021
1166 Clouds 5 1020 65 10000 4.12 60 10:42 22.03.2021
1167 Clouds 4 1020 65 10000 2.06 0 10:20 22.03.2021
1168 Clouds 4 1019 70 10000 2.06 0 09:37 22.03.2021
1169 Clouds 3 1019 75 10000 1.03 0 08:59 22.03.2021
1170 Clouds 3 1019 75 10000 1.03 0 08:40 22.03.2021
1171 Clear 2 1019 86 10000 1.03 0 08:21 22.03.2021
1172 Clouds 1 1019 93 10000 0.51 0 07:43 22.03.2021
1173 Clouds 0 1019 86 10000 0.51 0 06:52 22.03.2021
1174 Clouds 1 1018 93 10000 1.03 0 05:19 22.03.2021
1175 Clouds 2 1019 80 10000 1.03 130 00:55 22.03.2021
1176 Clouds 2 1019 80 10000 1.03 0 00:21 22.03.2021
1177 Clouds 3 1019 70 10000 0.51 0 23:52 21.03.2021
1178 Clouds 2 1019 65 10000 0.51 0 23:19 21.03.2021
1179 Clouds 3 1020 65 10000 0.51 0 22:54 21.03.2021
1180 Clouds 3 1020 75 10000 1.03 0 21:56 21.03.2021
1181 Clouds 3 1020 75 10000 1.03 0 21:38 21.03.2021
1182 Clouds 3 1020 65 10000 1.54 90 21:20 21.03.2021
1183 Clouds 3 1020 65 10000 0.51 0 20:41 21.03.2021
1184 Clouds 4 1019 60 10000 0.51 0 20:22 21.03.2021
1185 Clouds 4 1019 60 10000 1.03 0 19:50 21.03.2021
1186 Clouds 4 1019 60 10000 1.03 0 19:50 21.03.2021
1187 Clouds 4 1019 60 10000 1.54 60 19:21 21.03.2021
1188 Clouds 5 1019 56 10000 2.06 0 18:46 21.03.2021
1189 Clouds 4 1019 56 10000 1.03 0 18:27 21.03.2021
1190 Clouds 5 1019 52 10000 1.54 0 17:45 21.03.2021
1191 Clouds 5 1019 52 10000 2.06 20 17:19 21.03.2021
1192 Clouds 5 1019 52 10000 2.57 40 16:54 21.03.2021
1193 Clouds 5 1019 52 10000 2.57 40 16:54 21.03.2021
1194 Clouds 5 1019 45 10000 1.54 0 16:29 21.03.2021
1195 Clouds 5 1019 45 10000 2.06 100 15:55 21.03.2021
1196 Clouds 6 1019 45 10000 2.06 100 15:36 21.03.2021
1197 Clouds 6 1019 49 10000 2.06 90 15:18 21.03.2021
1198 Clouds 6 1019 45 10000 3.09 100 14:41 21.03.2021
1199 Clouds 6 1020 42 10000 3.09 20 14:23 21.03.2021
1200 Clouds 6 1020 42 10000 3.09 360 13:52 21.03.2021
1201 Clouds 5 1021 36 10000 2.06 0 12:46 21.03.2021
1202 Clouds 5 1021 38 10000 1.03 0 12:27 21.03.2021
1203 Clouds 5 1021 38 10000 1.03 0 12:27 21.03.2021
1204 Clouds 4 1021 41 10000 1.54 0 11:51 21.03.2021
1205 Clouds 3 1021 45 10000 1.03 0 11:27 21.03.2021
1206 Clouds 2 1021 51 10000 1.03 0 10:55 21.03.2021
1207 Clouds 2 1021 51 10000 1.03 0 10:35 21.03.2021
1208 Clouds 2 1021 64 10000 1.54 140 09:58 21.03.2021
1209 Clouds 1 1021 64 10000 1.54 140 09:38 21.03.2021
1210 Clouds 1 1021 69 10000 1.54 0 09:19 21.03.2021
1211 Clouds -1 1021 80 10000 2.06 140 08:39 21.03.2021
1212 Clouds -1 1022 80 10000 1.72 59 08:20 21.03.2021
1213 Clouds -3 1021 86 10000 1.54 250 07:36 21.03.2021
1214 Clouds -3 1021 86 10000 0.51 0 06:50 21.03.2021
1215 Clouds -2 1021 74 10000 1.03 0 04:59 21.03.2021
1216 Clouds -1 1023 69 10000 1.03 0 01:54 21.03.2021
1217 Clouds -1 1023 59 10000 1.03 0 00:40 21.03.2021
1218 Clouds -1 1023 59 10000 2.06 130 00:21 21.03.2021
1219 Clouds -2 1023 69 10000 1.54 120 23:47 20.03.2021
1220 Clouds -1 1023 64 10000 1.03 0 23:20 20.03.2021
1221 Clouds -1 1023 64 10000 2.57 170 22:54 20.03.2021
1222 Clouds -1 1023 64 10000 3.09 150 22:21 20.03.2021
1223 Clear -1 1023 59 10000 1.03 0 21:45 20.03.2021
1224 Clear -1 1023 64 10000 2.06 0 21:24 20.03.2021
1225 Clear 0 1023 51 10000 2.06 0 20:45 20.03.2021
1226 Clear 0 1023 51 10000 2.06 0 20:22 20.03.2021
1227 Clear 0 1023 51 10000 2.06 0 19:49 20.03.2021
1228 Clouds 1 1023 44 10000 2.57 60 19:26 20.03.2021
1229 Clouds 1 1023 48 10000 2.57 30 18:49 20.03.2021
1230 Clouds 2 1023 38 10000 4.12 50 18:26 20.03.2021
1231 Clouds 2 1023 38 10000 5.14 50 17:54 20.03.2021
1232 Clouds 2 1023 38 10000 5.14 50 17:32 20.03.2021
1233 Clouds 3 1023 38 10000 4.63 60 16:47 20.03.2021
1234 Clouds 3 1023 41 10000 4.63 50 16:21 20.03.2021
1235 Clouds 3 1023 41 10000 4.63 50 16:21 20.03.2021
1236 Clouds 3 1023 41 10000 5.66 60 15:59 20.03.2021
1237 Clouds 3 1023 41 10000 5.66 60 15:39 20.03.2021
1238 Clouds 3 1023 41 10000 5.66 60 15:39 20.03.2021
1239 Clouds 3 1022 45 10000 5.14 50 14:49 20.03.2021
1240 Clouds 3 1022 45 10000 5.14 50 14:49 20.03.2021
1241 Clouds 3 1022 48 10000 5.14 40 14:28 20.03.2021
1242 Clouds 3 1023 44 10000 5.14 20 13:42 20.03.2021
1243 Clouds 3 1023 52 10000 3.6 40 13:18 20.03.2021
1244 Clouds 2 1024 51 10000 4.12 40 12:27 20.03.2021
1245 Clouds 2 1023 52 10000 4.63 40 11:50 20.03.2021
1246 Clouds 1 1023 55 10000 4.12 20 11:30 20.03.2021
1247 Clouds 2 1023 55 10000 4.63 40 10:56 20.03.2021
1248 Clouds 1 1023 55 10000 4.63 40 10:37 20.03.2021
1249 Clouds 1 1023 60 10000 5.66 50 10:18 20.03.2021
1250 Clear 0 1022 69 10000 4.63 40 09:29 20.03.2021
1251 Clear -1 1022 74 10000 4.12 30 08:59 20.03.2021
1252 Clear -1 1022 74 10000 4.12 30 08:39 20.03.2021
1253 Clouds -1 1022 74 10000 3.09 20 07:54 20.03.2021
1254 Clouds -2 1022 74 10000 3.09 20 07:32 20.03.2021
1255 Clear -2 1021 74 10000 1.03 0 06:56 20.03.2021
1256 Clear -2 1021 74 10000 1.03 0 06:27 20.03.2021
1257 Clouds -1 1021 69 10000 2.57 0 04:24 20.03.2021
1258 Clouds 0 1021 74 10000 2.57 0 03:42 20.03.2021
1259 Snow 0 1021 75 10000 2.06 0 00:36 20.03.2021
1260 Clouds 0 1020 80 10000 2.06 0 23:36 19.03.2021
1261 Clouds 0 1020 80 10000 0.51 0 22:59 19.03.2021
1262 Clouds 0 1020 80 10000 0.51 0 22:40 19.03.2021
1263 Snow 0 1020 80 10000 1.54 0 22:22 19.03.2021
1264 Snow 1 1019 80 10000 1.54 0 21:36 19.03.2021
1265 Snow 1 1019 75 10000 3.09 60 21:18 19.03.2021
1266 Clouds 1 1019 86 10000 1.03 0 20:41 19.03.2021
1267 Snow 1 1018 93 10000 2.57 150 20:22 19.03.2021
1268 Snow 1 1018 93 10000 4.63 100 19:46 19.03.2021
1269 Clouds 1 1017 75 10000 4.12 50 19:21 19.03.2021
1270 Clouds 1 1017 70 10000 2.57 40 18:46 19.03.2021
1271 Clouds 2 1016 60 10000 5.14 360 18:20 19.03.2021
1272 Clouds 4 1015 45 10000 3.6 60 17:56 19.03.2021
1273 Clouds 4 1015 45 10000 3.6 60 17:36 19.03.2021
1274 Clouds 5 1015 42 10000 4.12 90 16:57 19.03.2021
1275 Clouds 5 1015 42 10000 4.12 90 16:36 19.03.2021
1276 Clouds 5 1015 45 10000 3.6 70 16:18 19.03.2021
1277 Clouds 5 1015 39 10000 3.6 40 15:32 19.03.2021
1278 Clouds 6 1015 42 10000 4.12 70 14:49 19.03.2021
1279 Clouds 5 1015 42 10000 3.6 20 14:29 19.03.2021
1280 Clouds 5 1015 45 10000 3.6 50 13:48 19.03.2021
1281 Clouds 4 1015 45 10000 4.63 60 13:18 19.03.2021
1282 Clouds 5 1015 45 10000 2.57 30 12:40 19.03.2021
1283 Clouds 4 1015 56 10000 2.06 170 11:55 19.03.2021
1284 Clear 3 1015 65 10000 2.06 200 11:22 19.03.2021
1285 Clear 2 1015 69 10000 2.57 170 10:40 19.03.2021
1286 Clear 2 1015 64 10000 3.6 160 10:21 19.03.2021
1287 Clear 1 1015 74 10000 2.06 160 09:43 19.03.2021
1288 Clear 0 1015 80 10000 2.06 120 09:22 19.03.2021
1289 Clear -1 1015 80 10000 2.06 140 08:51 19.03.2021
1290 Clear -1 1015 86 10000 2.57 120 08:26 19.03.2021
1291 Clear -2 1015 93 10000 2.06 120 07:43 19.03.2021
1292 Clear -3 1014 93 10000 2.06 140 06:59 19.03.2021
1293 Clouds -2 1015 93 10000 1.03 130 05:26 19.03.2021
1294 Clouds -2 1016 93 10000 1.54 120 00:59 19.03.2021
1295 Clouds -2 1017 93 10000 1.54 90 23:54 18.03.2021
1296 Clouds -2 1017 93 10000 1.54 140 23:28 18.03.2021
1297 Clouds -2 1017 86 10000 0.51 0 22:44 18.03.2021
1298 Clouds -1 1017 93 10000 0.51 0 22:25 18.03.2021
1299 Clouds -1 1018 93 10000 0.51 0 21:43 18.03.2021
1300 Clear -1 1018 86 10000 0.51 0 21:25 18.03.2021
1301 Clouds -1 1019 56 10000 0.76 125 20:39 18.03.2021
1302 Clouds 0 1018 74 10000 0.51 0 20:20 18.03.2021
1303 Clouds 1 1018 64 10000 1.03 0 19:42 18.03.2021
1304 Clouds 1 1018 52 10000 2.06 50 19:22 18.03.2021
1305 Clouds 3 1018 64 10000 1.03 0 18:41 18.03.2021
1306 Clouds 3 1018 56 10000 2.06 70 17:54 18.03.2021
1307 Clouds 3 1018 56 10000 3.09 60 17:26 18.03.2021
1308 Clouds 3 1019 52 10000 2.57 10 16:54 18.03.2021
1309 Clouds 4 1019 52 10000 2.57 10 16:35 18.03.2021
1310 Clouds 4 1019 56 10000 3.6 50 15:58 18.03.2021
1311 Clouds 4 1019 56 10000 3.6 50 15:40 18.03.2021
1312 Clouds 4 1019 56 10000 2.06 30 15:18 18.03.2021
1313 Clouds 3 1019 56 10000 3.6 20 14:41 18.03.2021
1314 Clouds 3 1020 48 10000 3.09 60 14:19 18.03.2021
1315 Clouds 3 1020 56 10000 2.06 70 13:37 18.03.2021
1316 Clouds 3 1020 56 10000 2.06 70 13:19 18.03.2021
1317 Clouds 3 1020 52 10000 2.57 30 12:37 18.03.2021
1318 Clouds 4 1020 56 10000 1.54 30 12:37 18.03.2021
1319 Clouds 3 1020 52 10000 2.57 30 12:19 18.03.2021
1320 Clouds 3 1021 60 10000 2.57 80 11:44 18.03.2021
1321 Clouds 2 1021 60 10000 3.09 50 11:20 18.03.2021
1322 Clouds 2 1021 65 10000 2.57 20 10:41 18.03.2021
1323 Clouds 2 1021 69 10000 3.09 360 10:23 18.03.2021
1324 Clouds 2 1021 75 10000 3.09 30 09:45 18.03.2021
1325 Clouds 1 1021 80 10000 2.06 360 09:26 18.03.2021
1326 Clouds 1 1022 80 10000 2.57 350 08:45 18.03.2021
1327 Clouds 0 1022 80 10000 1.54 0 08:23 18.03.2021
1328 Clouds 0 1022 86 10000 1.03 0 07:45 18.03.2021
1329 Snow 0 1022 93 10000 1.54 0 06:44 18.03.2021
1330 Snow 0 1022 86 10000 1.54 0 06:25 18.03.2021
1331 Snow 0 1022 86 10000 1.54 0 06:25 18.03.2021
1332 Clouds 0 1022 86 10000 1.03 0 05:26 18.03.2021
1333 Snow 1 1022 100 7000 1.03 310 00:48 18.03.2021
1334 Snow 1 1022 100 10000 0.51 0 23:37 17.03.2021
1335 Snow 1 1022 100 7000 1.03 70 22:42 17.03.2021
1336 Snow 1 1022 100 9000 1.03 0 22:23 17.03.2021
1337 Snow 1 1022 100 10000 0.51 0 21:51 17.03.2021
1338 Snow 1 1022 100 10000 0.51 0 21:32 17.03.2021
1339 Snow 1 1022 93 10000 2.06 300 20:54 17.03.2021
1340 Snow 1 1022 93 10000 2.06 300 20:54 17.03.2021
1341 Snow 2 1022 93 10000 2.06 300 20:36 17.03.2021
1342 Snow 2 1022 93 10000 3.09 340 20:18 17.03.2021
1343 Clouds 3 1021 75 10000 0.51 0 19:40 17.03.2021
1344 Rain 3 1021 75 10000 1.54 0 19:19 17.03.2021
1345 Clouds 3 1021 81 10000 1.54 0 18:50 17.03.2021
1346 Clouds 3 1021 81 10000 1.54 0 18:32 17.03.2021
1347 Clouds 5 1021 70 10000 2.57 240 17:42 17.03.2021
1348 Clouds 5 1021 75 10000 2.06 230 17:22 17.03.2021
1349 Clouds 5 1021 75 10000 1.03 0 16:43 17.03.2021
1350 Clouds 5 1021 75 10000 2.06 280 16:21 17.03.2021
1351 Clouds 6 1021 65 10000 2.06 300 15:46 17.03.2021
1352 Clouds 5 1021 70 10000 3.09 340 15:28 17.03.2021
1353 Clouds 5 1021 70 10000 3.09 340 14:40 17.03.2021
1354 Clouds 4 1021 75 10000 2.57 340 14:20 17.03.2021
1355 Clouds 4 1021 81 10000 2.57 350 13:55 17.03.2021
1356 Drizzle 4 1021 81 10000 0.51 0 13:25 17.03.2021
1357 Clouds 3 1021 81 10000 1.03 0 12:48 17.03.2021
1358 Clouds 3 1021 81 10000 1.03 0 12:27 17.03.2021
1359 Clouds 3 1021 87 10000 1.54 0 11:42 17.03.2021
1360 Drizzle 3 1021 93 10000 0.51 0 11:23 17.03.2021
1361 Drizzle 3 1021 93 10000 0.51 0 10:53 17.03.2021
1362 Clouds 3 1021 93 6000 1.03 0 10:24 17.03.2021
1363 Drizzle 3 1021 100 5000 1.03 0 09:47 17.03.2021
1364 Drizzle 2 1021 100 4000 1.03 0 09:21 17.03.2021
1365 Snow 2 1021 100 3000 1.03 0 08:55 17.03.2021
1366 Mist 1 1021 100 4000 0.12 67 08:35 17.03.2021
1367 Mist 1 1020 100 4000 0.37 206 07:48 17.03.2021
1368 Rain 1 1020 100 4900 0.51 0 07:19 17.03.2021
1369 Snow 1 1020 100 2800 0.51 0 06:36 17.03.2021
1370 Snow 1 1020 100 4500 1.16 200 04:20 17.03.2021
1371 Snow 1 1021 100 9000 0.51 0 02:49 17.03.2021
1372 Snow 1 1022 100 10000 0.51 180 00:40 17.03.2021
1373 Snow 1 1023 93 10000 0.51 0 23:28 16.03.2021
1374 Snow 2 1023 93 10000 2.57 320 22:48 16.03.2021
1375 Drizzle 2 1023 93 10000 3.09 330 22:29 16.03.2021
1376 Rain 2 1024 81 10000 2.06 300 21:47 16.03.2021
1377 Drizzle 2 1024 81 10000 2.57 310 21:29 16.03.2021
1378 Clouds 2 1024 81 10000 2.57 280 20:58 16.03.2021
1379 Clouds 3 1024 81 10000 2.06 290 20:20 16.03.2021
1380 Clouds 3 1024 70 10000 2.57 270 19:58 16.03.2021
1381 Clouds 3 1024 70 10000 2.57 270 19:40 16.03.2021
1382 Clouds 3 1024 75 10000 3.09 290 19:20 16.03.2021
1383 Clouds 4 1024 65 10000 2.06 230 18:40 16.03.2021
1384 Clouds 4 1024 65 10000 3.6 230 18:21 16.03.2021
1385 Clouds 5 1024 65 10000 3.09 240 17:47 16.03.2021
1386 Clouds 5 1024 65 10000 3.09 220 17:29 16.03.2021
1387 Clouds 5 1025 65 10000 3.6 260 16:52 16.03.2021
1388 Clouds 5 1025 61 10000 4.63 270 16:28 16.03.2021
1389 Clouds 5 1025 65 10000 4.12 270 15:47 16.03.2021
1390 Clouds 5 1025 75 10000 4.12 250 15:21 16.03.2021
1391 Clouds 5 1025 81 10000 5.66 230 14:58 16.03.2021
1392 Clouds 5 1025 81 10000 5.66 230 14:40 16.03.2021
1393 Clouds 5 1025 60 10000 4.63 270 14:20 16.03.2021
1394 Clouds 5 1025 60 10000 5.14 270 13:49 16.03.2021
1395 Clouds 4 1025 60 10000 5.14 270 13:26 16.03.2021
1396 Clouds 5 1025 61 10000 5.14 270 12:51 16.03.2021
1397 Clouds 5 1025 61 10000 5.14 270 12:33 16.03.2021
1398 Clouds 4 1025 75 10000 5.14 280 11:53 16.03.2021
1399 Clouds 4 1025 75 10000 5.14 280 11:24 16.03.2021
1400 Clouds 3 1025 70 10000 3.6 250 10:28 16.03.2021
1401 Clouds 3 1025 75 10000 3.09 260 09:59 16.03.2021
1402 Clouds 3 1025 75 10000 3.09 260 09:38 16.03.2021
1403 Clouds 2 1025 75 10000 4.12 250 09:18 16.03.2021
1404 Clouds 2 1024 100 10000 1.59 265 08:48 16.03.2021
1405 Clouds 2 1024 100 10000 1.03 0 08:30 16.03.2021
1406 Clouds 1 1023 100 10000 1.54 120 07:36 16.03.2021
1407 Clouds 0 1023 100 10000 1.03 0 06:57 16.03.2021
1408 Clouds 1 1023 100 10000 1.03 0 06:35 16.03.2021
1409 Clouds 1 1022 93 10000 0.51 0 05:35 16.03.2021
1410 Snow 1 1021 87 10000 2.57 340 02:46 16.03.2021
1411 Snow 1 1021 100 10000 1.54 290 02:24 16.03.2021
1412 Snow 1 1020 100 10000 1.03 0 00:25 16.03.2021
1413 Rain 1 1020 100 10000 1.03 0 23:29 15.03.2021
1414 Clouds 1 1019 87 10000 1.03 0 22:56 15.03.2021
1415 Clouds 2 1019 87 10000 1.03 0 22:56 15.03.2021
1416 Clouds 2 1019 87 10000 1.03 0 22:36 15.03.2021
1417 Rain 2 1020 87 10000 6.17 280 22:18 15.03.2021
1418 Rain 3 1019 75 10000 4.12 260 21:39 15.03.2021
1419 Rain 3 1018 81 10000 4.63 250 21:21 15.03.2021
1420 Clouds 3 1018 81 10000 4.12 270 20:44 15.03.2021
1421 Clouds 3 1018 75 10000 6.17 250 20:25 15.03.2021
1422 Clouds 3 1017 75 10000 4.12 260 19:56 15.03.2021
1423 Clouds 4 1017 75 10000 4.12 260 19:35 15.03.2021
1424 Clouds 4 1017 81 10000 3.6 270 18:58 15.03.2021
1425 Clouds 4 1017 81 10000 3.6 270 18:33 15.03.2021
1426 Clouds 4 1016 81 10000 4.12 290 17:57 15.03.2021
1427 Clouds 4 1016 81 10000 3.6 240 17:39 15.03.2021
1428 Clouds 4 1016 87 10000 5.14 250 17:21 15.03.2021
1429 Clouds 3 1015 93 10000 3.6 300 16:42 15.03.2021
1430 Rain 4 1015 81 10000 3.6 260 15:55 15.03.2021
1431 Rain 4 1015 81 10000 5.14 270 15:28 15.03.2021
1432 Rain 5 1015 75 10000 6.69 250 14:47 15.03.2021
1433 Clouds 5 1015 70 10000 4.63 250 14:28 15.03.2021
1434 Clouds 5 1015 75 10000 6.17 250 13:59 15.03.2021
1435 Clouds 5 1015 75 10000 6.17 250 13:35 15.03.2021
1436 Clouds 4 1015 81 10000 2.06 0 12:51 15.03.2021
1437 Clouds 4 1015 81 10000 3.6 260 12:21 15.03.2021
1438 Clouds 4 1015 81 10000 3.09 270 11:59 15.03.2021
1439 Rain 4 1015 81 10000 3.09 270 11:40 15.03.2021
1440 Clouds 3 1015 87 5000 2.57 270 11:21 15.03.2021
1441 Clouds 3 1015 93 5000 4.12 280 10:41 15.03.2021
1442 Rain 2 1015 87 4000 4.12 260 10:22 15.03.2021
1443 Rain 2 1015 87 6000 4.63 250 09:40 15.03.2021
1444 Rain 2 1015 93 6000 3.09 250 09:21 15.03.2021
1445 Rain 2 1015 87 6000 2.57 270 08:45 15.03.2021
1446 Rain 2 1015 87 10000 2.57 280 08:22 15.03.2021
1447 Snow 2 1015 87 10000 2.57 0 07:34 15.03.2021
1448 Snow 2 1015 81 10000 2.57 250 06:52 15.03.2021
1449 Snow 2 1016 87 10000 1.54 0 05:36 15.03.2021
1450 Rain 2 1017 100 10000 3.6 260 03:20 15.03.2021
1451 Clouds 2 1018 100 10000 3.09 260 00:42 15.03.2021
1452 Snow 2 1018 100 10000 1.03 0 23:24 14.03.2021
1453 Clouds 2 1019 93 10000 2.57 250 22:49 14.03.2021
1454 Rain 2 1019 93 8000 3.6 270 22:28 14.03.2021
1455 Snow 2 1018 87 10000 1.54 0 21:53 14.03.2021
1456 Clouds 2 1018 87 10000 3.6 260 21:24 14.03.2021
1457 Drizzle 2 1018 100 10000 3.6 240 20:52 14.03.2021
1458 Drizzle 2 1018 100 10000 3.6 240 20:52 14.03.2021
1459 Clouds 2 1018 100 10000 2.06 0 20:31 14.03.2021
1460 Clouds 2 1018 100 10000 1.03 0 19:59 14.03.2021
1461 Clouds 2 1018 100 10000 1.03 0 19:41 14.03.2021
1462 Snow 2 1018 100 10000 2.06 200 19:18 14.03.2021
1463 Snow 2 1018 100 10000 2.06 200 19:18 14.03.2021
1464 Clouds 2 1017 100 10000 3.6 320 18:36 14.03.2021
1465 Rain 2 1017 81 10000 4.63 260 17:54 14.03.2021
1466 Clouds 3 1017 81 10000 4.63 260 17:36 14.03.2021
1467 Clouds 3 1016 81 10000 6.17 260 17:18 14.03.2021
1468 Clouds 3 1016 81 9000 6.17 260 16:40 14.03.2021
1469 Clouds 3 1016 87 10000 4.63 250 16:19 14.03.2021
1470 Clouds 2 1016 87 5000 5.66 260 15:42 14.03.2021
1471 Rain 2 1017 79 2345 4.02 290 14:51 14.03.2021
1472 Rain 3 1016 93 5000 1.54 0 14:30 14.03.2021
1473 Clouds 2 1016 100 10000 2.06 120 13:53 14.03.2021
1474 Clouds 2 1016 100 10000 2.06 120 13:34 14.03.2021
1475 Snow 2 1016 65 5000 4.63 200 12:56 14.03.2021
1476 Snow 2 1016 65 5000 4.63 200 12:56 14.03.2021
1477 Snow 3 1016 65 5000 4.63 200 12:37 14.03.2021
1478 Rain 4 1016 60 10000 3.6 200 12:18 14.03.2021
1479 Clouds 4 1016 65 10000 3.09 230 11:38 14.03.2021
1480 Clouds 4 1016 65 10000 3.09 220 11:18 14.03.2021
1481 Clouds 4 1015 60 10000 2.57 0 10:38 14.03.2021
1482 Clouds 3 1015 60 10000 2.57 240 10:19 14.03.2021
1483 Clouds 3 1015 70 10000 6.69 250 09:55 14.03.2021
1484 Clouds 3 1015 70 10000 6.69 250 09:36 14.03.2021
1485 Clouds 3 1015 70 10000 6.69 250 09:36 14.03.2021
1486 Clouds 2 1015 80 10000 6.17 240 09:18 14.03.2021
1487 Snow 2 1015 70 10000 4.63 260 08:36 14.03.2021
1488 Snow 1 1014 80 10000 6.69 260 07:52 14.03.2021
1489 Snow 1 1013 80 10000 6.69 270 07:26 14.03.2021
1490 Clouds 2 1013 81 10000 5.14 270 05:33 14.03.2021
1491 Rain 3 1009 93 8000 4.63 280 01:19 14.03.2021
1492 Rain 4 1010 81 6000 5.14 230 00:20 14.03.2021
1493 Rain 4 1011 72 10000 5.81 275 23:58 13.03.2021
1494 Rain 5 1011 70 10000 8.94 285 23:37 13.03.2021
1495 Rain 6 1010 61 10000 6.69 200 23:18 13.03.2021
1496 Clouds 5 1010 61 10000 7.2 210 22:43 13.03.2021
1497 Clouds 5 1010 70 10000 6.69 210 21:50 13.03.2021
1498 Clouds 5 1010 70 10000 5.66 200 21:30 13.03.2021
1499 Rain 5 1010 87 7000 4.63 210 20:55 13.03.2021
1500 Rain 4 1010 87 7000 4.63 210 20:32 13.03.2021
1501 Rain 4 1010 87 7000 6.17 280 19:58 13.03.2021
1502 Rain 4 1010 87 7000 6.17 280 19:36 13.03.2021
1503 Rain 4 1010 87 10000 7.2 290 19:18 13.03.2021
1504 Rain 4 1010 87 10000 7.2 290 19:18 13.03.2021
1505 Rain 4 1010 87 10000 7.2 290 19:18 13.03.2021
1506 Rain 5 1009 87 5000 9.77 290 18:40 13.03.2021
1507 Rain 6 1011 75 10000 9.39 280 18:19 13.03.2021
1508 Rain 9 1007 37 10000 7.72 240 17:44 13.03.2021
1509 Rain 10 1009 100 10000 10.28 295 17:25 13.03.2021
1510 Rain 10 1009 100 10000 9.83 290 16:50 13.03.2021
1511 Rain 11 1007 37 10000 6.69 240 16:29 13.03.2021
1512 Clouds 11 1008 37 10000 7.2 230 15:47 13.03.2021
1513 Clouds 11 1009 37 10000 8.75 240 14:54 13.03.2021
1514 Clouds 11 1009 37 10000 8.75 240 14:36 13.03.2021
1515 Clouds 11 1009 37 10000 8.23 220 13:55 13.03.2021
1516 Clouds 11 1010 37 10000 10.8 210 13:26 13.03.2021
1517 Clouds 11 1010 40 10000 7.72 220 12:48 13.03.2021
1518 Clouds 11 1011 40 10000 8.23 240 12:28 13.03.2021
1519 Clouds 10 1011 40 10000 6.17 210 11:51 13.03.2021
1520 Clouds 10 1011 40 10000 8.23 240 11:31 13.03.2021
1521 Clouds 9 1012 43 10000 5.14 230 10:51 13.03.2021
1522 Clear 9 1012 49 10000 6.69 240 10:30 13.03.2021
1523 Clouds 8 1012 49 10000 4.63 240 09:56 13.03.2021
1524 Clouds 7 1012 49 10000 7.2 270 09:24 13.03.2021
1525 Clouds 7 1012 53 10000 2.57 240 08:44 13.03.2021
1526 Clouds 6 1012 57 10000 2.06 330 08:20 13.03.2021
1527 Clouds 6 1012 57 10000 2.06 330 07:55 13.03.2021
1528 Clouds 6 1013 57 10000 1.54 0 06:54 13.03.2021
1529 Clouds 6 1015 61 10000 2.06 210 02:56 13.03.2021
1530 Clouds 6 1015 49 10000 4.63 230 01:21 13.03.2021
1531 Rain 7 1015 43 10000 2.57 0 00:20 13.03.2021
1532 Clouds 7 1015 46 10000 2.57 240 23:33 12.03.2021
1533 Clouds 7 1015 56 10000 1.54 190 22:50 12.03.2021
1534 Clouds 6 1015 70 10000 1.54 0 22:29 12.03.2021
1535 Clouds 7 1016 43 10000 3.13 285 21:54 12.03.2021
1536 Clouds 7 1016 43 10000 0.45 290 21:36 12.03.2021
1537 Clear 6 1015 65 10000 1.03 0 21:18 12.03.2021
1538 Clear 6 1014 52 10000 2.06 190 20:41 12.03.2021
1539 Clear 7 1014 49 10000 2.06 180 20:19 12.03.2021
1540 Clear 7 1014 46 10000 2.06 190 19:43 12.03.2021
1541 Clouds 7 1014 46 10000 3.09 200 19:24 12.03.2021
1542 Clouds 8 1014 46 10000 2.57 220 18:39 12.03.2021
1543 Clouds 9 1014 43 10000 3.6 220 18:19 12.03.2021
1544 Clouds 9 1014 43 10000 4.63 230 17:41 12.03.2021
1545 Clouds 9 1014 43 10000 3.6 240 17:23 12.03.2021
1546 Clouds 9 1014 43 10000 4.12 260 16:43 12.03.2021
1547 Clouds 9 1015 46 10000 3.09 270 16:18 12.03.2021
1548 Clouds 9 1015 50 10000 4.63 270 15:37 12.03.2021
1549 Clouds 9 1015 43 10000 5.14 260 14:49 12.03.2021
1550 Clouds 9 1015 46 10000 6.17 240 14:22 12.03.2021
1551 Clouds 9 1016 46 10000 5.14 230 13:54 12.03.2021
1552 Clouds 9 1016 46 10000 5.14 230 13:36 12.03.2021
1553 Clouds 9 1016 43 10000 5.66 240 13:18 12.03.2021
1554 Clouds 9 1016 46 10000 6.69 230 12:42 12.03.2021
1555 Clouds 9 1016 53 10000 5.14 270 12:23 12.03.2021
1556 Clouds 8 1016 49 10000 8.23 220 11:52 12.03.2021
1557 Clouds 8 1016 57 10000 5.66 280 11:24 12.03.2021
1558 Clouds 7 1017 57 10000 5.14 270 10:55 12.03.2021
1559 Clear 7 1017 57 10000 4.63 280 10:26 12.03.2021
1560 Clear 7 1017 61 10000 4.12 280 09:57 12.03.2021
1561 Clear 6 1017 65 10000 4.63 270 09:26 12.03.2021
1562 Clear 6 1017 61 10000 3.09 270 08:46 12.03.2021
1563 Clouds 4 1017 75 10000 2.57 280 07:59 12.03.2021
1564 Clouds 4 1017 75 10000 2.57 280 07:38 12.03.2021
1565 Clear 4 1017 65 10000 1.03 0 06:54 12.03.2021
1566 Clear 4 1017 70 10000 4.63 270 06:28 12.03.2021
1567 Clouds 6 1016 87 10000 1.03 0 02:58 12.03.2021
1568 Rain 6 1017 70 10000 9.39 285 00:51 12.03.2021
1569 Clouds 8 1014 62 10000 5.66 270 23:31 11.03.2021
1570 Clouds 8 1014 76 10000 4.63 260 22:51 11.03.2021
1571 Clouds 8 1014 71 10000 4.12 260 22:30 11.03.2021
1572 Clouds 8 1013 66 10000 8.75 270 21:55 11.03.2021
1573 Clouds 9 1013 66 10000 8.75 270 21:36 11.03.2021
1574 Clouds 9 1013 71 10000 5.14 240 21:18 11.03.2021
1575 Clouds 9 1013 76 10000 6.69 260 20:41 11.03.2021
1576 Clouds 9 1012 81 10000 7.2 270 20:19 11.03.2021
1577 Rain 8 1013 82 4690 7.15 275 19:44 11.03.2021
1578 Rain 9 1012 82 6444 6.71 290 19:26 11.03.2021
1579 Rain 11 1011 71 6152 5.36 290 18:46 11.03.2021
1580 Rain 12 1011 57 9797 6.71 290 18:28 11.03.2021
1581 Clouds 13 1008 47 10000 4.63 240 17:44 11.03.2021
1582 Clouds 13 1009 47 10000 4.63 240 16:53 11.03.2021
1583 Rain 14 1009 44 10000 5.14 250 16:27 11.03.2021
1584 Rain 14 1010 47 10000 6.69 210 15:48 11.03.2021
1585 Rain 14 1010 47 10000 5.66 250 15:21 11.03.2021
1586 Rain 13 1011 47 10000 6.69 280 14:46 11.03.2021
1587 Clouds 14 1011 44 10000 3.09 0 14:19 11.03.2021
1588 Clouds 14 1011 44 10000 3.09 0 14:19 11.03.2021
1589 Clouds 14 1012 54 10000 4.63 300 13:49 11.03.2021
1590 Clouds 14 1012 47 10000 7.2 300 13:30 11.03.2021
1591 Clouds 14 1012 44 10000 3.6 300 12:58 11.03.2021
1592 Clouds 14 1012 44 10000 3.6 300 12:38 11.03.2021
1593 Clouds 14 1012 51 10000 6.17 300 12:20 11.03.2021
1594 Clouds 13 1013 50 10000 3.09 290 11:43 11.03.2021
1595 Clouds 12 1014 54 10000 1.03 0 11:21 11.03.2021
1596 Clouds 11 1014 53 10000 3.6 140 10:39 11.03.2021
1597 Clouds 11 1014 53 10000 3.09 120 10:19 11.03.2021
1598 Clouds 10 1015 61 10000 1.03 0 09:39 11.03.2021
1599 Clouds 9 1015 66 10000 1.54 0 09:21 11.03.2021
1600 Clouds 9 1015 75 10000 1.54 0 08:46 11.03.2021
1601 Clouds 7 1014 70 10000 1.54 160 08:18 11.03.2021
1602 Clouds 8 1014 70 10000 2.57 110 07:29 11.03.2021
1603 Clouds 8 1014 70 10000 4.63 120 06:50 11.03.2021
1604 Clouds 7 1014 65 10000 2.57 120 06:25 11.03.2021
1605 Clouds 6 1015 87 10000 0.51 0 02:50 11.03.2021
1606 -273 0 0 0 0 0 00:58 11.03.2021
1607 -273 0 0 0 0 0 00:57 11.03.2021
1608 Clouds 6 1017 75 10000 2.06 110 23:32 10.03.2021
1609 Clouds 6 1017 75 10000 2.06 110 23:32 10.03.2021
1610 Clouds 6 1017 75 10000 1.57 193 22:54 10.03.2021
1611 Clouds 5 1017 75 10000 0.51 0 22:31 10.03.2021
1612 Clouds 5 1017 81 10000 2.06 110 21:47 10.03.2021
1613 Clouds 5 1017 75 10000 2.06 100 21:24 10.03.2021
1614 Clouds 6 1017 61 10000 2.57 120 20:48 10.03.2021
1615 Clouds 6 1017 61 10000 1.03 0 20:30 10.03.2021
1616 Clouds 6 1017 65 10000 1.54 150 19:53 10.03.2021
1617 Clouds 7 1017 65 10000 1.54 150 19:30 10.03.2021
1618 Clouds 9 1017 49 10000 1.03 0 18:47 10.03.2021
1619 Clouds 9 1017 49 10000 1.03 0 18:47 10.03.2021
1620 Clouds 9 1017 49 10000 1.03 0 18:28 10.03.2021
1621 Clouds 9 1017 49 10000 2.57 290 17:57 10.03.2021
1622 Clouds 9 1017 49 10000 2.57 290 17:57 10.03.2021
1623 Clear 10 1017 43 10000 2.57 270 17:39 10.03.2021
1624 Clouds 10 1017 43 10000 3.09 290 17:19 10.03.2021
1625 Clear 10 1018 40 10000 2.57 290 16:45 10.03.2021
1626 Clouds 10 1018 37 10000 3.09 290 16:25 10.03.2021
1627 Clouds 10 1018 35 10000 2.06 280 15:48 10.03.2021
1628 Clear 10 1019 35 10000 2.06 0 15:25 10.03.2021
1629 Clear 10 1019 37 10000 1.03 0 14:57 10.03.2021
1630 Clear 10 1019 40 10000 1.54 190 14:22 10.03.2021
1631 Clear 9 1019 37 10000 1.54 210 13:53 10.03.2021
1632 Clear 9 1020 34 10000 1.03 0 13:31 10.03.2021
1633 Clear 8 1020 40 10000 0.51 0 12:47 10.03.2021
1634 Clear 7 1020 46 10000 0.51 0 12:24 10.03.2021
1635 Clear 8 1021 53 10000 1.03 0 11:50 10.03.2021
1636 Clear 6 1021 57 10000 1.03 0 11:22 10.03.2021
1637 Clear 5 1021 65 10000 1.54 0 10:50 10.03.2021
1638 Clouds 5 1021 81 8000 0.51 0 10:31 10.03.2021
1639 Clear 4 1021 75 8000 1.03 0 09:55 10.03.2021
1640 Clear 3 1021 75 8000 1.03 0 09:37 10.03.2021
1641 Clear 2 1021 86 8000 0.51 0 09:18 10.03.2021
1642 Clear 1 1021 100 8000 1.03 0 08:42 10.03.2021
1643 Clear 0 1021 100 5000 1.03 100 08:23 10.03.2021
1644 Clear -1 1020 100 5000 0.51 0 07:42 10.03.2021
1645 Clear -1 1020 100 6000 1.03 130 07:24 10.03.2021
1646 Clear -1 1020 100 5000 0.84 132 06:51 10.03.2021
1647 Clouds 1 1019 86 9000 1.03 0 02:43 10.03.2021
1648 Clouds 2 1019 87 10000 0.51 0 00:27 10.03.2021
1649 Clouds 2 1019 87 9000 0.51 0 23:27 09.03.2021
1650 Clouds 3 1019 80 10000 1.03 80 22:50 09.03.2021
1651 Clouds 3 1018 80 10000 1.03 0 22:31 09.03.2021
1652 Clouds 3 1018 75 10000 1.03 0 21:58 09.03.2021
1653 Clouds 3 1018 75 10000 1.03 0 21:38 09.03.2021
1654 Clouds 4 1018 75 10000 1.03 0 21:19 09.03.2021
1655 Clouds 4 1018 70 10000 1.54 190 20:45 09.03.2021
1656 Clouds 5 1018 65 10000 1.03 50 20:23 09.03.2021
1657 Clouds 4 1017 60 10000 1.54 40 19:57 09.03.2021
1658 Clouds 5 1017 52 10000 2.06 40 19:29 09.03.2021
1659 Clouds 7 1016 49 10000 2.06 40 18:54 09.03.2021
1660 Clouds 6 1016 49 10000 2.06 20 18:30 09.03.2021
1661 Clouds 7 1016 46 10000 1.54 350 17:58 09.03.2021
1662 Clouds 7 1016 46 10000 1.54 350 17:38 09.03.2021
1663 Clouds 7 1016 46 10000 2.06 360 17:19 09.03.2021
1664 Clouds 8 1015 46 10000 1.54 10 16:40 09.03.2021
1665 Clouds 7 1015 49 10000 2.06 340 16:20 09.03.2021
1666 Clouds 7 1015 49 10000 2.06 340 16:20 09.03.2021
1667 Clouds 7 1015 53 10000 2.06 320 15:47 09.03.2021
1668 Clouds 8 1015 49 10000 2.06 300 15:24 09.03.2021
1669 Clouds 7 1016 53 10000 2.57 310 14:42 09.03.2021
1670 Clouds 7 1016 53 10000 2.57 300 14:22 09.03.2021
1671 Clouds 7 1016 57 10000 2.57 310 13:39 09.03.2021
1672 Clouds 7 1016 57 10000 1.54 300 13:39 09.03.2021
1673 Clouds 7 1016 57 10000 1.54 300 13:20 09.03.2021
1674 Clear 6 1016 61 10000 2.57 280 12:44 09.03.2021
1675 Clear 6 1016 61 10000 2.57 300 12:25 09.03.2021
1676 Clear 5 1016 60 10000 2.06 310 11:42 09.03.2021
1677 Clear 5 1016 60 10000 2.06 310 11:42 09.03.2021
1678 Clear 4 1016 65 10000 2.06 330 11:21 09.03.2021
1679 Clear 4 1016 65 10000 2.06 330 11:21 09.03.2021
1680 Clouds 4 1016 65 10000 1.03 0 10:57 09.03.2021
1681 Clouds 4 1016 65 10000 1.03 0 10:38 09.03.2021
1682 Clear 3 1016 75 10000 0.51 0 10:20 09.03.2021
1683 Clear 3 1016 75 10000 0.51 0 10:20 09.03.2021
1684 Clouds 2 1016 80 10000 0.51 0 09:44 09.03.2021
1685 Clouds 1 1016 86 10000 0.67 30 09:26 09.03.2021
1686 Clouds 0 1016 100 9000 1.03 180 08:48 09.03.2021
1687 Clouds -1 1016 100 7000 2.06 150 08:28 09.03.2021
1688 Clouds -1 1016 100 5000 0.51 0 07:40 09.03.2021
1689 Clouds -1 1016 100 7000 0.51 0 07:21 09.03.2021
1690 Clouds -1 1015 100 8000 0.51 0 05:55 09.03.2021
1691 Clouds -1 1015 100 8000 0.51 0 05:37 09.03.2021
1692 Clouds 1 1016 93 6000 1.03 0 00:34 09.03.2021
1693 Clouds 2 1016 93 8000 0.51 0 23:45 08.03.2021
1694 Clouds 2 1016 93 8000 0.51 0 23:27 08.03.2021
1695 Clouds 2 1016 93 8000 1.25 55 22:51 08.03.2021
1696 Clouds 2 1016 93 8000 1.25 55 22:32 08.03.2021
1697 Clouds 3 1016 93 10000 0.51 0 21:57 08.03.2021
1698 Clear 3 1016 80 10000 0.51 0 21:35 08.03.2021
1699 Clear 3 1016 87 10000 0.51 0 20:48 08.03.2021
1700 Clear 4 1016 65 10000 0.51 0 20:28 08.03.2021
1701 Clear 4 1016 65 10000 0.51 0 20:28 08.03.2021
1702 Clear 5 1016 65 10000 1.54 60 19:59 08.03.2021
1703 Clear 5 1016 65 10000 1.54 60 19:36 08.03.2021
1704 Clouds 8 1015 57 10000 2.06 60 18:44 08.03.2021
1705 Clouds 7 1015 57 10000 2.57 50 18:23 08.03.2021
1706 Clouds 8 1015 53 10000 3.09 60 17:56 08.03.2021
1707 Clouds 8 1015 53 10000 3.09 60 17:38 08.03.2021
1708 Clouds 9 1015 53 10000 1.54 0 16:55 08.03.2021
1709 Clouds 9 1016 53 10000 2.06 80 16:30 08.03.2021
1710 Clouds 9 1016 50 10000 1.54 0 15:52 08.03.2021
1711 Clouds 9 1016 50 10000 1.03 0 15:30 08.03.2021
1712 Clouds 9 1016 57 10000 1.54 0 14:51 08.03.2021
1713 Clouds 9 1016 53 10000 2.57 360 14:20 08.03.2021
1714 Clouds 9 1017 62 10000 1.03 0 13:44 08.03.2021
1715 Clouds 9 1017 66 10000 1.03 0 13:21 08.03.2021
1716 Clouds 8 1017 71 10000 1.54 0 12:49 08.03.2021
1717 Clouds 7 1017 76 10000 1.03 0 12:28 08.03.2021
1718 Clouds 6 1017 81 10000 1.03 0 11:44 08.03.2021
1719 Clouds 5 1018 76 10000 1.03 0 11:19 08.03.2021
1720 Clouds 5 1018 81 10000 0.51 0 10:44 08.03.2021
1721 Clouds 5 1018 81 10000 1.54 0 10:26 08.03.2021
1722 Clouds 4 1018 87 10000 2.57 310 09:42 08.03.2021
1723 Clouds 4 1017 81 10000 2.06 310 09:23 08.03.2021
1724 Clouds 4 1017 100 7000 2.06 320 08:29 08.03.2021
1725 Rain 4 1017 93 6000 1.54 0 07:41 08.03.2021
1726 Clouds 4 1017 93 8000 1.54 300 07:20 08.03.2021
1727 Rain 4 1017 100 10000 1.54 360 04:28 08.03.2021
1728 Clouds 5 1018 100 7000 0.51 0 01:26 08.03.2021
1729 Clouds 5 1018 100 9000 1.03 0 00:33 08.03.2021
1730 Clouds 5 1018 100 9000 0.51 0 23:41 07.03.2021
1731 Clouds 5 1018 100 10000 0.51 90 23:20 07.03.2021
1732 Clouds 5 1018 100 10000 0.51 0 22:44 07.03.2021
1733 Clouds 5 1018 100 10000 0.51 0 22:44 07.03.2021
1734 Clouds 5 1018 93 10000 0.51 0 22:26 07.03.2021
1735 Clouds 5 1018 93 10000 0.51 290 21:46 07.03.2021
1736 Clouds 5 1018 93 10000 0.51 0 21:26 07.03.2021
1737 Clouds 5 1018 87 10000 0.51 0 20:50 07.03.2021
1738 Clouds 6 1018 81 10000 0.51 0 20:31 07.03.2021
1739 Clouds 7 1018 71 10000 0.51 0 19:58 07.03.2021
1740 Clouds 7 1018 71 10000 0.51 0 19:39 07.03.2021
1741 Clouds 7 1018 71 10000 2.57 300 19:21 07.03.2021
1742 Rain 7 1018 71 10000 1.54 320 18:47 07.03.2021
1743 Clouds 8 1018 66 10000 1.03 0 18:20 07.03.2021
1744 Clouds 9 1018 62 10000 2.57 310 17:44 07.03.2021
1745 Clouds 9 1018 66 10000 2.57 290 17:21 07.03.2021
1746 Clouds 9 1019 71 10000 3.09 290 16:59 07.03.2021
1747 Clouds 9 1019 71 10000 3.09 290 16:59 07.03.2021
1748 Clouds 9 1019 71 10000 3.09 290 16:39 07.03.2021
1749 Clouds 9 1019 71 10000 3.09 290 16:39 07.03.2021
1750 Clouds 9 1019 66 10000 3.09 0 16:20 07.03.2021
1751 Clouds 9 1019 66 10000 3.09 0 16:20 07.03.2021
1752 Clouds 10 1019 58 10000 1.03 0 15:45 07.03.2021
1753 Clouds 10 1019 62 10000 1.54 0 15:24 07.03.2021
1754 Clouds 10 1020 62 10000 1.54 170 14:39 07.03.2021
1755 Clouds 10 1020 62 10000 1.03 0 14:21 07.03.2021
1756 Clouds 8 1021 66 10000 1.54 0 13:42 07.03.2021
1757 Clouds 9 1021 66 10000 1.54 160 13:23 07.03.2021
1758 Clouds 8 1022 71 6000 1.03 0 12:47 07.03.2021
1759 Clouds 8 1022 71 6000 1.03 0 12:47 07.03.2021
1760 Clouds 7 1022 75 6000 1.03 0 12:29 07.03.2021
1761 Clouds 5 1022 81 6000 1.03 0 11:49 07.03.2021
1762 Clouds 6 1023 81 6000 0.51 0 11:22 07.03.2021
1763 Clouds 5 1023 87 6000 1.03 0 10:49 07.03.2021
1764 Clouds 4 1023 87 7000 1.63 301 10:30 07.03.2021
1765 Rain 2 1023 87 7000 1 292 09:46 07.03.2021
1766 Clouds 2 1023 100 6000 1.03 0 09:25 07.03.2021
1767 Clouds 2 1023 100 6000 1.03 280 08:46 07.03.2021
1768 Clouds 1 1023 100 5000 1.03 0 08:25 07.03.2021
1769 Rain 0 1023 100 6000 1.03 0 07:51 07.03.2021
1770 Rain 0 1023 100 6000 1.03 0 07:51 07.03.2021
1771 Clouds 0 1025 100 5000 0.51 0 02:43 07.03.2021
1772 Clouds 0 1025 100 7000 1.03 0 01:42 07.03.2021
1773 Clouds 0 1025 100 8000 0.51 0 23:54 06.03.2021
1774 Clouds 0 1025 100 8000 0.51 0 23:35 06.03.2021
1775 Clouds 0 1025 100 8000 0.43 119 22:48 06.03.2021
1776 Clouds 0 1025 93 9000 0.51 160 22:29 06.03.2021
1777 Clouds 0 1025 100 7000 0.51 100 21:59 06.03.2021
1778 Clear 0 1025 86 10000 0.51 0 21:24 06.03.2021
1779 Clear 1 1025 80 10000 1.03 290 20:54 06.03.2021
1780 Clear 1 1025 80 10000 1.03 290 20:34 06.03.2021
1781 Clear 2 1026 75 10000 2.06 280 19:50 06.03.2021
1782 Clouds 2 1025 75 10000 2.57 280 19:23 06.03.2021
1783 Clouds 3 1025 70 10000 2.57 290 18:56 06.03.2021
1784 Clouds 3 1025 70 10000 2.57 290 18:56 06.03.2021
1785 Clouds 3 1025 70 10000 2.57 290 18:38 06.03.2021
1786 Clouds 3 1025 70 10000 3.09 300 18:18 06.03.2021
1787 Clouds 4 1025 70 10000 2.57 310 17:44 06.03.2021
1788 Clouds 4 1025 70 10000 3.09 310 17:24 06.03.2021
1789 Clouds 5 1025 65 10000 3.6 320 16:52 06.03.2021
1790 Clouds 5 1025 65 10000 3.09 290 16:29 06.03.2021
1791 Clouds 5 1025 70 10000 2.57 320 15:54 06.03.2021
1792 Clouds 5 1025 70 10000 2.57 320 15:32 06.03.2021
1793 Clouds 5 1026 70 10000 4.12 320 14:54 06.03.2021
1794 Clouds 5 1025 65 10000 5.14 330 14:30 06.03.2021
1795 Clouds 5 1025 70 10000 4.12 330 13:42 06.03.2021
1796 Clouds 5 1026 70 10000 3.6 300 13:21 06.03.2021
1797 Clouds 5 1026 70 10000 2.06 310 12:44 06.03.2021
1798 Clouds 4 1026 70 10000 2.57 290 12:20 06.03.2021
1799 Clouds 4 1026 70 10000 2.57 290 12:20 06.03.2021
1800 Clouds 4 1026 75 10000 2.06 290 11:56 06.03.2021
1801 Clouds 3 1026 70 10000 2.06 290 11:22 06.03.2021
1802 Clouds 3 1026 75 10000 2.57 290 10:49 06.03.2021
1803 Clouds 2 1026 75 10000 2.57 300 10:24 06.03.2021
1804 Clouds 2 1025 75 10000 1.54 360 09:49 06.03.2021
1805 Clouds 1 1025 75 10000 1.54 360 09:20 06.03.2021
1806 Clouds 1 1025 80 10000 2.06 320 08:51 06.03.2021
1807 Clouds 1 1025 75 10000 1.03 0 08:22 06.03.2021
1808 Clouds 1 1025 75 10000 2.06 350 07:41 06.03.2021
1809 Clouds 0 1024 80 10000 0.51 0 07:20 06.03.2021
1810 Clouds 1 1024 80 10000 1.03 0 05:38 06.03.2021
1811 Clouds 2 1024 75 10000 2.06 50 02:51 06.03.2021
1812 Clouds 2 1024 75 10000 1.03 0 01:27 06.03.2021
1813 Clouds 2 1024 75 10000 1.54 0 00:39 06.03.2021
1814 Clouds 2 1024 75 10000 1.54 0 23:34 05.03.2021
1815 Clouds 3 1024 75 10000 2.06 50 22:58 05.03.2021
1816 Clouds 3 1024 75 10000 2.06 50 22:39 05.03.2021
1817 Clouds 3 1024 75 10000 1.03 0 22:20 05.03.2021
1818 Clouds 3 1024 81 10000 1.03 0 21:41 05.03.2021
1819 Clouds 3 1023 75 10000 1.54 0 21:22 05.03.2021
1820 Clouds 3 1023 75 10000 2.57 360 20:42 05.03.2021
1821 Clouds 3 1023 81 10000 2.06 10 20:23 05.03.2021
1822 Clouds 3 1023 81 10000 3.09 60 19:44 05.03.2021
1823 Clouds 4 1023 75 10000 1.54 350 19:22 05.03.2021
1824 Clouds 4 1022 81 10000 2.57 30 18:44 05.03.2021
1825 Clouds 4 1022 81 10000 1.03 0 18:25 05.03.2021
1826 Clouds 4 1021 81 10000 2.06 360 17:43 05.03.2021
1827 Clouds 4 1021 81 10000 2.57 350 17:24 05.03.2021
1828 Clouds 5 1021 75 10000 2.57 360 16:41 05.03.2021
1829 Clouds 5 1021 81 10000 3.09 40 16:23 05.03.2021
1830 Clouds 5 1020 81 10000 2.06 0 15:53 05.03.2021
1831 Clouds 6 1020 76 10000 2.06 30 15:26 05.03.2021
1832 Clouds 6 1020 81 10000 1.03 0 14:43 05.03.2021
1833 Drizzle 6 1020 81 10000 1.54 0 14:21 05.03.2021
1834 Clouds 6 1020 81 10000 1.54 0 13:43 05.03.2021
1835 Clouds 6 1020 81 10000 1.54 100 13:21 05.03.2021
1836 Clouds 7 1020 87 10000 2.06 70 12:42 05.03.2021
1837 Clouds 7 1019 93 10000 2.06 160 11:39 05.03.2021
1838 Clouds 7 1019 93 10000 1.54 0 11:19 05.03.2021
1839 Rain 7 1019 100 10000 2.06 140 10:43 05.03.2021
1840 Rain 6 1019 100 10000 2.57 100 10:24 05.03.2021
1841 Rain 6 1019 100 10000 1.54 0 09:54 05.03.2021
1842 Rain 6 1019 100 10000 1.54 0 09:31 05.03.2021
1843 Clouds 5 1019 100 10000 1.54 0 08:57 05.03.2021
1844 Clouds 5 1019 100 10000 1.54 0 08:38 05.03.2021
1845 Clouds 5 1018 100 10000 1.54 70 08:20 05.03.2021
1846 Clouds 5 1018 100 10000 2.06 110 07:33 05.03.2021
1847 Clouds 5 1018 100 10000 2.06 90 06:34 05.03.2021
1848 Drizzle 6 1018 100 10000 1.03 90 05:41 05.03.2021
1849 Clouds 6 1019 93 10000 4.12 130 00:59 05.03.2021
1850 Clouds 6 1019 100 10000 2.57 100 23:54 04.03.2021
1851 Clouds 6 1019 100 10000 2.06 100 23:24 04.03.2021
1852 Clouds 6 1019 93 10000 1.54 0 22:29 04.03.2021
1853 Clouds 7 1019 100 10000 2.57 120 21:53 04.03.2021
1854 Clouds 7 1019 100 10000 2.57 120 21:32 04.03.2021
1855 Rain 7 1019 100 10000 2.57 340 20:58 04.03.2021
1856 Rain 7 1019 100 10000 2.57 340 20:39 04.03.2021
1857 Rain 7 1019 81 10000 6.17 310 20:20 04.03.2021
1858 Rain 8 1018 66 10000 3.6 310 19:49 04.03.2021
1859 Rain 9 1018 62 10000 5.14 300 19:23 04.03.2021
1860 Rain 10 1020 57 10000 3.58 274 18:51 04.03.2021
1861 Clouds 11 1017 47 10000 2.06 270 18:30 04.03.2021
1862 Clouds 12 1017 50 10000 2.06 290 17:47 04.03.2021
1863 Clouds 12 1018 38 10000 2.57 280 17:29 04.03.2021
1864 Clouds 12 1018 38 10000 3.09 260 16:50 04.03.2021
1865 Clouds 12 1018 38 10000 3.09 260 16:32 04.03.2021
1866 Clouds 13 1018 38 10000 4.12 270 15:57 04.03.2021
1867 Clouds 13 1018 38 10000 4.12 270 15:38 04.03.2021
1868 Clouds 13 1019 35 10000 2.57 270 15:19 04.03.2021
1869 Clouds 14 1019 35 10000 4.12 270 14:38 04.03.2021
1870 Clouds 13 1020 41 10000 3.6 280 13:54 04.03.2021
1871 Clouds 13 1020 41 10000 3.6 280 13:33 04.03.2021
1872 Clouds 12 1021 50 10000 1.03 0 12:58 04.03.2021
1873 Clouds 12 1021 50 10000 1.03 0 12:40 04.03.2021
1874 Clouds 11 1021 62 10000 0.51 0 11:49 04.03.2021
1875 Clouds 10 1022 71 10000 0.51 0 11:28 04.03.2021
1876 Clouds 9 1022 66 10000 1.03 0 10:56 04.03.2021
1877 Clouds 8 1022 81 10000 1.03 120 10:34 04.03.2021
1878 Clouds 7 1023 87 10000 1.54 100 09:47 04.03.2021
1879 Clouds 6 1023 100 10000 1.54 150 09:25 04.03.2021
1880 Clouds 4 1023 100 10000 1.03 120 08:42 04.03.2021
1881 Clouds 4 1023 100 9000 1.03 0 08:22 04.03.2021
1882 Clouds 4 1023 93 10000 1.03 0 07:35 04.03.2021
1883 Clouds 4 1024 93 10000 1.03 0 06:28 04.03.2021
1884 Clouds 5 1024 100 10000 1.03 0 05:42 04.03.2021
1885 Clouds 4 1026 93 10000 1.03 330 01:49 04.03.2021
1886 Clouds 4 1027 93 9000 0.51 0 23:19 03.03.2021
1887 Clouds 5 1027 93 10000 1.03 140 22:29 03.03.2021
1888 Clouds 5 1028 93 10000 1.03 0 21:55 03.03.2021
1889 Clouds 5 1028 93 10000 1.03 0 21:37 03.03.2021
1890 Clouds 5 1028 100 10000 1.54 0 21:18 03.03.2021
1891 Clouds 5 1028 93 10000 1.03 0 20:42 03.03.2021
1892 Clouds 5 1028 93 10000 1.03 110 20:23 03.03.2021
1893 Clouds 6 1028 87 10000 1.03 0 19:45 03.03.2021
1894 Clouds 6 1028 81 10000 0.51 0 19:26 03.03.2021
1895 Clouds 7 1028 75 10000 0.62 154 18:48 03.03.2021
1896 Clouds 8 1028 71 10000 0.13 226 18:29 03.03.2021
1897 Clouds 8 1028 71 10000 0.13 226 17:54 03.03.2021
1898 Clear 12 1028 62 10000 1.03 0 17:20 03.03.2021
1899 Clear 12 1028 53 10000 1.03 0 16:44 03.03.2021
1900 Clear 13 1029 50 10000 1.03 0 16:26 03.03.2021
1901 Clear 13 1029 50 10000 0.51 190 15:49 03.03.2021
1902 Clear 12 1029 50 10000 0.84 289 15:28 03.03.2021
1903 Clear 13 1029 53 10000 0.51 0 14:34 03.03.2021
1904 Clear 12 1030 57 10000 0.51 0 13:59 03.03.2021
1905 Clear 12 1030 57 10000 0.51 0 13:37 03.03.2021
1906 Clear 11 1030 57 10000 1.23 285 13:18 03.03.2021
1907 Clear 10 1031 61 10000 1.28 278 12:40 03.03.2021
1908 Clear 11 1031 66 10000 0.51 0 12:22 03.03.2021
1909 Clear 8 1031 81 10000 0.51 0 11:43 03.03.2021
1910 Clear 10 1031 81 10000 0.51 0 11:21 03.03.2021
1911 Clear 7 1031 87 10000 0.51 0 10:43 03.03.2021
1912 Clear 7 1032 87 10000 0.51 0 10:20 03.03.2021
1913 Clear 6 1032 100 10000 0.51 0 09:40 03.03.2021
1914 Clear 4 1031 93 10000 0.51 0 08:49 03.03.2021
1915 Clear 4 1031 93 10000 1.03 181 08:23 03.03.2021
1916 Clear 4 1031 93 10000 1.03 181 07:52 03.03.2021
1917 Clear 4 1031 100 10000 1.03 0 06:55 03.03.2021
1918 Clouds 3 1031 100 8000 0.51 0 06:18 03.03.2021
1919 Clouds 4 1031 93 9000 0.51 0 05:30 03.03.2021
1920 Clouds 4 1031 100 9000 1.03 130 04:36 03.03.2021
1921 Clear 3 1031 100 7000 1.03 0 03:52 03.03.2021
1922 Clear 4 1031 93 9000 1.03 0 00:18 03.03.2021
1923 Clear 5 1031 100 9000 0.51 0 23:32 02.03.2021
1924 Clear 5 1031 93 8000 1.03 80 22:44 02.03.2021
1925 Clouds 5 1031 93 9000 0.51 0 22:21 02.03.2021
1926 Clouds 5 1031 93 10000 1.03 0 21:43 02.03.2021
1927 Clear 5 1031 87 10000 1.03 0 21:23 02.03.2021
1928 Clear 5 1031 87 10000 1.54 0 20:54 02.03.2021
1929 Clear 5 1031 87 10000 1.54 0 20:36 02.03.2021
1930 Clear 6 1031 81 10000 1.54 70 20:18 02.03.2021
1931 Clear 7 1030 75 10000 1.17 160 19:42 02.03.2021
1932 Clear 7 1030 66 10000 0.7 153 19:21 02.03.2021
1933 Clear 8 1030 61 10000 1.03 270 18:41 02.03.2021
1934 Clear 10 1029 54 10000 1.54 280 18:21 02.03.2021
1935 Clear 10 1029 54 10000 1.54 280 18:21 02.03.2021
1936 Clear 12 1029 47 10000 2.57 340 17:50 02.03.2021
1937 Clear 13 1030 44 10000 3.09 330 17:30 02.03.2021
1938 Clear 14 1029 44 10000 3.09 310 16:57 02.03.2021
1939 Clear 14 1029 44 10000 3.09 310 16:33 02.03.2021
1940 Clear 15 1030 29 10000 2.57 300 15:51 02.03.2021
1941 Clear 15 1030 31 10000 1.54 0 15:25 02.03.2021
1942 Clear 14 1030 36 10000 1.03 0 14:24 02.03.2021
1943 Clear 14 1030 38 10000 0.51 0 13:57 02.03.2021
1944 Clear 13 1030 38 10000 0.51 0 13:38 02.03.2021
1945 Clear 13 1031 47 10000 1.03 0 13:20 02.03.2021
1946 Clear 11 1032 54 10000 0.51 0 12:30 02.03.2021
1947 Clear 10 1032 61 10000 0.51 0 11:57 02.03.2021
1948 Clear 11 1032 61 10000 0.51 0 11:38 02.03.2021
1949 Clear 9 1032 65 10000 0.51 0 11:18 02.03.2021
1950 Clear 9 1032 75 10000 0.77 273 10:33 02.03.2021
1951 Clear 5 1032 93 10000 0.59 258 09:59 02.03.2021
1952 Clear 4 1032 93 10000 0.59 258 09:40 02.03.2021
1953 Clear 3 1031 100 10000 0.59 209 09:19 02.03.2021
1954 Clear 1 1031 100 10000 0.59 209 08:38 02.03.2021
1955 Mist 0 1031 100 4500 1 172 07:58 02.03.2021
1956 Fog 0 1031 100 5000 0.51 0 07:27 02.03.2021
1957 Fog 0 1031 100 3800 0.51 0 06:33 02.03.2021
1958 Mist 0 1030 100 4200 0.51 0 05:45 02.03.2021
1959 Mist 1 1030 100 4000 0.51 0 05:27 02.03.2021
1960 Mist 1 1030 100 3700 0.51 0 01:44 02.03.2021
1961 Mist 1 1030 100 3700 0.51 0 01:44 02.03.2021
1962 Mist 1 1030 100 3700 0.51 0 01:44 02.03.2021
1963 Fog 1 1030 100 2400 1.05 158 01:25 02.03.2021
1964 Mist 2 1029 100 3000 0.51 0 00:21 02.03.2021
1965 Mist 3 1029 100 4600 0.51 0 23:22 01.03.2021
1966 Mist 3 1029 100 4600 0.51 0 23:22 01.03.2021
1967 Clear 3 1029 61 10000 1.01 153 22:40 01.03.2021
1968 Clear 3 1029 61 10000 0.95 148 22:21 01.03.2021
1969 Mist 3 1029 100 4600 0.51 0 21:45 01.03.2021
1970 Clear 3 1029 100 6000 0.51 0 21:23 01.03.2021
1971 Clear 4 1028 93 7000 0.51 0 20:47 01.03.2021
1972 Clear 4 1028 93 10000 1.54 100 20:27 01.03.2021
1973 Clear 5 1028 81 10000 1.03 0 19:51 01.03.2021
1974 Clear 5 1028 81 10000 1.03 0 19:32 01.03.2021
1975 Clear 7 1027 66 10000 2.06 280 18:45 01.03.2021
1976 Clear 8 1027 66 10000 2.06 280 18:24 01.03.2021
1977 Clear 10 1027 54 10000 3.09 290 17:49 01.03.2021
1978 Clear 10 1027 54 10000 3.09 290 17:25 01.03.2021
1979 Clear 11 1027 54 10000 2.57 310 16:57 01.03.2021
1980 Clear 11 1027 54 10000 2.57 310 16:38 01.03.2021
1981 Clear 11 1027 50 10000 2.57 300 16:20 01.03.2021
1982 Clear 12 1027 47 10000 2.57 300 15:38 01.03.2021
1983 Clear 12 1028 50 10000 2.06 310 15:18 01.03.2021
1984 Clear 11 1028 54 10000 2.06 310 14:41 01.03.2021
1985 Clear 10 1028 50 10000 2.06 320 14:22 01.03.2021
1986 Clear 10 1028 57 10000 2.57 300 13:39 01.03.2021
1987 Clear 10 1029 66 10000 1.03 0 13:20 01.03.2021
1988 Clear 11 1029 76 8000 1.03 0 12:44 01.03.2021
1989 Clear 9 1029 100 5000 1.06 4 12:25 01.03.2021
1990 Fog 8 1030 100 2500 0.51 0 11:57 01.03.2021
1991 Fog 7 1030 100 200 1.06 4 11:30 01.03.2021
1992 Fog 3 1030 100 250 0.9 10 10:43 01.03.2021
1993 Fog 3 1030 100 200 0.8 11 10:22 01.03.2021
1994 Fog 1 1030 100 250 0.8 11 09:56 01.03.2021
1995 Fog 0 1030 100 250 0.8 11 09:36 01.03.2021
1996 Fog -1 1030 100 500 0.59 28 08:57 01.03.2021
1997 Fog -1 1030 100 500 0.59 28 08:36 01.03.2021
1998 Fog -2 1030 100 4000 0.51 190 07:33 01.03.2021
1999 Mist -2 1029 100 2400 0.51 0 06:25 01.03.2021
2000 Mist -1 1030 100 2100 0.51 0 02:40 01.03.2021
2001 Mist 0 1030 100 4700 0.42 79 23:54 28.02.2021
2002 Clear 0 1030 100 5000 0.51 0 23:20 28.02.2021
2003 Mist 0 1030 100 3800 0.51 0 22:44 28.02.2021
2004 Clear 0 1030 100 5000 0.51 0 22:21 28.02.2021
2005 Clear 1 1030 100 7000 0.51 0 21:46 28.02.2021
2006 Clear 1 1030 100 6000 0.51 0 21:23 28.02.2021
2007 Clear 1 1030 93 8000 0.51 0 20:46 28.02.2021
2008 Clear 2 1030 81 10000 1.03 0 20:27 28.02.2021
2009 Clear 3 1030 87 10000 0.51 0 19:47 28.02.2021
2010 Clear 3 1029 81 10000 2.57 280 19:27 28.02.2021
2011 Clear 4 1029 75 10000 2.57 270 18:47 28.02.2021
2012 Clear 5 1029 70 10000 3.09 280 18:28 28.02.2021
2013 Clear 5 1029 70 10000 3.09 280 18:28 28.02.2021
2014 Clear 5 1029 65 10000 3.6 300 17:58 28.02.2021
2015 Clear 5 1029 65 10000 3.6 300 17:38 28.02.2021
2016 Clear 5 1029 65 10000 3.6 300 17:38 28.02.2021
2017 Clear 6 1029 65 10000 4.12 300 17:20 28.02.2021
2018 Clear 6 1029 65 10000 4.63 300 16:48 28.02.2021
2019 Clear 6 1029 65 10000 4.12 310 16:29 28.02.2021
2020 Clear 7 1029 65 10000 3.09 300 15:51 28.02.2021
2021 Clear 7 1029 65 10000 3.6 300 15:26 28.02.2021
2022 Clouds 7 1030 65 10000 3.6 320 14:58 28.02.2021
2023 Clouds 7 1030 65 10000 3.6 320 14:32 28.02.2021
2024 Clouds 7 1030 70 10000 2.57 320 13:59 28.02.2021
2025 Clouds 7 1030 70 10000 2.57 320 13:37 28.02.2021
2026 Clouds 6 1030 65 10000 3.09 290 13:18 28.02.2021
2027 Clouds 6 1031 65 10000 2.06 270 12:51 28.02.2021
2028 Clouds 5 1031 75 10000 3.09 280 12:31 28.02.2021
2029 Clouds 4 1030 75 10000 2.57 280 11:56 28.02.2021
2030 Clouds 4 1030 75 10000 2.57 280 11:37 28.02.2021
2031 Clouds 4 1030 75 10000 3.09 280 11:18 28.02.2021
2032 Clouds 3 1030 75 10000 2.57 280 10:30 28.02.2021
2033 Clouds 3 1030 75 10000 2.06 290 09:59 28.02.2021
2034 Clouds 3 1030 75 10000 2.06 290 09:38 28.02.2021
2035 Clouds 2 1030 75 10000 2.06 300 09:20 28.02.2021
2036 Clouds 2 1030 81 10000 1.54 320 08:38 28.02.2021
2037 Clouds 2 1030 81 10000 2.06 310 08:20 28.02.2021
2038 Clouds 2 1030 75 10000 1.54 320 07:44 28.02.2021
2039 Clouds 2 1030 75 10000 1.03 0 07:25 28.02.2021
2040 Clouds 2 1030 75 10000 1.54 0 06:24 28.02.2021
2041 Clouds 2 1029 81 10000 2.06 310 05:20 28.02.2021
2042 Clouds 3 1030 70 10000 1.03 0 02:28 28.02.2021
2043 Clouds 3 1030 75 10000 1.03 0 01:28 28.02.2021
2044 Clouds 4 1030 75 10000 1.03 0 00:39 28.02.2021
2045 Clouds 4 1030 70 10000 1.03 0 23:50 27.02.2021
2046 Clouds 4 1030 70 10000 1.54 0 23:22 27.02.2021
2047 Clouds 4 1030 70 10000 2.57 0 22:50 27.02.2021
2048 Clouds 4 1030 70 10000 3.6 60 22:24 27.02.2021
2049 Clouds 4 1030 70 10000 3.09 0 21:59 27.02.2021
2050 Clouds 4 1030 70 10000 3.09 0 21:38 27.02.2021
2051 Clouds 5 1030 70 10000 4.12 20 20:56 27.02.2021
2052 Clouds 5 1030 70 10000 4.12 20 20:38 27.02.2021
2053 Clouds 5 1030 75 10000 4.12 30 20:18 27.02.2021
2054 Clouds 5 1030 70 10000 3.09 50 19:41 27.02.2021
2055 Clouds 5 1030 70 10000 3.6 50 19:23 27.02.2021
2056 Clouds 5 1030 70 10000 2.57 60 18:40 27.02.2021
2057 Clouds 5 1030 70 10000 2.57 50 18:20 27.02.2021
2058 Clouds 6 1030 70 10000 2.57 40 17:43 27.02.2021
2059 Clouds 6 1030 70 10000 3.09 60 17:20 27.02.2021
2060 Clouds 6 1030 70 10000 3.09 60 17:20 27.02.2021
2061 Clouds 6 1030 70 10000 3.6 60 16:51 27.02.2021
2062 Clouds 6 1030 70 10000 3.6 60 16:31 27.02.2021
2063 Clouds 5 1030 70 10000 3.6 50 15:53 27.02.2021
2064 Clouds 5 1030 70 10000 3.6 50 15:33 27.02.2021
2065 Clouds 5 1030 75 10000 3.6 50 14:48 27.02.2021
2066 Clouds 5 1030 75 10000 3.6 50 14:30 27.02.2021
2067 Clouds 5 1030 81 10000 4.12 40 13:50 27.02.2021
2068 Clouds 5 1030 81 10000 4.12 40 13:27 27.02.2021
2069 Clouds 5 1030 81 10000 4.63 40 12:55 27.02.2021
2070 Clouds 5 1031 81 10000 3.6 40 12:28 27.02.2021
2071 Clouds 5 1031 81 10000 4.63 60 11:57 27.02.2021
2072 Clouds 5 1030 81 10000 3.09 50 11:38 27.02.2021
2073 Clouds 5 1031 81 10000 2.06 60 11:19 27.02.2021
2074 Clouds 5 1031 81 10000 3.09 50 10:42 27.02.2021
2075 Clouds 5 1031 81 10000 4.12 50 10:19 27.02.2021
2076 Clouds 4 1031 81 10000 3.09 0 09:46 27.02.2021
2077 Clouds 4 1031 81 10000 3.09 0 09:25 27.02.2021
2078 Clouds 5 1031 81 10000 4.63 60 08:39 27.02.2021
2079 Clouds 5 1030 81 10000 4.12 70 08:20 27.02.2021
2080 Clouds 5 1030 81 10000 4.63 50 07:37 27.02.2021
2081 Clouds 6 1030 81 10000 2.06 0 04:26 27.02.2021
2082 Clouds 7 1029 81 10000 1.03 0 00:41 27.02.2021
2083 Clear 8 1029 76 10000 2.57 50 23:51 26.02.2021
2084 Clear 8 1031 76 10000 2.57 50 23:26 26.02.2021
2085 Clouds 9 1028 76 10000 0.51 0 22:44 26.02.2021
2086 Clouds 9 1028 76 10000 0.51 0 22:23 26.02.2021
2087 Clouds 9 1028 76 10000 1.03 0 21:42 26.02.2021
2088 Clouds 9 1028 81 10000 0.51 0 21:19 26.02.2021
2089 Clouds 9 1028 76 10000 0.51 0 20:44 26.02.2021
2090 Clouds 9 1028 76 10000 0.51 0 20:44 26.02.2021
2091 Clouds 10 1028 62 10000 1.03 0 20:21 26.02.2021
2092 Clouds 10 1028 66 10000 1.28 39 19:42 26.02.2021
2093 Clouds 11 1028 62 10000 1.47 35 19:22 26.02.2021
2094 Clouds 11 1028 54 10000 1.47 35 18:42 26.02.2021
2095 Rain 12 1028 47 10000 1.03 0 18:21 26.02.2021
2096 Clouds 13 1028 44 10000 1.03 300 17:40 26.02.2021
2097 Clouds 13 1028 44 10000 1.03 300 17:22 26.02.2021
2098 Rain 14 1028 38 10000 2.57 300 16:52 26.02.2021
2099 Clouds 14 1028 38 10000 2.06 310 16:31 26.02.2021
2100 Clouds 14 1028 38 10000 3.6 310 15:57 26.02.2021
2101 Clouds 14 1028 38 10000 3.6 310 15:37 26.02.2021
2102 Clouds 15 1028 33 10000 3.6 290 15:19 26.02.2021
2103 Clouds 15 1028 39 10000 3.09 310 14:44 26.02.2021
2104 Clouds 15 1029 41 10000 2.57 300 14:24 26.02.2021
2105 Clouds 14 1029 44 10000 1.03 0 13:42 26.02.2021
2106 Clear 15 1029 41 10000 1.03 340 13:23 26.02.2021
2107 Clear 14 1030 47 10000 1.11 289 12:39 26.02.2021
2108 Clear 14 1030 50 10000 1.54 0 11:54 26.02.2021
2109 Clear 13 1030 50 10000 1.54 0 11:36 26.02.2021
2110 Clear 12 1031 66 10000 1.54 170 10:48 26.02.2021
2111 Clear 9 1031 100 10000 1.54 0 09:56 26.02.2021
2112 Clear 7 1031 100 10000 0.66 253 09:31 26.02.2021
2113 Clear 5 1031 100 10000 1.03 0 08:56 26.02.2021
2114 Clear 5 1031 100 10000 1.03 150 08:25 26.02.2021
2115 Clear 4 1031 100 10000 1.54 150 07:49 26.02.2021
2116 Clear 5 1031 100 10000 0.51 0 06:36 26.02.2021
2117 Clear 4 1031 100 10000 0.51 0 05:31 26.02.2021
2118 Clear 5 1031 100 10000 0.51 0 03:47 26.02.2021
2119 Clear 5 1031 100 10000 0.51 0 02:35 26.02.2021
2120 Clear 6 1031 100 10000 0.51 0 23:56 25.02.2021
2121 Clear 6 1031 93 10000 0.51 0 23:28 25.02.2021
2122 Clear 6 1031 87 10000 3.09 100 22:49 25.02.2021
2123 Clear 7 1031 100 10000 0.51 0 22:19 25.02.2021
2124 Clear 6 1031 100 10000 1.03 0 21:41 25.02.2021
2125 Clear 7 1031 93 10000 1.03 90 21:23 25.02.2021
2126 Clear 8 1030 81 10000 1.03 130 20:41 25.02.2021
2127 Clear 8 1030 81 10000 1.54 0 20:22 25.02.2021
2128 Clear 9 1029 71 10000 1.54 0 19:52 25.02.2021
2129 Clear 10 1029 62 10000 1.03 0 19:22 25.02.2021
2130 Clear 11 1029 54 10000 1.54 270 18:57 25.02.2021
2131 Clear 12 1028 47 10000 1.54 0 18:25 25.02.2021
2132 Clear 14 1028 44 10000 1.54 200 17:49 25.02.2021
2133 Clear 16 1028 36 10000 1.03 0 17:26 25.02.2021
2134 Clear 17 1028 36 10000 2.57 270 16:43 25.02.2021
2135 Clear 17 1028 30 10000 2.06 270 16:25 25.02.2021
2136 Clear 18 1029 34 10000 2.06 220 15:30 25.02.2021
2137 Clear 17 1029 36 10000 2.57 290 14:57 25.02.2021
2138 Clear 16 1029 39 10000 2.57 310 14:22 25.02.2021
2139 Clear 16 1030 39 10000 3.09 290 13:53 25.02.2021
2140 Clear 15 1030 44 10000 2.06 290 13:26 25.02.2021
2141 Clear 15 1030 47 10000 0.51 0 12:53 25.02.2021
2142 Clear 14 1030 44 10000 1.03 220 12:21 25.02.2021
2143 Clear 13 1031 50 10000 1.54 0 11:45 25.02.2021
2144 Clear 12 1031 57 10000 1.54 130 11:19 25.02.2021
2145 Clear 11 1031 66 10000 2.06 130 10:44 25.02.2021
2146 Clear 9 1031 93 10000 0.51 0 09:59 25.02.2021
2147 Clear 8 1031 93 10000 0.51 0 09:40 25.02.2021
2148 Clear 3 1031 100 10000 0.51 0 08:54 25.02.2021
2149 Fog 4 1031 100 10000 0.51 0 08:23 25.02.2021
2150 Fog 3 1031 100 10000 0.51 0 07:52 25.02.2021
2151 Clear 3 1031 100 10000 0.51 0 07:26 25.02.2021
2152 Clear 3 1031 100 9000 0.51 0 06:47 25.02.2021
2153 Clear 6 1032 100 10000 1.03 0 01:57 25.02.2021
2154 Clear 6 1032 100 10000 1.03 0 01:34 25.02.2021
2155 Clear 6 1032 100 7000 1.29 181 00:39 25.02.2021
2156 Clear 6 1032 100 10000 1.54 110 23:51 24.02.2021
2157 Clear 7 1032 100 10000 0.51 0 23:24 24.02.2021
2158 Clear 7 1032 100 6000 0.51 0 22:44 24.02.2021
2159 Clear 7 1032 100 10000 0.51 0 22:25 24.02.2021
2160 Clear 7 1032 100 10000 0.51 0 21:45 24.02.2021
2161 Clear 8 1032 93 10000 2.06 130 20:54 24.02.2021
2162 Clear 8 1032 93 10000 1.03 120 20:30 24.02.2021
2163 Clear 9 1031 81 10000 1.54 100 19:56 24.02.2021
2164 Clear 10 1031 71 10000 0.99 162 19:26 24.02.2021
2165 Clear 11 1031 66 10000 1.54 0 18:55 24.02.2021
2166 Clear 11 1031 66 10000 1.54 0 18:34 24.02.2021
2167 Clear 14 1031 48 10000 1.54 340 17:50 24.02.2021
2168 Clear 15 1031 48 10000 1.54 340 17:29 24.02.2021
2169 Clear 16 1031 42 10000 3.09 280 16:52 24.02.2021
2170 Clear 16 1032 39 10000 3.09 270 16:22 24.02.2021
2171 Clear 16 1032 36 10000 2.06 290 15:58 24.02.2021
2172 Clear 17 1032 36 10000 2.06 290 15:36 24.02.2021
2173 Clear 17 1033 39 10000 1.54 310 14:53 24.02.2021
2174 Clear 17 1033 39 10000 1.54 310 14:32 24.02.2021
2175 Clear 16 1034 44 10000 1.03 0 13:56 24.02.2021
2176 Clear 16 1034 44 10000 1.03 0 13:38 24.02.2021
2177 Clear 15 1034 51 10000 1.03 0 13:19 24.02.2021
2178 Clear 15 1035 51 10000 0.51 0 12:43 24.02.2021
2179 Clear 14 1035 58 10000 1.03 0 12:23 24.02.2021
2180 Clear 13 1035 62 10000 0.51 0 11:45 24.02.2021
2181 Clear 11 1036 81 10000 1.54 150 10:49 24.02.2021
2182 Clear 11 1037 56 10000 0.37 243 10:29 24.02.2021
2183 Clear 5 1036 100 10000 0.51 0 09:41 24.02.2021
2184 Clear 6 1036 100 10000 0.76 180 09:18 24.02.2021
2185 Clear 4 1036 100 10000 0.76 180 08:33 24.02.2021
2186 Clear 3 1036 100 10000 0.51 0 07:55 24.02.2021
2187 Clear 3 1036 100 6000 0.51 0 07:19 24.02.2021
2188 Clear 4 1036 100 10000 0.51 0 06:20 24.02.2021
2189 Clear 6 1037 100 10000 0.51 0 02:47 24.02.2021
2190 Clear 7 1037 100 10000 0.51 110 23:59 23.02.2021
2191 Clear 7 1037 87 10000 1.03 0 23:20 23.02.2021
2192 Clear 6 1036 93 10000 0.51 0 22:37 23.02.2021
2193 Clear 6 1036 87 10000 1.03 0 22:18 23.02.2021
2194 Clear 7 1036 87 10000 0.51 0 21:40 23.02.2021
2195 Clear 7 1036 93 10000 1.54 130 21:22 23.02.2021
2196 Clear 7 1036 93 10000 1.03 0 20:47 23.02.2021
2197 Clear 8 1036 76 10000 1.54 0 20:28 23.02.2021
2198 Clear 8 1035 81 10000 0.51 0 19:47 23.02.2021
2199 Clear 9 1035 76 10000 1.03 0 19:27 23.02.2021
2200 Clear 10 1035 62 10000 1.03 0 18:50 23.02.2021
2201 Clear 12 1034 54 10000 1.03 0 18:29 23.02.2021
2202 Clear 13 1034 41 10000 2.06 210 17:54 23.02.2021
2203 Clear 14 1034 39 10000 1.03 0 17:29 23.02.2021
2204 Clear 15 1034 36 10000 1.03 320 16:47 23.02.2021
2205 Clear 16 1034 39 10000 1.54 330 16:25 23.02.2021
2206 Clear 16 1034 39 10000 2.57 320 15:52 23.02.2021
2207 Clear 16 1034 39 10000 2.57 320 15:34 23.02.2021
2208 Clear 16 1034 39 10000 3.09 320 14:58 23.02.2021
2209 Clear 15 1034 39 10000 3.09 320 14:40 23.02.2021
2210 Clear 15 1034 36 10000 2.57 310 14:19 23.02.2021
2211 Clear 15 1035 38 10000 2.06 320 13:39 23.02.2021
2212 Clear 15 1035 41 10000 1.03 0 13:19 23.02.2021
2213 Clear 14 1035 47 10000 2.57 300 12:46 23.02.2021
2214 Clear 13 1035 50 10000 1.03 260 12:19 23.02.2021
2215 Clear 12 1035 53 10000 0.51 0 11:45 23.02.2021
2216 Clear 12 1035 53 10000 0.51 0 11:45 23.02.2021
2217 Clear 11 1035 71 10000 0.51 0 11:18 23.02.2021
2218 Clear 10 1035 75 10000 0.51 0 10:40 23.02.2021
2219 Clear 10 1035 75 10000 0.51 0 10:40 23.02.2021
2220 Clear 9 1035 75 10000 0.51 0 10:19 23.02.2021
2221 Clear 6 1035 87 10000 0.6 340 09:42 23.02.2021
2222 Clear 5 1034 100 10000 0.51 0 09:21 23.02.2021
2223 Clear 4 1034 100 10000 0.51 0 08:47 23.02.2021
2224 Clear 3 1034 100 10000 1.03 0 08:21 23.02.2021
2225 Clear 3 1033 100 10000 1.03 140 07:39 23.02.2021
2226 Clear 3 1033 100 10000 1.03 0 05:28 23.02.2021
2227 Clear 4 1031 93 10000 0.51 0 02:54 23.02.2021
2228 Clear 4 1031 93 10000 0.51 0 02:33 23.02.2021
2229 Clear 4 1030 100 10000 1.03 0 00:20 23.02.2021
2230 Clear 3 1030 100 10000 0.51 0 23:43 22.02.2021
2231 Clear 4 1029 87 10000 0.51 0 22:57 22.02.2021
2232 Clear 4 1029 87 10000 0.51 0 22:38 22.02.2021
2233 Clear 4 1029 93 10000 1.03 0 22:19 22.02.2021
2234 Clouds 5 1028 81 10000 0.51 0 21:38 22.02.2021
2235 Clouds 5 1028 93 10000 1.03 90 21:20 22.02.2021
2236 Clouds 6 1027 81 10000 0.51 0 20:45 22.02.2021
2237 Clouds 6 1027 87 10000 1.03 110 20:26 22.02.2021
2238 Clouds 7 1026 81 10000 1.03 0 19:49 22.02.2021
2239 Clouds 7 1026 75 10000 2.06 160 19:30 22.02.2021
2240 Clear 8 1025 70 10000 1.03 0 18:49 22.02.2021
2241 Clouds 9 1024 66 10000 0.51 0 18:29 22.02.2021
2242 Clear 10 1024 50 10000 0.51 0 17:49 22.02.2021
2243 Clear 12 1024 47 10000 1.54 190 17:20 22.02.2021
2244 Clear 12 1023 50 10000 1.05 215 16:50 22.02.2021
2245 Clear 13 1023 47 10000 1.03 0 16:29 22.02.2021
2246 Clear 13 1022 44 10000 2.06 340 15:32 22.02.2021
2247 Clear 12 1022 44 10000 3.09 330 14:54 22.02.2021
2248 Clouds 13 1022 43 10000 3.6 300 14:35 22.02.2021
2249 Clear 12 1022 50 10000 1.54 280 13:54 22.02.2021
2250 Clear 12 1022 50 10000 1.54 280 13:33 22.02.2021
2251 Clear 11 1022 47 10000 1.54 0 12:52 22.02.2021
2252 Clear 11 1022 46 10000 1.03 0 12:23 22.02.2021
2253 Clear 11 1022 53 10000 1.54 0 11:52 22.02.2021
2254 Clear 9 1022 65 10000 1.03 0 11:31 22.02.2021
2255 Clear 9 1022 75 10000 0.51 0 10:59 22.02.2021
2256 Clear 7 1022 75 10000 0.51 0 10:39 22.02.2021
2257 Clear 6 1022 81 10000 1.03 0 10:19 22.02.2021
2258 Clear 5 1022 93 10000 1.54 0 09:37 22.02.2021
2259 Clear 4 1022 93 10000 1.03 0 09:19 22.02.2021
2260 Clear 3 1021 100 10000 1.12 180 08:49 22.02.2021
2261 Clear 1 1021 100 10000 1.03 0 08:20 22.02.2021
2262 Clear 2 1021 100 10000 1.03 0 07:42 22.02.2021
2263 Clear 1 1021 100 10000 1.03 0 07:20 22.02.2021
2264 Clear -1 1021 100 10000 0.51 0 06:25 22.02.2021
2265 Clear 1 1020 100 10000 0.51 0 03:49 22.02.2021
2266 Clear 2 1020 100 10000 0.51 0 03:20 22.02.2021
2267 Clear 2 1019 100 10000 0.51 0 00:53 22.02.2021
2268 Clear 3 1018 100 10000 1.03 0 00:28 22.02.2021
2269 Clear 3 1018 93 10000 1.03 0 23:52 21.02.2021
2270 Clear 3 1017 86 10000 1.54 0 22:59 21.02.2021
2271 Clear 4 1017 93 10000 1.03 0 22:27 21.02.2021
2272 Clear 4 1017 93 10000 0.51 0 21:51 21.02.2021
2273 Clear 4 1017 93 10000 0.51 0 21:32 21.02.2021
2274 Clear 5 1017 81 10000 1.03 0 20:55 21.02.2021
2275 Clear 6 1016 81 10000 0.51 0 20:22 21.02.2021
2276 Clear 6 1016 81 10000 0.51 0 19:59 21.02.2021
2277 Clear 6 1016 81 10000 0.51 0 19:40 21.02.2021
2278 Clear 7 1016 70 10000 1.03 120 19:21 21.02.2021
2279 Clear 10 1016 50 10000 0.51 0 18:28 21.02.2021
2280 Clear 11 1016 47 10000 1.03 180 17:57 21.02.2021
2281 Clear 13 1016 51 10000 1.54 230 17:25 21.02.2021
2282 Clear 14 1016 39 10000 1.54 230 16:53 21.02.2021
2283 Clear 14 1016 39 10000 1.54 230 16:31 21.02.2021
2284 Clear 15 1016 38 10000 0.51 0 15:43 21.02.2021
2285 Clear 14 1016 36 10000 1.03 0 15:19 21.02.2021
2286 Clear 14 1017 38 10000 3.6 320 14:40 21.02.2021
2287 Clear 13 1017 41 10000 3.6 300 14:19 21.02.2021
2288 Clear 13 1017 41 10000 3.6 280 13:30 21.02.2021
2289 Clear 12 1018 41 10000 3.6 290 12:59 21.02.2021
2290 Clear 12 1018 50 10000 1.54 0 12:28 21.02.2021
2291 Clear 10 1018 53 10000 1.03 0 11:43 21.02.2021
2292 Clear 9 1019 61 10000 2.06 190 10:57 21.02.2021
2293 Clear 7 1019 70 10000 1.54 110 10:22 21.02.2021
2294 Clear 6 1019 87 10000 0.51 0 09:52 21.02.2021
2295 Clear 4 1019 100 10000 0.51 0 09:27 21.02.2021
2296 Clear 1 1019 100 10000 1.03 0 08:43 21.02.2021
2297 Clear 1 1019 100 10000 0.51 0 08:19 21.02.2021
2298 Clear 1 1019 100 8000 0.69 167 07:31 21.02.2021
2299 Clear 1 1019 100 9000 0.51 0 06:47 21.02.2021
2300 Clear 3 1019 100 10000 0.51 0 02:48 21.02.2021
2301 Clear 3 1019 100 10000 0.51 0 02:29 21.02.2021
2302 Clear 4 1019 100 10000 0.51 0 00:37 21.02.2021
2303 Clear 4 1019 100 10000 0.51 0 00:18 21.02.2021
2304 Clear 4 1019 100 10000 1.03 0 22:59 20.02.2021
2305 Clear 4 1019 100 10000 0.51 0 22:39 20.02.2021
2306 Clear 4 1019 100 10000 0.51 0 22:19 20.02.2021
2307 Clear 5 1018 100 10000 1.54 160 21:41 20.02.2021
2308 Clear 5 1018 100 10000 0.51 0 21:19 20.02.2021
2309 Clear 5 1018 93 10000 1.54 0 20:42 20.02.2021
2310 Clear 6 1018 100 10000 1.03 0 20:21 20.02.2021
2311 Clear 6 1018 93 10000 1.03 0 19:49 20.02.2021
2312 Clear 7 1018 87 10000 1.03 0 19:19 20.02.2021
2313 Clear 8 1017 76 10000 0.51 0 18:38 20.02.2021
2314 Clear 10 1017 62 10000 1.54 270 18:19 20.02.2021
2315 Clear 12 1017 62 10000 2.06 260 17:37 20.02.2021
2316 Clear 13 1017 44 10000 2.06 280 16:54 20.02.2021
2317 Clear 13 1017 44 10000 2.06 280 16:32 20.02.2021
2318 Clear 13 1018 44 10000 2.06 280 15:46 20.02.2021
2319 Clear 13 1018 47 10000 2.06 0 15:21 20.02.2021
2320 Clear 14 1018 47 10000 2.06 260 14:44 20.02.2021
2321 Clear 14 1018 47 10000 1.54 0 14:23 20.02.2021
2322 Clear 12 1019 54 10000 1.03 0 13:41 20.02.2021
2323 Clear 12 1019 50 10000 1.03 0 13:23 20.02.2021
2324 Clear 11 1019 54 10000 2.06 160 12:50 20.02.2021
2325 Clear 11 1020 58 10000 1.54 0 12:23 20.02.2021
2326 Clear 10 1020 66 10000 2.06 130 11:43 20.02.2021
2327 Clear 9 1020 66 10000 3.6 120 11:24 20.02.2021
2328 Clear 9 1020 81 10000 3.6 110 10:47 20.02.2021
2329 Clear 5 1020 100 10000 2.57 140 09:54 20.02.2021
2330 Clear 4 1020 100 10000 1.03 0 09:22 20.02.2021
2331 Clear 3 1020 100 10000 1.03 0 08:34 20.02.2021
2332 Fog 2 1019 100 10000 0.51 0 07:55 20.02.2021
2333 Clouds 4 1019 100 9000 0.51 0 02:46 20.02.2021
2334 Clear 4 1019 100 10000 1.03 0 02:22 20.02.2021
2335 Clear 4 1019 100 10000 0.51 0 01:48 20.02.2021
2336 Clear 5 1019 100 10000 1.03 0 00:45 20.02.2021
2337 Clear 4 1019 100 10000 1.54 140 23:51 19.02.2021
2338 Clouds 5 1019 100 9000 0.51 340 22:56 19.02.2021
2339 Clear 5 1019 100 10000 1.03 0 22:27 19.02.2021
2340 Clear 5 1019 100 10000 1.03 110 21:50 19.02.2021
2341 Clear 6 1019 93 10000 1.03 0 21:30 19.02.2021
2342 Clear 5 1019 100 10000 1.03 140 20:48 19.02.2021
2343 Clear 7 1019 93 10000 1.03 0 20:28 19.02.2021
2344 Clear 6 1018 93 10000 1.03 0 19:55 19.02.2021
2345 Clear 8 1018 76 10000 1.03 0 19:24 19.02.2021
2346 Clear 9 1018 66 10000 1.03 250 18:56 19.02.2021
2347 Clear 9 1018 66 10000 1.03 250 18:33 19.02.2021
2348 Clear 12 1018 58 10000 1.54 240 17:49 19.02.2021
2349 Clear 13 1018 58 10000 1.54 220 16:52 19.02.2021
2350 Clear 13 1018 51 10000 1.03 0 16:27 19.02.2021
2351 Clear 13 1018 51 10000 1.54 300 15:58 19.02.2021
2352 Clear 14 1018 51 10000 0.51 0 15:31 19.02.2021
2353 Clear 13 1018 47 10000 1.03 0 14:56 19.02.2021
2354 Clear 13 1018 47 10000 1.03 0 14:38 19.02.2021
2355 Clear 13 1019 50 10000 1.03 0 13:58 19.02.2021
2356 Clear 13 1019 50 10000 1.03 0 13:39 19.02.2021
2357 Clear 12 1019 50 10000 0.44 268 13:19 19.02.2021
2358 Clear 11 1020 58 10000 1.03 0 12:41 19.02.2021
2359 Clear 11 1020 54 10000 0.51 0 12:22 19.02.2021
2360 Clouds 11 1020 62 10000 1.54 170 11:48 19.02.2021
2361 Clouds 10 1020 66 10000 1.54 150 11:22 19.02.2021
2362 Clouds 10 1020 76 10000 1.03 0 10:42 19.02.2021
2363 Clouds 8 1020 87 10000 2.06 110 10:20 19.02.2021
2364 Clouds 6 1020 81 10000 2.57 130 09:39 19.02.2021
2365 Clouds 6 1020 87 10000 0.51 0 09:21 19.02.2021
2366 Clouds 5 1020 93 10000 1.03 0 08:49 19.02.2021
2367 Clouds 5 1020 93 10000 1.03 0 08:22 19.02.2021
2368 Clouds 4 1019 93 10000 1.03 0 07:48 19.02.2021
2369 Clouds 5 1019 93 10000 1.54 0 07:27 19.02.2021
2370 Clouds 4 1019 93 10000 0.51 0 06:48 19.02.2021
2371 Clouds 5 1019 87 10000 1.54 80 05:21 19.02.2021
2372 Clouds 5 1018 87 10000 1.54 80 04:41 19.02.2021
2373 Clouds 5 1018 93 10000 2.57 120 01:47 19.02.2021
2374 Clouds 4 1018 100 10000 0.51 0 00:36 19.02.2021
2375 Clouds 4 1018 100 10000 1.54 140 23:52 18.02.2021
2376 Clouds 4 1018 100 10000 1.54 140 23:33 18.02.2021
2377 Clouds 4 1018 100 10000 0.51 0 22:44 18.02.2021
2378 Clear 4 1017 100 10000 1.03 0 22:26 18.02.2021
2379 Clear 4 1017 93 10000 2.06 110 21:45 18.02.2021
2380 Clear 4 1017 100 10000 1.54 0 21:24 18.02.2021
2381 Clear 4 1016 87 10000 1.03 0 20:41 18.02.2021
2382 Clear 4 1016 87 10000 1.03 0 20:41 18.02.2021
2383 Clear 4 1016 81 10000 2.06 0 20:23 18.02.2021
2384 Clear 5 1016 75 10000 3.09 360 19:46 18.02.2021
2385 Clear 4 1015 81 10000 2.57 350 19:26 18.02.2021
2386 Clear 5 1015 81 10000 1.54 320 18:52 18.02.2021
2387 Clear 5 1015 81 10000 1.03 0 18:27 18.02.2021
2388 Clear 7 1015 66 10000 1.03 140 17:52 18.02.2021
2389 Clear 7 1015 71 10000 1.03 0 17:25 18.02.2021
2390 Clear 8 1015 66 10000 1.03 0 16:53 18.02.2021
2391 Clouds 7 1016 63 10000 0.57 267 16:35 18.02.2021
2392 Clear 8 1016 57 10000 0.51 0 15:55 18.02.2021
2393 Clear 8 1016 57 10000 0.51 0 15:36 18.02.2021
2394 Clear 8 1016 61 10000 1.03 240 15:18 18.02.2021
2395 Clear 8 1016 57 10000 1.03 0 14:42 18.02.2021
2396 Clear 8 1017 57 10000 1.03 0 14:23 18.02.2021
2397 Clear 9 1017 57 10000 1.03 0 13:44 18.02.2021
2398 Clouds 10 1017 57 10000 1.03 220 13:18 18.02.2021
2399 Clouds 7 1017 65 10000 0.39 267 12:42 18.02.2021
2400 Clouds 7 1018 61 10000 0.93 273 12:21 18.02.2021
2401 Clouds 6 1017 65 10000 2.06 100 11:46 18.02.2021
2402 Clouds 5 1018 81 10000 2.06 160 11:25 18.02.2021
2403 Clouds 6 1018 93 10000 1.03 0 10:44 18.02.2021
2404 Clear 4 1018 100 10000 1.03 0 10:25 18.02.2021
2405 Clear 3 1018 100 10000 1.03 0 09:39 18.02.2021
2406 Clear 2 1018 100 10000 1.03 0 09:20 18.02.2021
2407 Clear 1 1018 100 10000 1.54 0 08:40 18.02.2021
2408 Clear 0 1018 100 10000 1.03 0 08:21 18.02.2021
2409 Clear 0 1019 100 10000 1.03 130 07:32 18.02.2021
2410 Clouds 0 1019 100 10000 1.03 0 06:41 18.02.2021
2411 Clear 2 1020 100 10000 1.03 0 02:29 18.02.2021
2412 Clear 3 1020 100 10000 2.57 100 23:51 17.02.2021
2413 Clear 3 1021 100 10000 1.54 120 23:21 17.02.2021
2414 Clear 3 1021 100 10000 1.54 100 22:49 17.02.2021
2415 Clear 3 1021 100 10000 1.03 0 22:25 17.02.2021
2416 Clear 2 1021 100 10000 0.51 0 21:48 17.02.2021
2417 Clear 3 1021 100 10000 1.03 0 21:22 17.02.2021
2418 Clear 3 1021 100 10000 2.06 150 20:47 17.02.2021
2419 Clear 4 1021 100 10000 1.54 130 20:28 17.02.2021
2420 Clear 4 1021 93 10000 1.03 140 19:46 17.02.2021
2421 Clear 5 1021 87 10000 0.51 0 19:27 17.02.2021
2422 Clear 6 1020 87 10000 1.34 136 18:41 17.02.2021
2423 Clear 7 1020 71 10000 1.03 0 18:22 17.02.2021
2424 Clear 7 1020 71 10000 1.03 0 18:22 17.02.2021
2425 Clear 9 1020 66 10000 1.54 180 17:40 17.02.2021
2426 Clear 10 1021 66 10000 1.54 210 17:18 17.02.2021
2427 Clear 10 1021 54 10000 1.03 0 16:43 17.02.2021
2428 Clear 11 1021 54 10000 1.03 0 16:22 17.02.2021
2429 Clear 11 1021 54 10000 1.03 0 15:44 17.02.2021
2430 Clear 11 1021 54 10000 1.03 0 15:44 17.02.2021
2431 Clear 11 1022 58 10000 1.03 0 15:23 17.02.2021
2432 Clouds 11 1022 58 10000 1.03 0 14:46 17.02.2021
2433 Clouds 11 1022 58 10000 1.03 0 14:28 17.02.2021
2434 Clouds 11 1022 58 10000 1.54 0 13:45 17.02.2021
2435 Clouds 10 1023 62 10000 1.54 150 13:27 17.02.2021
2436 Clouds 10 1023 71 10000 2.06 150 12:47 17.02.2021
2437 Clouds 10 1023 87 10000 2.06 150 12:23 17.02.2021
2438 Clouds 9 1023 100 10000 2.06 190 11:42 17.02.2021
2439 Clouds 8 1023 100 6000 1.24 276 11:19 17.02.2021
2440 Fog 7 1024 100 1200 1.03 0 10:45 17.02.2021
2441 Clouds 8 1025 72 10000 2.68 288 10:25 17.02.2021
2442 Clouds 6 1025 73 10000 2.68 269 09:45 17.02.2021
2443 Fog 5 1023 100 200 1.54 0 09:26 17.02.2021
2444 Fog 5 1023 100 500 1.03 0 08:43 17.02.2021
2445 Fog 4 1023 100 5000 1.54 0 08:22 17.02.2021
2446 Fog 5 1022 100 5000 0.51 0 07:34 17.02.2021
2447 Fog 4 1022 100 750 1.03 0 06:35 17.02.2021
2448 Clouds 7 1023 79 10000 1.34 336 02:42 17.02.2021
2449 Clouds 7 1023 79 10000 3.58 272 02:21 17.02.2021
2450 Snow 5 1020 93 10000 1.03 0 00:33 17.02.2021
2451 Snow 6 1020 100 9000 1.03 0 23:57 16.02.2021
2452 Snow 6 1020 100 9000 1.03 0 23:38 16.02.2021
2453 Clouds 3 1020 100 10000 0.51 0 22:44 16.02.2021
2454 Clouds 3 1020 100 10000 1.03 0 22:25 16.02.2021
2455 Clouds 3 1020 100 10000 1.03 0 22:25 16.02.2021
2456 Clouds 3 1020 100 10000 1.03 0 22:25 16.02.2021
2457 Clouds 3 1019 100 10000 0.51 0 21:57 16.02.2021
2458 Clouds 3 1019 100 10000 0.51 0 21:39 16.02.2021
2459 Clear 3 1019 100 10000 0.51 0 21:20 16.02.2021
2460 Clear 3 1019 100 10000 0.51 0 20:42 16.02.2021
2461 Clear 3 1019 100 10000 1.03 0 20:20 16.02.2021
2462 Clear 4 1019 93 10000 0.51 0 19:44 16.02.2021
2463 Clear 4 1019 81 10000 1.03 0 19:25 16.02.2021
2464 Clear 5 1018 75 10000 1.54 0 18:41 16.02.2021
2465 Clear 5 1018 65 10000 1.54 0 18:23 16.02.2021
2466 Clear 7 1018 61 10000 2.06 310 17:53 16.02.2021
2467 Clouds 7 1019 55 10000 1.42 235 17:27 16.02.2021
2468 Clouds 9 1019 57 10000 2.57 290 16:52 16.02.2021
2469 Clouds 9 1019 57 10000 2.57 290 16:52 16.02.2021
2470 Clear 9 1019 57 10000 1.54 270 16:30 16.02.2021
2471 Clear 9 1019 57 10000 1.54 270 16:30 16.02.2021
2472 Clouds 9 1020 55 10000 0.45 250 15:53 16.02.2021
2473 Clouds 9 1021 54 10000 1.43 255 15:32 16.02.2021
2474 Clouds 9 1021 56 10000 0.45 285 14:58 16.02.2021
2475 Clear 9 1021 50 10000 1.03 0 14:38 16.02.2021
2476 Clear 9 1021 53 10000 1.03 0 14:19 16.02.2021
2477 Clear 9 1022 53 10000 2.57 310 13:40 16.02.2021
2478 Clear 9 1022 57 10000 1.03 0 12:53 16.02.2021
2479 Clear 7 1023 61 10000 1.03 0 12:29 16.02.2021
2480 Clouds 7 1023 75 10000 1.03 0 11:58 16.02.2021
2481 Clouds 7 1023 75 10000 1.03 0 11:39 16.02.2021
2482 Clouds 6 1024 75 10000 1.03 0 11:19 16.02.2021
2483 Clouds 6 1024 75 10000 1.03 0 10:45 16.02.2021
2484 Clouds 5 1024 87 10000 1.03 0 10:27 16.02.2021
2485 Clouds 4 1025 93 10000 1.03 0 09:52 16.02.2021
2486 Clouds 2 1025 93 10000 1.54 150 09:26 16.02.2021
2487 Clouds 2 1025 100 10000 1.03 0 08:51 16.02.2021
2488 Clouds 2 1025 93 10000 1.03 0 08:28 16.02.2021
2489 Clouds 2 1025 93 10000 1.54 0 07:45 16.02.2021
2490 Clouds 2 1026 100 10000 2.57 100 06:51 16.02.2021
2491 Rain 2 1028 80 10000 0.51 0 02:40 16.02.2021
2492 Clouds 2 1029 80 10000 1.03 0 23:55 15.02.2021
2493 Clouds 2 1029 75 10000 1.03 0 23:29 15.02.2021
2494 Clouds 3 1029 80 10000 3.09 130 22:50 15.02.2021
2495 Clouds 3 1030 80 10000 2.57 150 22:28 15.02.2021
2496 Clouds 3 1030 69 10000 1.54 100 21:47 15.02.2021
2497 Rain 3 1030 75 10000 1.54 90 21:24 15.02.2021
2498 Rain 2 1030 69 10000 2.06 100 20:55 15.02.2021
2499 Clouds 2 1030 69 10000 2.06 100 20:37 15.02.2021
2500 Clouds 2 1030 75 10000 1.54 90 19:51 15.02.2021
2501 Clouds 2 1030 75 10000 1.54 0 19:29 15.02.2021
2502 Clouds 2 1030 70 10000 1.03 0 18:57 15.02.2021
2503 Clouds 3 1030 60 10000 1.54 100 18:29 15.02.2021
2504 Clouds 3 1030 60 10000 2.57 120 17:58 15.02.2021
2505 Clouds 3 1030 60 10000 2.57 120 17:40 15.02.2021
2506 Clouds 4 1031 60 10000 2.06 120 17:21 15.02.2021
2507 Rain 4 1031 60 10000 2.57 150 16:45 15.02.2021
2508 Rain 4 1031 60 10000 2.57 160 16:22 15.02.2021
2509 Rain 4 1031 60 10000 3.09 150 15:44 15.02.2021
2510 Rain 4 1031 56 10000 1.54 0 15:19 15.02.2021
2511 Clouds 4 1031 56 10000 1.03 0 14:48 15.02.2021
2512 Clouds 5 1031 56 10000 1.03 0 14:21 15.02.2021
2513 Rain 4 1032 56 10000 0.51 0 13:49 15.02.2021
2514 Clouds 4 1032 56 10000 1.03 0 13:22 15.02.2021
2515 Clouds 3 1033 60 10000 1.03 0 12:51 15.02.2021
2516 Clouds 3 1033 60 10000 1.54 130 12:27 15.02.2021
2517 Clouds 2 1033 69 10000 1.03 0 11:53 15.02.2021
2518 Clouds 2 1033 69 10000 1.54 140 11:26 15.02.2021
2519 Clouds 1 1033 74 10000 1.54 0 10:55 15.02.2021
2520 Clouds 1 1033 74 10000 1.54 0 10:36 15.02.2021
2521 Clouds 0 1033 80 10000 1.03 160 10:18 15.02.2021
2522 Clouds -1 1033 86 10000 1.54 170 09:47 15.02.2021
2523 Clouds -2 1033 86 10000 1.03 0 09:25 15.02.2021
2524 Clouds -3 1033 93 10000 3.09 110 08:22 15.02.2021
2525 Clouds -4 1033 93 10000 2.57 110 07:20 15.02.2021
2526 Clouds -4 1033 93 10000 1.54 0 06:41 15.02.2021
2527 Clouds -4 1033 93 10000 1.54 150 03:33 15.02.2021
2528 Clouds -5 1034 93 10000 1.03 150 02:21 15.02.2021
2529 Clouds -5 1034 93 9000 0.51 0 00:19 15.02.2021
2530 Clear -5 1034 86 10000 0.51 0 23:25 14.02.2021
2531 Clear -4 1034 86 10000 0.51 0 22:46 14.02.2021
2532 Clear -4 1034 93 10000 1.03 190 22:27 14.02.2021
2533 Clear -4 1034 86 10000 1.54 120 21:51 14.02.2021
2534 Clear -4 1034 86 10000 1.54 130 21:30 14.02.2021
2535 Clear -4 1034 86 10000 1.54 120 20:53 14.02.2021
2536 Clear -3 1034 80 10000 1.54 110 20:30 14.02.2021
2537 Clear -3 1034 69 10000 1.54 0 19:49 14.02.2021
2538 Clear -3 1034 80 10000 1.54 0 19:29 14.02.2021
2539 Clear -2 1034 64 10000 2.06 150 18:42 14.02.2021
2540 Clear -2 1034 64 10000 2.06 150 18:42 14.02.2021
2541 Clear -2 1034 64 10000 2.57 160 18:21 14.02.2021
2542 Clear -1 1034 59 10000 1.03 0 17:40 14.02.2021
2543 Clear -1 1034 64 10000 1.03 0 17:19 14.02.2021
2544 Clear -1 1034 51 10000 0.91 23 16:40 14.02.2021
2545 Clear -1 1034 59 10000 2.06 230 16:18 14.02.2021
2546 Clear -1 1034 59 10000 1.54 220 15:44 14.02.2021
2547 Clear -1 1035 59 10000 0.51 0 14:58 14.02.2021
2548 Clear -1 1035 64 10000 1.54 0 14:30 14.02.2021
2549 Clear -1 1035 63 10000 1.03 0 13:56 14.02.2021
2550 Clouds -2 1035 63 10000 1.54 0 13:31 14.02.2021
2551 Clouds -2 1035 63 10000 1.03 0 12:45 14.02.2021
2552 Clouds -4 1036 63 10000 2.06 180 12:21 14.02.2021
2553 Clouds -4 1036 68 10000 1.54 0 11:51 14.02.2021
2554 Clouds -5 1035 68 10000 1.03 0 11:25 14.02.2021
2555 Clouds -5 1035 68 10000 2.57 310 10:49 14.02.2021
2556 Clouds -6 1034 73 10000 2.57 320 09:57 14.02.2021
2557 Clouds -7 1034 73 10000 2.57 320 09:39 14.02.2021
2558 Clouds -7 1034 73 10000 2.06 330 09:21 14.02.2021
2559 Clouds -8 1034 73 10000 2.57 330 08:41 14.02.2021
2560 Clouds -8 1033 73 10000 3.09 320 07:57 14.02.2021
2561 Clouds -8 1033 73 10000 3.09 300 06:51 14.02.2021
2562 Clouds -8 1033 73 10000 2.57 310 05:42 14.02.2021
2563 Clouds -8 1032 73 10000 3.09 290 03:32 14.02.2021
2564 Clouds -8 1032 73 10000 2.57 300 02:22 14.02.2021
2565 Clouds -7 1032 73 10000 2.57 290 00:48 14.02.2021
2566 Clouds -7 1031 73 10000 2.06 300 00:27 14.02.2021
2567 Clouds -7 1031 73 10000 1.54 300 23:41 13.02.2021
2568 Clouds -7 1031 68 10000 1.03 0 23:21 13.02.2021
2569 Clouds -7 1031 68 10000 2.06 300 22:42 13.02.2021
2570 Clouds -7 1031 73 10000 2.57 330 22:19 13.02.2021
2571 Clouds -7 1031 68 10000 2.06 360 21:42 13.02.2021
2572 Clouds -7 1031 68 10000 2.06 330 21:21 13.02.2021
2573 Clouds -6 1031 68 10000 2.06 30 20:30 13.02.2021
2574 Clouds -6 1030 68 10000 2.57 40 19:56 13.02.2021
2575 Clouds -6 1030 68 10000 2.57 40 19:37 13.02.2021
2576 Clouds -6 1030 68 10000 3.09 50 19:18 13.02.2021
2577 Clouds -6 1030 68 10000 2.57 60 18:40 13.02.2021
2578 Clouds -6 1029 68 10000 4.12 40 17:57 13.02.2021
2579 Clouds -6 1029 68 10000 4.12 40 17:38 13.02.2021
2580 Clouds -6 1029 68 10000 3.6 50 17:19 13.02.2021
2581 Clouds -6 1029 68 10000 4.12 50 16:42 13.02.2021
2582 Clouds -5 1029 68 10000 3.6 50 16:18 13.02.2021
2583 Clouds -5 1028 68 10000 3.09 50 15:29 13.02.2021
2584 Clouds -5 1028 68 10000 2.57 30 14:51 13.02.2021
2585 Clouds -5 1028 73 10000 3.6 10 14:31 13.02.2021
2586 Clouds -5 1028 68 10000 2.57 20 13:48 13.02.2021
2587 Clouds -6 1028 68 10000 2.06 10 13:24 13.02.2021
2588 Clouds -6 1028 68 10000 2.57 350 12:45 13.02.2021
2589 Clouds -6 1028 68 10000 3.09 20 12:18 13.02.2021
2590 Clouds -6 1028 68 10000 2.57 10 11:43 13.02.2021
2591 Clouds -7 1027 68 10000 3.6 10 11:19 13.02.2021
2592 Clouds -8 1027 73 10000 3.09 20 10:45 13.02.2021
2593 Clouds -8 1027 73 10000 2.57 10 10:24 13.02.2021
2594 Clouds -8 1026 73 10000 2.06 10 09:53 13.02.2021
2595 Clouds -8 1027 73 10000 1.54 0 09:30 13.02.2021
2596 Clouds -8 1026 73 10000 2.06 360 08:54 13.02.2021
2597 Clouds -8 1026 73 10000 2.57 350 08:31 13.02.2021
2598 Clouds -8 1026 73 10000 3.09 360 07:50 13.02.2021
2599 Clouds -8 1025 73 10000 2.06 10 06:37 13.02.2021
2600 Clouds -8 1025 73 10000 2.57 10 05:20 13.02.2021
2601 Clouds -7 1024 73 10000 1.54 350 03:58 13.02.2021
2602 Clouds -7 1024 73 10000 2.57 10 01:32 13.02.2021
2603 Clouds -6 1023 73 10000 2.06 10 00:36 13.02.2021
2604 Clouds -6 1023 68 10000 1.54 20 23:53 12.02.2021
2605 Clouds -6 1023 74 10000 2.57 360 23:20 12.02.2021
2606 Clouds -6 1022 74 10000 2.06 10 22:40 12.02.2021
2607 Clouds -6 1022 74 10000 2.06 360 22:19 12.02.2021
2608 Clouds -6 1022 74 10000 1.54 10 21:45 12.02.2021
2609 Clouds -6 1022 74 10000 1.54 0 21:25 12.02.2021
2610 Clouds -6 1022 74 10000 1.03 0 20:46 12.02.2021
2611 Clouds -6 1022 74 10000 2.06 40 20:27 12.02.2021
2612 Clouds -6 1022 74 10000 2.06 0 19:55 12.02.2021
2613 Clouds -6 1021 74 10000 1.54 40 19:30 12.02.2021
2614 Snow -6 1021 80 10000 2.06 0 18:54 12.02.2021
2615 Snow -5 1021 80 8000 2.57 20 18:28 12.02.2021
2616 Snow -5 1021 80 8000 2.57 10 17:44 12.02.2021
2617 Snow -4 1021 74 9000 2.06 30 17:20 12.02.2021
2618 Clouds -5 1021 80 9000 3.09 320 16:25 12.02.2021
2619 Clouds -5 1021 80 9000 3.6 320 15:46 12.02.2021
2620 Clouds -5 1021 74 9000 3.09 310 15:21 12.02.2021
2621 Clouds -5 1021 80 10000 3.6 320 14:40 12.02.2021
2622 Clouds -5 1021 80 10000 3.6 320 13:59 12.02.2021
2623 Clouds -5 1021 80 10000 3.6 320 13:40 12.02.2021
2624 Clouds -5 1021 80 10000 3.09 340 12:56 12.02.2021
2625 Clouds -5 1021 80 10000 3.09 340 12:36 12.02.2021
2626 Clouds -6 1021 80 9000 3.09 330 11:58 12.02.2021
2627 Clouds -6 1021 80 9000 3.09 330 11:37 12.02.2021
2628 Clouds -6 1021 80 10000 2.06 350 11:18 12.02.2021
2629 Clouds -6 1021 79 9000 1.54 20 10:40 12.02.2021
2630 Clouds -7 1021 79 9000 2.06 340 09:48 12.02.2021
2631 Clouds -7 1021 79 9000 1.54 350 09:24 12.02.2021
2632 Clouds -7 1021 79 9000 1.54 30 08:49 12.02.2021
2633 Clouds -7 1021 79 9000 2.06 320 08:27 12.02.2021
2634 Clouds -7 1021 79 10000 2.57 310 07:53 12.02.2021
2635 Clouds -7 1021 86 9000 2.57 300 07:31 12.02.2021
2636 Clouds -7 1021 86 10000 2.57 290 06:55 12.02.2021
2637 Clouds -7 1022 86 10000 3.09 300 05:43 12.02.2021
2638 Clouds -7 1022 86 10000 2.57 310 04:30 12.02.2021
2639 Clouds -7 1022 86 10000 3.09 300 01:28 12.02.2021
2640 Clouds -6 1022 80 10000 1.54 320 23:40 11.02.2021
2641 Clouds -6 1022 80 10000 1.03 0 23:22 11.02.2021
2642 Clouds -6 1022 80 10000 1.54 320 22:46 11.02.2021
2643 Clear -6 1022 80 10000 2.06 320 22:24 11.02.2021
2644 Clear -6 1022 80 10000 2.06 320 21:54 11.02.2021
2645 Clear -6 1022 80 10000 2.06 320 21:36 11.02.2021
2646 Clouds -6 1022 80 10000 0.51 0 21:18 11.02.2021
2647 Clouds -6 1022 80 10000 0.51 0 21:18 11.02.2021
2648 Clouds -6 1022 80 10000 1.03 0 20:41 11.02.2021
2649 Clouds -6 1022 80 10000 1.03 0 20:21 11.02.2021
2650 Clouds -6 1022 80 10000 1.54 40 19:47 11.02.2021
2651 Clouds -6 1022 74 10000 1.54 350 19:27 11.02.2021
2652 Clouds -5 1022 80 10000 2.06 60 18:47 11.02.2021
2653 Clouds -5 1021 80 10000 2.06 20 18:25 11.02.2021
2654 Clouds -5 1021 80 10000 1.54 0 17:51 11.02.2021
2655 Clouds -4 1021 80 10000 2.06 50 17:22 11.02.2021
2656 Clouds -4 1021 80 10000 2.06 330 16:53 11.02.2021
2657 Clouds -4 1021 80 10000 2.06 330 16:34 11.02.2021
2658 Clouds -4 1020 80 10000 4.12 320 15:58 11.02.2021
2659 Clouds -4 1020 80 10000 4.12 320 15:38 11.02.2021
2660 Clouds -3 1020 80 10000 3.09 310 15:20 11.02.2021
2661 Clouds -4 1020 80 9000 4.12 300 14:38 11.02.2021
2662 Clouds -3 1020 80 10000 3.09 330 14:19 11.02.2021
2663 Clouds -4 1020 74 10000 1.54 20 13:37 11.02.2021
2664 Clouds -4 1020 80 7000 2.57 360 13:18 11.02.2021
2665 Clouds -4 1020 80 8000 2.57 40 12:37 11.02.2021
2666 Clouds -4 1020 80 10000 2.57 360 11:58 11.02.2021
2667 Clouds -4 1020 80 10000 2.57 360 11:40 11.02.2021
2668 Clouds -4 1020 80 7000 1.54 0 11:20 11.02.2021
2669 Clouds -5 1020 86 7000 3.09 300 10:42 11.02.2021
2670 Clouds -5 1020 86 8000 3.6 290 10:22 11.02.2021
2671 Clouds -5 1019 86 8000 3.6 290 09:42 11.02.2021
2672 Clouds -5 1019 86 7000 3.6 290 09:19 11.02.2021
2673 Snow -5 1019 93 7000 3.6 290 08:49 11.02.2021
2674 Snow -5 1019 86 6000 3.6 300 07:58 11.02.2021
2675 Snow -5 1019 86 6000 3.6 300 07:58 11.02.2021
2676 Snow -5 1018 93 8000 3.09 310 06:49 11.02.2021
2677 Snow -4 1018 80 10000 2.06 330 06:29 11.02.2021
2678 Snow -4 1016 86 10000 2.06 30 03:48 11.02.2021
2679 Snow -3 1015 93 7000 1.03 0 02:28 11.02.2021
2680 Snow -3 1014 86 3200 1.54 0 00:46 11.02.2021
2681 Snow -3 1013 86 3200 2.06 10 00:18 11.02.2021
2682 Snow -2 1012 93 5000 3.09 310 23:35 10.02.2021
2683 Snow -2 1011 93 6000 3.6 290 22:49 10.02.2021
2684 Snow -2 1010 93 5000 4.63 300 22:26 10.02.2021
2685 Snow -1 1010 93 3500 3.6 310 21:41 10.02.2021
2686 Snow -1 1009 100 4600 4.12 280 21:22 10.02.2021
2687 Snow 0 1008 100 1000 4.12 300 20:59 10.02.2021
2688 Snow 1 1008 100 1000 4.12 300 20:39 10.02.2021
2689 Snow 1 1010 88 277 2.04 9 20:19 10.02.2021
2690 Rain 3 1006 87 10000 1.54 0 19:43 10.02.2021
2691 Rain 3 1006 87 10000 4.12 260 19:21 10.02.2021
2692 Clouds 3 1005 93 5000 4.12 270 18:39 10.02.2021
2693 Rain 4 1004 93 10000 5.14 310 18:18 10.02.2021
2694 Rain 4 1003 87 10000 4.12 320 17:49 10.02.2021
2695 Clouds 5 1003 87 8000 5.14 300 17:22 10.02.2021
2696 Clouds 5 1003 76 10000 1.03 0 16:49 10.02.2021
2697 Clouds 5 1002 81 10000 1.03 0 16:29 10.02.2021
2698 Clouds 5 1002 81 10000 1.03 0 15:44 10.02.2021
2699 Clouds 5 1002 87 10000 1.03 0 15:22 10.02.2021
2700 Clouds 5 1002 87 10000 0.51 0 14:42 10.02.2021
2701 Clouds 4 1001 81 10000 0.51 0 14:19 10.02.2021
2702 Clouds 4 1001 87 10000 0.51 0 13:50 10.02.2021
2703 Clouds 3 1001 87 10000 0.51 0 13:27 10.02.2021
2704 Clouds 3 1001 93 5000 1 267 12:46 10.02.2021
2705 Clouds 2 1001 87 5000 1.07 264 12:28 10.02.2021
2706 Clouds 2 1000 93 5000 0.51 0 11:47 10.02.2021
2707 Rain 1 1000 93 3500 1.03 160 11:28 10.02.2021
2708 Snow 1 999 100 3000 1.03 0 10:47 10.02.2021
2709 Rain 1 999 100 3000 0.51 0 10:19 10.02.2021
2710 Snow 0 999 100 2200 0.63 153 09:43 10.02.2021
2711 Rain 0 998 100 2500 0.51 0 09:21 10.02.2021
2712 Mist 0 998 100 3600 0.99 126 08:50 10.02.2021
2713 Snow 0 998 100 3000 1.04 110 07:59 10.02.2021
2714 Snow 0 998 100 2300 1.03 0 07:18 10.02.2021
2715 Snow 0 997 100 2000 1.03 300 03:45 10.02.2021
2716 Snow 0 998 100 5000 2.57 300 00:51 10.02.2021
2717 Snow 0 999 100 6000 2.06 290 23:39 09.02.2021
2718 Snow 0 999 100 7000 1.54 310 23:19 09.02.2021
2719 Clouds 0 999 93 8000 1.03 310 22:25 09.02.2021
2720 Clouds 0 999 100 9000 1.03 310 21:58 09.02.2021
2721 Clouds 0 999 100 9000 1.03 310 21:40 09.02.2021
2722 Clouds 0 999 100 9000 1.54 300 21:18 09.02.2021
2723 Clouds 0 999 93 9000 1.54 290 20:41 09.02.2021
2724 Clouds 0 999 100 9000 2.57 300 20:22 09.02.2021
2725 Clouds 0 999 93 10000 2.06 290 19:39 09.02.2021
2726 Clouds 1 999 93 10000 2.06 290 19:20 09.02.2021
2727 Clouds 1 999 93 10000 1.03 290 18:41 09.02.2021
2728 Clouds 1 999 93 10000 1.03 0 18:20 09.02.2021
2729 Clouds 2 1000 81 10000 1.54 290 17:42 09.02.2021
2730 Clouds 2 1000 81 10000 1.54 280 17:23 09.02.2021
2731 Clouds 2 1000 81 10000 1.54 270 16:49 09.02.2021
2732 Clouds 3 1001 81 10000 1.54 280 16:19 09.02.2021
2733 Clouds 3 1001 81 10000 1.54 280 15:50 09.02.2021
2734 Clouds 4 1001 87 10000 2.06 280 15:27 09.02.2021
2735 Clouds 3 1001 81 10000 2.06 300 14:56 09.02.2021
2736 Clouds 4 1001 87 10000 2.06 300 14:28 09.02.2021
2737 Clouds 3 1001 75 10000 1.54 280 13:54 09.02.2021
2738 Clouds 3 1001 81 10000 1.03 280 13:29 09.02.2021
2739 Clouds 2 1001 81 10000 1.54 270 12:57 09.02.2021
2740 Clouds 2 1001 81 10000 1.54 270 12:38 09.02.2021
2741 Clouds 2 1000 87 10000 1.03 250 12:20 09.02.2021
2742 Clouds 2 1000 87 10000 1.03 0 11:41 09.02.2021
2743 Snow 2 1000 93 7000 0.51 0 11:21 09.02.2021
2744 Clouds 1 1000 100 4600 1.03 180 10:50 09.02.2021
2745 Snow 1 1000 100 3500 0.83 34 10:19 09.02.2021
2746 Snow 0 1000 100 2500 0.83 34 09:44 09.02.2021
2747 Snow 0 999 100 2000 1.03 290 09:25 09.02.2021
2748 Snow 0 999 100 2000 1.03 280 08:51 09.02.2021
2749 Snow 0 999 100 2500 1.03 0 08:27 09.02.2021
2750 Snow 0 998 100 2000 2.57 330 07:29 09.02.2021
2751 Snow 0 996 100 8000 1.54 310 04:55 09.02.2021
2752 Snow 0 996 100 7000 1.54 300 03:42 09.02.2021
2753 Snow 0 996 86 10000 2.06 300 00:44 09.02.2021
2754 Snow 0 996 86 10000 3.09 300 23:57 08.02.2021
2755 Snow 1 996 80 10000 1.54 200 23:22 08.02.2021
2756 Clouds 2 996 80 10000 3.09 140 22:45 08.02.2021
2757 Clouds 2 996 93 10000 1.54 0 22:26 08.02.2021
2758 Clouds 2 995 86 10000 1.54 0 21:58 08.02.2021
2759 Clouds 2 995 86 10000 1.54 0 21:38 08.02.2021
2760 Clouds 2 995 86 10000 1.54 170 21:18 08.02.2021
2761 Clouds 3 995 75 10000 1.54 330 20:42 08.02.2021
2762 Clear 3 995 80 10000 1.54 0 20:22 08.02.2021
2763 Clear 3 995 70 10000 1.54 330 19:48 08.02.2021
2764 Clouds 3 997 54 10000 1.22 216 19:26 08.02.2021
2765 Clouds 4 994 52 10000 1.03 0 18:49 08.02.2021
2766 Clouds 5 996 51 10000 1.34 310 18:25 08.02.2021
2767 Clouds 6 994 45 10000 2.06 260 17:47 08.02.2021
2768 Clouds 6 994 49 10000 4.12 230 17:26 08.02.2021
2769 Clouds 6 994 45 10000 4.63 240 16:47 08.02.2021
2770 Clouds 6 993 45 10000 4.63 250 16:28 08.02.2021
2771 Clouds 6 993 45 10000 6.17 250 15:56 08.02.2021
2772 Clouds 7 993 45 10000 6.17 250 15:37 08.02.2021
2773 Clouds 7 993 46 10000 7.72 270 15:18 08.02.2021
2774 Clouds 7 993 46 10000 5.66 260 14:42 08.02.2021
2775 Clouds 7 994 49 10000 6.69 250 14:24 08.02.2021
2776 Clouds 6 994 45 10000 8.23 230 13:45 08.02.2021
2777 Clouds 6 994 49 10000 5.66 260 13:25 08.02.2021
2778 Clouds 6 994 57 10000 5.66 270 12:39 08.02.2021
2779 Clouds 5 995 70 10000 2.57 140 11:58 08.02.2021
2780 Clouds 5 995 70 10000 2.57 140 11:32 08.02.2021
2781 Clouds 4 995 81 10000 3.6 150 10:46 08.02.2021
2782 Clouds 4 995 81 10000 2.06 110 10:26 08.02.2021
2783 Clouds 4 995 81 10000 2.06 110 10:26 08.02.2021
2784 Clouds 3 995 75 10000 2.06 80 09:56 08.02.2021
2785 Clouds 3 995 75 10000 2.06 80 09:36 08.02.2021
2786 Clouds 3 995 75 10000 2.06 80 09:36 08.02.2021
2787 Clouds 2 995 87 10000 1.54 130 08:55 08.02.2021
2788 Clouds 2 995 87 10000 1.54 30 08:26 08.02.2021
2789 Clouds 1 995 87 10000 1.54 90 07:40 08.02.2021
2790 Clouds 1 995 100 10000 3.09 100 06:33 08.02.2021
2791 Clouds 1 995 100 10000 1.54 100 04:56 08.02.2021
2792 Clouds 2 996 93 10000 0.51 0 02:26 08.02.2021
2793 Clouds 2 997 87 10000 2.06 120 00:25 08.02.2021
2794 Clouds 2 997 87 10000 1.54 90 23:53 07.02.2021
2795 Clouds 2 997 70 10000 2.06 200 23:28 07.02.2021
2796 Clouds 3 998 60 10000 3.6 230 22:56 07.02.2021
2797 Clouds 3 998 60 10000 3.6 230 22:38 07.02.2021
2798 Clouds 2 998 70 10000 3.09 240 22:19 07.02.2021
2799 Clouds 2 998 70 10000 2.06 260 21:49 07.02.2021
2800 Clouds 2 998 70 10000 2.06 260 21:49 07.02.2021
2801 Clouds 2 998 75 10000 2.06 250 21:24 07.02.2021
2802 Clouds 2 998 81 10000 1.03 0 20:49 07.02.2021
2803 Rain 2 998 87 10000 0.51 0 20:28 07.02.2021
2804 Rain 3 998 87 10000 3.09 300 19:49 07.02.2021
2805 Rain 3 998 87 10000 2.57 270 19:29 07.02.2021
2806 Rain 3 998 81 9000 2.57 260 18:48 07.02.2021
2807 Rain 3 997 81 10000 1.54 290 18:27 07.02.2021
2808 Rain 3 997 81 10000 3.09 280 17:58 07.02.2021
2809 Rain 3 997 81 10000 3.09 280 17:39 07.02.2021
2810 Rain 3 997 81 10000 4.12 260 17:18 07.02.2021
2811 Rain 4 997 81 10000 4.63 290 16:42 07.02.2021
2812 Rain 4 997 87 10000 2.06 330 16:21 07.02.2021
2813 Rain 5 996 93 7000 4.63 290 15:44 07.02.2021
2814 Rain 5 996 81 10000 4.12 300 15:21 07.02.2021
2815 Rain 5 996 81 10000 5.14 260 14:46 07.02.2021
2816 Rain 5 997 81 10000 4.63 280 14:26 07.02.2021
2817 Rain 6 997 87 10000 4.12 290 13:50 07.02.2021
2818 Rain 6 997 81 10000 4.12 290 13:30 07.02.2021
2819 Rain 6 997 76 10000 4.12 290 12:42 07.02.2021
2820 Clouds 6 997 76 10000 5.14 270 12:22 07.02.2021
2821 Clouds 6 997 71 10000 3.6 280 11:46 07.02.2021
2822 Clouds 7 997 76 10000 2.57 270 11:26 07.02.2021
2823 Clouds 7 997 100 10000 1.03 0 10:44 07.02.2021
2824 Clouds 6 997 100 10000 2.06 40 10:23 07.02.2021
2825 Clouds 6 997 100 10000 1.03 160 09:44 07.02.2021
2826 Clouds 5 996 100 8000 1.03 0 09:21 07.02.2021
2827 Clouds 4 996 100 7000 1.03 40 08:22 07.02.2021
2828 Mist 3 997 100 2800 1.03 0 06:34 07.02.2021
2829 Mist 3 997 100 2800 1.03 0 05:57 07.02.2021
2830 Clouds 4 997 100 6000 0.51 0 03:49 07.02.2021
2831 Clouds 5 999 100 9000 2.57 90 01:24 07.02.2021
2832 Rain 5 1000 100 6000 1.03 0 00:32 07.02.2021
2833 Clouds 5 1000 100 9000 1.03 0 23:44 06.02.2021
2834 Rain 5 1000 100 8000 2.06 330 22:40 06.02.2021
2835 Clouds 5 999 100 7000 2.06 130 21:39 06.02.2021
2836 Clouds 5 999 100 8000 1.54 0 21:21 06.02.2021
2837 Clouds 5 1000 100 10000 1.54 0 20:50 06.02.2021
2838 Clouds 5 1000 93 10000 2.57 340 20:25 06.02.2021
2839 Clouds 5 1000 100 10000 2.06 330 19:56 06.02.2021
2840 Clouds 5 999 100 9000 1.54 320 19:30 06.02.2021
2841 Clouds 5 999 93 10000 2.06 310 18:47 06.02.2021
2842 Clouds 6 999 93 10000 0.51 330 18:28 06.02.2021
2843 Clouds 6 1000 87 10000 1.03 0 17:46 06.02.2021
2844 Clouds 7 1000 87 10000 0.51 0 17:22 06.02.2021
2845 Clouds 8 1001 81 10000 0.51 0 16:59 06.02.2021
2846 Clouds 8 1001 81 10000 0.51 0 16:37 06.02.2021
2847 Clouds 9 1001 87 10000 1.03 330 16:19 06.02.2021
2848 Clouds 10 1002 87 10000 1.03 100 15:41 06.02.2021
2849 Clouds 10 1002 87 10000 1.54 0 15:20 06.02.2021
2850 Clouds 10 1003 87 10000 2.06 100 14:45 06.02.2021
2851 Clouds 10 1003 87 10000 2.57 140 14:24 06.02.2021
2852 Clouds 9 1004 87 10000 1.54 150 13:48 06.02.2021
2853 Clouds 7 1005 93 10000 1.03 0 12:57 06.02.2021
2854 Clouds 8 1006 93 10000 1.5 101 12:21 06.02.2021
2855 Clouds 4 1006 100 10000 1.54 40 11:47 06.02.2021
2856 Clouds 5 1007 100 10000 1.54 180 11:22 06.02.2021
2857 Clouds 5 1007 100 10000 0.51 0 10:57 06.02.2021
2858 Clouds 4 1007 100 10000 1.03 0 10:30 06.02.2021
2859 Clouds 5 1007 100 10000 1.03 0 09:59 06.02.2021
2860 Clouds 4 1007 100 10000 1.03 0 09:37 06.02.2021
2861 Clouds 4 1007 100 10000 1.54 10 09:18 06.02.2021
2862 Clouds 3 1007 100 10000 2.57 110 08:33 06.02.2021
2863 Clouds 4 1008 100 10000 1.03 150 08:00 06.02.2021
2864 Clouds 4 1008 100 10000 0.51 0 05:44 06.02.2021
2865 Clouds 4 1008 100 8000 1.03 0 03:58 06.02.2021
2866 Clouds 4 1010 82 10000 0.54 144 02:26 06.02.2021
2867 Clouds 4 1009 100 8000 0.51 0 00:48 06.02.2021
2868 Clouds 5 1011 79 10000 0.41 123 00:20 06.02.2021
2869 Clouds 5 1011 79 10000 0.41 123 23:44 05.02.2021
2870 Clouds 4 1009 100 10000 0.51 0 23:26 05.02.2021
2871 Clouds 5 1009 100 10000 0.51 0 22:47 05.02.2021
2872 Clouds 5 1010 77 10000 0.43 104 22:23 05.02.2021
2873 Clear 5 1009 100 10000 0.51 0 21:47 05.02.2021
2874 Clear 6 1009 93 10000 0.51 0 21:28 05.02.2021
2875 Clear 6 1010 87 10000 1.03 0 20:47 05.02.2021
2876 Clear 7 1010 87 10000 2.57 80 19:53 05.02.2021
2877 Clouds 7 1011 81 10000 1.54 70 19:20 05.02.2021
2878 Clouds 7 1011 81 10000 2.57 110 18:54 05.02.2021
2879 Clouds 8 1011 76 10000 1.54 100 18:28 05.02.2021
2880 Clouds 9 1013 68 10000 0.95 90 17:47 05.02.2021
2881 Clouds 9 1012 76 10000 1.54 130 17:27 05.02.2021
2882 Clouds 10 1012 71 10000 1.54 140 16:50 05.02.2021
2883 Clouds 10 1012 71 10000 1.54 140 16:50 05.02.2021
2884 Clouds 10 1012 66 10000 1.54 140 16:24 05.02.2021
2885 Clouds 10 1012 66 10000 2.06 150 15:57 05.02.2021
2886 Clouds 11 1012 62 10000 1.54 180 15:27 05.02.2021
2887 Clouds 11 1012 66 10000 1.03 0 14:55 05.02.2021
2888 Clouds 10 1012 66 10000 1.03 0 14:36 05.02.2021
2889 Clouds 10 1013 62 10000 2.57 140 14:18 05.02.2021
2890 Clouds 10 1013 66 10000 1.54 180 13:38 05.02.2021
2891 Clear 10 1013 66 10000 1.54 0 12:57 05.02.2021
2892 Clear 10 1013 66 10000 1.54 0 12:38 05.02.2021
2893 Clear 8 1014 87 10000 3.09 130 11:42 05.02.2021
2894 Clear 7 1014 87 10000 3.09 90 11:22 05.02.2021
2895 Clouds 7 1014 93 10000 2.57 100 10:59 05.02.2021
2896 Clouds 6 1014 100 10000 1.54 110 10:28 05.02.2021
2897 Clouds 5 1014 100 10000 2.06 120 09:57 05.02.2021
2898 Clouds 5 1014 100 10000 2.06 120 09:39 05.02.2021
2899 Clouds 4 1014 100 10000 1.03 0 09:20 05.02.2021
2900 Clouds 4 1015 88 10000 1.79 120 08:36 05.02.2021
2901 Clouds 3 1014 100 10000 3.6 110 07:39 05.02.2021
2902 Clear 3 1014 100 10000 0.51 0 06:58 05.02.2021
2903 Fog 3 1013 100 7000 0.51 0 05:40 05.02.2021
2904 Clouds 3 1012 100 10000 1.03 0 04:50 05.02.2021
2905 Clouds 4 1012 100 7000 1.03 0 02:25 05.02.2021
2906 Mist 4 1013 100 3000 0.51 90 00:41 05.02.2021
2907 Fog 4 1013 100 4900 0.51 0 00:21 05.02.2021
2908 Mist 4 1013 100 2300 0.83 160 23:59 04.02.2021
2909 Mist 5 1013 100 2300 0.83 160 23:40 04.02.2021
2910 Clouds 5 1013 100 8000 1.03 0 23:21 04.02.2021
2911 Clouds 5 1013 100 10000 0.51 0 22:52 04.02.2021
2912 Clouds 5 1013 100 10000 0.51 0 22:29 04.02.2021
2913 Clouds 5 1013 100 10000 0.51 0 21:43 04.02.2021
2914 Clouds 5 1013 100 10000 0.51 0 21:22 04.02.2021
2915 Clouds 6 1013 100 10000 0.51 0 20:53 04.02.2021
2916 Clouds 6 1013 100 10000 0.51 0 20:34 04.02.2021
2917 Clouds 6 1014 87 10000 1.03 320 19:48 04.02.2021
2918 Clouds 6 1014 93 10000 1.54 330 19:21 04.02.2021
2919 Clouds 7 1014 93 10000 1.54 300 18:39 04.02.2021
2920 Clouds 7 1014 81 10000 1.03 0 18:20 04.02.2021
2921 Clouds 8 1014 87 10000 1.03 80 17:44 04.02.2021
2922 Clouds 8 1014 76 10000 0.7 64 17:20 04.02.2021
2923 Clouds 8 1014 76 10000 1.03 0 16:46 04.02.2021
2924 Clouds 8 1014 76 10000 1.03 270 16:19 04.02.2021
2925 Clouds 8 1014 76 10000 2.06 290 15:40 04.02.2021
2926 Clouds 9 1014 71 10000 1.03 0 15:21 04.02.2021
2927 Clouds 9 1015 76 10000 2.57 310 14:55 04.02.2021
2928 Clouds 9 1015 76 10000 2.57 310 14:37 04.02.2021
2929 Rain 9 1015 71 10000 1.54 230 14:18 04.02.2021
2930 Rain 9 1015 71 10000 1.03 0 13:41 04.02.2021
2931 Rain 8 1015 81 10000 1.54 300 12:57 04.02.2021
2932 Clouds 8 1015 76 10000 2.06 140 12:21 04.02.2021
2933 Clouds 7 1015 81 10000 2.57 100 11:42 04.02.2021
2934 Clouds 6 1016 93 10000 2.57 100 11:24 04.02.2021
2935 Clouds 6 1016 93 10000 2.57 100 10:44 04.02.2021
2936 Clouds 5 1015 100 10000 2.57 120 10:18 04.02.2021
2937 Clouds 4 1015 100 10000 2.57 110 09:43 04.02.2021
2938 Clear 4 1015 100 10000 2.06 100 09:18 04.02.2021
2939 Clear 3 1015 100 10000 2.06 90 08:41 04.02.2021
2940 Clear 4 1015 100 10000 2.57 90 08:20 04.02.2021
2941 Clear 3 1015 100 10000 2.57 100 07:41 04.02.2021
2942 Clear 3 1015 100 10000 1.03 0 06:55 04.02.2021
2943 Clear 3 1015 100 10000 1.03 0 06:37 04.02.2021
2944 Clouds 5 1014 87 10000 1.03 0 03:53 04.02.2021
2945 Clouds 7 1014 66 10000 1.03 0 02:26 04.02.2021
2946 Clouds 9 1013 62 10000 4.12 250 00:42 04.02.2021
2947 Clouds 9 1013 58 10000 2.57 260 23:40 03.02.2021
2948 Clouds 10 1012 58 10000 5.14 270 22:44 03.02.2021
2949 Clouds 10 1011 58 10000 5.14 250 22:22 03.02.2021
2950 Clouds 10 1011 58 10000 3.6 280 21:58 03.02.2021
2951 Clouds 10 1011 58 10000 3.6 280 21:37 03.02.2021
2952 Clouds 10 1010 58 10000 3.6 270 21:18 03.02.2021
2953 Clouds 9 1010 58 10000 4.12 0 20:43 03.02.2021
2954 Clouds 9 1009 62 10000 4.12 210 20:24 03.02.2021
2955 Clouds 9 1009 62 10000 7.2 200 19:43 03.02.2021
2956 Rain 9 1009 71 10000 6.69 210 19:21 03.02.2021
2957 Clouds 9 1009 76 10000 3.6 190 18:48 03.02.2021
2958 Rain 8 1008 81 10000 1.54 0 18:20 03.02.2021
2959 Clouds 8 1008 81 5000 2.57 220 17:52 03.02.2021
2960 Clouds 8 1008 93 5000 3.09 250 17:31 03.02.2021
2961 Clouds 7 1008 93 5000 5.14 260 16:57 03.02.2021
2962 Clouds 7 1007 93 7000 5.14 280 16:30 03.02.2021
2963 Rain 8 1007 93 10000 8.75 290 15:46 03.02.2021
2964 Rain 9 1005 71 10000 4.12 280 15:26 03.02.2021
2965 Rain 10 1005 82 10000 2.06 0 14:54 03.02.2021
2966 Clouds 11 1005 93 10000 1.54 300 14:30 03.02.2021
2967 Clouds 10 1005 100 10000 2.06 330 13:56 03.02.2021
2968 Rain 10 1005 100 6000 1.03 0 13:29 03.02.2021
2969 Rain 10 1005 93 10000 1.54 110 12:52 03.02.2021
2970 Rain 10 1005 100 10000 1.54 100 12:27 03.02.2021
2971 Drizzle 10 1005 100 10000 1.03 150 11:59 03.02.2021
2972 Drizzle 9 1005 100 10000 1.03 150 11:37 03.02.2021
2973 Rain 8 1005 100 10000 1.03 0 10:58 03.02.2021
2974 Rain 8 1005 100 10000 1.54 201 10:23 03.02.2021
2975 Rain 8 1005 100 10000 2.06 110 09:51 03.02.2021
2976 Rain 8 1005 100 10000 2.06 110 09:32 03.02.2021
2977 Clouds 8 1005 100 10000 2.57 110 08:54 03.02.2021
2978 Clouds 8 1005 100 10000 2.57 110 08:54 03.02.2021
2979 Clouds 8 1005 100 10000 2.57 110 08:35 03.02.2021
2980 Clouds 8 1006 100 10000 1.54 130 07:42 03.02.2021
2981 Rain 7 1006 100 8000 1.03 140 06:42 03.02.2021
2982 Clouds 8 1007 100 10000 2.57 90 04:55 03.02.2021
2983 Clouds 8 1007 100 10000 2.57 90 04:34 03.02.2021
2984 Clouds 8 1008 100 8000 2.57 120 03:40 03.02.2021
2985 Clouds 8 1009 100 8000 2.06 120 02:37 03.02.2021
2986 Clouds 9 1010 99 10000 2.22 196 00:56 03.02.2021
2987 Clouds 8 1009 100 10000 1.54 0 23:59 02.02.2021
2988 Clouds 8 1009 100 10000 1.54 0 23:40 02.02.2021
2989 Clouds 9 1009 100 4700 1.54 0 23:22 02.02.2021
2990 Rain 9 1009 100 10000 1.54 200 22:37 02.02.2021
2991 Clouds 9 1009 100 7000 1.03 0 22:18 02.02.2021
2992 Drizzle 9 1009 100 10000 1.03 0 21:39 02.02.2021
2993 Clouds 9 1009 100 10000 2.06 140 21:21 02.02.2021
2994 Clouds 9 1009 93 10000 2.06 290 20:47 02.02.2021
2995 Clouds 9 1009 87 10000 4.12 300 20:20 02.02.2021
2996 Clouds 9 1009 100 10000 1.54 110 19:48 02.02.2021
2997 Clouds 9 1009 100 9000 1.54 100 19:30 02.02.2021
2998 Clouds 9 1009 100 9000 1.54 100 19:30 02.02.2021
2999 Clouds 9 1009 100 9000 1.54 100 19:30 02.02.2021
3000 Clouds 9 1009 100 10000 1.03 0 18:46 02.02.2021
3001 Drizzle 9 1008 100 10000 1.54 260 18:26 02.02.2021
3002 Drizzle 9 1008 87 10000 2.06 100 17:51 02.02.2021
3003 Clouds 9 1008 87 10000 2.06 90 17:24 02.02.2021
3004 Clouds 9 1008 93 10000 3.09 130 16:58 02.02.2021
3005 Clouds 9 1008 93 10000 3.09 130 16:38 02.02.2021
3006 Clouds 9 1008 93 10000 2.06 150 16:18 02.02.2021
3007 Drizzle 9 1008 93 10000 3.16 223 15:42 02.02.2021
3008 Drizzle 9 1008 93 10000 3.16 223 15:42 02.02.2021
3009 Clouds 9 1008 93 10000 1.03 0 15:21 02.02.2021
3010 Clouds 9 1008 81 10000 1.03 0 14:41 02.02.2021
3011 Clouds 9 1008 81 10000 1.03 0 14:19 02.02.2021
3012 Clouds 9 1008 87 10000 1.54 0 13:54 02.02.2021
3013 Clouds 9 1008 87 10000 1.54 0 13:36 02.02.2021
3014 Clouds 9 1008 93 10000 2.06 340 13:18 02.02.2021
3015 Clouds 8 1008 93 10000 2.06 120 12:31 02.02.2021
3016 Rain 8 1008 93 10000 3.09 100 11:44 02.02.2021
3017 Clouds 7 1007 100 5000 3.09 120 11:21 02.02.2021
3018 Rain 7 1008 100 10000 1.54 0 10:53 02.02.2021
3019 Rain 7 1008 100 10000 1.03 0 10:27 02.02.2021
3020 Clouds 6 1008 100 10000 2.57 90 09:46 02.02.2021
3021 Clouds 6 1008 100 10000 2.57 110 09:25 02.02.2021
3022 Drizzle 6 1008 100 10000 2.57 110 08:48 02.02.2021
3023 Rain 6 1008 100 10000 1.03 0 08:22 02.02.2021
3024 Clouds 6 1008 100 6000 0.51 0 07:29 02.02.2021
3025 Clouds 6 1008 100 9000 1.54 0 06:43 02.02.2021
3026 Clouds 6 1008 100 5000 0.51 0 05:53 02.02.2021
3027 Clouds 6 1008 100 9000 1.54 140 04:37 02.02.2021
3028 Clouds 6 1007 100 10000 2.57 120 02:26 02.02.2021
3029 Drizzle 7 1007 100 10000 2.57 110 01:46 02.02.2021
3030 Clouds 7 1006 100 10000 2.06 0 00:34 02.02.2021
3031 Drizzle 7 1005 100 10000 1.03 0 23:19 01.02.2021
3032 Clouds 7 1004 100 10000 2.06 90 22:50 01.02.2021
3033 Clouds 7 1004 100 10000 2.57 100 22:32 01.02.2021
3034 Clouds 7 1003 100 10000 3.09 100 21:49 01.02.2021
3035 Clouds 6 1003 100 10000 3.6 100 21:30 01.02.2021
3036 Clouds 6 1003 100 10000 3.6 100 21:30 01.02.2021
3037 Clouds 7 1002 100 10000 2.57 110 20:56 01.02.2021
3038 Clouds 7 1002 100 10000 2.57 110 20:36 01.02.2021
3039 Drizzle 6 1002 100 7000 0.51 0 20:18 01.02.2021
3040 Clouds 6 1001 100 10000 2.57 110 19:38 01.02.2021
3041 Rain 6 1001 100 5000 0.51 0 19:18 01.02.2021
3042 Rain 6 1000 100 10000 1.54 100 18:46 01.02.2021
3043 Rain 7 1000 93 10000 3.09 130 18:26 01.02.2021
3044 Clouds 7 999 93 10000 3.6 160 17:47 01.02.2021
3045 Clouds 7 999 93 8000 3.6 150 17:23 01.02.2021
3046 Clouds 7 998 93 10000 3.09 110 16:46 01.02.2021
3047 Clouds 7 998 93 10000 3.6 120 16:28 01.02.2021
3048 Clouds 7 998 93 10000 3.6 140 15:42 01.02.2021
3049 Drizzle 7 997 93 10000 2.57 100 15:19 01.02.2021
3050 Clouds 7 997 100 10000 2.57 130 14:51 01.02.2021
3051 Clouds 7 997 100 10000 1.54 110 14:24 01.02.2021
3052 Clouds 6 996 100 5000 2.06 100 13:46 01.02.2021
3053 Rain 6 996 100 5000 2.06 100 13:26 01.02.2021
3054 Rain 6 996 100 10000 2.06 100 12:45 01.02.2021
3055 Rain 6 996 100 10000 2.06 110 12:25 01.02.2021
3056 Rain 6 996 100 10000 2.06 110 12:25 01.02.2021
3057 Rain 6 996 93 8000 2.06 110 11:47 01.02.2021
3058 Rain 6 995 93 5000 1.54 90 11:21 01.02.2021
3059 Rain 6 995 100 10000 3.6 130 10:52 01.02.2021
3060 Clouds 5 995 100 10000 2.06 110 10:22 01.02.2021
3061 Rain 5 994 100 10000 2.06 100 09:54 01.02.2021
3062 Drizzle 5 994 100 10000 2.06 100 09:35 01.02.2021
3063 Clouds 4 994 100 8000 2.57 110 08:56 01.02.2021
3064 Rain 4 994 100 10000 2.57 110 08:26 01.02.2021
3065 Rain 4 993 100 5000 1.03 0 07:30 01.02.2021
3066 Rain 4 993 100 10000 3.09 110 04:34 01.02.2021
3067 Clouds 4 994 100 6000 3.6 120 02:40 01.02.2021
3068 Rain 4 994 93 10000 2.06 90 00:25 01.02.2021
3069 Clouds 4 995 100 10000 3.09 110 23:21 31.01.2021
3070 Clouds 4 995 93 10000 3.09 110 22:38 31.01.2021
3071 Clouds 4 996 100 10000 2.57 100 22:19 31.01.2021
3072 Clouds 4 996 100 10000 2.57 110 21:47 31.01.2021
3073 Clouds 5 996 100 10000 2.57 120 21:19 31.01.2021
3074 Clouds 5 997 100 10000 1.03 0 20:43 31.01.2021
3075 Clouds 5 997 87 10000 1.54 0 20:21 31.01.2021
3076 Clouds 5 1000 97 10000 1.4 165 19:40 31.01.2021
3077 Clouds 5 1000 97 10000 1.4 165 19:40 31.01.2021
3078 Clouds 5 998 93 10000 1.03 0 19:22 31.01.2021
3079 Clouds 6 1000 97 10000 1.42 172 18:56 31.01.2021
3080 Clouds 6 998 87 10000 2.06 300 18:38 31.01.2021
3081 Clouds 6 998 87 10000 2.06 320 18:18 31.01.2021
3082 Clouds 6 998 87 10000 1.03 0 17:41 31.01.2021
3083 Clouds 7 998 81 10000 1.54 310 17:22 31.01.2021
3084 Clouds 7 999 81 10000 1.54 330 16:42 31.01.2021
3085 Clouds 7 999 87 10000 1.54 0 16:20 31.01.2021
3086 Clouds 7 999 81 10000 1.03 0 15:50 31.01.2021
3087 Clouds 7 999 87 10000 1.03 0 15:26 31.01.2021
3088 Clouds 7 999 93 10000 0.51 0 14:39 31.01.2021
3089 Clouds 7 1000 87 10000 1.03 0 14:18 31.01.2021
3090 Clouds 7 1000 93 10000 1.03 0 13:46 31.01.2021
3091 Clouds 7 1000 93 10000 1.54 140 13:19 31.01.2021
3092 Clouds 7 1001 100 10000 1.54 0 12:47 31.01.2021
3093 Clouds 7 1001 100 10000 1.54 130 12:21 31.01.2021
3094 Clouds 6 1001 100 10000 2.06 120 11:40 31.01.2021
3095 Clouds 6 1000 100 10000 2.06 100 11:21 31.01.2021
3096 Clouds 6 1000 100 10000 2.06 100 10:48 31.01.2021
3097 Mist 5 1000 100 5000 2.06 120 10:29 31.01.2021
3098 Mist 4 1000 100 4800 0.51 0 09:49 31.01.2021
3099 Mist 4 999 100 3800 0.51 0 08:58 31.01.2021
3100 Mist 4 999 100 3800 0.51 0 08:32 31.01.2021
3101 Clouds 4 998 100 8000 2.06 100 06:54 31.01.2021
3102 Fog 4 998 100 750 0.51 0 05:30 31.01.2021
3103 Clouds 4 998 100 9000 2.57 110 00:40 31.01.2021
3104 Clouds 4 998 100 7000 3.6 120 00:21 31.01.2021
3105 Clouds 5 998 100 6000 3.09 110 23:28 30.01.2021
3106 Clouds 5 998 100 6000 2.57 130 22:49 30.01.2021
3107 Rain 5 998 100 7000 1.03 0 22:28 30.01.2021
3108 Rain 5 998 100 5000 1.54 90 21:39 30.01.2021
3109 Rain 5 998 100 5000 1.03 0 21:20 30.01.2021
3110 Rain 5 998 100 5000 1.03 0 21:20 30.01.2021
3111 Clouds 5 998 100 6000 1.54 70 20:44 30.01.2021
3112 Drizzle 5 998 100 7000 1.03 0 20:26 30.01.2021
3113 Rain 5 998 100 5000 0.51 0 19:43 30.01.2021
3114 Rain 5 998 100 10000 1.54 120 19:24 30.01.2021
3115 Rain 5 998 100 10000 2.06 130 18:41 30.01.2021
3116 Rain 5 998 100 7000 2.57 110 18:21 30.01.2021
3117 Rain 6 998 100 7000 2.57 120 17:54 30.01.2021
3118 Rain 6 998 100 10000 3.6 130 17:19 30.01.2021
3119 Rain 6 998 100 10000 3.09 140 16:44 30.01.2021
3120 Rain 6 998 100 8000 3.09 130 16:24 30.01.2021
3121 Clouds 6 998 100 7000 2.57 120 15:54 30.01.2021
3122 Rain 6 998 100 7000 2.57 120 15:36 30.01.2021
3123 Rain 6 999 100 7000 2.06 130 15:18 30.01.2021
3124 Rain 5 999 100 7000 1.03 0 14:41 30.01.2021
3125 Rain 5 1000 100 7000 0.84 215 14:19 30.01.2021
3126 Rain 5 1001 93 9000 0.51 0 13:29 30.01.2021
3127 Rain 5 1001 100 9000 0.51 0 12:48 30.01.2021
3128 Rain 5 1001 87 10000 1.03 120 12:28 30.01.2021
3129 Rain 5 1001 87 10000 1.54 80 11:55 30.01.2021
3130 Drizzle 5 1002 93 10000 2.57 100 11:25 30.01.2021
3131 Rain 5 1002 93 10000 1.03 0 10:46 30.01.2021
3132 Rain 5 1003 100 10000 1.54 0 09:44 30.01.2021
3133 Rain 4 1003 100 10000 1.03 0 09:26 30.01.2021
3134 Rain 4 1003 100 10000 1.03 150 08:47 30.01.2021
3135 Rain 4 1004 100 10000 1.03 120 07:45 30.01.2021
3136 Clouds 4 1005 100 10000 1.03 0 06:36 30.01.2021
3137 Clouds 5 1007 76 10000 3.09 290 04:28 30.01.2021
3138 Clouds 5 1008 76 10000 2.57 280 03:34 30.01.2021
3139 Clouds 5 1009 87 10000 2.57 190 02:23 30.01.2021
3140 Clouds 5 1009 93 10000 3.09 320 01:26 30.01.2021
3141 Clouds 5 1009 93 5000 4.12 290 00:35 30.01.2021
3142 Clouds 6 1009 81 6000 5.66 250 23:55 29.01.2021
3143 Clouds 6 1009 81 6000 5.66 250 23:36 29.01.2021
3144 Drizzle 6 1009 81 10000 6.69 260 23:18 29.01.2021
3145 Clouds 6 1009 81 10000 6.17 260 22:38 29.01.2021
3146 Clouds 6 1008 81 9000 5.14 250 21:59 29.01.2021
3147 Clouds 6 1008 76 10000 6.69 250 21:28 29.01.2021
3148 Clouds 6 1008 76 10000 5.66 260 20:45 29.01.2021
3149 Clouds 6 1007 76 6000 7.72 250 20:24 29.01.2021
3150 Clouds 5 1007 87 6000 7.2 270 19:42 29.01.2021
3151 Rain 6 1006 76 5000 7.72 230 19:22 29.01.2021
3152 Rain 6 1005 71 10000 3.6 250 18:57 29.01.2021
3153 Clouds 7 1006 71 10000 3.6 230 17:59 29.01.2021
3154 Clouds 7 1006 71 10000 3.6 230 17:37 29.01.2021
3155 Clouds 7 1006 76 10000 6.17 240 17:18 29.01.2021
3156 Clouds 7 1006 81 10000 4.12 260 16:39 29.01.2021
3157 Clouds 7 1006 71 10000 5.14 260 16:21 29.01.2021
3158 Clouds 7 1006 71 10000 5.14 260 16:21 29.01.2021
3159 Clouds 7 1006 76 10000 4.12 250 15:42 29.01.2021
3160 Clouds 8 1007 71 10000 5.66 230 15:23 29.01.2021
3161 Clouds 8 1007 66 10000 5.14 240 14:30 29.01.2021
3162 Clouds 8 1007 71 10000 6.69 240 13:58 29.01.2021
3163 Clouds 8 1007 71 10000 6.69 240 13:34 29.01.2021
3164 Clouds 9 1007 62 10000 6.69 260 12:49 29.01.2021
3165 Clouds 9 1009 70 10000 8.05 285 12:22 29.01.2021
3166 Clouds 9 1007 66 10000 5.66 250 11:46 29.01.2021
3167 Clouds 8 1007 93 10000 3.6 330 11:18 29.01.2021
3168 Clouds 8 1007 93 10000 3.09 340 10:47 29.01.2021
3169 Clouds 8 1007 100 10000 5.66 330 10:26 29.01.2021
3170 Rain 7 1006 100 10000 3.6 320 09:44 29.01.2021
3171 Rain 7 1007 87 5000 9.26 290 08:52 29.01.2021
3172 Rain 7 1007 81 1500 12.86 300 08:28 29.01.2021
3173 Rain 8 1005 81 5000 5.14 240 07:54 29.01.2021
3174 Rain 9 1005 81 5000 5.14 240 07:35 29.01.2021
3175 Rain 9 1005 71 10000 4.63 220 06:58 29.01.2021
3176 Clouds 8 1006 93 10000 5.14 140 05:19 29.01.2021
3177 Rain 8 1008 93 10000 3.09 130 02:48 29.01.2021
3178 Clouds 9 1010 66 10000 1.03 0 00:38 29.01.2021
3179 Clouds 9 1010 71 10000 3.09 220 00:19 29.01.2021
3180 Clouds 9 1010 71 10000 3.09 250 23:41 28.01.2021
3181 Clouds 9 1010 71 10000 3.09 250 23:41 28.01.2021
3182 Clouds 9 1010 71 10000 3.09 250 23:23 28.01.2021
3183 Clouds 9 1011 76 10000 3.09 250 22:45 28.01.2021
3184 Clouds 9 1011 87 10000 1.03 0 22:25 28.01.2021
3185 Clouds 9 1010 81 10000 1.03 0 21:53 28.01.2021
3186 Rain 9 1010 81 10000 1.03 0 21:33 28.01.2021
3187 Clouds 9 1011 82 10000 2.06 270 20:55 28.01.2021
3188 Clouds 9 1011 82 10000 2.06 270 20:37 28.01.2021
3189 Clouds 9 1011 76 10000 2.57 250 20:18 28.01.2021
3190 Drizzle 10 1011 76 10000 3.6 240 19:40 28.01.2021
3191 Clouds 9 1011 76 10000 3.6 230 19:19 28.01.2021
3192 Clouds 9 1011 76 10000 2.06 220 18:43 28.01.2021
3193 Clouds 10 1011 76 10000 4.63 220 18:20 28.01.2021
3194 Clouds 10 1011 76 10000 3.09 210 17:44 28.01.2021
3195 Drizzle 10 1010 76 10000 4.12 230 17:26 28.01.2021
3196 Clouds 10 1010 76 10000 5.66 210 16:44 28.01.2021
3197 Clouds 9 1010 76 10000 5.14 230 16:22 28.01.2021
3198 Clouds 9 1010 76 10000 5.14 230 16:22 28.01.2021
3199 Clouds 9 1010 71 10000 4.12 230 15:41 28.01.2021
3200 Clouds 8 1010 76 10000 3.09 280 14:59 28.01.2021
3201 Clouds 8 1010 76 10000 3.09 280 14:41 28.01.2021
3202 Clouds 8 1010 81 7000 3.09 0 14:23 28.01.2021
3203 Clouds 8 1010 81 7000 3.09 260 13:45 28.01.2021
3204 Clouds 8 1010 81 6000 3.09 0 12:54 28.01.2021
3205 Rain 8 1010 81 6000 3.09 0 12:35 28.01.2021
3206 Rain 8 1011 81 6000 5.14 220 11:59 28.01.2021
3207 Rain 7 1011 81 6000 5.14 220 11:40 28.01.2021
3208 Rain 7 1011 81 7000 2.57 0 11:19 28.01.2021
3209 Snow 6 1010 100 8000 1.54 0 10:52 28.01.2021
3210 Snow 6 1010 100 8000 1.54 0 10:33 28.01.2021
3211 Mist 5 1011 100 1500 1.03 0 09:48 28.01.2021
3212 Mist 4 1012 100 1500 1.54 170 09:23 28.01.2021
3213 Clouds 3 1011 100 2200 1.54 0 08:54 28.01.2021
3214 Rain 3 1011 100 1500 1.54 310 08:19 28.01.2021
3215 Rain 2 1012 100 1500 2.06 140 07:44 28.01.2021
3216 Drizzle 2 1013 100 800 1.03 0 06:50 28.01.2021
3217 Drizzle 2 1013 100 900 1.03 0 05:56 28.01.2021
3218 Snow 2 1015 100 1100 0.51 0 04:27 28.01.2021
3219 Mist 2 1016 100 2800 1.03 0 01:38 28.01.2021
3220 Snow 1 1017 100 1500 1.03 0 23:48 27.01.2021
3221 Snow 1 1016 100 1400 1.03 210 23:23 27.01.2021
3222 Snow 1 1016 100 1800 1.03 0 22:42 27.01.2021
3223 Rain 1 1016 100 4500 1.03 0 22:22 27.01.2021
3224 Snow 1 1016 100 3200 1.54 100 21:43 27.01.2021
3225 Snow 0 1016 100 3400 2.57 100 21:23 27.01.2021
3226 Snow 0 1016 100 3400 2.57 100 21:23 27.01.2021
3227 Snow 0 1016 100 3700 1.54 110 20:52 27.01.2021
3228 Snow 0 1016 100 4600 2.06 110 20:27 27.01.2021
3229 Snow 0 1016 100 4100 1.54 90 19:50 27.01.2021
3230 Snow 1 1016 100 4100 1.54 90 19:23 27.01.2021
3231 Snow 1 1016 100 3200 1.54 130 18:46 27.01.2021
3232 Snow 1 1016 100 3200 1.54 130 18:26 27.01.2021
3233 Snow 0 1016 100 2100 1.54 0 17:56 27.01.2021
3234 Snow 1 1016 100 3000 2.57 140 17:38 27.01.2021
3235 Snow 1 1016 100 4000 2.06 150 16:58 27.01.2021
3236 Snow 1 1016 100 2000 1.54 140 16:39 27.01.2021
3237 Snow 1 1017 100 1600 1.03 140 16:21 27.01.2021
3238 Snow 1 1016 100 1500 1.03 170 15:49 27.01.2021
3239 Snow 1 1017 93 3700 1.03 260 15:29 27.01.2021
3240 Snow 1 1016 86 8000 1.54 160 14:24 27.01.2021
3241 Snow 0 1016 86 10000 2.06 160 13:53 27.01.2021
3242 Snow 0 1016 86 10000 2.06 160 13:35 27.01.2021
3243 Snow 0 1017 80 10000 1.54 110 12:42 27.01.2021
3244 Snow -1 1017 86 10000 2.06 140 12:24 27.01.2021
3245 Snow -1 1017 86 10000 0.51 0 11:48 27.01.2021
3246 Snow -1 1017 86 10000 1.54 150 11:26 27.01.2021
3247 Snow -2 1017 93 10000 1.03 0 10:47 27.01.2021
3248 Snow -2 1017 93 7000 0.51 0 10:25 27.01.2021
3249 Snow -3 1017 86 2700 2.57 90 09:56 27.01.2021
3250 Snow -3 1017 93 6000 3.09 130 09:28 27.01.2021
3251 Snow -3 1017 86 5000 2.06 110 08:45 27.01.2021
3252 Clouds -3 1018 80 10000 2.06 120 07:57 27.01.2021
3253 Snow -3 1018 80 10000 2.06 120 07:37 27.01.2021
3254 Snow -4 1019 93 10000 1.03 0 06:38 27.01.2021
3255 Snow -5 1019 93 10000 0.51 0 05:55 27.01.2021
3256 Snow -5 1019 93 10000 0.51 0 05:34 27.01.2021
3257 Clouds -6 1020 100 10000 0.51 0 02:46 27.01.2021
3258 Clouds -6 1020 72 10000 1.18 172 02:20 27.01.2021
3259 Clouds -6 1021 100 10000 0.51 0 00:58 27.01.2021
3260 Clouds -5 1022 70 10000 1.22 161 00:22 27.01.2021
3261 Clouds -5 1022 93 10000 0.51 0 23:38 26.01.2021
3262 Clouds -5 1022 86 10000 0.51 0 23:19 26.01.2021
3263 Clouds -5 1022 86 10000 1.03 0 22:38 26.01.2021
3264 Clouds -5 1022 86 10000 2.06 90 22:19 26.01.2021
3265 Clouds -4 1022 80 10000 3.09 110 21:51 26.01.2021
3266 Clouds -4 1022 80 10000 3.09 110 21:23 26.01.2021
3267 Clouds -4 1023 66 10000 1.58 163 20:43 26.01.2021
3268 Clear -3 1023 66 10000 1.38 154 20:23 26.01.2021
3269 Clouds -3 1022 74 10000 2.06 150 19:51 26.01.2021
3270 Clouds -3 1022 74 10000 1.03 0 19:30 26.01.2021
3271 Clear -3 1022 74 10000 1.54 120 18:58 26.01.2021
3272 Clear -3 1022 74 10000 1.54 120 18:58 26.01.2021
3273 Clouds -3 1023 62 10000 1.31 170 18:40 26.01.2021
3274 Clouds -2 1022 74 10000 0.51 0 18:21 26.01.2021
3275 Clouds -2 1022 74 10000 0.51 170 17:47 26.01.2021
3276 Clouds -1 1022 51 10000 0.51 0 17:22 26.01.2021
3277 Clouds 0 1022 51 10000 3.09 300 16:43 26.01.2021
3278 Clear 1 1022 44 10000 2.57 280 16:20 26.01.2021
3279 Clear 2 1022 41 10000 1.35 247 15:50 26.01.2021
3280 Clouds 1 1022 41 10000 1.54 0 15:30 26.01.2021
3281 Clouds 2 1022 41 10000 1.54 290 14:49 26.01.2021
3282 Clouds 2 1022 44 10000 1.54 300 14:30 26.01.2021
3283 Clouds 2 1022 48 10000 2.06 300 13:42 26.01.2021
3284 Clouds 1 1023 44 10000 0.51 0 13:24 26.01.2021
3285 Clouds 1 1022 51 10000 0.51 0 12:44 26.01.2021
3286 Clouds 1 1022 55 10000 2.57 220 12:25 26.01.2021
3287 Clouds 0 1023 64 10000 0.51 0 11:58 26.01.2021
3288 Clouds 0 1023 64 10000 0.51 0 11:38 26.01.2021
3289 Clouds -1 1022 69 10000 1.54 0 10:47 26.01.2021
3290 Clouds -2 1022 86 10000 2.57 150 10:29 26.01.2021
3291 Clouds -2 1022 100 10000 0.51 0 09:47 26.01.2021
3292 Clouds -4 1022 100 10000 1.03 0 09:26 26.01.2021
3293 Clouds -4 1021 100 10000 0.51 0 08:53 26.01.2021
3294 Clouds -4 1021 100 10000 0.51 0 08:33 26.01.2021
3295 Clouds -4 1020 93 10000 1.03 80 07:47 26.01.2021
3296 Clouds -4 1019 100 10000 1.03 0 06:23 26.01.2021
3297 Fog -4 1019 100 10000 1.03 0 05:43 26.01.2021
3298 Clouds -2 1018 86 10000 3.09 270 04:28 26.01.2021
3299 Clouds -2 1017 86 10000 3.09 270 02:44 26.01.2021
3300 Clouds -1 1015 93 10000 1.54 140 00:56 26.01.2021
3301 Snow -2 1015 100 10000 0.51 0 23:39 25.01.2021
3302 Clouds -2 1014 100 10000 0.51 0 23:18 25.01.2021
3303 Clouds -2 1014 100 10000 0.51 0 22:39 25.01.2021
3304 Clouds -2 1013 93 10000 1.03 0 21:52 25.01.2021
3305 Clouds -2 1013 93 10000 1.03 0 21:33 25.01.2021
3306 Clouds -1 1011 80 10000 2.57 290 20:52 25.01.2021
3307 Clouds -1 1011 80 10000 2.57 290 20:33 25.01.2021
3308 Snow -1 1010 100 10000 2.06 230 19:52 25.01.2021
3309 Snow -1 1010 100 10000 2.06 230 19:32 25.01.2021
3310 Clouds -1 1009 86 10000 2.57 270 18:49 25.01.2021
3311 Snow -1 1009 100 10000 2.57 280 18:28 25.01.2021
3312 Snow -1 1008 93 10000 1.54 340 17:59 25.01.2021
3313 Snow -1 1008 93 10000 1.54 340 17:41 25.01.2021
3314 Snow -1 1008 100 4000 3.09 310 17:23 25.01.2021
3315 Snow 0 1007 100 2000 3.09 270 16:41 25.01.2021
3316 Snow 0 1007 93 800 4.12 270 16:22 25.01.2021
3317 Snow 1 1006 64 10000 2.57 260 15:50 25.01.2021
3318 Snow 1 1006 64 10000 2.57 260 15:50 25.01.2021
3319 Snow 1 1006 69 10000 4.12 270 15:31 25.01.2021
3320 Snow 1 1005 75 9000 4.63 270 14:50 25.01.2021
3321 Snow 1 1005 80 7000 3.6 300 14:20 25.01.2021
3322 Snow 1 1005 80 7000 3.6 300 14:20 25.01.2021
3323 Snow 1 1005 75 2500 3.6 290 13:54 25.01.2021
3324 Snow 1 1005 75 2500 3.6 290 13:34 25.01.2021
3325 Snow 1 1005 75 10000 4.63 260 12:46 25.01.2021
3326 Snow 1 1004 80 1500 4.12 320 12:24 25.01.2021
3327 Snow 0 1004 80 1500 4.12 320 11:57 25.01.2021
3328 Snow 0 1004 75 10000 4.63 250 11:20 25.01.2021
3329 Snow 0 1003 75 10000 4.63 240 10:43 25.01.2021
3330 Clouds 0 1003 80 10000 3.6 250 10:20 25.01.2021
3331 Snow 0 1002 86 10000 5.66 260 09:46 25.01.2021
3332 Snow -1 1002 93 4100 1.54 240 09:28 25.01.2021
3333 Snow 0 1002 100 4500 1.54 330 08:32 25.01.2021
3334 Snow 0 1001 100 6000 4.12 310 07:46 25.01.2021
3335 Snow 0 1001 100 650 5.66 300 07:26 25.01.2021
3336 Snow 0 1000 86 10000 4.12 240 06:22 25.01.2021
3337 Snow -1 1000 100 10000 2.57 130 01:34 25.01.2021
3338 Snow -1 1000 93 2500 1.54 320 00:31 25.01.2021
3339 Snow 0 1000 80 10000 3.6 290 23:20 24.01.2021
3340 Snow 0 1000 80 10000 3.6 290 23:20 24.01.2021
3341 Snow 0 1001 75 10000 4.63 290 22:46 24.01.2021
3342 Snow 0 1001 75 10000 6.17 290 22:27 24.01.2021
3343 Snow 0 1001 75 10000 6.17 290 22:25 24.01.2021
3344 Snow 1 1001 86 10000 1.03 0 21:51 24.01.2021
3345 Snow 1 1001 86 10000 1.03 0 21:24 24.01.2021
3346 Snow 1 1001 86 10000 2.06 60 20:46 24.01.2021
3347 Snow 1 1002 86 10000 2.06 130 20:23 24.01.2021
3348 Clouds 1 1002 80 10000 1.54 0 19:56 24.01.2021
3349 Snow 1 1002 80 10000 1.54 0 19:36 24.01.2021
3350 Clouds 0 1002 86 10000 1.54 120 19:18 24.01.2021
3351 Clouds 1 1002 75 10000 1.54 130 18:41 24.01.2021
3352 Clear 1 1002 75 10000 1.54 180 18:21 24.01.2021
3353 Clear 1 1002 69 10000 1.54 0 17:57 24.01.2021
3354 Clear 1 1002 69 10000 1.54 0 17:38 24.01.2021
3355 Clear 2 1002 56 10000 1.54 150 17:18 24.01.2021
3356 Clear 4 1002 48 10000 1.03 0 16:41 24.01.2021
3357 Clear 3 1002 48 10000 2.06 210 16:20 24.01.2021
3358 Clear 3 1002 56 10000 1.54 210 15:45 24.01.2021
3359 Clear 3 1002 60 10000 2.06 210 15:20 24.01.2021
3360 Clear 3 1003 56 10000 2.06 260 14:47 24.01.2021
3361 Clouds 3 1003 65 10000 2.06 220 14:24 24.01.2021
3362 Clouds 3 1003 60 10000 1.54 210 13:34 24.01.2021
3363 Clouds 2 1004 65 10000 2.57 290 12:51 24.01.2021
3364 Clouds 2 1004 60 10000 2.06 260 12:23 24.01.2021
3365 Clouds 1 1004 60 10000 1.03 0 11:56 24.01.2021
3366 Clouds 1 1003 64 10000 1.03 240 11:27 24.01.2021
3367 Clouds 1 1003 64 10000 1.03 240 10:59 24.01.2021
3368 Clouds 0 1003 64 10000 1.03 0 10:35 24.01.2021
3369 Clouds -1 1003 74 10000 1.03 0 09:47 24.01.2021
3370 Clouds -1 1002 74 10000 1.03 0 09:19 24.01.2021
3371 Clouds -1 1002 80 10000 1.03 0 08:38 24.01.2021
3372 Clouds 2 999 75 10000 3.09 280 03:51 24.01.2021
3373 Clouds 2 998 81 10000 3.09 270 02:20 24.01.2021
3374 Clouds 2 996 75 10000 4.12 250 00:57 24.01.2021
3375 Clouds 2 996 75 10000 4.12 250 00:21 24.01.2021
3376 Clouds 2 996 87 10000 4.63 280 23:41 23.01.2021
3377 Clouds 2 995 81 10000 4.12 0 23:20 23.01.2021
3378 Clouds 2 995 87 10000 3.09 240 22:41 23.01.2021
3379 Clouds 2 995 87 10000 3.09 240 22:41 23.01.2021
3380 Snow 2 995 100 10000 3.09 320 22:20 23.01.2021
3381 Snow 2 994 100 10000 4.12 170 21:24 23.01.2021
3382 Snow 2 994 100 10000 2.57 110 20:58 23.01.2021
3383 Snow 2 994 100 10000 2.57 110 20:38 23.01.2021
3384 Snow 2 994 100 10000 2.57 110 20:38 23.01.2021
3385 Snow 1 995 100 10000 3.09 120 20:20 23.01.2021
3386 Snow 1 995 100 10000 3.09 140 19:43 23.01.2021
3387 Clouds 1 995 93 3800 5.14 280 19:20 23.01.2021
3388 Snow 1 995 93 10000 2.57 150 18:43 23.01.2021
3389 Snow 2 995 81 10000 2.57 290 18:23 23.01.2021
3390 Rain 2 994 81 10000 1.03 0 17:44 23.01.2021
3391 Rain 2 994 75 10000 0.51 0 17:25 23.01.2021
3392 Rain 3 995 81 10000 1.54 300 16:46 23.01.2021
3393 Clouds 4 995 70 10000 2.57 300 16:24 23.01.2021
3394 Clouds 3 996 65 10000 1.54 0 15:31 23.01.2021
3395 Clouds 3 996 65 10000 1.54 0 14:53 23.01.2021
3396 Clouds 4 997 65 10000 1.03 0 14:28 23.01.2021
3397 Rain 4 997 70 10000 2.06 190 13:50 23.01.2021
3398 Clouds 4 997 70 10000 2.06 190 13:32 23.01.2021
3399 Clouds 4 998 70 10000 3.09 230 12:49 23.01.2021
3400 Clear 3 999 81 10000 1.03 0 12:26 23.01.2021
3401 Clear 2 1000 87 10000 1.03 0 11:45 23.01.2021
3402 Clouds 1 1000 93 10000 1.03 0 11:19 23.01.2021
3403 Clouds 0 1000 100 10000 1.03 100 10:29 23.01.2021
3404 Clouds 0 1001 100 10000 0.51 0 09:57 23.01.2021
3405 Clouds 0 1001 100 10000 0.51 0 09:32 23.01.2021
3406 Clouds 0 1001 100 10000 0.51 0 08:45 23.01.2021
3407 Clouds 0 1002 93 10000 2.57 290 07:50 23.01.2021
3408 Clouds 1 1002 100 10000 2.57 80 07:18 23.01.2021
3409 Snow 1 1002 80 10000 1.54 0 03:35 23.01.2021
3410 Snow 1 1000 87 8000 6.69 260 00:34 23.01.2021
3411 Snow 1 997 87 9000 8.23 260 23:36 22.01.2021
3412 Rain 2 995 93 9000 6.69 280 22:45 22.01.2021
3413 Rain 4 994 100 8000 7.2 280 22:22 22.01.2021
3414 Rain 5 993 100 7000 6.17 270 21:45 22.01.2021
3415 Rain 5 993 100 7000 6.17 270 21:45 22.01.2021
3416 Rain 5 992 100 7000 1.03 0 21:25 22.01.2021
3417 Rain 5 992 100 10000 0.51 0 20:54 22.01.2021
3418 Rain 5 992 93 10000 1.54 350 20:32 22.01.2021
3419 Rain 5 992 93 10000 2.06 330 19:48 22.01.2021
3420 Rain 5 991 100 10000 1.03 10 19:21 22.01.2021
3421 Rain 5 991 100 10000 1.03 0 18:48 22.01.2021
3422 Rain 6 991 100 10000 1.03 0 18:26 22.01.2021
3423 Clouds 6 991 100 10000 1.03 0 17:52 22.01.2021
3424 Clouds 6 991 100 10000 1.03 0 17:33 22.01.2021
3425 Clouds 8 992 87 10000 1.54 0 16:56 22.01.2021
3426 Clouds 7 992 87 10000 2.06 320 16:31 22.01.2021
3427 Clouds 8 993 76 10000 2.57 300 15:48 22.01.2021
3428 Clouds 8 992 81 10000 3.6 320 15:25 22.01.2021
3429 Clouds 8 992 81 10000 3.6 320 15:25 22.01.2021
3430 Clouds 8 993 71 10000 3.6 300 14:43 22.01.2021
3431 Clouds 8 993 71 10000 1.03 0 14:24 22.01.2021
3432 Clouds 9 993 71 10000 1.03 160 13:38 22.01.2021
3433 Clouds 8 993 76 10000 2.57 170 13:19 22.01.2021
3434 Clouds 8 994 76 10000 2.06 130 12:40 22.01.2021
3435 Clear 8 995 76 10000 1.03 0 12:18 22.01.2021
3436 Clouds 7 995 87 10000 2.06 320 11:38 22.01.2021
3437 Clouds 6 996 93 10000 2.57 320 10:48 22.01.2021
3438 Rain 5 996 87 10000 1.03 0 10:24 22.01.2021
3439 Clouds 4 997 93 10000 1.03 0 09:44 22.01.2021
3440 Clear 4 997 93 10000 3.6 100 08:58 22.01.2021
3441 Clear 4 997 93 10000 3.6 100 08:32 22.01.2021
3442 Clouds 4 998 100 10000 2.06 120 07:50 22.01.2021
3443 Clouds 4 1000 100 10000 1.03 0 05:26 22.01.2021
3444 Rain 5 1002 87 8000 10.29 270 01:54 22.01.2021
3445 Clouds 4 1001 81 10000 1.54 0 00:30 22.01.2021
3446 Rain 4 1000 81 10000 1.03 0 23:49 21.01.2021
3447 Clouds 5 1000 87 10000 2.57 150 23:21 21.01.2021
3448 Clouds 4 1000 87 10000 2.06 100 22:48 21.01.2021
3449 Rain 4 1001 93 10000 2.06 310 21:59 21.01.2021
3450 Rain 4 1001 93 10000 2.06 310 21:40 21.01.2021
3451 Rain 4 1001 93 10000 1.03 0 21:19 21.01.2021
3452 Rain 4 1002 93 10000 2.06 300 20:46 21.01.2021
3453 Rain 4 1001 93 10000 1.54 160 20:21 21.01.2021
3454 Clouds 5 1001 87 10000 1.54 140 19:50 21.01.2021
3455 Clouds 5 1002 81 10000 1.03 0 19:26 21.01.2021
3456 Clouds 6 1002 81 10000 1.54 70 18:49 21.01.2021
3457 Clouds 6 1002 81 10000 2.06 90 18:23 21.01.2021
3458 Clouds 6 1002 81 10000 2.06 90 17:58 21.01.2021
3459 Clouds 6 1002 81 10000 1.03 140 17:40 21.01.2021
3460 Clouds 6 1002 81 10000 2.06 120 17:18 21.01.2021
3461 Clouds 7 1003 70 10000 1.54 20 16:41 21.01.2021
3462 Clouds 7 1003 76 10000 1.03 0 16:22 21.01.2021
3463 Clouds 8 1003 70 10000 1.54 180 15:48 21.01.2021
3464 Clouds 8 1003 70 10000 0.51 0 15:28 21.01.2021
3465 Clouds 7 1004 75 10000 1.03 0 14:47 21.01.2021
3466 Clouds 7 1004 75 10000 1.03 0 14:25 21.01.2021
3467 Clouds 8 1004 65 10000 1.03 300 13:46 21.01.2021
3468 Clouds 7 1005 75 10000 1.54 190 13:26 21.01.2021
3469 Clouds 7 1005 87 10000 0.51 0 12:45 21.01.2021
3470 Clouds 7 1005 87 10000 0.51 0 12:25 21.01.2021
3471 Rain 6 1006 87 10000 1.03 0 11:52 21.01.2021
3472 Rain 6 1006 87 10000 1.03 0 11:32 21.01.2021
3473 Clouds 5 1006 87 10000 1.03 0 10:53 21.01.2021
3474 Clouds 5 1006 87 10000 1.03 0 10:34 21.01.2021
3475 Clouds 4 1005 93 10000 1.03 0 09:49 21.01.2021
3476 Clouds 3 1005 100 10000 1.03 0 09:30 21.01.2021
3477 Clouds 1 1005 100 10000 1.54 0 08:57 21.01.2021
3478 Clouds 2 1005 100 10000 0.51 0 08:27 21.01.2021
3479 Clouds 1 1005 100 10000 0.51 0 07:45 21.01.2021
3480 Clouds 1 1005 100 10000 0.51 0 07:23 21.01.2021
3481 Clouds 1 1005 100 10000 1.54 0 05:50 21.01.2021
3482 Clouds 0 1004 100 10000 1.54 0 04:29 21.01.2021
3483 Snow -1 1004 100 10000 1.54 120 01:33 21.01.2021
3484 Clouds 0 1005 100 10000 1.03 0 00:40 21.01.2021
3485 Clouds 0 1005 93 10000 0.51 0 23:43 20.01.2021
3486 Clouds 0 1005 100 10000 1.54 0 23:22 20.01.2021
3487 Clouds 0 1005 93 10000 2.06 150 22:49 20.01.2021
3488 Clouds 0 1005 100 10000 1.54 120 22:28 20.01.2021
3489 Clouds 0 1005 100 10000 1.54 150 21:48 20.01.2021
3490 Clouds 1 1005 100 10000 1.54 130 21:22 20.01.2021
3491 Clouds 0 1005 100 10000 1.54 0 20:50 20.01.2021
3492 Clouds 0 1006 100 10000 0.51 0 20:21 20.01.2021
3493 Clouds 1 1006 100 10000 0.51 0 19:47 20.01.2021
3494 Clouds 1 1006 100 10000 1.83 154 19:27 20.01.2021
3495 Clouds 1 1006 93 10000 1.03 0 18:42 20.01.2021
3496 Clear 1 1006 93 10000 1.54 0 18:20 20.01.2021
3497 Clear 2 1006 93 10000 2.57 110 17:43 20.01.2021
3498 Clear 3 1006 87 10000 2.57 130 17:24 20.01.2021
3499 Clear 4 1007 70 10000 2.57 140 16:45 20.01.2021
3500 Clear 4 1007 75 10000 2.57 150 16:20 20.01.2021
3501 Clear 5 1007 65 10000 2.06 130 15:38 20.01.2021
3502 Clear 5 1008 70 10000 1.54 0 14:57 20.01.2021
3503 Clear 5 1008 70 10000 1.54 0 14:38 20.01.2021
3504 Clear 5 1009 70 10000 1.54 0 14:18 20.01.2021
3505 Clear 4 1009 75 10000 1.54 150 13:36 20.01.2021
3506 Clear 3 1010 87 10000 2.57 120 12:55 20.01.2021
3507 Clear 3 1011 93 10000 2.57 90 12:22 20.01.2021
3508 Clear 2 1011 93 10000 3.6 110 11:40 20.01.2021
3509 Clear 1 1012 93 10000 2.57 120 11:19 20.01.2021
3510 Clear 1 1012 100 10000 2.57 130 10:45 20.01.2021
3511 Clear 1 1012 100 10000 2.57 160 10:22 20.01.2021
3512 Clear 0 1012 100 10000 1.03 0 09:38 20.01.2021
3513 Clear 0 1013 100 10000 2.06 180 09:18 20.01.2021
3514 Clear -1 1013 100 10000 1.03 0 08:41 20.01.2021
3515 Clear -1 1013 100 10000 1.54 0 08:21 20.01.2021
3516 Clear -1 1013 100 10000 2.06 110 07:38 20.01.2021
3517 Clouds -2 1013 100 10000 1.54 0 06:59 20.01.2021
3518 Clear -2 1014 100 10000 1.03 0 03:37 20.01.2021
3519 Clear -2 1015 100 10000 2.57 120 01:51 20.01.2021
3520 Clear -2 1016 100 10000 1.54 0 00:58 20.01.2021
3521 Clear -2 1017 100 10000 0.51 0 23:54 19.01.2021
3522 Clear -2 1017 100 10000 0.51 0 23:34 19.01.2021
3523 Clear -2 1017 100 10000 0.51 0 23:34 19.01.2021
3524 Clear -2 1017 100 10000 1.03 0 22:58 19.01.2021
3525 Clear -2 1017 100 10000 1.03 0 22:39 19.01.2021
3526 Clear -1 1017 100 10000 2.06 100 22:21 19.01.2021
3527 Clear -1 1017 100 10000 3.09 100 21:54 19.01.2021
3528 Clear -1 1017 100 10000 3.09 100 21:34 19.01.2021
3529 Clear -1 1018 93 10000 2.57 130 20:49 19.01.2021
3530 Clear -1 1018 93 10000 1.9 178 20:28 19.01.2021
3531 Clear -1 1018 93 10000 2.06 140 19:56 19.01.2021
3532 Clear -1 1018 93 10000 2.06 140 19:34 19.01.2021
3533 Clear 0 1018 86 10000 2.06 100 18:59 19.01.2021
3534 Clear 1 1018 86 10000 2.06 100 18:38 19.01.2021
3535 Clear 1 1018 80 10000 3.09 110 18:20 19.01.2021
3536 Clear 2 1018 80 10000 2.57 120 17:42 19.01.2021
3537 Clear 3 1018 75 10000 3.6 130 17:19 19.01.2021
3538 Clouds 4 1018 75 10000 3.09 140 16:39 19.01.2021
3539 Clouds 5 1018 65 10000 3.6 140 16:18 19.01.2021
3540 Clouds 5 1019 65 10000 3.09 150 15:48 19.01.2021
3541 Clouds 5 1019 60 10000 2.06 140 15:29 19.01.2021
3542 Clear 5 1019 75 10000 2.06 130 14:43 19.01.2021
3543 Clear 4 1019 75 10000 2.06 140 14:25 19.01.2021
3544 Clear 3 1020 69 10000 3.09 130 13:49 19.01.2021
3545 Clouds 3 1021 75 10000 2.06 140 13:23 19.01.2021
3546 Clouds 2 1021 75 10000 1.54 150 12:51 19.01.2021
3547 Clouds 2 1021 74 10000 2.06 130 12:30 19.01.2021
3548 Clear 0 1022 86 10000 2.06 150 11:52 19.01.2021
3549 Clear 0 1022 86 10000 2.06 150 11:29 19.01.2021
3550 Clear -1 1022 93 10000 2.57 150 10:53 19.01.2021
3551 Clear -1 1022 93 10000 2.57 150 10:32 19.01.2021
3552 Clear -3 1022 100 10000 1.54 150 09:54 19.01.2021
3553 Clear -3 1022 100 10000 1.54 150 09:36 19.01.2021
3554 Clear -5 1022 100 10000 0.51 0 08:59 19.01.2021
3555 Clear -5 1022 93 10000 1.03 0 08:31 19.01.2021
3556 Clear -5 1022 93 10000 1.54 170 07:51 19.01.2021
3557 Clouds -4 1023 93 10000 2.57 150 06:55 19.01.2021
3558 Clouds -3 1024 93 10000 2.06 100 03:20 19.01.2021
3559 Clouds -3 1025 93 10000 2.06 100 02:21 19.01.2021
3560 Clouds -2 1026 100 10000 2.57 90 00:18 19.01.2021
3561 Clouds -2 1026 100 10000 2.57 100 23:37 18.01.2021
3562 Clouds -2 1026 100 10000 2.06 110 23:18 18.01.2021
3563 Clouds -2 1026 100 10000 2.06 150 22:40 18.01.2021
3564 Clear -2 1026 100 10000 1.03 0 22:19 18.01.2021
3565 Clear -2 1026 100 10000 1.03 0 21:40 18.01.2021
3566 Clear -1 1026 93 10000 0.51 0 21:22 18.01.2021
3567 Clear -1 1026 93 10000 1.03 130 20:45 18.01.2021
3568 Clear -1 1026 100 10000 1.54 0 20:26 18.01.2021
3569 Clear -1 1026 100 10000 1.54 0 19:51 18.01.2021
3570 Clear -1 1026 100 10000 1.54 0 19:33 18.01.2021
3571 Clouds 0 1026 93 10000 1.03 0 18:47 18.01.2021
3572 Clouds 0 1026 75 10000 0.51 0 18:24 18.01.2021
3573 Clouds 1 1025 80 10000 1.03 0 17:46 18.01.2021
3574 Clouds 2 1026 75 10000 1.54 210 17:25 18.01.2021
3575 Clouds 3 1026 60 10000 1.54 300 16:48 18.01.2021
3576 Clouds 3 1026 60 10000 2.06 360 16:23 18.01.2021
3577 Clouds 3 1026 65 10000 1.54 290 15:49 18.01.2021
3578 Clouds 3 1026 60 10000 1.03 0 15:27 18.01.2021
3579 Clouds 3 1026 65 10000 2.57 280 14:46 18.01.2021
3580 Clouds 4 1026 65 10000 2.06 290 14:28 18.01.2021
3581 Clouds 3 1026 65 10000 1.03 0 13:54 18.01.2021
3582 Clouds 3 1026 65 10000 1.03 0 13:36 18.01.2021
3583 Clouds 4 1027 60 10000 1.03 0 13:18 18.01.2021
3584 Clouds 3 1027 81 10000 0.51 0 12:41 18.01.2021
3585 Clouds 3 1027 87 10000 2.06 130 12:18 18.01.2021
3586 Clouds 3 1027 87 10000 2.06 110 11:40 18.01.2021
3587 Clouds 2 1027 93 10000 2.57 100 11:21 18.01.2021
3588 Clouds 2 1027 93 10000 2.57 100 11:21 18.01.2021
3589 Clouds 1 1027 100 10000 2.06 120 10:46 18.01.2021
3590 Clouds 0 1027 100 10000 2.06 110 09:51 18.01.2021
3591 Clouds 1 1027 100 10000 2.06 110 09:32 18.01.2021
3592 Mist 0 1027 100 5000 0.51 0 08:56 18.01.2021
3593 Mist 0 1027 100 5000 1.44 170 08:25 18.01.2021
3594 Mist 0 1027 100 3000 1.44 170 07:47 18.01.2021
3595 Mist 0 1026 100 2300 0.51 0 06:32 18.01.2021
3596 Mist 0 1026 100 2600 0.51 0 04:41 18.01.2021
3597 Fog 0 1026 100 3900 0.51 0 04:20 18.01.2021
3598 Mist 0 1026 100 3400 0.51 0 03:45 18.01.2021
3599 Mist 0 1026 100 4600 0.51 0 03:23 18.01.2021
3600 Clouds 0 1025 100 5000 0.51 0 02:51 18.01.2021
3601 Clouds 0 1025 100 5000 1.54 140 01:56 18.01.2021
3602 Clouds 1 1025 100 8000 1.03 0 00:39 18.01.2021
3603 Clouds 1 1025 100 10000 1.03 0 23:49 17.01.2021
3604 Clouds 1 1025 100 10000 0.51 0 23:24 17.01.2021
3605 Clouds 1 1025 100 10000 1.03 100 22:47 17.01.2021
3606 Clouds 1 1025 100 10000 1.54 0 22:22 17.01.2021
3607 Clouds 1 1024 93 10000 1.03 0 21:42 17.01.2021
3608 Clouds 1 1024 100 10000 2.06 120 21:24 17.01.2021
3609 Clouds 1 1024 100 10000 1.03 0 20:50 17.01.2021
3610 Clouds 1 1024 93 10000 3.09 280 20:31 17.01.2021
3611 Snow 1 1023 100 10000 1.54 0 19:44 17.01.2021
3612 Snow 1 1023 100 10000 0.51 0 19:26 17.01.2021
3613 Snow 1 1023 100 10000 1.03 0 18:51 17.01.2021
3614 Snow 1 1023 100 10000 1.03 0 18:28 17.01.2021
3615 Snow 1 1022 100 10000 2.06 80 17:49 17.01.2021
3616 Snow 2 1021 100 10000 2.57 150 17:28 17.01.2021
3617 Snow 2 1021 100 10000 1.54 0 16:45 17.01.2021
3618 Snow 2 1020 100 10000 3.09 290 16:24 17.01.2021
3619 Snow 1 1020 100 6000 1.54 280 15:44 17.01.2021
3620 Snow 1 1019 100 3500 1.54 0 15:26 17.01.2021
3621 Snow 2 1019 100 5000 1.03 0 14:55 17.01.2021
3622 Snow 2 1019 100 6000 0.51 0 14:27 17.01.2021
3623 Snow 2 1019 100 6000 1.54 50 13:58 17.01.2021
3624 Snow 2 1019 100 6000 1.54 50 13:40 17.01.2021
3625 Snow 2 1019 100 5000 1.03 0 13:21 17.01.2021
3626 Snow 2 1019 93 5000 1.03 0 12:41 17.01.2021
3627 Snow 2 1019 93 10000 1.54 30 12:22 17.01.2021
3628 Rain 2 1019 75 10000 3.09 270 11:25 17.01.2021
3629 Clouds 2 1019 75 10000 3.09 290 10:51 17.01.2021
3630 Clouds 2 1018 75 10000 2.57 270 10:24 17.01.2021
3631 Clouds 2 1018 93 10000 2.06 270 09:48 17.01.2021
3632 Snow 1 1017 100 8000 2.57 320 08:48 17.01.2021
3633 Snow 1 1017 100 8000 1.54 110 08:26 17.01.2021
3634 Snow -1 1017 100 4200 0.51 0 04:29 17.01.2021
3635 Snow -1 1017 100 3600 1.03 0 02:50 17.01.2021
3636 Snow -2 1019 100 3700 1.03 0 00:54 17.01.2021
3637 Snow -2 1019 93 1800 1.54 120 00:21 17.01.2021
3638 Snow -2 1020 93 2500 2.06 140 23:52 16.01.2021
3639 Snow -2 1020 93 6000 2.57 150 23:21 16.01.2021
3640 Snow -2 1020 86 4800 2.06 120 22:52 16.01.2021
3641 Snow -2 1021 93 9000 1.03 0 22:18 16.01.2021
3642 Snow -2 1021 93 10000 2.06 110 21:43 16.01.2021
3643 Snow -2 1022 86 10000 1.39 204 21:22 16.01.2021
3644 Snow -2 1022 86 10000 1.03 170 20:47 16.01.2021
3645 Snow -2 1023 86 10000 0.51 0 20:23 16.01.2021
3646 Snow -2 1023 86 10000 1.54 300 19:48 16.01.2021
3647 Clouds -3 1023 86 10000 1.03 280 19:29 16.01.2021
3648 Clouds -3 1023 86 10000 0.51 0 18:45 16.01.2021
3649 Clouds -2 1024 80 10000 0.51 0 18:26 16.01.2021
3650 Clouds -2 1024 80 10000 0.51 0 17:50 16.01.2021
3651 Clouds -2 1024 80 10000 0.51 0 17:30 16.01.2021
3652 Clouds -3 1024 80 10000 2.06 290 16:50 16.01.2021
3653 Clouds -2 1024 80 10000 2.57 270 16:31 16.01.2021
3654 Clouds -2 1024 80 10000 2.57 270 15:55 16.01.2021
3655 Clouds -2 1024 80 10000 3.09 260 15:36 16.01.2021
3656 Clouds -2 1024 80 9000 3.6 290 14:31 16.01.2021
3657 Clouds -2 1025 86 8000 4.12 300 13:50 16.01.2021
3658 Clouds -2 1025 86 9000 3.6 300 13:30 16.01.2021
3659 Clouds -3 1025 93 8000 3.6 310 12:47 16.01.2021
3660 Clouds -3 1026 86 9000 3.09 300 12:21 16.01.2021
3661 Clouds -3 1026 86 10000 2.57 310 11:54 16.01.2021
3662 Clouds -3 1026 86 9000 3.09 320 11:25 16.01.2021
3663 Clouds -3 1026 86 9000 3.6 320 10:50 16.01.2021
3664 Clouds -4 1026 93 8000 2.57 330 10:30 16.01.2021
3665 Clouds -4 1026 93 9000 2.57 340 09:42 16.01.2021
3666 Clouds -5 1026 93 9000 3.09 320 09:19 16.01.2021
3667 Clouds -5 1026 93 9000 2.57 330 08:18 16.01.2021
3668 Clouds -6 1026 93 9000 2.57 320 06:44 16.01.2021
3669 Clouds -6 1026 93 9000 2.57 320 06:44 16.01.2021
3670 Clouds -6 1026 93 9000 3.09 310 04:52 16.01.2021
3671 Clouds -6 1025 93 10000 2.57 310 02:58 16.01.2021
3672 Clouds -6 1025 93 9000 2.06 310 02:25 16.01.2021
3673 Clouds -5 1025 86 10000 1.54 270 00:44 16.01.2021
3674 Clouds -5 1025 86 10000 1.54 270 00:20 16.01.2021
3675 Clouds -5 1025 86 10000 1.03 0 23:28 15.01.2021
3676 Clouds -4 1025 80 10000 2.06 340 22:27 15.01.2021
3677 Clouds -4 1024 80 10000 2.06 360 21:48 15.01.2021
3678 Clouds -4 1024 80 10000 2.06 10 21:30 15.01.2021
3679 Clouds -3 1024 74 10000 2.06 30 20:43 15.01.2021
3680 Clouds -3 1024 74 10000 1.54 0 20:23 15.01.2021
3681 Clouds -2 1024 74 10000 1.54 0 19:45 15.01.2021
3682 Clouds -2 1023 80 10000 1.54 50 19:25 15.01.2021
3683 Clouds -2 1023 74 10000 3.03 51 18:45 15.01.2021
3684 Clouds -2 1023 86 10000 2.06 0 18:20 15.01.2021
3685 Clouds -2 1023 86 10000 2.06 0 18:20 15.01.2021
3686 Clouds -2 1022 86 10000 2.06 30 17:56 15.01.2021
3687 Clouds -2 1022 86 10000 2.06 30 17:38 15.01.2021
3688 Snow -2 1021 93 10000 2.57 280 17:19 15.01.2021
3689 Snow -2 1021 100 9000 3.6 290 16:43 15.01.2021
3690 Snow -1 1020 100 6000 4.63 300 16:22 15.01.2021
3691 Snow -1 1020 100 3500 2.57 320 15:40 15.01.2021
3692 Snow -1 1019 100 3500 3.09 300 15:19 15.01.2021
3693 Snow -1 1019 100 3500 3.09 290 14:41 15.01.2021
3694 Snow -1 1019 100 2000 3.09 290 14:22 15.01.2021
3695 Snow 0 1019 100 2000 3.6 280 13:40 15.01.2021
3696 Snow 0 1019 100 2000 3.6 280 13:40 15.01.2021
3697 Snow 0 1018 100 2000 3.6 290 13:20 15.01.2021
3698 Snow 0 1018 100 1300 4.12 290 12:48 15.01.2021
3699 Snow 0 1018 100 1400 4.12 290 12:30 15.01.2021
3700 Snow 0 1017 100 1000 4.63 300 11:43 15.01.2021
3701 Snow 0 1017 100 3300 4.12 290 11:23 15.01.2021
3702 Rain 1 1016 100 5000 4.63 300 10:52 15.01.2021
3703 Rain 3 1015 100 6000 4.12 320 10:24 15.01.2021
3704 Rain 3 1015 100 8000 0.51 0 09:50 15.01.2021
3705 Rain 3 1014 100 8000 0.51 0 09:29 15.01.2021
3706 Rain 3 1014 100 2000 1.03 0 08:31 15.01.2021
3707 Mist 3 1014 100 3000 1.03 240 07:47 15.01.2021
3708 Mist 4 1013 100 2700 0.51 0 07:24 15.01.2021
3709 Mist 4 1013 100 3500 0.51 0 06:52 15.01.2021
3710 Clouds 4 1013 100 8000 1.03 110 03:29 15.01.2021
3711 Drizzle 4 1013 100 2800 1.03 0 00:57 15.01.2021
3712 Rain 3 1013 100 10000 2.06 130 23:47 14.01.2021
3713 Rain 3 1013 100 3800 1.03 0 22:59 14.01.2021
3714 Rain 3 1013 100 3800 1.03 0 22:40 14.01.2021
3715 Rain 3 1013 100 4900 1.54 90 22:22 14.01.2021
3716 Clouds 3 1013 100 6000 2.06 120 21:42 14.01.2021
3717 Clouds 4 1014 100 5000 1.03 150 21:21 14.01.2021
3718 Rain 4 1014 100 6000 1.54 140 20:49 14.01.2021
3719 Rain 3 1014 100 10000 0.51 0 20:25 14.01.2021
3720 Rain 4 1014 100 10000 1.03 0 19:43 14.01.2021
3721 Rain 4 1014 100 10000 1.03 10 19:25 14.01.2021
3722 Rain 4 1015 93 10000 1.03 0 18:52 14.01.2021
3723 Rain 4 1015 87 10000 2.06 360 18:27 14.01.2021
3724 Rain 4 1015 93 10000 2.06 330 17:46 14.01.2021
3725 Rain 4 1016 87 10000 2.06 290 17:27 14.01.2021
3726 Rain 5 1016 75 10000 3.09 260 16:43 14.01.2021
3727 Rain 5 1016 75 10000 3.6 260 16:18 14.01.2021
3728 Rain 5 1016 81 9000 3.6 270 15:45 14.01.2021
3729 Clouds 4 1016 87 6000 4.63 260 14:59 14.01.2021
3730 Clouds 4 1016 87 6000 4.63 260 14:38 14.01.2021
3731 Rain 4 1016 87 6000 6.17 250 14:19 14.01.2021
3732 Rain 4 1016 87 6000 6.17 250 14:19 14.01.2021
3733 Rain 4 1017 81 6000 7.2 250 13:53 14.01.2021
3734 Rain 4 1017 87 5000 6.17 250 13:21 14.01.2021
3735 Rain 4 1017 87 4500 4.12 250 12:49 14.01.2021
3736 Rain 4 1017 87 4000 4.12 260 12:20 14.01.2021
3737 Rain 4 1017 87 4000 5.14 250 11:43 14.01.2021
3738 Rain 5 1017 81 4500 6.17 270 11:21 14.01.2021
3739 Rain 5 1017 75 8000 7.2 270 10:52 14.01.2021
3740 Rain 5 1017 75 9000 5.66 260 10:29 14.01.2021
3741 Rain 5 1016 75 10000 8.23 250 09:48 14.01.2021
3742 Rain 5 1016 75 10000 7.2 250 09:23 14.01.2021
3743 Drizzle 5 1017 75 10000 6.17 250 08:52 14.01.2021
3744 Clouds 5 1017 75 10000 6.69 240 08:28 14.01.2021
3745 Clouds 5 1017 75 10000 5.66 240 07:50 14.01.2021
3746 Clouds 5 1017 75 6000 6.69 250 06:59 14.01.2021
3747 Clouds 5 1017 75 10000 5.66 250 06:19 14.01.2021
3748 Clouds 5 1018 81 5000 5.66 240 01:55 14.01.2021
3749 Clouds 5 1018 81 10000 3.09 0 23:56 13.01.2021
3750 Drizzle 5 1018 81 10000 3.09 0 23:23 13.01.2021
3751 Clouds 4 1018 100 10000 1.54 0 22:40 13.01.2021
3752 Clouds 3 1019 100 4500 1.03 0 22:18 13.01.2021
3753 Clouds 3 1019 100 2800 1.03 0 21:42 13.01.2021
3754 Snow 3 1019 100 2700 0.51 0 21:19 13.01.2021
3755 Snow 2 1019 100 9000 1.03 0 20:42 13.01.2021
3756 Snow 2 1019 100 10000 1.03 10 20:20 13.01.2021
3757 Snow 2 1019 93 10000 1.03 60 19:43 13.01.2021
3758 Snow 2 1019 93 10000 2.06 150 19:22 13.01.2021
3759 Rain 2 1019 87 10000 2.57 250 18:42 13.01.2021
3760 Rain 3 1020 75 10000 2.06 0 18:18 13.01.2021
3761 Rain 3 1019 93 10000 3.09 140 17:40 13.01.2021
3762 Rain 4 1019 87 10000 5.14 140 17:18 13.01.2021
3763 Rain 4 1020 75 10000 1.03 0 16:23 13.01.2021
3764 Rain 4 1020 75 10000 2.06 290 15:59 13.01.2021
3765 Rain 4 1020 75 10000 2.06 290 15:40 13.01.2021
3766 Clouds 4 1020 75 10000 2.57 300 14:56 13.01.2021
3767 Clouds 4 1020 75 10000 2.06 290 14:21 13.01.2021
3768 Clouds 4 1021 75 10000 2.06 320 13:38 13.01.2021
3769 Clouds 4 1021 87 10000 1.54 340 13:18 13.01.2021
3770 Clouds 4 1021 81 10000 1.03 0 12:44 13.01.2021
3771 Clouds 4 1021 81 10000 3.09 280 12:22 13.01.2021
3772 Clouds 3 1021 87 10000 2.06 250 11:49 13.01.2021
3773 Clouds 3 1021 100 10000 3.6 280 11:31 13.01.2021
3774 Clouds 2 1021 100 10000 3.6 290 10:47 13.01.2021
3775 Clouds 2 1021 93 10000 3.09 300 10:26 13.01.2021
3776 Clouds 2 1020 100 10000 1.54 330 09:40 13.01.2021
3777 Clouds 1 1020 100 10000 2.57 320 08:58 13.01.2021
3778 Clouds 1 1020 100 10000 2.57 320 08:34 13.01.2021
3779 Clouds 2 1019 100 10000 0.51 0 07:57 13.01.2021
3780 Clouds 2 1019 100 10000 1.54 20 07:27 13.01.2021
3781 Drizzle 2 1019 100 5000 1.03 0 05:27 13.01.2021
3782 Clouds 2 1018 100 9000 1.03 0 04:18 13.01.2021
3783 Clouds 2 1018 100 10000 0.51 0 03:41 13.01.2021
3784 Clouds 2 1018 100 10000 1.03 0 03:19 13.01.2021
3785 Drizzle 3 1017 100 10000 1.03 0 00:47 13.01.2021
3786 Drizzle 3 1017 100 10000 2.06 360 23:40 12.01.2021
3787 Clouds 3 1016 93 10000 1.03 0 22:57 12.01.2021
3788 Clouds 3 1016 93 10000 1.03 0 22:36 12.01.2021
3789 Clouds 3 1016 93 10000 2.57 300 22:18 12.01.2021
3790 Rain 3 1016 93 10000 2.57 300 21:42 12.01.2021
3791 Rain 3 1016 93 10000 2.06 0 21:23 12.01.2021
3792 Rain 3 1016 93 10000 2.06 0 20:46 12.01.2021
3793 Rain 2 1016 93 10000 3.6 300 20:26 12.01.2021
3794 Snow 2 1016 93 10000 2.06 0 19:43 12.01.2021
3795 Snow 2 1016 100 4000 1.03 0 18:54 12.01.2021
3796 Snow 2 1016 100 4000 1.03 0 18:26 12.01.2021
3797 Snow 2 1016 100 3000 1.03 0 17:58 12.01.2021
3798 Snow 2 1016 100 3000 1.03 0 17:33 12.01.2021
3799 Snow 2 1016 100 3000 2.06 120 16:46 12.01.2021
3800 Snow 1 1016 100 2000 1.03 120 16:27 12.01.2021
3801 Snow 1 1017 100 1200 1.03 0 15:54 12.01.2021
3802 Snow 1 1017 100 3000 5.69 236 15:27 12.01.2021
3803 Snow 1 1017 100 3000 5.69 236 14:55 12.01.2021
3804 Snow 1 1017 100 3000 5.69 236 14:37 12.01.2021
3805 Snow 1 1017 100 1500 1.03 200 14:18 12.01.2021
3806 Snow 0 1018 93 1500 1.54 280 13:43 12.01.2021
3807 Snow 0 1019 80 3000 1.54 270 12:38 12.01.2021
3808 Snow -1 1020 80 10000 1.03 0 11:53 12.01.2021
3809 Snow -1 1020 80 10000 1.03 0 11:53 12.01.2021
3810 Snow -1 1020 80 10000 1.03 0 11:34 12.01.2021
3811 Snow -1 1020 80 10000 1.54 0 10:44 12.01.2021
3812 Snow -1 1020 80 10000 1.03 0 10:20 12.01.2021
3813 Snow -2 1021 80 10000 1.03 0 09:53 12.01.2021
3814 Snow -2 1020 80 10000 1.03 0 09:23 12.01.2021
3815 Snow -3 1021 86 10000 3.6 100 08:28 12.01.2021
3816 Snow -3 1021 86 10000 5.14 120 07:57 12.01.2021
3817 Snow -3 1021 86 10000 5.14 120 07:33 12.01.2021
3818 Clouds -4 1021 86 10000 2.06 110 05:56 12.01.2021
3819 Clouds -6 1022 93 8000 1.03 130 03:48 12.01.2021
3820 Clouds -6 1022 93 8000 1.03 150 03:23 12.01.2021
3821 Clear -7 1022 92 10000 0.51 0 02:18 12.01.2021
3822 Clear -7 1022 92 7000 1.03 0 00:55 12.01.2021
3823 Clear -7 1022 92 8000 1.03 0 23:44 11.01.2021
3824 Clear -7 1021 92 9000 1.03 0 23:20 11.01.2021
3825 Clear -7 1021 86 9000 0.51 0 22:47 11.01.2021
3826 Clear -7 1021 86 9000 1.03 0 22:28 11.01.2021
3827 Clouds -7 1021 86 9000 2.06 130 21:47 11.01.2021
3828 Clear -7 1022 61 10000 0.86 199 21:26 11.01.2021
3829 Clear -7 1022 86 9000 1.03 0 20:59 11.01.2021
3830 Clear -7 1022 86 9000 1.03 0 20:39 11.01.2021
3831 Clear -7 1021 93 10000 1.03 150 20:21 11.01.2021
3832 Clear -6 1021 86 10000 1.54 130 19:50 11.01.2021
3833 Clear -6 1021 79 10000 1.54 120 19:23 11.01.2021
3834 Clear -5 1021 80 10000 1.54 110 18:44 11.01.2021
3835 Clear -5 1021 80 10000 0.69 154 18:24 11.01.2021
3836 Clear -5 1021 80 10000 0.69 154 17:42 11.01.2021
3837 Clear -4 1020 74 10000 1.03 220 17:24 11.01.2021
3838 Clear -3 1020 64 10000 1.03 200 16:49 11.01.2021
3839 Clear -3 1020 64 10000 1.54 210 16:29 11.01.2021
3840 Clear -2 1020 59 10000 1.03 0 15:58 11.01.2021
3841 Clear -2 1020 59 10000 1.03 0 15:37 11.01.2021
3842 Clear -2 1020 64 10000 1.54 0 14:58 11.01.2021
3843 Clear -1 1020 64 10000 1.54 0 14:37 11.01.2021
3844 Clear -2 1020 64 10000 1.54 0 13:48 11.01.2021
3845 Clouds -3 1021 68 10000 1.54 250 13:23 11.01.2021
3846 Clouds -3 1021 68 10000 2.06 200 12:45 11.01.2021
3847 Clouds -3 1022 68 10000 2.57 150 12:27 11.01.2021
3848 Clouds -3 1022 74 10000 2.06 160 11:50 11.01.2021
3849 Clouds -3 1022 74 10000 2.06 150 11:21 11.01.2021
3850 Clouds -4 1022 74 10000 1.54 0 10:42 11.01.2021
3851 Clouds -4 1021 80 10000 2.06 130 10:23 11.01.2021
3852 Clouds -4 1021 80 10000 2.06 130 09:37 11.01.2021
3853 Clouds -5 1021 80 10000 2.06 140 09:19 11.01.2021
3854 Clouds -6 1021 80 10000 1.03 170 08:43 11.01.2021
3855 Clouds -5 1020 86 10000 2.06 170 07:51 11.01.2021
3856 Clouds -5 1020 86 10000 1.54 160 07:25 11.01.2021
3857 Clouds -6 1020 86 10000 1.54 120 06:50 11.01.2021
3858 Clouds -7 1019 93 10000 2.06 150 02:57 11.01.2021
3859 Clouds -5 1019 86 10000 2.06 130 01:25 11.01.2021
3860 Clouds -5 1019 86 10000 1.54 120 23:51 10.01.2021
3861 Clouds -4 1019 86 10000 1.54 120 23:24 10.01.2021
3862 Clouds -4 1019 86 10000 1.03 0 22:46 10.01.2021
3863 Clouds -4 1019 80 10000 0.51 0 22:20 10.01.2021
3864 Clouds -4 1019 86 10000 1.54 160 21:44 10.01.2021
3865 Clouds -4 1019 86 10000 1.03 0 21:20 10.01.2021
3866 Clear -4 1019 86 10000 1.03 0 20:50 10.01.2021
3867 Clear -4 1019 74 10000 1.03 0 20:29 10.01.2021
3868 Clouds -4 1018 74 10000 2.57 30 19:42 10.01.2021
3869 Clouds -4 1018 74 10000 1.03 70 19:24 10.01.2021
3870 Clouds -3 1018 74 10000 1.54 80 18:46 10.01.2021
3871 Clouds -3 1018 69 10000 1.54 0 18:21 10.01.2021
3872 Clouds -2 1017 69 10000 2.06 40 17:27 10.01.2021
3873 Clouds -2 1017 64 10000 3.09 50 16:58 10.01.2021
3874 Clouds -2 1017 64 10000 3.09 50 16:32 10.01.2021
3875 Clear -2 1016 64 10000 3.6 50 15:43 10.01.2021
3876 Clouds -2 1016 64 10000 3.6 60 15:24 10.01.2021
3877 Clouds -1 1016 64 10000 2.57 50 14:43 10.01.2021
3878 Clouds -1 1016 64 10000 3.09 40 14:24 10.01.2021
3879 Clouds -1 1016 64 10000 2.57 30 13:54 10.01.2021
3880 Clouds -1 1016 64 10000 2.57 30 13:36 10.01.2021
3881 Clouds -1 1017 64 10000 2.57 60 13:18 10.01.2021
3882 Clouds -2 1017 64 10000 3.09 40 12:41 10.01.2021
3883 Clouds -1 1017 64 10000 2.57 100 11:58 10.01.2021
3884 Clouds -2 1018 69 10000 2.06 110 11:21 10.01.2021
3885 Clouds -2 1017 69 10000 2.06 100 10:53 10.01.2021
3886 Clouds -3 1017 69 10000 2.57 0 10:25 10.01.2021
3887 Clouds -3 1017 69 10000 1.54 100 09:46 10.01.2021
3888 Clouds -3 1017 74 10000 2.06 50 08:50 10.01.2021
3889 Clouds -3 1017 69 10000 2.06 70 08:19 10.01.2021
3890 Clouds -3 1017 74 10000 1.54 70 07:28 10.01.2021
3891 Clouds -3 1017 74 10000 3.09 90 06:19 10.01.2021
3892 Clouds -3 1017 74 10000 3.09 60 05:35 10.01.2021
3893 Clouds -3 1017 80 10000 2.57 60 02:55 10.01.2021
3894 Clouds -2 1017 80 10000 2.06 130 00:48 10.01.2021
3895 Clouds -2 1017 80 10000 1.54 120 23:43 09.01.2021
3896 Clouds -2 1017 74 10000 2.06 150 23:25 09.01.2021
3897 Clouds -2 1017 74 10000 2.06 150 22:44 09.01.2021
3898 Clouds -2 1017 74 10000 1.54 60 22:18 09.01.2021
3899 Clouds -2 1017 74 10000 2.06 60 21:41 09.01.2021
3900 Clouds -2 1017 74 10000 1.03 90 21:23 09.01.2021
3901 Clouds -2 1017 74 10000 1.03 90 20:59 09.01.2021
3902 Clouds -2 1017 74 10000 1.03 90 20:38 09.01.2021
3903 Clouds -1 1017 74 10000 1.03 0 19:44 09.01.2021
3904 Clouds -1 1017 74 10000 2.57 70 19:22 09.01.2021
3905 Clouds -1 1016 69 10000 2.06 50 18:39 09.01.2021
3906 Clouds -1 1016 74 10000 2.57 60 18:20 09.01.2021
3907 Clouds -1 1016 74 10000 2.06 60 17:45 09.01.2021
3908 Clouds -1 1016 69 10000 1.54 0 17:27 09.01.2021
3909 Clear -1 1016 69 10000 1.54 0 16:32 09.01.2021
3910 Clear -1 1015 69 10000 2.57 40 15:47 09.01.2021
3911 Clear -1 1015 69 10000 2.06 50 15:28 09.01.2021
3912 Clear -1 1015 69 10000 2.57 30 14:40 09.01.2021
3913 Clear -1 1015 69 10000 3.09 30 14:20 09.01.2021
3914 Clear -1 1015 69 10000 3.09 60 13:47 09.01.2021
3915 Clear -2 1016 74 10000 1.03 0 13:29 09.01.2021
3916 Clear -2 1016 64 10000 0.51 0 12:48 09.01.2021
3917 Clear -2 1017 74 10000 1.03 0 12:22 09.01.2021
3918 Clear -3 1017 80 10000 1.03 0 11:50 09.01.2021
3919 Clear -3 1017 86 10000 0.51 0 11:30 09.01.2021
3920 Clear -4 1017 93 10000 1.54 230 10:52 09.01.2021
3921 Clear -5 1017 93 10000 0.51 0 10:30 09.01.2021
3922 Clear -6 1017 93 10000 0.51 0 09:46 09.01.2021
3923 Clear -6 1016 93 10000 0.51 0 09:25 09.01.2021
3924 Clear -6 1016 100 10000 0.51 0 08:28 09.01.2021
3925 Clear -6 1016 100 10000 1.03 140 06:57 09.01.2021
3926 Clear -6 1016 100 10000 1.03 140 06:39 09.01.2021
3927 Clear -6 1016 100 10000 1.03 0 04:47 09.01.2021
3928 Clear -6 1016 93 10000 0.51 0 03:20 09.01.2021
3929 Clear -5 1016 93 10000 2.06 130 02:29 09.01.2021
3930 Clear -5 1016 93 10000 1.03 0 01:44 09.01.2021
3931 Clear -5 1016 93 10000 0.51 0 00:34 09.01.2021
3932 Clear -5 1016 93 10000 1.03 160 23:50 08.01.2021
3933 Clear -4 1016 100 10000 1.03 0 22:56 08.01.2021
3934 Clear -4 1016 86 10000 1.54 140 21:59 08.01.2021
3935 Clear -4 1016 86 10000 1.54 140 21:35 08.01.2021
3936 Clear -4 1016 93 10000 2.06 110 20:42 08.01.2021
3937 Clear -3 1016 86 10000 1.03 120 20:23 08.01.2021
3938 Clear -3 1015 86 10000 1.54 90 19:44 08.01.2021
3939 Clear -3 1015 86 10000 1.03 180 19:21 08.01.2021
3940 Clear -3 1015 74 10000 2.06 60 18:35 08.01.2021
3941 Clear -2 1015 74 10000 0.51 0 17:56 08.01.2021
3942 Clear -1 1015 74 10000 0.51 0 17:35 08.01.2021
3943 Clear -1 1014 64 10000 1.54 0 16:51 08.01.2021
3944 Clear -1 1014 64 10000 1.54 0 16:51 08.01.2021
3945 Clear 1 1014 60 10000 1.54 0 16:26 08.01.2021
3946 Clear 1 1014 52 10000 1.54 190 15:40 08.01.2021
3947 Clear 1 1014 51 10000 2.06 220 14:45 08.01.2021
3948 Clear 2 1014 52 10000 1.54 180 14:26 08.01.2021
3949 Clear 1 1015 60 10000 2.57 150 13:23 08.01.2021
3950 Clear 1 1015 55 10000 2.57 140 12:57 08.01.2021
3951 Clear 1 1015 55 10000 2.57 140 12:39 08.01.2021
3952 Clear 1 1015 60 10000 2.57 140 12:19 08.01.2021
3953 Clear 0 1015 60 10000 3.09 140 11:42 08.01.2021
3954 Clouds -1 1015 64 10000 2.57 130 11:22 08.01.2021
3955 Clouds -1 1015 69 10000 1.54 150 10:46 08.01.2021
3956 Clouds -2 1015 69 10000 1.54 90 10:24 08.01.2021
3957 Clouds -2 1015 74 10000 1.54 100 09:43 08.01.2021
3958 Clouds -2 1015 74 10000 1.54 110 09:21 08.01.2021
3959 Clouds -2 1014 74 10000 2.06 120 08:19 08.01.2021
3960 Clouds -2 1014 74 10000 1.54 100 07:25 08.01.2021
3961 Clouds -2 1014 74 10000 1.54 100 07:25 08.01.2021
3962 Clouds -1 1015 80 10000 2.06 120 04:26 08.01.2021
3963 Clouds -3 1014 93 10000 1.54 150 23:46 07.01.2021
3964 Clouds -2 1014 86 10000 1.03 0 23:28 07.01.2021
3965 Clouds -2 1014 100 10000 2.06 160 22:42 07.01.2021
3966 Clouds -2 1014 100 10000 1.03 150 22:18 07.01.2021
3967 Clouds -2 1014 93 10000 0.51 0 21:40 07.01.2021
3968 Clouds -2 1014 86 10000 0.51 0 21:21 07.01.2021
3969 Clouds -2 1014 86 10000 0.51 60 20:43 07.01.2021
3970 Clouds -2 1014 86 10000 0.51 0 20:23 07.01.2021
3971 Clouds -2 1013 86 10000 1.03 180 19:41 07.01.2021
3972 Clouds -2 1013 86 10000 0.51 120 18:54 07.01.2021
3973 Clouds -2 1013 86 10000 0.51 0 18:23 07.01.2021
3974 Clouds -2 1013 80 10000 1.03 80 17:42 07.01.2021
3975 Clear -2 1013 80 10000 0.51 0 17:18 07.01.2021
3976 Clear -1 1013 69 10000 0.51 0 16:51 07.01.2021
3977 Clear 0 1013 69 10000 2.06 230 16:20 07.01.2021
3978 Clear 1 1013 60 10000 1.54 220 15:34 07.01.2021
3979 Clear 2 1013 52 10000 1.54 170 14:42 07.01.2021
3980 Clear 2 1013 52 10000 1.54 170 14:42 07.01.2021
3981 Clear 2 1013 52 10000 1.54 170 14:42 07.01.2021
3982 Clear 2 1013 52 10000 1.54 170 14:42 07.01.2021
3983 Clear 2 1013 55 10000 1.54 170 14:23 07.01.2021
3984 Clear 1 1013 60 10000 1.54 170 13:36 07.01.2021
3985 Clouds 1 1013 64 10000 2.06 150 13:18 07.01.2021
3986 Clouds 1 1014 68 10000 3.6 140 12:33 07.01.2021
3987 Clouds 0 1014 68 10000 3.6 140 11:52 07.01.2021
3988 Clouds 0 1014 68 10000 4.1 150 11:30 07.01.2021
3989 Clouds -1 1014 68 10000 3.6 130 10:48 07.01.2021
3990 Clouds -2 1014 79 10000 2.6 110 10:19 07.01.2021
3991 Clouds -2 1014 86 10000 2.1 100 09:46 07.01.2021
3992 Clouds -2 1014 86 10000 2.6 110 09:18 07.01.2021
3993 Clouds -2 1014 74 10000 3.1 140 08:26 07.01.2021
3994 Clouds -1 1014 79 10000 2.6 120 07:45 07.01.2021
3995 Clouds -1 1014 74 10000 3.1 150 06:59 07.01.2021
3996 Clouds -1 1014 92 10000 1.02 187 03:35 07.01.2021
3997 Clouds -1 1014 92 9000 1.5 100 00:27 07.01.2021
3998 Clouds -1 1014 92 10000 1.5 80 23:36 06.01.2021
3999 Clouds -1 1014 92 9000 1.5 140 22:37 06.01.2021
4000 Clouds -1 1014 92 10000 1 110 21:43 06.01.2021
4001 Clouds -1 1014 92 10000 1 110 21:23 06.01.2021
4002 Clouds -1 1014 92 10000 1 110 20:51 06.01.2021
4003 Clouds 0 1013 95 10000 2.1 130 20:23 06.01.2021
4004 Clouds 0 1013 95 10000 2.1 130 19:49 06.01.2021
4005 Clouds 0 1013 95 10000 1.5 110 19:29 06.01.2021
4006 Clouds 0 1013 95 10000 1.5 140 18:55 06.01.2021
4007 Clouds 0 1013 95 10000 1.5 140 18:36 06.01.2021
4008 Clouds 0 1013 95 10000 2.1 150 18:18 06.01.2021
4009 Snow 0 1012 95 10000 2.1 150 17:41 06.01.2021
4010 Snow 0 1012 95 10000 2.1 150 17:21 06.01.2021
4011 Clouds 0 1012 95 10000 2.1 150 16:39 06.01.2021
4012 Clouds 0 1012 93 10000 2.6 150 16:18 06.01.2021
4013 Clouds 0 1012 93 10000 2.6 150 15:49 06.01.2021
4014 Clouds 0 1012 92 10000 2.1 140 15:24 06.01.2021
4015 Snow 0 1012 90 5000 2.1 140 14:41 06.01.2021
4016 Snow 0 1012 88 6000 2.1 150 14:19 06.01.2021
4017 Snow 0 1013 88 6000 2.1 150 13:40 06.01.2021
4018 Snow 0 1012 90 6000 2.1 150 13:18 06.01.2021
4019 Snow 0 1012 90 6000 2.1 150 12:45 06.01.2021
4020 Clouds -1 1012 86 9000 2.1 130 11:50 06.01.2021
4021 Clouds -1 1012 86 9000 2.1 130 11:24 06.01.2021
4022 Clouds -1 1012 86 10000 1.5 140 10:46 06.01.2021
4023 Clouds -2 1011 92 8000 1.5 140 09:53 06.01.2021
4024 Clouds -2 1011 92 8000 1 170 09:34 06.01.2021
4025 Clouds -2 1011 92 7000 0.53 219 08:55 06.01.2021
4026 Clouds -2 1010 92 8000 0.46 211 08:21 06.01.2021
4027 Clouds -2 1010 86 10000 1 110 07:54 06.01.2021
4028 Clouds -1 1010 80 10000 0.16 191 06:45 06.01.2021
4029 Clouds -1 1010 80 10000 2.1 240 05:32 06.01.2021
4030 Clouds -1 1010 80 10000 1 270 04:31 06.01.2021
4031 Clouds -1 1009 80 10000 3.1 310 02:45 06.01.2021
4032 Clouds -1 1009 80 10000 3.1 310 02:22 06.01.2021
4033 Clouds -1 1009 80 10000 2.6 340 00:29 06.01.2021
4034 Clouds -1 1009 86 10000 1.5 20 23:23 05.01.2021
4035 Clouds -1 1009 86 10000 1.5 20 22:41 05.01.2021
4036 Clouds -1 1009 86 10000 2.1 10 22:20 05.01.2021
4037 Clouds -1 1009 86 10000 2.1 10 21:52 05.01.2021
4038 Clouds 0 1009 96 10000 2.6 10 20:41 05.01.2021
4039 Clouds -1 1009 96 10000 2.6 10 20:23 05.01.2021
4040 Clouds -1 1009 96 10000 1.5 30 19:41 05.01.2021
4041 Clouds -1 1009 96 10000 1.5 10 19:21 05.01.2021
4042 Clouds 0 1009 96 9000 2.1 10 18:43 05.01.2021
4043 Clouds -1 1009 96 9000 2.1 10 18:24 05.01.2021
4044 Clouds -1 1009 96 9000 1.5 350 17:49 05.01.2021
4045 Clouds 0 1009 95 9000 1.5 350 17:27 05.01.2021
4046 Clouds 0 1009 95 9000 1.5 310 16:52 05.01.2021
4047 Clouds -1 1009 94 9000 2.1 290 16:21 05.01.2021
4048 Clouds -1 1009 94 7000 1.5 290 15:50 05.01.2021
4049 Clouds 0 1009 89 7000 2.1 290 14:57 05.01.2021
4050 Clouds 0 1009 89 7000 2.1 290 14:38 05.01.2021
4051 Clouds 0 1009 87 8000 1.5 0 13:49 05.01.2021
4052 Clouds 0 1009 86 8000 1.5 0 13:26 05.01.2021
4053 Clouds 0 1009 86 8000 1 0 12:49 05.01.2021
4054 Clouds -1 1009 89 8000 1 0 12:26 05.01.2021
4055 Clouds 0 1009 89 7000 1.28 27 11:39 05.01.2021
4056 Clouds -1 1009 92 7000 1 250 10:55 05.01.2021
4057 Clouds -1 1009 92 8000 0.5 0 10:36 05.01.2021
4058 Clouds -1 1009 86 7000 0.71 55 09:50 05.01.2021
4059 Clouds -1 1009 92 6000 1 110 09:29 05.01.2021
4060 Clouds -1 1009 92 6000 1 0 08:27 05.01.2021
4061 Clouds -1 1009 92 8000 1.5 150 07:46 05.01.2021
4062 Clouds -1 1009 86 8000 1 280 04:58 05.01.2021
4063 Clouds -1 1007 96 10000 1.5 360 00:59 05.01.2021
4064 Clouds -1 1007 96 10000 1.5 0 23:59 04.01.2021
4065 Clouds -1 1007 96 10000 1.5 0 23:36 04.01.2021
4066 Clouds -1 1007 95 10000 1.5 0 23:18 04.01.2021
4067 Clouds -1 1007 95 10000 1.5 0 22:41 04.01.2021
4068 Clouds -1 1007 95 10000 2.1 20 21:53 04.01.2021
4069 Clouds -1 1007 95 10000 2.1 20 21:35 04.01.2021
4070 Clouds -1 1007 94 10000 2.1 360 20:51 04.01.2021
4071 Clouds -1 1007 94 10000 2.1 360 20:31 04.01.2021
4072 Clouds -1 1007 94 10000 1.5 0 19:53 04.01.2021
4073 Clouds -1 1007 94 10000 1.5 0 19:28 04.01.2021
4074 Clouds -1 1007 95 10000 1.5 30 18:58 04.01.2021
4075 Clouds -1 1007 95 10000 2.1 40 18:25 04.01.2021
4076 Clouds -1 1007 95 10000 2.1 30 17:44 04.01.2021
4077 Clouds -1 1007 95 10000 2.1 30 17:25 04.01.2021
4078 Clouds -1 1007 95 10000 1.5 0 16:48 04.01.2021
4079 Clouds 0 1007 94 10000 1.5 0 16:27 04.01.2021
4080 Clouds 0 1007 94 10000 1 0 15:50 04.01.2021
4081 Clouds 0 1007 94 10000 1 0 15:31 04.01.2021
4082 Clouds 0 1007 91 10000 0.5 0 14:46 04.01.2021
4083 Clouds 0 1008 90 10000 1 190 13:48 04.01.2021
4084 Clouds 0 1009 90 10000 2.6 170 13:25 04.01.2021
4085 Clouds 0 1009 90 10000 1.5 0 12:44 04.01.2021
4086 Clouds 0 1009 91 10000 1.5 150 11:58 04.01.2021
4087 Clouds -1 1010 80 10000 1.5 100 11:29 04.01.2021
4088 Clouds -1 1010 80 10000 2.1 70 10:53 04.01.2021
4089 Clouds -1 1010 80 10000 2.6 80 10:29 04.01.2021
4090 Clouds -2 1010 86 10000 1.5 70 09:53 04.01.2021
4091 Clouds -2 1010 86 10000 2.1 70 09:22 04.01.2021
4092 Clouds -2 1010 92 10000 2.1 50 08:47 04.01.2021
4093 Clouds -2 1010 92 10000 1.5 70 08:18 04.01.2021
4094 Clouds -2 1010 92 9000 1 130 07:42 04.01.2021
4095 Clouds -2 1010 92 10000 1.5 160 05:33 04.01.2021
4096 Clouds -2 1010 92 10000 1 170 04:30 04.01.2021
4097 Clouds -3 1010 100 6000 0.5 0 00:47 04.01.2021
4098 Clouds -3 1010 100 6000 0.5 0 23:49 03.01.2021
4099 Clouds -3 1010 100 5000 1.5 170 23:24 03.01.2021
4100 Clouds -2 1010 100 8000 0.5 0 22:56 03.01.2021
4101 Clouds -2 1010 100 8000 1 160 22:33 03.01.2021
4102 Clouds -1 1010 92 8000 0.5 0 21:56 03.01.2021
4103 Clouds -1 1010 100 8000 0.5 0 21:29 03.01.2021
4104 Clouds -1 1010 100 10000 0.5 0 20:50 03.01.2021
4105 Clouds -1 1009 96 10000 0.5 0 20:32 03.01.2021
4106 Clouds -1 1009 96 10000 1 280 19:57 03.01.2021
4107 Clouds -1 1009 96 10000 0.5 260 19:35 03.01.2021
4108 Clouds -1 1009 95 10000 0.5 0 18:57 03.01.2021
4109 Clouds 0 1009 80 10000 1 320 18:38 03.01.2021
4110 Clouds 0 1009 80 10000 1 320 18:19 03.01.2021
4111 Clouds 0 1009 80 10000 1.5 310 17:45 03.01.2021
4112 Clouds 0 1009 80 10000 1.5 310 17:23 03.01.2021
4113 Clouds 0 1009 80 10000 2.1 330 16:42 03.01.2021
4114 Clouds 1 1009 80 10000 1.5 300 16:19 03.01.2021
4115 Clouds 1 1008 80 10000 1.5 310 15:46 03.01.2021
4116 Clouds 1 1008 80 10000 1.5 310 15:27 03.01.2021
4117 Clouds 1 1008 80 10000 1.5 310 14:52 03.01.2021
4118 Clouds 1 1008 80 10000 1.5 300 14:27 03.01.2021
4119 Clouds 1 1008 74 10000 1 270 13:41 03.01.2021
4120 Clouds 1 1008 74 10000 1 270 13:22 03.01.2021
4121 Clouds 0 1008 91 10000 1 0 12:24 03.01.2021
4122 Clouds 0 1008 91 10000 1.5 360 11:42 03.01.2021
4123 Clouds 0 1008 94 10000 1.5 360 11:24 03.01.2021
4124 Clouds -1 1008 94 10000 1.5 300 10:34 03.01.2021
4125 Clouds -1 1008 95 10000 1.5 290 09:55 03.01.2021
4126 Clouds -1 1008 100 9000 2.1 300 09:33 03.01.2021
4127 Clouds -1 1008 100 7000 2.1 290 08:59 03.01.2021
4128 Snow -1 1007 100 2500 2.1 270 07:33 03.01.2021
4129 Snow 0 1007 97 5000 1.5 280 05:53 03.01.2021
4130 Drizzle 0 1007 97 5000 2.1 280 02:27 03.01.2021
4131 Drizzle 0 1007 97 5000 2.1 280 02:27 03.01.2021
4132 Clouds -1 1007 97 10000 1 0 00:59 03.01.2021
4133 Clouds -1 1007 97 10000 2.1 260 23:54 02.01.2021
4134 Clouds 0 1007 97 10000 1.5 0 23:26 02.01.2021
4135 Clouds 0 1007 97 10000 1.5 0 22:50 02.01.2021
4136 Clouds 0 1007 97 10000 1.5 0 22:31 02.01.2021
4137 Clouds 0 1007 80 10000 1.5 0 21:49 02.01.2021
4138 Clouds 0 1007 80 10000 1.5 0 21:30 02.01.2021
4139 Clouds 0 1007 80 10000 1.5 0 20:49 02.01.2021
4140 Clouds 0 1007 80 10000 1.5 0 20:27 02.01.2021
4141 Clouds 0 1006 80 10000 1.5 0 19:49 02.01.2021
4142 Clouds 0 1006 80 10000 3.1 50 19:20 02.01.2021
4143 Clouds 0 1006 80 10000 3.6 60 18:52 02.01.2021
4144 Clouds 0 1006 80 10000 3.6 60 18:33 02.01.2021
4145 Clouds 0 1006 80 10000 2.1 0 17:49 02.01.2021
4146 Clouds 0 1006 80 10000 2.1 0 17:30 02.01.2021
4147 Snow 0 1007 86 10000 2.1 0 16:46 02.01.2021
4148 Clouds 0 1007 86 10000 2.1 0 16:22 02.01.2021
4149 Clouds 0 1007 86 10000 2.1 0 15:48 02.01.2021
4150 Clouds 0 1007 86 10000 2.1 0 15:28 02.01.2021
4151 Clouds 1 1006 86 10000 2.6 30 14:47 02.01.2021
4152 Clouds 1 1006 86 10000 2.6 30 14:24 02.01.2021
4153 Clouds 1 1007 86 10000 3.1 50 13:44 02.01.2021
4154 Clouds 1 1007 86 6000 3.1 40 12:59 02.01.2021
4155 Clouds 1 1007 86 10000 2.1 30 12:40 02.01.2021
4156 Clouds 1 1007 86 10000 2.6 0 12:19 02.01.2021
4157 Clouds 1 1007 86 10000 2.6 0 11:38 02.01.2021
4158 Clouds 1 1007 86 10000 3.1 50 11:20 02.01.2021
4159 Clouds 1 1007 86 10000 2.6 40 10:40 02.01.2021
4160 Clouds 1 1007 86 10000 2.6 40 10:21 02.01.2021
4161 Clouds 1 1007 86 10000 2.1 40 09:39 02.01.2021
4162 Clouds 0 1007 86 10000 1.5 30 09:19 02.01.2021
4163 Clouds 0 1007 86 10000 2.6 50 08:46 02.01.2021
4164 Clouds 0 1007 86 10000 3.6 50 08:19 02.01.2021
4165 Clouds 0 1007 86 10000 2.6 50 07:24 02.01.2021
4166 Clouds 0 1007 86 10000 2.6 50 06:57 02.01.2021
4167 Clouds 0 1007 97 10000 2.1 20 05:55 02.01.2021
4168 Clouds 0 1008 97 10000 1 0 01:58 02.01.2021
4169 Clouds 0 1008 97 10000 1.5 0 00:38 02.01.2021
4170 Clouds 0 1007 86 10000 2.1 330 23:58 01.01.2021
4171 Clouds 0 1007 97 10000 1.5 290 23:24 01.01.2021
4172 Clouds 0 1007 97 10000 1.5 290 22:57 01.01.2021
4173 Clouds 0 1007 97 10000 1.5 290 22:57 01.01.2021
4174 Clouds 0 1007 97 10000 1.5 0 22:37 01.01.2021
4175 Clouds 0 1007 97 10000 1.5 0 22:18 01.01.2021
4176 Clouds 0 1007 86 10000 2.1 320 21:42 01.01.2021
4177 Clouds 0 1007 97 10000 1 0 21:20 01.01.2021
4178 Clouds 0 1007 97 10000 1 0 20:50 01.01.2021
4179 Clouds 1 1007 86 10000 1 0 20:18 01.01.2021
4180 Clouds 1 1007 80 10000 1 0 19:42 01.01.2021
4181 Clouds 2 1007 80 10000 1 0 19:22 01.01.2021
4182 Clouds 2 1007 80 10000 2.1 330 18:46 01.01.2021
4183 Clouds 1 1007 80 10000 2.1 330 18:27 01.01.2021
4184 Clouds 1 1006 80 10000 1.5 0 17:48 01.01.2021
4185 Clouds 1 1006 80 10000 1.5 0 17:23 01.01.2021
4186 Clouds 1 1006 97 10000 1 0 16:51 01.01.2021
4187 Clouds 2 1006 93 10000 2.1 300 16:26 01.01.2021
4188 Clouds 2 1006 93 10000 2.1 300 15:42 01.01.2021
4189 Clouds 2 1005 93 10000 1.5 310 14:49 01.01.2021
4190 Clouds 2 1005 93 10000 1.5 290 14:28 01.01.2021
4191 Clouds 2 1006 93 10000 1.5 290 13:40 01.01.2021
4192 Clouds 1 1006 100 9000 1.5 280 12:57 01.01.2021
4193 Clouds 1 1006 100 6000 2.1 290 12:36 01.01.2021
4194 Mist 2 1006 100 4000 1.5 280 12:18 01.01.2021
4195 Snow 1 1006 100 3500 1.5 290 11:38 01.01.2021
4196 Fog 1 1006 100 1100 2.1 290 11:18 01.01.2021
4197 Fog 0 1006 90 650 0.5 0 10:34 01.01.2021
4198 Snow 0 1006 93 900 0.7 52 09:45 01.01.2021
4199 Snow 0 1006 97 900 0.58 105 08:52 01.01.2021
4200 Snow 0 1006 98 800 1 140 08:25 01.01.2021
4201 Snow 0 1005 97 600 1 230 04:52 01.01.2021
4202 Snow 0 1004 95 350 1 360 02:25 01.01.2021
4203 Snow 0 1004 95 4000 1 0 00:38 01.01.2021
4204 Snow 0 1004 93 7000 0.5 0 00:20 01.01.2021
4205 Clouds 0 1004 100 8000 0.5 0 23:22 31.12.2020
4206 Snow 0 1004 100 8000 0.5 0 22:56 31.12.2020
4207 Snow 0 1004 100 9000 0.5 0 22:37 31.12.2020
4208 Snow 0 1004 92 10000 1 270 22:19 31.12.2020
4209 Rain 0 1004 100 10000 1.5 0 21:44 31.12.2020
4210 Rain 0 1004 100 10000 1.5 0 21:21 31.12.2020
4211 Rain 0 1004 92 10000 2.1 100 20:47 31.12.2020
4212 Rain 0 1005 91 10000 1.5 0 19:59 31.12.2020
4213 Rain 0 1005 91 8000 1 0 19:38 31.12.2020
4214 Rain 0 1005 93 8000 1 0 19:20 31.12.2020
4215 Rain 1 1004 93 3500 2.1 140 18:42 31.12.2020
4216 Rain 1 1004 91 3500 2.1 140 18:23 31.12.2020
4217 Rain 1 1004 80 5000 1.5 150 17:42 31.12.2020
4218 Snow 1 1004 74 10000 0.5 0 17:21 31.12.2020
4219 Rain 2 1004 74 10000 0.5 0 16:40 31.12.2020
4220 Snow 2 1004 74 10000 0.5 0 16:21 31.12.2020
4221 Snow 2 1004 74 10000 0.5 0 16:21 31.12.2020
4222 Clouds 2 1004 74 10000 1 190 15:45 31.12.2020
4223 Clouds 3 1004 64 10000 1 0 15:21 31.12.2020
4224 Clouds 3 1004 64 10000 1 0 14:55 31.12.2020
4225 Clouds 2 1004 74 10000 1.5 300 14:37 31.12.2020
4226 Clouds 2 1005 69 10000 0.5 0 14:19 31.12.2020
4227 Clouds 2 1005 74 10000 1.5 170 13:38 31.12.2020
4228 Clouds 2 1005 80 10000 2.1 150 13:19 31.12.2020
4229 Clouds 2 1006 86 10000 2.6 130 12:53 31.12.2020
4230 Clouds 1 1006 86 10000 2.6 130 12:34 31.12.2020
4231 Clouds 1 1006 86 10000 1.5 120 11:51 31.12.2020
4232 Clouds 1 1006 80 10000 2.1 130 11:32 31.12.2020
4233 Clouds 0 1006 86 10000 2.1 100 10:49 31.12.2020
4234 Clouds 0 1006 91 10000 2.1 100 10:29 31.12.2020
4235 Clouds -1 1006 92 10000 2.6 120 09:56 31.12.2020
4236 Clouds -1 1006 92 10000 2.1 110 09:34 31.12.2020
4237 Snow -1 1007 100 10000 2.1 140 08:50 31.12.2020
4238 Snow -1 1007 100 10000 0.9 180 08:32 31.12.2020
4239 Clouds -2 1007 100 10000 1 150 07:57 31.12.2020
4240 Clouds -2 1007 100 10000 1.5 150 07:28 31.12.2020
4241 Clouds -2 1007 100 10000 0.5 0 05:30 31.12.2020
4242 Clouds -1 1008 100 10000 0.5 0 03:40 31.12.2020
4243 Clouds -1 1008 97 10000 1.5 110 02:45 31.12.2020
4244 Clouds -1 1008 97 10000 1.5 110 02:25 31.12.2020
4245 Clouds 0 1008 97 10000 0.5 0 01:43 31.12.2020
4246 Clouds 0 1008 97 10000 0.5 0 01:24 31.12.2020
4247 Clouds 0 1009 97 10000 0.5 0 00:44 31.12.2020
4248 Clouds 1 1009 97 10000 1.5 120 23:48 30.12.2020
4249 Clouds 1 1009 97 10000 0.5 0 23:19 30.12.2020
4250 Clouds 1 1009 97 10000 0.5 0 22:47 30.12.2020
4251 Clouds 1 1009 97 10000 0.5 0 22:47 30.12.2020
4252 Clouds 1 1009 97 10000 0.5 0 22:29 30.12.2020
4253 Clouds 1 1009 97 10000 1 0 21:39 30.12.2020
4254 Clouds 0 1009 97 10000 1.5 0 21:20 30.12.2020
4255 Clouds 0 1009 97 10000 1.5 0 20:48 30.12.2020
4256 Clouds 1 1008 100 10000 1 90 20:20 30.12.2020
4257 Clouds 1 1008 100 10000 1.5 150 19:40 30.12.2020
4258 Clouds 1 1008 100 10000 1.5 150 19:21 30.12.2020
4259 Clouds 1 1007 93 10000 0.5 0 18:46 30.12.2020
4260 Snow 1 1007 93 10000 0.5 0 18:27 30.12.2020
4261 Snow 1 1007 93 10000 2.1 280 17:51 30.12.2020
4262 Snow 1 1007 93 10000 2.1 280 17:32 30.12.2020
4263 Snow 2 1006 95 10000 2.1 240 16:56 30.12.2020
4264 Clouds 2 1006 95 10000 1 130 16:31 30.12.2020
4265 Clouds 3 1005 88 10000 1.5 130 15:47 30.12.2020
4266 Clouds 3 1005 84 10000 1.5 130 15:24 30.12.2020
4267 Clouds 4 1005 84 10000 1.5 170 14:44 30.12.2020
4268 Clouds 4 1005 81 10000 1.5 170 14:22 30.12.2020
4269 Clouds 3 1005 86 10000 2.1 130 13:33 30.12.2020
4270 Clouds 3 1005 81 10000 2.6 140 12:40 30.12.2020
4271 Clouds 2 1005 81 10000 1.5 150 12:20 30.12.2020
4272 Clouds 2 1005 81 10000 1.5 150 11:36 30.12.2020
4273 Clouds 1 1004 100 10000 2.1 120 11:18 30.12.2020
4274 Clouds 0 1004 100 10000 2.1 100 10:43 30.12.2020
4275 Clouds 0 1004 100 10000 2.1 100 10:25 30.12.2020
4276 Clouds 0 1004 100 10000 2.1 100 09:49 30.12.2020
4277 Snow 0 1003 97 4000 2.1 110 09:28 30.12.2020
4278 Snow 0 1002 97 10000 2.6 120 08:28 30.12.2020
4279 Snow 0 1001 96 10000 1 150 07:29 30.12.2020
4280 Snow 0 1001 96 10000 0.5 0 06:52 30.12.2020
4281 Snow 0 1001 96 10000 0.5 0 06:30 30.12.2020
4282 Snow 0 1001 96 10000 1 0 05:43 30.12.2020
4283 Snow 0 1001 96 10000 1 0 05:24 30.12.2020
4284 Snow 0 1004 96 10000 1.5 90 03:28 30.12.2020
4285 Snow 0 1000 96 10000 2.6 120 02:40 30.12.2020
4286 Snow 1 1000 100 10000 2.6 120 01:56 30.12.2020
4287 Snow 0 999 97 10000 2.6 120 01:33 30.12.2020
4288 Snow 1 999 100 10000 2.6 150 00:50 30.12.2020
4289 Snow 0 999 100 10000 2.6 150 00:30 30.12.2020
4290 Snow 1 1000 100 9000 1 0 23:54 29.12.2020
4291 Snow 1 999 100 9000 1 0 23:36 29.12.2020
4292 Snow 0 999 96 10000 0.5 0 22:58 29.12.2020
4293 Snow 1 999 100 10000 0.5 0 22:40 29.12.2020
4294 Clouds 1 999 100 10000 0.5 0 22:20 29.12.2020
4295 Clouds 1 999 100 10000 0.5 0 21:46 29.12.2020
4296 Clouds 1 999 100 10000 0.5 0 21:24 29.12.2020
4297 Clouds 1 998 93 10000 1.5 0 20:46 29.12.2020
4298 Clouds 1 998 93 10000 1.5 0 20:25 29.12.2020
4299 Snow 1 998 93 10000 3.1 270 19:47 29.12.2020
4300 Clouds 1 998 93 10000 3.1 270 19:23 29.12.2020
4301 Clouds 1 998 93 10000 4.6 270 18:54 29.12.2020
4302 Clouds 2 998 93 10000 4.6 270 18:31 29.12.2020
4303 Clouds 2 997 86 10000 3.6 280 17:56 29.12.2020
4304 Rain 2 997 86 10000 3.6 280 17:36 29.12.2020
4305 Rain 2 996 86 10000 3.1 280 17:18 29.12.2020
4306 Rain 3 996 80 10000 2.6 0 16:34 29.12.2020
4307 Clouds 4 995 80 10000 2.6 130 15:53 29.12.2020
4308 Clouds 4 995 80 10000 2.6 130 15:33 29.12.2020
4309 Clouds 4 994 84 10000 4.1 270 14:55 29.12.2020
4310 Rain 4 994 84 10000 4.1 270 14:36 29.12.2020
4311 Clouds 5 994 85 10000 4.1 280 14:18 29.12.2020
4312 Clouds 6 993 82 10000 4.1 270 13:26 29.12.2020
4313 Clouds 6 993 82 10000 4.1 270 12:59 29.12.2020
4314 Clear 5 993 79 10000 2.1 290 12:36 29.12.2020
4315 Clear 5 994 74 10000 1.5 340 12:18 29.12.2020
4316 Clear 4 994 74 10000 1.5 340 11:49 29.12.2020
4317 Clouds 4 993 76 10000 1.5 0 11:27 29.12.2020
4318 Clouds 3 992 69 10000 4.1 270 10:22 29.12.2020
4319 Clouds 3 991 65 10000 4.1 240 09:41 29.12.2020
4320 Clouds 4 990 60 10000 2.1 0 09:19 29.12.2020
4321 Clouds 4 990 56 10000 5.7 250 08:49 29.12.2020
4322 Clouds 4 989 56 10000 3.6 260 07:41 29.12.2020
4323 Clouds 4 989 56 10000 6.2 250 07:20 29.12.2020
4324 Clouds 4 988 56 10000 3.1 260 05:50 29.12.2020
4325 Clouds 3 985 64 10000 5.1 220 02:33 29.12.2020
4326 Clouds 2 984 96 10000 1.5 0 00:43 29.12.2020
4327 Clouds 2 984 86 10000 2.1 0 23:39 28.12.2020
4328 Snow 1 983 95 10000 1 0 22:56 28.12.2020
4329 Clouds 1 983 95 10000 1 0 22:20 28.12.2020
4330 Clouds 0 983 100 10000 1 0 21:41 28.12.2020
4331 Snow 0 982 100 10000 1 0 21:20 28.12.2020
4332 Snow 0 981 100 10000 1 0 20:40 28.12.2020
4333 Clouds 0 981 100 10000 1 0 20:21 28.12.2020
4334 Clouds 0 982 100 10000 1.5 170 19:42 28.12.2020
4335 Clouds 0 982 100 10000 1.5 170 19:22 28.12.2020
4336 Clouds -1 982 100 10000 1 0 18:49 28.12.2020
4337 Clouds -1 982 100 10000 1 0 18:28 28.12.2020
4338 Clear 0 982 100 10000 1.5 80 17:42 28.12.2020
4339 Clouds 1 983 96 10000 1.5 290 17:20 28.12.2020
4340 Clouds 2 983 86 10000 2.1 320 16:33 28.12.2020
4341 Clouds 1 983 86 10000 3.1 300 15:59 28.12.2020
4342 Clouds 1 983 86 10000 3.1 300 15:41 28.12.2020
4343 Snow 1 983 100 800 6.2 270 14:54 28.12.2020
4344 Clouds 2 982 76 7000 6.7 280 13:54 28.12.2020
4345 Snow 2 982 78 7000 6.7 280 13:25 28.12.2020
4346 Snow 1 982 93 10000 3.6 320 12:40 28.12.2020
4347 Snow 1 982 93 10000 2.6 90 12:20 28.12.2020
4348 Snow 1 982 100 7000 2.6 130 11:45 28.12.2020
4349 Snow 1 982 100 7000 2.6 130 11:23 28.12.2020
4350 Snow 1 981 100 10000 2.6 100 10:44 28.12.2020
4351 Clouds 1 981 100 10000 2.6 100 10:26 28.12.2020
4352 Clouds 0 980 90 6000 2.6 140 09:46 28.12.2020
4353 Snow 1 981 100 4100 2.1 90 09:19 28.12.2020
4354 Snow 0 980 97 10000 1 0 07:30 28.12.2020
4355 Snow 0 981 100 10000 0.5 0 06:48 28.12.2020
4356 Snow 0 982 92 10000 0.5 0 04:26 28.12.2020
4357 Snow 1 985 92 10000 1.5 150 01:57 28.12.2020
4358 Snow 1 985 86 10000 1.5 200 00:30 28.12.2020
4359 Snow 1 986 92 10000 2.1 90 23:46 27.12.2020
4360 Clouds 1 986 86 10000 2.6 90 23:19 27.12.2020
4361 Rain 1 987 86 10000 2.6 150 21:57 27.12.2020
4362 Rain 1 987 86 10000 2.6 150 21:57 27.12.2020
4363 Clouds 1 987 80 10000 2.1 160 21:26 27.12.2020
4364 Clouds 1 988 86 10000 2.6 120 20:45 27.12.2020
4365 Snow 1 990 86 10000 2.6 110 19:25 27.12.2020
4366 Snow 1 991 86 10000 2.6 110 18:57 27.12.2020
4367 Snow 1 992 80 10000 3.1 130 18:38 27.12.2020
4368 Snow 0 992 86 10000 2.1 140 18:19 27.12.2020
4369 Clouds 0 994 86 10000 1.5 120 17:43 27.12.2020
4370 Clouds 0 994 86 10000 1.5 120 17:22 27.12.2020
4371 Snow -1 995 80 10000 1.5 150 16:35 27.12.2020
4372 Clouds -1 996 74 10000 2.1 140 15:54 27.12.2020
4373 Clouds -1 997 79 10000 3.6 150 14:59 27.12.2020
4374 Clouds -1 997 79 10000 3.6 150 14:40 27.12.2020
4375 Clear -1 1000 79 10000 2.1 130 14:18 27.12.2020
4376 Clear -1 1001 79 10000 2.1 160 13:22 27.12.2020
4377 Clear -1 1003 79 10000 2.1 160 12:43 27.12.2020
4378 Clear -2 1004 79 10000 2.1 180 11:56 27.12.2020
4379 Clear -2 1005 85 10000 1.5 170 11:35 27.12.2020
4380 Clear -3 1007 92 10000 1.5 170 10:51 27.12.2020
4381 Clear -4 1007 92 10000 1.5 170 10:24 27.12.2020
4382 Clear -5 1008 92 10000 2.1 90 09:46 27.12.2020
4383 Clear -5 1009 92 10000 3.6 130 08:39 27.12.2020
4384 Clouds -5 1010 92 10000 2.1 120 08:18 27.12.2020
4385 Clouds -5 1011 92 10000 1.5 110 07:26 27.12.2020
4386 Clouds -4 1013 85 10000 2.6 100 05:44 27.12.2020
4387 Clear -4 1016 85 10000 3.1 120 03:33 27.12.2020
4388 Clear -4 1017 92 10000 2.1 110 02:45 27.12.2020
4389 Clear -4 1018 85 10000 2.1 150 01:33 27.12.2020
4390 Clear -4 1019 92 10000 2.6 100 23:57 26.12.2020
4391 Clear -4 1019 92 10000 2.6 100 23:27 26.12.2020
4392 Clear -4 1020 92 10000 1 0 22:49 26.12.2020
4393 Clear -4 1021 85 10000 2.1 90 22:21 26.12.2020
4394 Clear -3 1021 85 10000 2.1 100 21:57 26.12.2020
4395 Clear -3 1022 85 10000 2.1 110 21:38 26.12.2020
4396 Clear -3 1022 85 10000 2.6 90 21:19 26.12.2020
4397 Clear -3 1023 86 10000 2.6 130 20:41 26.12.2020
4398 Clear -3 1023 92 10000 1.5 100 20:18 26.12.2020
4399 Clear -3 1023 86 10000 1.5 130 19:26 26.12.2020
4400 Clouds -2 1023 79 10000 1 0 18:50 26.12.2020
4401 Clear -2 1023 79 10000 1 0 18:28 26.12.2020
4402 Clear -1 1023 68 10000 2.1 160 17:41 26.12.2020
4403 Clouds -1 1023 93 10000 3.1 140 17:20 26.12.2020
4404 Clear 0 1024 64 10000 3.6 140 16:36 26.12.2020
4405 Clear 1 1024 51 10000 3.1 90 15:27 26.12.2020
4406 Clear 2 1024 47 10000 1.5 180 14:51 26.12.2020
4407 Clouds 2 1024 47 10000 1.5 120 14:28 26.12.2020
4408 Clouds 1 1025 51 10000 1 130 13:51 26.12.2020
4409 Clouds 1 1025 50 10000 1.5 80 13:31 26.12.2020
4410 Clear 1 1025 51 10000 1.5 0 12:49 26.12.2020
4411 Clear 1 1025 51 10000 1.5 0 12:30 26.12.2020
4412 Clear 1 1025 59 10000 1 0 11:51 26.12.2020
4413 Clear 0 1025 91 10000 1.5 160 11:23 26.12.2020
4414 Clear 0 1026 74 10000 1 150 10:55 26.12.2020
4415 Clear -1 1026 80 10000 1 150 10:28 26.12.2020
4416 Clouds -2 1026 86 10000 1 0 09:52 26.12.2020
4417 Clear -3 1025 86 10000 1 80 09:31 26.12.2020
4418 Clouds -2 1025 79 10000 1.5 300 08:39 26.12.2020
4419 Clouds -3 1025 79 10000 1 350 07:56 26.12.2020
4420 Clouds -2 1025 79 10000 0.5 0 06:47 26.12.2020
4421 Clouds -1 1023 96 10000 2.6 340 03:53 26.12.2020
4422 Clouds -1 1023 97 10000 1 0 02:24 26.12.2020
4423 Clouds 0 1023 97 10000 3.1 0 00:28 26.12.2020
4424 Clouds 0 1022 64 10000 1 0 23:43 25.12.2020
4425 Clouds 0 1022 64 10000 1 0 23:25 25.12.2020
4426 Clouds 0 1022 69 10000 1.5 0 22:50 25.12.2020
4427 Clouds 0 1022 69 10000 1.5 0 22:23 25.12.2020
4428 Clouds 1 1021 69 10000 3.6 10 21:37 25.12.2020
4429 Snow 0 1021 69 10000 2.6 0 21:19 25.12.2020
4430 Snow 1 1020 69 10000 4.1 10 20:38 25.12.2020
4431 Snow 1 1020 69 10000 1.5 0 19:52 25.12.2020
4432 Snow 1 1019 69 10000 1.5 0 19:33 25.12.2020
4433 Snow 1 1019 74 10000 4.6 330 18:39 25.12.2020
4434 Snow 1 1019 74 10000 3.6 340 17:57 25.12.2020
4435 Snow 1 1019 74 10000 4.1 330 17:35 25.12.2020
4436 Clouds 2 1018 69 10000 2.6 360 16:48 25.12.2020
4437 Clouds 2 1018 69 10000 2.1 10 16:21 25.12.2020
4438 Clouds 2 1018 69 10000 2.1 10 15:46 25.12.2020
4439 Clouds 2 1018 69 10000 1.5 30 15:22 25.12.2020
4440 Clouds 2 1018 74 10000 2.1 10 14:31 25.12.2020
4441 Clouds 2 1018 74 10000 1.5 0 13:47 25.12.2020
4442 Clouds 2 1018 74 10000 1.5 0 13:26 25.12.2020
4443 Clouds 2 1018 80 10000 3 20 12:49 25.12.2020
4444 Clouds 2 1018 80 10000 2.43 11 12:27 25.12.2020
4445 Clouds 2 1019 100 10000 1 190 11:46 25.12.2020
4446 Snow 1 1019 100 10000 1 190 11:22 25.12.2020
4447 Snow 1 1018 100 10000 1.69 6 10:35 25.12.2020
4448 Snow 0 1018 100 10000 1.12 349 09:49 25.12.2020
4449 Snow -1 1017 95 10000 0.5 0 08:52 25.12.2020
4450 Snow 0 1017 100 10000 1 0 08:32 25.12.2020
4451 Snow 0 1017 100 10000 0.5 0 06:51 25.12.2020
4452 Snow 1 1017 100 10000 1 0 05:31 25.12.2020
4453 Clouds 2 1016 92 10000 1.5 270 02:21 25.12.2020
4454 Clouds 3 1015 80 10000 3.1 290 00:20 25.12.2020
4455 Clouds 3 1014 80 10000 4.6 280 23:30 24.12.2020
4456 Rain 4 1014 86 10000 4.1 280 22:54 24.12.2020
4457 Rain 4 1014 86 10000 4.1 280 22:54 24.12.2020
4458 Rain 4 1013 86 5414 5.7 280 22:24 24.12.2020
4459 Rain 4 1013 81 10000 5.7 260 21:45 24.12.2020
4460 Clouds 5 1013 81 10000 4.1 270 20:58 24.12.2020
4461 Rain 6 1012 75 10000 5.1 210 19:48 24.12.2020
4462 Rain 5 1012 87 10000 2.6 310 18:21 24.12.2020
4463 Rain 6 1012 87 10000 2.1 320 17:38 24.12.2020
4464 Rain 6 1012 75 10000 1.5 340 17:20 24.12.2020
4465 Rain 6 1012 75 10000 1.5 340 17:20 24.12.2020
4466 Rain 6 1012 75 10000 1.5 340 17:20 24.12.2020
4467 Rain 7 1012 75 10000 3.6 280 16:25 24.12.2020
4468 Rain 7 1013 70 10000 3.6 270 15:45 24.12.2020
4469 Rain 7 1013 70 10000 3.6 270 15:23 24.12.2020
4470 Rain 8 1013 61 10000 4.6 260 14:56 24.12.2020
4471 Clouds 8 1013 61 10000 4.6 260 14:25 24.12.2020
4472 Clouds 8 1013 57 10000 5.1 270 13:49 24.12.2020
4473 Rain 8 1013 57 10000 5.1 270 13:30 24.12.2020
4474 Rain 9 1014 62 10000 1.5 0 12:58 24.12.2020
4475 Clouds 9 1014 60 10000 3.6 260 12:38 24.12.2020
4476 Rain 9 1014 57 10000 6.7 270 12:18 24.12.2020
4477 Clear 8 1014 57 10000 5.7 270 11:38 24.12.2020
4478 Clouds 8 1014 57 10000 5.1 240 11:19 24.12.2020
4479 Clouds 8 1014 57 10000 5.1 240 10:43 24.12.2020
4480 Clouds 7 1015 65 10000 5.1 240 09:59 24.12.2020
4481 Clouds 7 1015 70 10000 6.2 230 09:40 24.12.2020
4482 Clouds 8 1015 61 10000 3.1 250 08:48 24.12.2020
4483 Clouds 7 1015 87 10000 2.6 180 07:54 24.12.2020
4484 Clouds 7 1015 93 10000 4.6 170 07:35 24.12.2020
4485 Clouds 7 1015 100 10000 2.6 130 06:23 24.12.2020
4486 Rain 7 1016 87 9000 4.6 260 03:29 24.12.2020
4487 Rain 8 1015 93 5000 6.2 280 01:48 24.12.2020
4488 Clouds 8 1015 100 10000 1.5 0 01:19 24.12.2020
4489 Clouds 10 1015 81 10000 2.1 300 00:23 24.12.2020
4490 Rain 9 1015 100 10000 1 0 23:59 23.12.2020
4491 Rain 9 1015 100 10000 1 0 23:39 23.12.2020
4492 Rain 9 1015 100 7000 0.5 0 23:20 23.12.2020
4493 Clouds 9 1015 100 7000 0.5 0 22:43 23.12.2020
4494 Rain 9 1015 100 10000 0.5 0 22:23 23.12.2020
4495 Clouds 9 1015 100 10000 1 0 21:43 23.12.2020
4496 Clouds 10 1015 100 10000 1 0 21:21 23.12.2020
4497 Drizzle 9 1015 100 10000 1 0 20:45 23.12.2020
4498 Drizzle 9 1015 100 10000 1 0 20:25 23.12.2020
4499 Clouds 10 1016 100 10000 1 0 19:45 23.12.2020
4500 Rain 10 1016 100 10000 1 0 19:23 23.12.2020
4501 Rain 10 1015 93 10000 1.5 130 18:56 23.12.2020
4502 Rain 10 1015 93 10000 1.5 130 18:35 23.12.2020
4503 Clouds 9 1016 100 10000 1 0 17:44 23.12.2020
4504 Clouds 10 1016 87 10000 0.5 0 17:24 23.12.2020
4505 Clouds 10 1016 87 10000 0.5 0 16:56 23.12.2020
4506 Clouds 10 1016 87 10000 0.5 0 16:37 23.12.2020
4507 Clouds 10 1016 87 10000 1 0 16:18 23.12.2020
4508 Clouds 10 1016 87 10000 1 0 15:40 23.12.2020
4509 Clouds 12 1017 76 10000 1.31 232 15:22 23.12.2020
4510 Clouds 12 1017 87 10000 1 170 14:52 23.12.2020
4511 Clouds 11 1017 87 10000 1 170 14:25 23.12.2020
4512 Clouds 10 1017 87 10000 1 0 13:58 23.12.2020
4513 Clouds 11 1017 87 10000 1 0 13:39 23.12.2020
4514 Clouds 10 1017 93 10000 0.5 0 13:18 23.12.2020
4515 Clouds 10 1018 93 10000 0.5 0 12:46 23.12.2020
4516 Clouds 10 1019 100 10000 1 0 12:21 23.12.2020
4517 Clouds 9 1019 100 10000 1.5 160 11:45 23.12.2020
4518 Clouds 8 1019 100 10000 1.5 0 10:58 23.12.2020
4519 Clear 5 1019 100 10000 1 120 10:40 23.12.2020
4520 Clouds 5 1019 100 10000 1 0 10:21 23.12.2020
4521 Fog 4 1019 100 10000 1.52 170 09:27 23.12.2020
4522 Clouds 4 1019 100 10000 0.5 0 08:42 23.12.2020
4523 Clouds 4 1020 100 10000 1 0 08:18 23.12.2020
4524 Clouds 5 1020 100 10000 0.5 0 07:21 23.12.2020
4525 Clouds 5 1020 100 10000 0.5 0 06:39 23.12.2020
4526 Clouds 6 1021 100 10000 0.5 0 05:26 23.12.2020
4527 Clouds 6 1021 100 10000 0.5 0 04:51 23.12.2020
4528 Clear 6 1022 100 10000 1 0 00:34 23.12.2020
4529 Clear 6 1022 100 10000 3.1 90 23:46 22.12.2020
4530 Clear 6 1022 100 10000 3.1 90 23:27 22.12.2020
4531 Clear 7 1023 93 10000 3.6 100 22:43 22.12.2020
4532 Clear 7 1023 93 10000 3.6 100 22:25 22.12.2020
4533 Clear 8 1023 93 10000 1 0 21:57 22.12.2020
4534 Clouds 8 1023 93 10000 3.6 90 21:38 22.12.2020
4535 Clouds 9 1023 87 10000 4.6 120 21:18 22.12.2020
4536 Clouds 10 1023 81 10000 1 0 20:43 22.12.2020
4537 Clouds 10 1023 81 10000 1 0 20:20 22.12.2020
4538 Clouds 10 1023 81 10000 3.1 110 19:42 22.12.2020
4539 Clouds 10 1023 76 10000 2.1 0 19:21 22.12.2020
4540 Clouds 11 1023 76 10000 2.1 0 18:48 22.12.2020
4541 Clouds 11 1023 76 10000 2.1 0 18:28 22.12.2020
4542 Clouds 12 1023 58 10000 3.1 270 17:50 22.12.2020
4543 Clouds 13 1023 58 10000 3.1 270 17:23 22.12.2020
4544 Clouds 11 1023 83 10000 3.6 280 16:54 22.12.2020
4545 Clouds 11 1023 83 10000 3.6 280 16:36 22.12.2020
4546 Clouds 12 1023 82 10000 0.5 0 16:18 22.12.2020
4547 Clouds 13 1023 82 10000 1 0 15:41 22.12.2020
4548 Clouds 13 1023 82 10000 1 0 15:18 22.12.2020
4549 Clouds 13 1023 81 10000 1 0 14:43 22.12.2020
4550 Clouds 12 1023 87 10000 0.5 0 14:25 22.12.2020
4551 Clouds 12 1024 81 10000 1 0 13:47 22.12.2020
4552 Clouds 12 1024 87 10000 0.5 0 13:19 22.12.2020
4553 Clouds 12 1024 87 10000 0.5 0 12:55 22.12.2020
4554 Clouds 12 1024 93 10000 1.5 170 12:37 22.12.2020
4555 Clouds 12 1025 93 10000 1.5 130 12:18 22.12.2020
4556 Clouds 11 1025 93 10000 1.5 130 11:40 22.12.2020
4557 Clouds 11 1024 100 10000 1.5 250 11:21 22.12.2020
4558 Clouds 11 1024 100 10000 1.5 250 10:54 22.12.2020
4559 Clouds 9 1024 100 10000 1.5 250 10:26 22.12.2020
4560 Clouds 9 1024 100 10000 2.6 100 09:58 22.12.2020
4561 Clouds 8 1024 100 10000 3.1 100 09:29 22.12.2020
4562 Clouds 8 1024 100 10000 2.6 100 08:54 22.12.2020
4563 Fog 8 1024 100 8000 1 0 08:34 22.12.2020
4564 Fog 7 1024 100 7000 1.5 160 07:57 22.12.2020
4565 Clouds 7 1024 100 7000 1 0 07:23 22.12.2020
4566 Clouds 7 1023 100 5000 1.5 0 05:51 22.12.2020
4567 Clouds 7 1023 100 10000 2.6 120 03:46 22.12.2020
4568 Clouds 7 1023 100 7000 1 0 01:44 22.12.2020
4569 Clouds 7 1023 100 9000 0.5 0 23:56 21.12.2020
4570 Clouds 7 1023 100 9000 0.5 0 23:38 21.12.2020
4571 Drizzle 7 1023 100 8000 1 0 23:18 21.12.2020
4572 Clouds 7 1023 100 6000 1 70 22:36 21.12.2020
4573 Clouds 7 1023 100 6000 1 70 22:36 21.12.2020
4574 Clouds 6 1022 100 10000 1 0 22:18 21.12.2020
4575 Clouds 6 1022 100 6000 1.5 130 21:42 21.12.2020
4576 Rain 6 1022 100 6000 1.5 130 21:24 21.12.2020
4577 Rain 6 1022 100 10000 1.5 170 20:42 21.12.2020
4578 Rain 6 1022 100 10000 1.5 170 20:20 21.12.2020
4579 Rain 6 1022 87 10000 1 310 19:46 21.12.2020
4580 Rain 6 1021 87 10000 1 0 19:20 21.12.2020
4581 Rain 6 1021 87 10000 1 0 18:55 21.12.2020
4582 Drizzle 6 1021 87 10000 1 0 18:36 21.12.2020
4583 Rain 6 1021 93 10000 2.1 110 18:18 21.12.2020
4584 Clouds 6 1021 87 10000 2.1 100 17:41 21.12.2020
4585 Clouds 6 1021 87 10000 2.1 100 17:22 21.12.2020
4586 Clouds 7 1021 87 10000 2.1 90 16:39 21.12.2020
4587 Clouds 7 1022 81 10000 2.1 130 16:18 21.12.2020
4588 Rain 7 1022 81 10000 2.1 130 15:41 21.12.2020
4589 Clouds 7 1022 81 10000 1 0 14:57 21.12.2020
4590 Clouds 7 1023 87 10000 2.1 120 14:22 21.12.2020
4591 Clouds 6 1024 93 10000 1 0 13:49 21.12.2020
4592 Clouds 6 1024 93 10000 1 0 13:31 21.12.2020
4593 Rain 6 1024 86 10000 2.6 110 12:47 21.12.2020
4594 Clouds 5 1024 86 10000 2.6 110 12:25 21.12.2020
4595 Rain 5 1025 100 10000 2.6 90 11:59 21.12.2020
4596 Rain 5 1025 100 10000 2.6 120 11:40 21.12.2020
4597 Rain 5 1025 100 10000 2.6 120 11:22 21.12.2020
4598 Rain 4 1025 100 10000 1 0 10:55 21.12.2020
4599 Rain 4 1025 100 10000 0.5 0 10:36 21.12.2020
4600 Clouds 4 1024 100 10000 0.5 0 09:51 21.12.2020
4601 Fog 4 1024 100 10000 2.1 130 09:27 21.12.2020
4602 Fog 4 1024 100 10000 0.5 0 08:58 21.12.2020
4603 Mist 4 1023 100 3300 1.5 120 08:18 21.12.2020
4604 Mist 4 1023 100 4900 1 0 06:47 21.12.2020
4605 Clouds 5 1024 100 10000 2.1 100 04:58 21.12.2020
4606 Mist 5 1025 100 2800 0.5 240 02:32 21.12.2020
4607 Clouds 5 1025 100 10000 2.1 100 00:35 21.12.2020
4608 Clouds 5 1025 100 9000 2.1 110 23:38 20.12.2020
4609 Clouds 5 1025 100 8000 1.5 120 23:19 20.12.2020
4610 Rain 5 1025 100 8000 1.5 120 22:42 20.12.2020
4611 Clouds 5 1025 100 8000 1.5 120 22:22 20.12.2020
4612 Clouds 5 1025 100 10000 1 0 21:40 20.12.2020
4613 Clouds 5 1025 100 10000 1 0 21:22 20.12.2020
4614 Drizzle 5 1024 100 10000 1 0 20:53 20.12.2020
4615 Rain 5 1024 100 10000 1.5 140 20:26 20.12.2020
4616 Clouds 5 1024 100 10000 1.5 0 19:56 20.12.2020
4617 Clouds 5 1023 93 8000 1 0 19:38 20.12.2020
4618 Clouds 5 1023 93 8000 1 0 19:19 20.12.2020
4619 Clouds 5 1023 93 10000 1 110 18:41 20.12.2020
4620 Clouds 5 1023 93 10000 1 110 18:22 20.12.2020
4621 Clouds 5 1022 87 10000 1 0 17:45 20.12.2020
4622 Clouds 6 1022 87 10000 1 0 17:27 20.12.2020
4623 Clouds 6 1022 87 10000 1 310 16:47 20.12.2020
4624 Clouds 6 1022 87 10000 1 310 16:27 20.12.2020
4625 Clouds 6 1022 81 10000 1 170 15:50 20.12.2020
4626 Clouds 7 1022 81 10000 1 170 15:25 20.12.2020
4627 Clouds 7 1021 87 10000 0.95 259 14:55 20.12.2020
4628 Clouds 6 1021 87 10000 0.5 0 14:34 20.12.2020
4629 Clouds 6 1021 86 10000 1 310 13:47 20.12.2020
4630 Clouds 6 1021 86 10000 1 310 13:28 20.12.2020
4631 Clouds 5 1022 93 10000 1 0 12:58 20.12.2020
4632 Clouds 4 1022 93 10000 0.5 0 12:39 20.12.2020
4633 Clouds 4 1022 93 10000 0.5 0 12:21 20.12.2020
4634 Clouds 3 1021 100 10000 1.5 140 11:44 20.12.2020
4635 Clouds 4 1021 100 10000 1.5 140 11:19 20.12.2020
4636 Clouds 2 1021 100 8000 2.1 130 10:45 20.12.2020
4637 Clouds 2 1021 100 8000 2.1 130 10:20 20.12.2020
4638 Rain 2 1021 100 6000 0.5 0 09:46 20.12.2020
4639 Clouds 2 1021 100 6000 0.5 0 09:27 20.12.2020
4640 Clouds 2 1021 100 6000 1 0 08:58 20.12.2020
4641 Clouds 1 1020 74 10000 1 0 08:39 20.12.2020
4642 Fog 1 1020 79 7000 0.5 0 07:27 20.12.2020
4643 Clouds 1 1020 81 5000 0.5 150 05:48 20.12.2020
4644 Clouds 2 1021 100 5000 0.5 0 02:20 20.12.2020
4645 Mist 2 1021 100 3900 1 110 00:38 20.12.2020
4646 Mist 2 1021 100 3000 0.5 0 23:21 19.12.2020
4647 Mist 2 1021 100 3000 0.5 0 22:57 19.12.2020
4648 Fog 2 1021 100 3700 1 0 22:39 19.12.2020
4649 Fog 2 1021 100 350 0.5 0 22:19 19.12.2020
4650 Fog 2 1021 100 800 0.5 0 21:43 19.12.2020
4651 Fog 2 1021 100 800 0.5 0 21:25 19.12.2020
4652 Mist 2 1021 100 4800 0.5 0 20:46 19.12.2020
4653 Clouds 3 1021 100 5000 1 0 20:22 19.12.2020
4654 Clouds 3 1021 100 5000 1 0 19:55 19.12.2020
4655 Clouds 3 1021 100 10000 2.6 120 19:36 19.12.2020
4656 Clouds 3 1021 100 10000 2.6 120 19:18 19.12.2020
4657 Clouds 4 1021 100 10000 1.5 150 18:31 19.12.2020
4658 Clouds 4 1020 100 10000 1 0 17:49 19.12.2020
4659 Clouds 4 1020 100 10000 1 0 17:29 19.12.2020
4660 Clouds 4 1020 100 10000 1 340 16:56 19.12.2020
4661 Clouds 4 1020 93 10000 0.5 0 16:37 19.12.2020
4662 Clouds 4 1019 100 10000 1 0 16:19 19.12.2020
4663 Clouds 4 1020 99 10000 0.72 272 15:47 19.12.2020
4664 Clouds 4 1020 100 10000 0.5 0 14:52 19.12.2020
4665 Clouds 6 1020 100 10000 1 0 14:26 19.12.2020
4666 Clouds 6 1020 100 7000 0.5 0 13:42 19.12.2020
4667 Clouds 5 1021 100 7000 1 0 13:21 19.12.2020
4668 Clouds 5 1021 100 2500 1 0 12:55 19.12.2020
4669 Clouds 5 1021 100 2500 1 0 12:37 19.12.2020
4670 Fog 4 1022 62 800 0.5 0 12:19 19.12.2020
4671 Fog 4 1022 100 250 0.5 0 11:42 19.12.2020
4672 Fog 1 1022 100 150 1 0 10:48 19.12.2020
4673 Fog 1 1022 100 150 1 0 10:29 19.12.2020
4674 Fog 0 1021 100 150 1 0 10:00 19.12.2020
4675 Fog 0 1021 100 150 1 0 09:40 19.12.2020
4676 Fog 0 1021 100 150 1 0 08:58 19.12.2020
4677 Fog -1 1021 100 150 1 0 08:18 19.12.2020
4678 Fog -1 1020 100 100 0.5 0 07:19 19.12.2020
4679 Fog -1 1020 100 100 0.5 0 06:44 19.12.2020
4680 Fog -1 1021 100 150 1 0 05:21 19.12.2020
4681 Fog 0 1021 100 250 0.5 0 03:40 19.12.2020
4682 Clouds 1 1022 81 7000 2.1 150 00:41 19.12.2020
4683 Clouds 1 1022 81 7000 2.1 150 00:41 19.12.2020
4684 Clouds 1 1022 80 7000 2.1 150 00:21 19.12.2020
4685 Clouds 1 1022 100 8000 1 140 23:49 18.12.2020
4686 Clouds 1 1022 100 8000 1 140 23:49 18.12.2020
4687 Clouds 1 1022 100 8000 1 140 23:25 18.12.2020
4688 Clouds 1 1022 100 8000 1 140 22:57 18.12.2020
4689 Clouds 2 1023 79 7000 1 0 22:38 18.12.2020
4690 Clear 2 1023 78 6000 1.19 155 22:19 18.12.2020
4691 Clear 2 1023 78 6000 1.19 155 21:41 18.12.2020
4692 Clear 2 1023 79 7000 1 0 21:22 18.12.2020
4693 Clear 2 1023 80 7000 1 0 20:25 18.12.2020
4694 Clear 2 1023 80 10000 0.5 0 19:49 18.12.2020
4695 Clear 2 1023 81 10000 0.5 0 19:24 18.12.2020
4696 Clear 3 1023 93 10000 0.5 0 18:47 18.12.2020
4697 Clear 4 1023 93 10000 0.5 0 18:28 18.12.2020
4698 Clear 4 1023 93 10000 0.5 0 17:52 18.12.2020
4699 Clear 5 1022 87 10000 1 250 17:21 18.12.2020
4700 Clear 6 1023 70 10000 1.5 220 16:48 18.12.2020
4701 Clear 7 1023 70 10000 1.5 220 16:22 18.12.2020
4702 Clear 8 1023 61 10000 2.1 150 15:54 18.12.2020
4703 Clouds 8 1023 61 10000 1.5 140 15:34 18.12.2020
4704 Clouds 8 1023 61 10000 1.5 140 14:58 18.12.2020
4705 Clouds 8 1023 61 10000 1 160 14:39 18.12.2020
4706 Clouds 8 1024 66 10000 1 0 14:19 18.12.2020
4707 Clouds 8 1025 61 10000 1.5 250 13:42 18.12.2020
4708 Clouds 8 1025 61 10000 1.5 250 13:23 18.12.2020
4709 Clouds 7 1025 75 10000 1.5 160 12:44 18.12.2020
4710 Clouds 5 1025 93 10000 1.5 170 11:31 18.12.2020
4711 Clouds 4 1025 100 10000 1 150 10:59 18.12.2020
4712 Clouds 4 1025 100 10000 1.5 0 10:37 18.12.2020
4713 Clouds 3 1025 100 10000 0.5 0 10:19 18.12.2020
4714 Clouds 2 1025 77 10000 2.1 120 09:38 18.12.2020
4715 Clouds 2 1025 81 10000 1.5 110 09:20 18.12.2020
4716 Clouds 2 1025 81 10000 1.5 110 08:52 18.12.2020
4717 Clouds 2 1025 82 10000 0.5 0 08:26 18.12.2020
4718 Clouds 1 1025 100 5000 0.5 0 07:20 18.12.2020
4719 Clouds 2 1025 100 6000 0.5 0 06:59 18.12.2020
4720 Clouds 2 1025 100 5000 0.5 0 06:22 18.12.2020
4721 Mist 2 1025 100 4200 1 0 05:33 18.12.2020
4722 Clouds 2 1025 100 10000 1 120 04:50 18.12.2020
4723 Clouds 4 1025 100 10000 0.5 0 01:49 18.12.2020
4724 Clouds 4 1025 100 10000 0.5 0 01:22 18.12.2020
4725 Clouds 4 1026 100 10000 2.6 120 23:57 17.12.2020
4726 Clouds 4 1026 100 10000 2.6 120 23:25 17.12.2020
4727 Clouds 4 1026 100 7000 1.5 140 22:50 17.12.2020
4728 Clouds 4 1026 100 7000 1.5 140 22:28 17.12.2020
4729 Clouds 4 1026 100 7000 1 80 21:47 17.12.2020
4730 Clouds 4 1026 100 7000 1 80 21:25 17.12.2020
4731 Clouds 4 1026 100 7000 1 230 20:59 17.12.2020
4732 Clouds 4 1026 100 7000 1 230 20:41 17.12.2020
4733 Clouds 4 1025 100 10000 0.5 320 20:18 17.12.2020
4734 Clouds 4 1025 100 9000 1 0 19:45 17.12.2020
4735 Clouds 4 1025 100 10000 1.5 140 19:23 17.12.2020
4736 Clouds 4 1025 100 7000 1.18 144 18:41 17.12.2020
4737 Clouds 4 1025 100 7000 0.97 148 18:23 17.12.2020
4738 Clouds 4 1025 100 7000 0.97 148 18:23 17.12.2020
4739 Clouds 5 1024 93 9000 1.5 0 17:53 17.12.2020
4740 Clouds 5 1024 93 9000 1.5 0 17:32 17.12.2020
4741 Clouds 5 1024 93 10000 1.5 0 16:45 17.12.2020
4742 Clouds 6 1024 93 10000 1.5 0 16:26 17.12.2020
4743 Clouds 7 1024 75 10000 1 0 15:52 17.12.2020
4744 Clouds 7 1024 75 10000 1 0 15:32 17.12.2020
4745 Clouds 7 1024 87 10000 1.5 0 14:55 17.12.2020
4746 Clouds 7 1024 87 10000 1.5 0 14:34 17.12.2020
4747 Clouds 6 1025 81 10000 1 0 13:58 17.12.2020
4748 Clouds 6 1025 86 10000 2.1 140 13:35 17.12.2020
4749 Clouds 5 1025 93 10000 2.1 130 12:49 17.12.2020
4750 Clouds 5 1025 93 10000 2.1 130 12:26 17.12.2020
4751 Clouds 5 1025 93 10000 3.1 120 11:45 17.12.2020
4752 Clouds 4 1025 93 10000 3.1 120 11:25 17.12.2020
4753 Clouds 4 1025 93 10000 3.1 120 10:56 17.12.2020
4754 Clouds 4 1025 100 9000 3.1 120 10:29 17.12.2020
4755 Clouds 3 1024 93 7000 3.1 130 09:31 17.12.2020
4756 Clouds 3 1024 93 7000 2.6 130 08:37 17.12.2020
4757 Clouds 3 1023 100 7000 3.6 150 07:40 17.12.2020
4758 Clouds 3 1023 100 7000 3.6 150 07:18 17.12.2020
4759 Clouds 3 1023 100 5000 3.6 150 06:44 17.12.2020
4760 Clouds 3 1023 100 5000 3.6 150 06:26 17.12.2020
4761 Mist 3 1021 100 4300 3.1 160 01:40 17.12.2020
4762 Clouds 3 1021 100 10000 2.1 240 23:57 16.12.2020
4763 Clouds 3 1021 100 10000 2.6 250 23:23 16.12.2020
4764 Clouds 3 1021 100 10000 2.6 250 22:58 16.12.2020
4765 Clouds 4 1020 100 5000 1.5 150 22:36 16.12.2020
4766 Clouds 4 1020 100 5000 1.5 150 21:54 16.12.2020
4767 Clouds 4 1020 100 6000 2.6 190 21:36 16.12.2020
4768 Clouds 4 1020 100 8000 2.1 190 20:59 16.12.2020
4769 Clouds 4 1020 93 10000 2.1 180 20:41 16.12.2020
4770 Clouds 4 1019 100 9000 1 160 20:19 16.12.2020
4771 Clouds 5 1019 100 8000 1.5 150 19:20 16.12.2020
4772 Clouds 5 1019 100 8000 1.5 150 18:57 16.12.2020
4773 Clouds 5 1019 100 8000 1.5 150 18:57 16.12.2020
4774 Clouds 5 1019 100 8000 1.5 150 18:57 16.12.2020
4775 Clouds 5 1019 100 10000 1.5 160 18:31 16.12.2020
4776 Clouds 5 1018 100 10000 1 0 17:57 16.12.2020
4777 Clouds 5 1018 100 10000 1 0 17:31 16.12.2020
4778 Clouds 5 1018 100 10000 1 0 16:42 16.12.2020
4779 Clouds 6 1018 93 10000 2.6 320 16:22 16.12.2020
4780 Clouds 6 1018 93 10000 2.6 320 16:22 16.12.2020
4781 Clouds 6 1018 93 10000 2.6 320 16:22 16.12.2020
4782 Clouds 6 1018 93 10000 2.6 320 15:51 16.12.2020
4783 Clouds 6 1018 93 10000 3.1 320 15:30 16.12.2020
4784 Clouds 5 1018 100 5000 2.6 330 14:51 16.12.2020
4785 Clouds 6 1018 100 5000 2.6 330 14:30 16.12.2020
4786 Mist 6 1018 100 5000 3.6 320 13:50 16.12.2020
4787 Clouds 6 1018 100 5000 2.1 280 13:31 16.12.2020
4788 Mist 5 1018 100 2500 0.5 0 12:56 16.12.2020
4789 Mist 5 1018 100 1500 1 0 12:37 16.12.2020
4790 Mist 5 1019 100 1200 1 0 11:43 16.12.2020
4791 Clouds 4 1019 100 2000 1.5 150 11:22 16.12.2020
4792 Mist 4 1019 100 3200 3.1 140 10:51 16.12.2020
4793 Mist 4 1019 100 3200 3.1 140 10:27 16.12.2020
4794 Mist 4 1019 100 2500 1.5 140 09:50 16.12.2020
4795 Mist 4 1019 100 2500 1.5 140 09:23 16.12.2020
4796 Fog 3 1018 100 3000 1.13 138 08:22 16.12.2020
4797 Fog 3 1017 100 3200 0.5 0 07:42 16.12.2020
4798 Fog 3 1017 100 550 1 0 07:19 16.12.2020
4799 Fog 4 1017 100 1200 1 110 03:35 16.12.2020
4800 Fog 4 1016 100 150 1 0 01:34 16.12.2020
4801 Fog 4 1016 100 350 1 0 23:46 15.12.2020
4802 Fog 4 1016 100 1000 0.5 0 22:59 15.12.2020
4803 Fog 4 1016 100 5000 1 0 22:38 15.12.2020
4804 Fog 4 1016 100 1000 0.5 0 22:19 15.12.2020
4805 Clouds 4 1016 100 9000 1.5 100 21:43 15.12.2020
4806 Clouds 4 1016 100 9000 2.1 100 21:21 15.12.2020
4807 Clouds 5 1016 100 9000 2.1 100 20:45 15.12.2020
4808 Clouds 5 1016 100 5000 2.6 120 20:26 15.12.2020
4809 Rain 5 1016 100 5000 2.6 120 19:53 15.12.2020
4810 Rain 5 1017 100 10000 3.1 110 19:30 15.12.2020
4811 Rain 5 1017 100 10000 1 100 18:39 15.12.2020
4812 Rain 5 1016 100 10000 0.5 70 18:21 15.12.2020
4813 Rain 5 1016 100 10000 0.85 64 17:46 15.12.2020
4814 Clouds 5 1016 100 10000 0.9 34 17:28 15.12.2020
4815 Rain 5 1016 100 10000 1 0 16:58 15.12.2020
4816 Rain 5 1016 100 10000 1 0 16:31 15.12.2020
4817 Rain 5 1016 93 9000 0.5 0 15:44 15.12.2020
4818 Clouds 6 1016 93 9000 0.5 0 15:25 15.12.2020
4819 Clouds 6 1015 93 10000 1.5 210 14:43 15.12.2020
4820 Clouds 6 1015 93 10000 1.5 0 14:21 15.12.2020
4821 Clouds 5 1014 93 10000 1 290 13:51 15.12.2020
4822 Rain 6 1014 93 10000 1 290 13:32 15.12.2020
4823 Drizzle 6 1014 100 10000 1 110 12:47 15.12.2020
4824 Clouds 4 1015 100 10000 1 170 12:20 15.12.2020
4825 Clouds 5 1015 100 10000 1 170 11:54 15.12.2020
4826 Clouds 4 1014 100 10000 1.14 166 11:26 15.12.2020
4827 Clouds 4 1014 100 10000 1 0 10:53 15.12.2020
4828 Rain 3 1014 100 10000 0.5 0 10:23 15.12.2020
4829 Rain 3 1014 100 10000 2.1 100 09:49 15.12.2020
4830 Rain 2 1014 100 10000 2.1 100 09:31 15.12.2020
4831 Clouds 2 1014 100 10000 1 0 08:47 15.12.2020
4832 Clouds 2 1014 100 10000 1 0 08:25 15.12.2020
4833 Clouds 2 1013 100 10000 1.39 109 07:49 15.12.2020
4834 Clouds 2 1013 100 10000 1 0 07:23 15.12.2020
4835 Clouds 2 1013 100 10000 1 0 06:27 15.12.2020
4836 Clouds 2 1013 100 10000 2.1 0 01:27 15.12.2020
4837 Rain 2 1014 100 10000 1 0 00:34 15.12.2020
4838 Rain 2 1014 100 10000 2.1 140 23:23 14.12.2020
4839 Clouds 1 1015 80 7000 1.5 0 22:48 14.12.2020
4840 Clouds 1 1015 85 7000 1.5 0 22:27 14.12.2020
4841 Fog 1 1014 85 9000 0.5 0 21:44 14.12.2020
4842 Clouds 1 1014 85 6000 0.5 0 21:20 14.12.2020
4843 Clouds 1 1014 85 6000 0.5 0 20:49 14.12.2020
4844 Clouds 1 1014 83 6000 0.5 0 20:29 14.12.2020
4845 Clear 2 1013 100 10000 1 120 19:50 14.12.2020
4846 Clear 2 1013 100 10000 1 150 19:28 14.12.2020
4847 Clouds 2 1013 93 10000 1 0 18:44 14.12.2020
4848 Clouds 3 1013 93 10000 1 0 18:24 14.12.2020
4849 Clouds 3 1013 93 10000 1 120 17:46 14.12.2020
4850 Clouds 4 1013 93 10000 1 120 17:23 14.12.2020
4851 Clouds 4 1013 86 10000 1 0 16:50 14.12.2020
4852 Clouds 5 1013 86 10000 1 0 16:28 14.12.2020
4853 Clouds 5 1014 81 10000 2.1 150 15:33 14.12.2020
4854 Clear 6 1014 75 10000 1.5 160 14:58 14.12.2020
4855 Clouds 5 1014 86 10000 2.6 140 14:40 14.12.2020
4856 Clouds 5 1014 86 10000 2.6 140 14:21 14.12.2020
4857 Clouds 5 1015 93 10000 1.5 0 13:41 14.12.2020
4858 Clouds 4 1015 86 10000 1.5 0 13:18 14.12.2020
4859 Clouds 5 1015 100 10000 2.1 150 12:50 14.12.2020
4860 Clear 3 1015 100 10000 1 0 12:24 14.12.2020
4861 Clouds 2 1016 73 10000 1 190 11:31 14.12.2020
4862 Clear 1 1015 100 10000 1 0 10:37 14.12.2020
4863 Clear 1 1015 100 10000 1 0 10:37 14.12.2020
4864 Clear 0 1015 100 10000 1 290 10:19 14.12.2020
4865 Clouds -1 1015 100 10000 0.5 0 09:29 14.12.2020
4866 Clouds -1 1014 100 10000 2.1 100 08:46 14.12.2020
4867 Clouds -1 1014 100 10000 2.1 100 08:27 14.12.2020
4868 Fog -1 1014 100 9000 0.5 0 07:27 14.12.2020
4869 Fog -1 1014 100 250 0.5 0 06:44 14.12.2020
4870 Mist 0 1014 100 3400 0.5 0 04:28 14.12.2020
4871 Fog 0 1014 100 250 1 90 02:26 14.12.2020
4872 Mist 1 1014 92 4800 1 0 00:54 14.12.2020
4873 Clouds 1 1014 100 9000 0.5 0 00:31 14.12.2020
4874 Clouds 1 1014 100 10000 2.6 110 23:46 13.12.2020
4875 Clouds 1 1014 100 10000 2.6 110 23:46 13.12.2020
4876 Clouds 2 1014 100 10000 2.6 110 23:24 13.12.2020
4877 Clouds 2 1014 100 7000 0.5 110 22:45 13.12.2020
4878 Clouds 2 1014 100 10000 1 90 22:18 13.12.2020
4879 Clouds 2 1014 100 10000 1 0 21:42 13.12.2020
4880 Clouds 2 1014 100 10000 1 0 21:22 13.12.2020
4881 Clouds 3 1014 100 10000 2.6 100 20:35 13.12.2020
4882 Clouds 3 1014 100 10000 1.5 100 19:51 13.12.2020
4883 Clouds 3 1014 100 10000 2.6 110 19:30 13.12.2020
4884 Clouds 3 1014 100 10000 2.1 100 18:58 13.12.2020
4885 Clouds 3 1014 100 10000 1.5 140 18:39 13.12.2020
4886 Clouds 4 1014 93 10000 2.1 120 18:19 13.12.2020
4887 Clouds 4 1013 86 10000 1.5 0 17:46 13.12.2020
4888 Clouds 4 1013 86 10000 1.5 0 17:20 13.12.2020
4889 Clouds 5 1013 81 10000 3.1 160 16:54 13.12.2020
4890 Clouds 5 1013 81 10000 3.1 160 16:54 13.12.2020
4891 Clouds 5 1013 81 10000 3.1 160 16:36 13.12.2020
4892 Clouds 5 1013 87 10000 3.1 150 15:56 13.12.2020
4893 Clouds 5 1013 81 10000 2.1 140 15:38 13.12.2020
4894 Clouds 6 1013 75 10000 2.1 140 15:18 13.12.2020
4895 Clouds 6 1013 81 10000 0.5 0 14:42 13.12.2020
4896 Clouds 6 1013 81 10000 0.5 0 14:18 13.12.2020
4897 Clouds 6 1013 87 10000 1 0 13:36 13.12.2020
4898 Clouds 6 1013 87 10000 1.5 100 13:18 13.12.2020
4899 Clouds 6 1013 87 10000 1.5 130 12:37 13.12.2020
4900 Clouds 5 1014 93 10000 2.1 120 12:18 13.12.2020
4901 Clouds 5 1014 100 10000 2.1 130 11:35 13.12.2020
4902 Clouds 4 1013 100 10000 1.5 100 10:47 13.12.2020
4903 Clouds 4 1013 100 10000 1.5 100 10:29 13.12.2020
4904 Clouds 3 1013 100 10000 1.5 80 09:51 13.12.2020
4905 Clouds 3 1013 100 10000 2.6 100 08:53 13.12.2020
4906 Clouds 3 1013 100 10000 2.6 100 08:32 13.12.2020
4907 Clouds 4 1012 100 10000 3.1 130 07:27 13.12.2020
4908 Rain 4 1010 100 6000 2.6 100 03:26 13.12.2020
4909 Rain 4 1009 100 7000 2.6 120 02:32 13.12.2020
4910 Rain 4 1009 100 6000 1 0 01:37 13.12.2020
4911 Rain 4 1008 100 3400 0.5 0 00:46 13.12.2020
4912 Rain 4 1007 100 7000 0.5 0 23:45 12.12.2020
4913 Rain 3 1007 100 7000 0.5 0 23:27 12.12.2020
4914 Clouds 4 1007 100 10000 2.1 100 22:37 12.12.2020
4915 Drizzle 3 1006 100 9000 3.1 120 21:49 12.12.2020
4916 Drizzle 3 1006 100 9000 3.1 120 21:31 12.12.2020
4917 Rain 3 1006 100 6000 2.6 100 20:48 12.12.2020
4918 Clouds 3 1006 100 6000 2.6 100 20:21 12.12.2020
4919 Clouds 3 1006 100 7000 2.1 90 19:54 12.12.2020
4920 Clouds 3 1006 100 7000 2.1 90 19:34 12.12.2020
4921 Clouds 3 1005 100 7000 3.1 110 18:58 12.12.2020
4922 Clouds 3 1005 100 7000 3.1 110 18:40 12.12.2020
4923 Mist 3 1005 100 4000 2.6 110 18:22 12.12.2020
4924 Clouds 3 1004 100 4200 2.1 110 17:41 12.12.2020
4925 Clouds 4 1003 100 4000 1 0 16:52 12.12.2020
4926 Mist 4 1002 100 4000 1.5 100 15:59 12.12.2020
4927 Mist 4 1002 100 4000 1.5 100 15:40 12.12.2020
4928 Clouds 4 1001 100 4500 1 90 14:54 12.12.2020
4929 Clouds 4 1001 100 3500 2.1 120 14:35 12.12.2020
4930 Drizzle 4 1000 100 3500 1 0 13:47 12.12.2020
4931 Rain 4 1000 100 3500 1 0 13:26 12.12.2020
4932 Drizzle 3 1000 100 4500 1.5 0 12:43 12.12.2020
4933 Clouds 3 999 100 4000 1.5 130 11:39 12.12.2020
4934 Clouds 2 999 100 4000 1 120 10:51 12.12.2020
4935 Rain 1 998 100 3000 2.6 130 09:31 12.12.2020
4936 Drizzle 1 997 87 4000 1 120 08:42 12.12.2020
4937 Rain 1 997 88 7000 2.1 110 02:28 12.12.2020
4938 Snow 0 996 100 8000 1.5 140 23:40 11.12.2020
4939 Clouds 0 997 100 9000 1.5 110 22:21 11.12.2020
4940 Clouds 0 997 100 10000 2.1 110 20:25 11.12.2020
4941 Snow 0 998 90 10000 1.5 150 17:39 11.12.2020
4942 Clouds 1 999 87 10000 2.6 130 14:40 11.12.2020
4943 Snow 0 999 86 10000 1 0 13:57 11.12.2020
4944 Snow 0 1000 92 10000 2.1 110 12:36 11.12.2020
4945 Clouds -1 1000 92 10000 2.1 110 11:57 11.12.2020
4946 Clouds -1 1000 92 10000 2.1 110 11:38 11.12.2020
4947 Clouds -1 1001 86 10000 1.5 120 10:41 11.12.2020
4948 Clouds -2 1001 92 10000 3.6 140 08:23 11.12.2020
4949 Clouds -2 1003 92 10000 2.6 140 05:38 11.12.2020
4950 Clouds -1 1003 86 10000 3.1 140 04:47 11.12.2020
4951 Clouds -2 1006 92 10000 3.1 120 01:32 11.12.2020
4952 Clouds -3 1007 100 9000 0.5 0 23:38 10.12.2020
4953 Clear -3 1006 100 10000 1 240 22:24 10.12.2020
4954 Clear -3 1006 100 10000 0.5 0 21:35 10.12.2020
4955 Clouds -2 1006 92 10000 1.5 280 20:39 10.12.2020
4956 Clouds -1 1006 96 10000 1.5 0 19:37 10.12.2020
4957 Clouds -1 1006 96 10000 2.1 190 18:50 10.12.2020
4958 Clouds -1 1005 96 10000 2.1 260 17:50 10.12.2020
4959 Clouds 0 1004 74 10000 1 0 16:25 10.12.2020
4960 Clouds 1 1004 80 10000 1 0 15:25 10.12.2020
4961 Clouds 1 1004 80 10000 1 0 14:48 10.12.2020
4962 Clouds 1 1004 80 10000 1 0 14:25 10.12.2020
4963 Clouds 1 1005 86 10000 1 0 12:38 10.12.2020
4964 Clouds 0 1005 83 9000 1 0 11:32 10.12.2020
4965 Clouds -2 1004 100 9000 0.37 88 08:47 10.12.2020
4966 Clouds -1 1004 100 9000 1 140 07:38 10.12.2020
4967 Clouds -1 1005 100 7000 0.5 0 06:41 10.12.2020
4968 Clouds -1 1007 100 9000 1 150 02:53 10.12.2020
4969 Clouds -1 1008 100 7000 1.5 130 01:58 10.12.2020
4970 Clouds 0 1009 97 7000 0.5 0 23:50 09.12.2020
4971 Snow 0 1010 98 6000 0.5 270 20:51 09.12.2020
4972 Snow 0 1010 98 6000 0.5 270 20:26 09.12.2020
4973 Snow 0 1010 98 3200 1.5 280 19:20 09.12.2020
4974 Snow 0 1009 98 1800 1 250 17:39 09.12.2020
4975 Snow 0 1009 96 1800 1.5 270 16:40 09.12.2020
4976 Snow 1 1009 91 1200 1 0 16:20 09.12.2020
4977 Snow 1 1008 100 3500 2.6 360 14:53 09.12.2020
4978 Snow 2 1008 100 7000 1 270 14:27 09.12.2020
4979 Clouds 1 1008 100 6000 0.5 0 13:51 09.12.2020
4980 Drizzle 1 1009 100 3000 1 0 13:18 09.12.2020
4981 Snow 1 1009 100 3000 1 0 12:43 09.12.2020
4982 Snow 1 1009 100 2500 1 160 11:46 09.12.2020
4983 Snow 1 1009 100 2200 0.5 0 10:31 09.12.2020
4984 Snow 0 1008 93 2700 1.5 0 08:45 09.12.2020
4985 Snow 0 1007 95 1700 0.5 140 07:42 09.12.2020
4986 Snow 0 1007 95 1500 0.5 0 05:42 09.12.2020
4987 Snow 0 1006 95 2000 1 160 02:59 09.12.2020
4988 Snow 0 1005 96 4400 0.5 300 01:21 09.12.2020
4989 Clouds 0 1005 96 6000 0.5 0 23:41 08.12.2020
4990 Clouds 0 1004 96 6000 2.1 130 22:43 08.12.2020
4991 Clouds 0 1004 92 7000 1.5 100 20:50 08.12.2020
4992 Clouds -1 1003 100 9000 2.1 140 19:32 08.12.2020
4993 Clouds 0 1003 95 10000 3.1 160 18:57 08.12.2020
4994 Clouds 0 1002 95 10000 2.1 140 17:31 08.12.2020
4995 Clouds 1 1000 86 10000 2.1 70 15:43 08.12.2020
4996 Clouds 2 1000 71 6000 1 0 13:59 08.12.2020
4997 Clouds 1 1000 72 6000 1 0 13:24 08.12.2020
4998 Clouds 1 1000 74 5000 2.1 290 12:24 08.12.2020
4999 Mist 0 1000 100 4500 0.5 0 11:39 08.12.2020
5000 Clouds 0 1000 100 3000 1 0 10:43 08.12.2020
5001 Mist 0 999 100 1500 2.1 180 09:47 08.12.2020
5002 Clouds -1 999 100 6000 1.5 170 07:50 08.12.2020
5003 Clouds 0 998 94 6000 1 0 06:33 08.12.2020
5004 Mist 0 999 96 4300 2.1 320 03:23 08.12.2020
5005 Mist 0 999 96 2900 0.5 0 00:46 08.12.2020
5006 Clouds 0 999 96 5000 1.5 340 23:50 07.12.2020
5007 Fog 0 1000 100 2500 1 0 22:33 07.12.2020
5008 Mist 0 1000 100 2900 1.11 82 21:49 07.12.2020
5009 Clouds 0 999 97 10000 1 0 19:46 07.12.2020
5010 Clouds 1 1000 100 6000 1 0 18:20 07.12.2020
5011 Clouds 2 1000 93 10000 1 0 17:26 07.12.2020
5012 Clouds 2 1000 100 10000 0.6 70 16:48 07.12.2020
5013 Clouds 3 1000 86 10000 1.5 150 15:26 07.12.2020
5014 Clouds 3 1000 93 10000 1.5 0 14:41 07.12.2020
5015 Clouds 3 1000 93 7000 2.1 130 13:43 07.12.2020
5016 Clouds 3 1001 93 8000 2.1 120 12:34 07.12.2020
5017 Clouds 2 1001 100 7000 2.6 140 11:43 07.12.2020
5018 Clouds 2 1001 100 4000 2.1 130 10:38 07.12.2020
5019 Clouds 1 1000 100 4000 1.5 210 09:40 07.12.2020
5020 Drizzle 1 1000 100 8000 1.5 90 07:51 07.12.2020
5021 Snow 1 999 100 6000 2.1 110 05:34 07.12.2020
5022 Snow 1 999 100 5000 2.6 130 04:46 07.12.2020
5023 Drizzle 1 998 100 3900 1.5 120 01:47 07.12.2020
5024 Mist 1 998 100 3400 0.5 0 22:53 06.12.2020
5025 Mist 1 998 100 3900 1 100 22:19 06.12.2020
5026 Snow 1 998 100 5000 1 110 20:52 06.12.2020
5027 Snow 1 998 100 4900 0.5 0 20:34 06.12.2020
5028 Snow 1 998 100 4600 2.1 130 19:43 06.12.2020
5029 Snow 2 998 100 7000 0.5 0 17:55 06.12.2020
5030 Clouds 2 998 100 7000 1 0 16:42 06.12.2020
5031 Clouds 3 998 93 6000 1 0 14:50 06.12.2020
5032 Clouds 2 999 100 4500 1.5 0 13:31 06.12.2020
5033 Clouds 2 999 100 3500 1.5 180 12:39 06.12.2020
5034 Mist 2 999 100 4000 1.5 150 11:55 06.12.2020
5035 Mist 2 999 100 3500 1 190 11:30 06.12.2020
5036 Snow 1 999 100 3500 1.5 130 10:42 06.12.2020
5037 Snow 1 999 94 2600 1 140 09:39 06.12.2020
5038 Snow 0 999 94 1200 0.4 185 08:22 06.12.2020
5039 Snow 0 998 94 1300 1 0 05:38 06.12.2020
5040 Snow 1 998 100 4000 0.31 183 00:57 06.12.2020
5041 Snow 1 998 100 3800 1.5 90 00:37 06.12.2020
5042 Snow 1 998 100 4300 1.5 110 00:19 06.12.2020
5043 Snow 1 998 100 4500 1.5 120 22:26 05.12.2020
5044 Snow 1 998 100 3100 0.5 0 21:58 05.12.2020
5045 Snow 1 998 100 3300 1 50 21:37 05.12.2020
5046 Snow 1 998 100 5000 1 0 21:19 05.12.2020
5047 Snow 1 998 100 4500 1 310 18:55 05.12.2020
5048 Snow 1 998 100 7000 1.5 310 17:57 05.12.2020
5049 Snow 1 998 100 9000 1.5 320 16:51 05.12.2020
5050 Clouds 2 998 100 8000 2.36 56 16:29 05.12.2020
5051 Snow 2 997 100 10000 0.5 0 15:36 05.12.2020
5052 Clouds 3 998 93 10000 1.65 26 14:24 05.12.2020
5053 Mist 1 998 100 3900 1 240 11:51 05.12.2020
5054 Clouds 0 998 90 5000 1.5 0 10:48 05.12.2020
5055 Clouds 0 998 90 5000 1.5 0 10:22 05.12.2020
5056 Mist 0 997 98 4700 0.5 0 07:48 05.12.2020
5057 Snow 0 996 94 5000 1 170 06:20 05.12.2020
5058 Snow 0 993 94 1600 1 0 02:45 05.12.2020
5059 Snow 1 990 94 1300 1 320 23:48 04.12.2020
5060 Snow 1 990 100 4100 1 240 21:59 04.12.2020
5061 Snow 1 989 100 10000 1.5 300 19:57 04.12.2020
5062 Snow 2 989 93 10000 3.1 310 18:47 04.12.2020
5063 Clouds 2 989 95 10000 1 310 17:54 04.12.2020
5064 Clouds 2 989 94 10000 1 310 17:24 04.12.2020
5065 Clouds 3 989 89 10000 1 0 15:35 04.12.2020
5066 Clouds 2 988 77 10000 1.5 190 13:39 04.12.2020
5067 Clouds 2 988 73 10000 1.5 190 13:21 04.12.2020
5068 Clouds 2 988 77 10000 1 240 12:47 04.12.2020
5069 Snow 1 989 76 10000 3.1 310 10:39 04.12.2020
5070 Snow 0 988 78 10000 0.96 233 09:41 04.12.2020
5071 Snow 1 990 85 10000 3.1 110 06:41 04.12.2020
5072 Snow 0 990 83 10000 1 190 05:40 04.12.2020
5073 Clouds 0 992 100 10000 2.1 120 01:54 04.12.2020
5074 Clouds 0 995 100 10000 2.1 120 22:52 03.12.2020
5075 Clouds 0 996 92 10000 1 0 22:18 03.12.2020
5076 Clouds 0 997 92 10000 1 0 20:48 03.12.2020
5077 Clouds 0 999 92 10000 2.1 140 19:27 03.12.2020
5078 Clouds 0 999 90 10000 0.5 0 18:49 03.12.2020
5079 Clouds 1 1001 69 10000 0.5 0 17:38 03.12.2020
5080 Clouds 1 1001 69 10000 1.5 0 17:18 03.12.2020
5081 Clouds 3 1003 64 10000 4.1 170 15:45 03.12.2020
5082 Clouds 4 1003 64 10000 4.1 170 15:27 03.12.2020
5083 Clouds 4 1004 60 10000 3.6 160 14:26 03.12.2020
5084 Clouds 4 1005 56 10000 2.1 180 13:36 03.12.2020
5085 Clouds 3 1006 64 10000 3.1 160 12:26 03.12.2020
5086 Clouds 2 1007 80 10000 5.1 170 11:24 03.12.2020
5087 Clouds -1 1009 92 10000 3.1 130 09:33 03.12.2020
5088 Clouds -2 1010 100 7000 1 0 05:23 03.12.2020
5089 Clouds 0 1011 96 10000 2.1 110 02:27 03.12.2020
5090 Clouds 0 1012 96 10000 1 150 00:48 03.12.2020
5091 Clouds 0 1013 96 10000 0.5 0 22:47 02.12.2020
5092 Clouds 1 1013 86 10000 0.5 0 22:25 02.12.2020
5093 Clouds 0 1013 86 10000 0.5 0 20:57 02.12.2020
5094 Clouds 0 1012 80 10000 1.5 200 20:39 02.12.2020
5095 Clouds 1 1012 80 10000 1.5 200 20:21 02.12.2020
5096 Clouds 1 1012 80 10000 1 0 18:33 02.12.2020
5097 Clouds 1 1012 80 10000 1 0 17:38 02.12.2020
5098 Clouds 1 1011 74 10000 1.5 0 17:19 02.12.2020
5099 Clouds 1 1011 80 10000 1.5 300 15:18 02.12.2020
5100 Clouds 1 1012 85 10000 5.1 20 11:52 02.12.2020
5101 Clouds 1 1013 92 10000 2.6 20 10:28 02.12.2020
5102 Clouds 1 1013 96 10000 1.5 0 08:40 02.12.2020
5103 Clouds 1 1014 93 10000 2.1 50 04:25 02.12.2020
5104 Clouds 0 1015 96 8000 1 0 22:21 01.12.2020
5105 Clouds 1 1015 100 10000 2.1 120 21:36 01.12.2020
5106 Clouds 1 1015 100 10000 1.5 80 19:35 01.12.2020
5107 Snow 1 1015 100 7000 1 150 17:58 01.12.2020
5108 Drizzle 2 1015 100 10000 1 0 16:36 01.12.2020
5109 Clouds 2 1016 86 10000 1.5 10 13:39 01.12.2020
5110 Snow 2 1016 93 10000 3.6 300 12:25 01.12.2020
5111 Rain 1 1016 100 4000 1.5 350 11:27 01.12.2020
5112 Snow 2 1016 100 2500 1.5 0 10:39 01.12.2020
5113 Rain 0 1016 92 3200 2.6 310 08:21 01.12.2020
5114 Rain 0 1018 91 2900 1.5 120 06:48 01.12.2020
5115 Clouds 0 1022 87 10000 1.5 0 01:53 01.12.2020
5116 Clouds 0 1022 87 10000 3.6 260 00:56 01.12.2020
5117 Clouds 0 1023 91 10000 3.1 260 23:21 30.11.2020
5118 Clouds 0 1024 91 10000 3.1 270 22:45 30.11.2020
5119 Clouds 0 1024 92 10000 3.1 270 22:25 30.11.2020
5120 Clouds 0 1025 93 10000 2.6 270 20:57 30.11.2020
5121 Clouds -1 1025 94 10000 1 0 19:42 30.11.2020
5122 Clouds 0 1025 95 10000 1 0 18:24 30.11.2020
5123 Clouds 0 1025 95 10000 1 0 17:48 30.11.2020
5124 Clouds 0 1025 80 10000 1 0 16:58 30.11.2020
5125 Clouds 0 1025 80 8000 1 260 16:38 30.11.2020
5126 Clouds 1 1024 86 8000 2.6 290 14:47 30.11.2020
5127 Clouds 1 1024 80 8000 1.5 170 13:53 30.11.2020
5128 Clouds 1 1024 80 8000 1.5 170 13:53 30.11.2020
5129 Clouds 1 1025 80 7000 1 0 12:27 30.11.2020
5130 Clouds 1 1025 86 7000 0.5 0 11:58 30.11.2020
5131 Clouds 0 1025 86 6000 1 0 10:28 30.11.2020
5132 Mist 0 1025 92 5000 2.1 300 09:51 30.11.2020
5133 Clouds 0 1023 96 7000 2.1 300 07:18 30.11.2020
5134 Clouds 0 1022 97 10000 2.6 280 00:54 30.11.2020
5135 Clouds 1 1022 86 10000 2.6 290 21:53 29.11.2020
5136 Clouds 1 1022 86 9000 3.1 290 21:32 29.11.2020
5137 Clouds 1 1021 97 9000 2.6 320 20:38 29.11.2020
5138 Clouds 1 1020 96 10000 2.6 20 17:48 29.11.2020
5139 Clouds 1 1020 89 10000 2.6 340 16:29 29.11.2020
5140 Clouds 2 1019 78 10000 2.1 0 13:24 29.11.2020
5141 Clouds 2 1019 82 10000 1.5 0 12:27 29.11.2020
5142 Clouds 1 1019 80 10000 2.98 41 10:54 29.11.2020
5143 Clouds 1 1018 95 8000 1 0 08:39 29.11.2020
5144 Clouds 0 1017 97 10000 1 0 06:33 29.11.2020
5145 Clouds 1 1017 96 10000 0.5 0 00:30 29.11.2020
5146 Clouds 1 1016 95 10000 1.5 140 22:57 28.11.2020
5147 Clouds 1 1016 94 10000 0.5 0 20:50 28.11.2020
5148 Clouds 1 1015 94 10000 1 0 19:51 28.11.2020
5149 Clouds 1 1015 93 10000 2.1 40 19:24 28.11.2020
5150 Clouds 1 1015 100 10000 1 0 18:51 28.11.2020
5151 Clouds 1 1015 100 5000 2.1 180 17:48 28.11.2020
5152 Clouds 1 1015 100 5000 1.5 230 16:44 28.11.2020
5153 Clouds 3 1015 100 3000 2.6 290 14:56 28.11.2020
5154 Clouds 3 1016 58 3000 2.6 320 13:27 28.11.2020
5155 Mist 2 1017 64 1300 0.5 0 10:57 28.11.2020
5156 Fog 0 1018 100 500 1.5 0 06:42 28.11.2020
5157 Fog 0 1018 100 600 0.5 0 03:33 28.11.2020
5158 Fog 0 1018 92 400 1 0 01:51 28.11.2020
5159 Fog 1 1019 88 300 1.5 0 23:18 27.11.2020
5160 Fog 1 1019 88 450 1 0 21:51 27.11.2020
5161 Fog 1 1019 100 700 1.5 210 20:37 27.11.2020
5162 Fog 1 1019 100 750 2.1 160 19:30 27.11.2020
5163 Mist 2 1019 100 1500 2.1 130 18:51 27.11.2020
5164 Mist 4 1019 100 4500 1 0 15:19 27.11.2020
5165 Mist 4 1019 100 3500 2.1 320 13:57 27.11.2020
5166 Mist 4 1020 100 2800 3.1 300 12:48 27.11.2020
5167 Mist 3 1020 52 1500 1.5 280 11:55 27.11.2020
5168 Mist 3 1021 56 1200 1 290 10:51 27.11.2020
5169 Fog 2 1021 100 700 1 0 10:24 27.11.2020
5170 Clouds 0 1021 89 10000 0.53 162 07:30 27.11.2020
5171 Clear 1 1023 87 10000 1.34 295 22:43 26.11.2020
5172 Clear 1 1023 87 10000 1.06 175 22:22 26.11.2020
5173 Fog 1 1022 100 250 0.5 0 21:39 26.11.2020
5174 Mist 2 1022 100 2000 1 0 19:48 26.11.2020
5175 Clouds 2 1022 100 5000 2.6 160 18:34 26.11.2020
5176 Clouds 4 1021 86 10000 1.5 270 16:32 26.11.2020
5177 Clouds 5 1023 80 10000 1.5 0 13:43 26.11.2020
5178 Clouds 5 1023 86 10000 1 0 12:49 26.11.2020
5179 Clouds 4 1023 93 10000 1 0 12:29 26.11.2020
5180 Fog 3 1024 100 500 1 0 10:38 26.11.2020
5181 Fog 2 1024 100 700 1 210 09:59 26.11.2020
5182 Fog 0 1024 100 1500 2.1 310 09:31 26.11.2020
5183 Mist 0 1023 100 1200 2.1 320 08:43 26.11.2020
5184 Clouds 0 1023 100 5000 2.6 310 07:49 26.11.2020
5185 Mist 1 1023 100 4400 1 0 00:46 26.11.2020
5186 Mist 1 1022 100 2000 0.5 260 21:36 25.11.2020
5187 Mist 1 1022 100 2500 1.5 0 20:19 25.11.2020
5188 Mist 1 1021 100 3000 2.1 100 18:58 25.11.2020
5189 Clouds 2 1021 100 5000 2.6 130 17:24 25.11.2020
5190 Mist 5 1021 93 5000 1 0 15:42 25.11.2020
5191 Clouds 5 1021 93 4000 2.1 340 14:42 25.11.2020
5192 Clouds 5 1021 100 5000 1 0 13:44 25.11.2020
5193 Clouds 4 1021 58 2000 1 0 12:30 25.11.2020
5194 Mist 4 1022 60 1500 0.5 0 11:21 25.11.2020
5195 Mist 0 1022 100 1500 1 0 09:20 25.11.2020
5196 Clouds 0 1021 100 1500 1 0 08:49 25.11.2020
5197 Mist 0 1021 100 3900 1.5 180 06:59 25.11.2020
5198 Mist 0 1021 87 1200 2.6 160 03:49 25.11.2020
5199 Fog 1 1022 88 1100 1.5 220 00:55 25.11.2020
5200 Fog 1 1022 87 350 2.1 220 23:59 24.11.2020
5201 Fog 1 1022 87 300 1.5 0 23:34 24.11.2020
5202 Fog 1 1022 100 450 1.5 210 22:38 24.11.2020
5203 Fog 1 1023 100 1100 1.5 190 21:31 24.11.2020
5204 Mist 1 1023 100 1500 2.1 200 20:51 24.11.2020
5205 Mist 2 1023 100 3000 1.5 210 19:47 24.11.2020
5206 Mist 2 1023 100 3000 4.1 330 17:31 24.11.2020
5207 Mist 2 1023 100 3000 3.6 320 16:56 24.11.2020
5208 Mist 2 1023 100 3000 3.6 300 16:36 24.11.2020
5209 Mist 3 1023 100 3000 3.6 300 15:55 24.11.2020
5210 Clouds 5 1023 100 4000 3.6 340 15:19 24.11.2020
5211 Mist 5 1024 100 4000 4.6 310 14:43 24.11.2020
5212 Mist 4 1025 100 2000 2.1 330 12:58 24.11.2020
5213 Mist 4 1025 100 1500 2.6 330 12:38 24.11.2020
5214 Mist 4 1025 100 2000 3.1 340 11:59 24.11.2020
5215 Fog 1 1025 100 7000 0.5 0 10:52 24.11.2020
5216 Fog 0 1026 100 6000 0.69 360 10:25 24.11.2020
5217 Fog 0 1026 100 6000 0.69 360 10:25 24.11.2020
5218 Fog -1 1026 100 5000 0.5 0 09:37 24.11.2020
5219 Fog -2 1026 100 750 0.5 0 08:33 24.11.2020
5220 Fog -2 1026 100 6000 0.5 0 04:50 24.11.2020
5221 Fog 0 1028 100 2700 0.5 0 23:35 23.11.2020
5222 Fog 1 1028 100 3700 0.5 0 21:47 23.11.2020
5223 Fog 1 1028 100 4800 1 0 21:20 23.11.2020
5224 Clouds 1 1028 88 5000 0.5 0 20:28 23.11.2020
5225 Clouds 1 1028 88 7000 1.01 71 19:53 23.11.2020
5226 Clear 4 1027 86 10000 1.08 68 17:29 23.11.2020
5227 Clear 5 1027 70 10000 1.5 310 16:55 23.11.2020
5228 Clear 8 1028 65 10000 2.6 290 14:50 23.11.2020
5229 Clear 8 1028 70 10000 1.5 280 13:56 23.11.2020
5230 Clear 7 1029 80 10000 1 0 12:40 23.11.2020
5231 Clear 6 1029 57 10000 1 300 11:57 23.11.2020
5232 Clear 5 1029 57 10000 0.5 0 11:37 23.11.2020
5233 Clouds 1 1029 66 10000 0.5 0 09:47 23.11.2020
5234 Clouds 0 1029 100 10000 1 0 08:51 23.11.2020
5235 Clouds -1 1029 100 10000 0.5 0 07:56 23.11.2020
5236 Clear 0 1028 100 10000 0.5 0 02:39 23.11.2020
5237 Clouds 0 1028 100 8000 0.5 0 23:51 22.11.2020
5238 Clear 0 1028 100 10000 0.5 0 22:23 22.11.2020
5239 Clear 1 1027 80 10000 1 300 21:24 22.11.2020
5240 Clear 1 1027 100 10000 1 130 20:20 22.11.2020
5241 Clear 1 1027 79 10000 0.21 234 19:23 22.11.2020
5242 Clear 2 1027 93 10000 0.5 0 18:23 22.11.2020
5243 Clear 5 1027 70 10000 2.1 200 16:26 22.11.2020
5244 Clear 7 1027 56 10000 1.5 0 15:25 22.11.2020
5245 Clear 7 1028 52 10000 1.5 0 13:27 22.11.2020
5246 Clear 6 1029 52 10000 1 270 12:43 22.11.2020
5247 Clear 5 1029 53 10000 1 270 11:54 22.11.2020
5248 Clear 3 1029 100 10000 1 0 10:51 22.11.2020
5249 Clear 0 1029 100 10000 1 0 10:33 22.11.2020
5250 Fog -3 1030 100 400 0.5 0 04:39 22.11.2020
5251 Fog -2 1030 100 6000 0.5 70 23:56 21.11.2020
5252 Clear -1 1031 100 6000 0.64 84 22:41 21.11.2020
5253 Clear -1 1031 100 6000 1.5 100 21:31 21.11.2020
5254 Clear -1 1031 100 9000 1 0 20:49 21.11.2020
5255 Clear -1 1031 100 7000 0.5 0 20:20 21.11.2020
5256 Clear 0 1031 100 9000 0.5 0 19:42 21.11.2020
5257 Clear 0 1031 93 10000 1 130 18:54 21.11.2020
5258 Clear 2 1030 80 10000 0.5 0 17:30 21.11.2020
5259 Clear 4 1031 65 10000 1 230 16:44 21.11.2020
5260 Clear 4 1031 60 10000 1.5 240 15:40 21.11.2020
5261 Clear 5 1031 60 10000 1.5 240 15:20 21.11.2020
5262 Clear 5 1031 68 10000 1 0 14:40 21.11.2020
5263 Clouds 3 1033 80 10000 1 0 12:44 21.11.2020
5264 Clouds 3 1033 80 10000 1 0 12:21 21.11.2020
5265 Clear 2 1033 73 10000 1 140 11:36 21.11.2020
5266 Clear 0 1033 100 8000 1 140 10:28 21.11.2020
5267 Fog -2 1033 100 200 0.5 0 08:52 21.11.2020
5268 Fog -3 1033 100 9000 1 0 08:19 21.11.2020
5269 Clear -2 1032 100 8000 1 340 05:42 21.11.2020
5270 Mist -1 1033 100 5000 0.5 0 01:59 21.11.2020
5271 Clear 0 1033 100 8000 1.5 320 00:21 21.11.2020
5272 Clear 0 1033 100 10000 0.5 0 22:43 20.11.2020
5273 Clear 1 1033 100 10000 1 0 21:44 20.11.2020
5274 Clear 1 1033 100 10000 1 0 21:44 20.11.2020
5275 Clear 1 1033 100 10000 1 0 21:21 20.11.2020
5276 Clear 2 1033 86 10000 0.5 0 19:55 20.11.2020
5277 Clouds 4 1033 80 10000 3.1 280 18:53 20.11.2020
5278 Clouds 4 1033 80 10000 3.1 340 17:58 20.11.2020
5279 Clouds 4 1032 80 10000 2.1 340 17:29 20.11.2020
5280 Clouds 5 1032 80 10000 2.6 350 16:40 20.11.2020
5281 Clouds 5 1032 75 10000 1.5 0 15:59 20.11.2020
5282 Clouds 5 1032 75 10000 2.6 350 15:34 20.11.2020
5283 Clouds 5 1031 93 10000 3.1 320 13:49 20.11.2020
5284 Clouds 5 1032 86 10000 3.1 360 13:19 20.11.2020
5285 Clouds 5 1032 81 10000 1 0 12:39 20.11.2020
5286 Clouds 5 1032 86 10000 1.5 340 11:48 20.11.2020
5287 Clouds 5 1032 86 10000 1.5 340 11:21 20.11.2020
5288 Clouds 4 1032 100 10000 1 230 09:45 20.11.2020
5289 Clouds 4 1031 100 7000 1.5 80 08:27 20.11.2020
5290 Rain 4 1031 100 10000 2.1 120 07:34 20.11.2020
5291 Clouds 4 1031 100 10000 1.5 130 03:45 20.11.2020
5292 Clouds 4 1031 86 10000 0.5 0 23:31 19.11.2020
5293 Clouds 4 1031 100 10000 1 0 22:27 19.11.2020
5294 Clouds 5 1031 80 10000 1.5 0 21:49 19.11.2020
5295 Clouds 4 1031 93 10000 1.89 236 20:41 19.11.2020
5296 Clouds 4 1031 93 10000 1.5 199 20:19 19.11.2020
5297 Clouds 4 1031 100 10000 1.5 90 19:25 19.11.2020
5298 Clouds 4 1030 86 10000 1.5 100 18:35 19.11.2020
5299 Clouds 6 1029 61 10000 3.6 280 17:18 19.11.2020
5300 Clouds 7 1028 70 10000 4.1 310 15:59 19.11.2020
5301 Clouds 8 1027 70 10000 4.6 300 15:28 19.11.2020
5302 Clouds 9 1026 93 10000 6.7 270 13:47 19.11.2020
5303 Drizzle 9 1026 100 6000 1 0 13:25 19.11.2020
5304 Rain 9 1026 100 4200 1.5 0 12:51 19.11.2020
5305 Clouds 9 1026 100 4200 1.5 0 12:25 19.11.2020
5306 Clouds 9 1025 93 10000 2.24 230 11:40 19.11.2020
5307 Rain 9 1025 100 10000 0.5 0 11:00 19.11.2020
5308 Clouds 8 1026 93 10000 0.5 0 10:28 19.11.2020
5309 Clouds 8 1026 100 10000 1.5 0 09:45 19.11.2020
5310 Clouds 8 1026 100 10000 1.5 0 09:26 19.11.2020
5311 Clouds 7 1026 100 10000 0.5 0 08:20 19.11.2020
5312 Clouds 5 1026 100 10000 2.6 320 06:49 19.11.2020
5313 Fog 4 1027 100 5000 0.5 0 01:46 19.11.2020
5314 Clear 4 1027 100 9000 0.5 0 00:29 19.11.2020
5315 Clear 5 1026 100 10000 1.5 0 23:30 18.11.2020
5316 Fog 5 1026 100 4100 0.5 0 22:40 18.11.2020
5317 Fog 5 1026 100 4100 0.5 0 22:21 18.11.2020
5318 Fog 5 1026 100 1000 1 0 21:40 18.11.2020
5319 Fog 5 1026 100 1000 1 0 21:20 18.11.2020
5320 Clear 6 1026 100 6000 0.5 0 19:50 18.11.2020
5321 Clear 6 1026 100 10000 1 0 19:28 18.11.2020
5322 Clear 5 1026 100 10000 0.5 0 18:57 18.11.2020
5323 Clear 6 1026 93 10000 1 0 18:38 18.11.2020
5324 Clear 8 1026 87 10000 0.5 0 17:37 18.11.2020
5325 Clear 8 1026 87 10000 0.5 0 17:37 18.11.2020
5326 Clear 11 1026 62 10000 1 210 16:24 18.11.2020
5327 Clear 11 1026 62 10000 1 210 15:57 18.11.2020
5328 Clear 12 1026 66 10000 1 0 14:41 18.11.2020
5329 Clear 10 1027 71 10000 1 0 13:45 18.11.2020
5330 Clear 10 1027 71 10000 1 0 13:20 18.11.2020
5331 Clear 9 1028 76 10000 1 0 12:42 18.11.2020
5332 Clear 7 1028 93 10000 0.5 0 11:35 18.11.2020
5333 Fog 5 1029 100 10000 0.5 0 10:32 18.11.2020
5334 Fog 5 1029 100 10000 0.5 0 09:57 18.11.2020
5335 Fog 1 1029 79 8000 1 0 07:54 18.11.2020
5336 Fog 0 1029 100 1000 0.5 0 06:34 18.11.2020
5337 Fog 3 1029 100 400 0.5 0 00:33 18.11.2020
5338 Fog 3 1029 100 5000 0.25 208 23:37 17.11.2020
5339 Clear 3 1029 100 10000 0.5 0 22:49 17.11.2020
5340 Clear 4 1029 100 10000 0.5 0 22:29 17.11.2020
5341 Clear 4 1029 100 10000 0.5 110 21:50 17.11.2020
5342 Clouds 4 1029 100 9000 0.5 0 21:30 17.11.2020
5343 Clear 4 1029 100 10000 1 130 20:50 17.11.2020
5344 Clear 4 1029 100 10000 1 130 20:50 17.11.2020
5345 Clouds 5 1029 81 10000 0.71 89 20:26 17.11.2020
5346 Clear 5 1029 100 10000 0.5 90 19:54 17.11.2020
5347 Clear 6 1029 93 10000 1 0 18:30 17.11.2020
5348 Clear 8 1029 76 10000 1 0 17:44 17.11.2020
5349 Clear 9 1029 76 10000 1 0 16:54 17.11.2020
5350 Clear 10 1028 62 10000 1.5 0 16:18 17.11.2020
5351 Clear 11 1028 62 10000 1.5 0 15:40 17.11.2020
5352 Clear 11 1028 62 10000 1.5 0 15:22 17.11.2020
5353 Clear 10 1028 62 10000 1.5 0 14:54 17.11.2020
5354 Clear 11 1029 62 10000 0.5 0 14:21 17.11.2020
5355 Clear 11 1029 66 10000 1 0 13:34 17.11.2020
5356 Clear 11 1030 66 10000 0.5 0 12:46 17.11.2020
5357 Clear 10 1030 70 10000 1.5 120 11:59 17.11.2020
5358 Clear 10 1030 76 10000 2.6 120 11:40 17.11.2020
5359 Clear 8 1030 100 10000 1.5 110 10:39 17.11.2020
5360 Clear 6 1030 100 10000 1.5 110 10:20 17.11.2020
5361 Clear 4 1030 100 10000 1.5 160 09:48 17.11.2020
5362 Fog 3 1029 100 10000 1 0 08:54 17.11.2020
5363 Fog 2 1029 100 10000 0.41 134 08:20 17.11.2020
5364 Fog 2 1028 100 10000 0.41 134 07:35 17.11.2020
5365 Clear 3 1028 100 10000 1 140 04:32 17.11.2020
5366 Clear 3 1027 100 10000 0.5 0 03:29 17.11.2020
5367 Clouds 4 1027 100 10000 1.5 160 02:29 17.11.2020
5368 Clouds 4 1027 100 10000 0.5 0 00:57 17.11.2020
5369 Clouds 5 1027 93 10000 0.5 0 23:57 16.11.2020
5370 Clouds 5 1027 100 10000 0.5 0 23:33 16.11.2020
5371 Clouds 5 1027 100 10000 1.5 0 22:59 16.11.2020
5372 Clouds 6 1027 93 10000 1 300 22:26 16.11.2020
5373 Clouds 6 1026 93 10000 1 10 21:56 16.11.2020
5374 Clouds 6 1026 87 10000 1 0 21:38 16.11.2020
5375 Clouds 6 1026 87 10000 1 0 21:19 16.11.2020
5376 Clouds 7 1026 81 10000 1 0 20:26 16.11.2020
5377 Clouds 7 1025 81 10000 2.1 300 19:53 16.11.2020
5378 Clouds 7 1025 81 10000 1 0 19:29 16.11.2020
5379 Clouds 8 1025 76 10000 1 0 18:50 16.11.2020
5380 Clouds 8 1024 76 10000 3.6 260 18:18 16.11.2020
5381 Clouds 9 1023 71 10000 5.7 280 17:28 16.11.2020
5382 Clouds 9 1023 71 10000 3.6 290 16:57 16.11.2020
5383 Clouds 9 1023 66 10000 1.5 310 16:39 16.11.2020
5384 Clouds 9 1023 66 10000 1.5 310 16:20 16.11.2020
5385 Clouds 10 1022 62 10000 4.1 240 15:43 16.11.2020
5386 Clouds 11 1022 62 10000 4.1 240 15:25 16.11.2020
5387 Clouds 11 1022 71 10000 3.1 260 14:47 16.11.2020
5388 Clouds 10 1022 87 10000 2.1 290 13:40 16.11.2020
5389 Clouds 11 1022 66 10000 3.1 270 12:45 16.11.2020
5390 Clouds 11 1022 66 10000 3.1 270 12:45 16.11.2020
5391 Clouds 10 1022 66 10000 3.1 270 12:45 16.11.2020
5392 Clouds 11 1022 66 10000 3.1 270 12:45 16.11.2020
5393 Clouds 10 1022 66 10000 3.1 270 12:25 16.11.2020
5394 Clouds 10 1021 66 10000 3.1 280 11:38 16.11.2020
5395 Clouds 9 1021 71 10000 1 0 11:20 16.11.2020
5396 Clouds 9 1021 76 10000 2.1 200 10:42 16.11.2020
5397 Clouds 9 1021 76 10000 2.1 200 10:24 16.11.2020
5398 Clouds 8 1020 76 10000 2.1 190 09:43 16.11.2020
5399 Clouds 8 1020 76 10000 2.1 190 09:22 16.11.2020
5400 Clouds 8 1020 100 10000 1 70 08:40 16.11.2020
5401 Clouds 7 1019 100 10000 1 0 07:44 16.11.2020
5402 Clouds 7 1019 100 10000 1 0 06:50 16.11.2020
5403 Clouds 7 1018 81 10000 1 0 05:57 16.11.2020
5404 Rain 8 1017 81 10000 4.1 260 04:37 16.11.2020
5405 Rain 10 1015 87 10000 4.1 150 02:29 16.11.2020
5406 Rain 11 1015 87 10000 5.7 180 01:41 16.11.2020
5407 Rain 10 1015 100 10000 4.6 330 23:54 15.11.2020
5408 Rain 12 1015 87 10000 3.6 310 23:22 15.11.2020
5409 Rain 12 1015 82 9000 4.6 290 22:48 15.11.2020
5410 Rain 12 1014 82 9000 5.1 280 22:21 15.11.2020
5411 Rain 11 1014 100 10000 2.6 320 21:44 15.11.2020
5412 Rain 11 1014 100 10000 2.6 320 21:24 15.11.2020
5413 Rain 9 1013 100 10000 1 0 20:41 15.11.2020
5414 Clear 9 1013 87 10000 1 0 20:19 15.11.2020
5415 Clear 9 1013 87 10000 1 0 19:48 15.11.2020
5416 Clear 9 1013 87 10000 1.5 0 19:22 15.11.2020
5417 Clear 8 1013 93 10000 1.5 0 18:57 15.11.2020
5418 Clear 8 1013 93 10000 1 0 18:39 15.11.2020
5419 Clear 8 1013 93 10000 1 0 18:19 15.11.2020
5420 Clear 9 1013 76 10000 1.5 0 17:44 15.11.2020
5421 Clear 10 1013 76 10000 1.5 0 17:24 15.11.2020
5422 Clear 11 1013 71 10000 1 180 16:46 15.11.2020
5423 Clear 12 1013 71 10000 1 180 16:21 15.11.2020
5424 Clear 13 1014 62 10000 1 230 15:50 15.11.2020
5425 Clear 14 1014 51 10000 1 0 15:28 15.11.2020
5426 Clear 14 1014 54 10000 1 270 14:58 15.11.2020
5427 Clear 13 1014 58 10000 1.5 300 14:30 15.11.2020
5428 Clear 13 1015 62 10000 2.6 310 13:56 15.11.2020
5429 Clear 13 1015 66 10000 1.5 0 13:36 15.11.2020
5430 Clear 13 1016 71 10000 0.58 296 12:51 15.11.2020
5431 Clear 12 1016 66 10000 1 0 12:23 15.11.2020
5432 Clouds 11 1017 81 10000 2.1 140 11:46 15.11.2020
5433 Clouds 11 1017 81 10000 2.1 140 11:20 15.11.2020
5434 Clear 9 1018 93 10000 1 0 10:54 15.11.2020
5435 Clouds 8 1018 100 10000 2.1 120 10:32 15.11.2020
5436 Clouds 6 1019 100 10000 3.1 110 09:58 15.11.2020
5437 Clouds 5 1019 100 10000 1.5 130 09:40 15.11.2020
5438 Clouds 5 1019 100 10000 2.1 130 09:18 15.11.2020
5439 Clouds 4 1019 100 10000 1 0 08:46 15.11.2020
5440 Clouds 3 1019 73 10000 1 0 07:47 15.11.2020
5441 Clouds 4 1019 100 5000 0.5 0 06:50 15.11.2020
5442 Clear 5 1019 100 10000 1 0 04:57 15.11.2020
5443 Clouds 5 1021 100 8000 0.5 0 02:31 15.11.2020
5444 Clear 3 1020 100 10000 1.5 110 00:42 15.11.2020
5445 Clear 4 1020 100 10000 1.5 110 00:24 15.11.2020
5446 Clear 3 1021 100 10000 1 140 23:30 14.11.2020
5447 Clear 4 1020 100 9000 0.5 0 22:46 14.11.2020
5448 Clear 4 1020 100 9000 0.5 0 22:27 14.11.2020
5449 Clear 4 1020 100 10000 0.5 0 21:40 14.11.2020
5450 Clear 5 1020 100 10000 0.5 0 21:21 14.11.2020
5451 Clear 5 1020 100 7000 0.81 190 20:48 14.11.2020
5452 Clear 6 1020 100 10000 0.5 0 20:26 14.11.2020
5453 Clear 6 1020 100 10000 0.5 0 19:46 14.11.2020
5454 Clear 6 1020 93 10000 0.5 170 19:28 14.11.2020
5455 Clear 7 1019 93 10000 1.01 167 18:43 14.11.2020
5456 Clear 8 1019 87 10000 0.86 176 18:23 14.11.2020
5457 Clear 8 1019 87 10000 0.86 176 17:49 14.11.2020
5458 Clear 10 1019 81 10000 0.68 204 17:31 14.11.2020
5459 Clear 11 1019 62 10000 2.1 240 16:56 14.11.2020
5460 Clear 11 1019 66 10000 2.1 230 16:36 14.11.2020
5461 Clear 12 1019 58 10000 1 280 16:18 14.11.2020
5462 Clear 13 1020 54 10000 1.5 300 15:44 14.11.2020
5463 Clear 13 1020 58 10000 2.1 310 15:18 14.11.2020
5464 Clear 14 1020 58 10000 2.1 300 14:38 14.11.2020
5465 Clear 14 1020 58 10000 2.1 300 14:20 14.11.2020
5466 Clear 13 1021 62 10000 1.5 0 13:40 14.11.2020
5467 Clear 13 1021 66 10000 1 0 13:21 14.11.2020
5468 Clear 12 1022 71 10000 1 0 12:43 14.11.2020
5469 Clear 12 1022 71 10000 1 0 12:23 14.11.2020
5470 Clear 11 1022 81 10000 0.5 0 11:41 14.11.2020
5471 Clear 10 1022 100 10000 0.5 0 11:22 14.11.2020
5472 Clear 9 1023 100 10000 0.5 0 10:41 14.11.2020
5473 Clear 8 1023 100 10000 0.5 0 10:23 14.11.2020
5474 Clear 7 1023 100 10000 1 0 09:45 14.11.2020
5475 Clear 6 1023 100 10000 1 0 09:27 14.11.2020
5476 Clouds 5 1023 100 10000 0.8 181 08:48 14.11.2020
5477 Fog 3 1023 100 10000 1.5 150 08:23 14.11.2020
5478 Clear 5 1023 100 10000 0.5 0 07:42 14.11.2020
5479 Clouds 3 1023 100 10000 0.5 0 07:21 14.11.2020
5480 Fog 5 1023 100 5000 0.5 0 06:29 14.11.2020
5481 Clouds 2 1023 100 6000 1 120 05:18 14.11.2020
5482 Clouds 4 1023 100 6000 0.5 0 03:28 14.11.2020
5483 Clouds 6 1023 100 10000 0.5 0 00:43 14.11.2020
5484 Fog 6 1023 100 5000 0.5 0 23:38 13.11.2020
5485 Fog 5 1023 100 5000 0.5 0 23:20 13.11.2020
5486 Fog 6 1023 100 7000 0.5 0 22:42 13.11.2020
5487 Fog 6 1023 100 7000 0.5 0 22:23 13.11.2020
5488 Mist 6 1023 100 4300 1.05 179 21:51 13.11.2020
5489 Mist 6 1023 100 4400 1 0 21:29 13.11.2020
5490 Clear 7 1022 100 10000 0.5 0 20:55 13.11.2020
5491 Clear 7 1022 100 10000 0.98 179 20:37 13.11.2020
5492 Clouds 7 1022 100 10000 1 280 20:18 13.11.2020
5493 Clouds 7 1022 100 10000 1.04 176 19:44 13.11.2020
5494 Clouds 7 1022 100 10000 1.04 176 19:44 13.11.2020
5495 Clouds 7 1022 100 10000 0.74 198 19:22 13.11.2020
5496 Clouds 8 1022 100 10000 0.5 0 18:49 13.11.2020
5497 Clouds 8 1022 93 10000 0.45 125 17:59 13.11.2020
5498 Clouds 9 1021 81 10000 0.45 125 17:36 13.11.2020
5499 Clouds 10 1021 76 10000 0.55 110 17:18 13.11.2020
5500 Clouds 11 1021 66 10000 1 230 16:42 13.11.2020
5501 Clouds 11 1021 66 10000 1 230 16:21 13.11.2020
5502 Clouds 13 1021 58 10000 1 0 15:41 13.11.2020
5503 Clouds 13 1021 58 10000 1 0 15:22 13.11.2020
5504 Clouds 13 1021 58 10000 2.1 310 14:39 13.11.2020
5505 Clear 13 1022 66 10000 1.5 260 14:19 13.11.2020
5506 Clear 13 1022 62 10000 1 0 13:37 13.11.2020
5507 Clouds 12 1023 66 10000 1 0 13:18 13.11.2020
5508 Clouds 12 1023 71 10000 1 0 12:43 13.11.2020
5509 Clouds 12 1023 71 10000 1 0 12:24 13.11.2020
5510 Clouds 11 1023 81 10000 1.03 281 11:48 13.11.2020
5511 Clouds 10 1023 81 10000 0.76 255 11:24 13.11.2020
5512 Clouds 10 1023 93 10000 0.5 0 10:54 13.11.2020
5513 Clouds 7 1023 87 10000 1.5 310 10:34 13.11.2020
5514 Clouds 6 1023 93 10000 1 0 09:53 13.11.2020
5515 Clouds 6 1023 100 10000 1.5 0 09:32 13.11.2020
5516 Clouds 6 1023 100 10000 1.5 0 09:32 13.11.2020
5517 Clouds 5 1023 100 10000 1.16 198 08:55 13.11.2020
5518 Clouds 3 1023 100 10000 0.5 0 08:32 13.11.2020
5519 Clouds 4 1023 100 10000 0.5 0 07:55 13.11.2020
5520 Clouds 4 1023 100 10000 0.5 0 07:36 13.11.2020
5521 Clouds 4 1023 100 10000 0.5 0 07:18 13.11.2020
5522 Clear 3 1023 100 10000 0.5 0 06:37 13.11.2020
5523 Clear 3 1022 100 10000 1.5 130 05:42 13.11.2020
5524 Clear 3 1023 100 10000 0.5 0 04:39 13.11.2020
5525 Clear 5 1023 100 10000 1 0 01:43 13.11.2020
5526 Clear 5 1023 100 10000 0.5 0 00:37 13.11.2020
5527 Clear 5 1023 100 10000 1 0 23:59 12.11.2020
5528 Clear 6 1023 100 10000 0.5 0 23:36 12.11.2020
5529 Clear 6 1023 100 10000 1.5 130 23:18 12.11.2020
5530 Clear 6 1023 100 10000 0.5 0 22:41 12.11.2020
5531 Clear 7 1023 100 10000 0.5 0 22:20 12.11.2020
5532 Clear 7 1022 100 10000 2.1 90 21:41 12.11.2020
5533 Clear 7 1022 100 10000 2.1 90 21:23 12.11.2020
5534 Clouds 8 1023 87 10000 2.6 120 20:45 12.11.2020
5535 Clouds 8 1023 87 10000 2.6 120 20:25 12.11.2020
5536 Clouds 9 1023 87 10000 3.1 120 19:58 12.11.2020
5537 Clouds 9 1023 87 10000 1 0 19:40 12.11.2020
5538 Clouds 9 1023 87 10000 1 0 19:21 12.11.2020
5539 Clouds 9 1022 81 10000 0.5 0 18:48 12.11.2020
5540 Clear 10 1022 81 10000 0.5 0 18:20 12.11.2020
5541 Clouds 11 1022 66 10000 1.5 140 17:43 12.11.2020
5542 Clouds 12 1022 66 10000 1.5 140 17:25 12.11.2020
5543 Clouds 14 1022 58 10000 1.5 0 16:46 12.11.2020
5544 Clouds 14 1022 58 10000 1.5 0 16:46 12.11.2020
5545 Clouds 14 1022 58 10000 1.5 0 16:24 12.11.2020
5546 Clouds 14 1022 51 10000 1.5 0 15:56 12.11.2020
5547 Clouds 14 1022 54 10000 1.5 0 15:31 12.11.2020
5548 Clouds 15 1022 62 10000 1.5 320 14:57 12.11.2020
5549 Clear 15 1022 62 10000 1 0 14:38 12.11.2020
5550 Clear 15 1022 62 10000 0.5 0 14:20 12.11.2020
5551 Clear 14 1023 62 10000 0.5 0 13:45 12.11.2020
5552 Clear 14 1023 62 10000 0.5 0 13:21 12.11.2020
5553 Clear 14 1023 66 10000 1 0 12:50 12.11.2020
5554 Clear 13 1023 71 10000 1.5 0 12:28 12.11.2020
5555 Clear 13 1024 71 10000 2.1 150 11:59 12.11.2020
5556 Clear 13 1024 76 10000 1.5 130 11:40 12.11.2020
5557 Clear 12 1024 81 10000 2.1 130 10:58 12.11.2020
5558 Clear 12 1024 87 10000 2.1 100 10:38 12.11.2020
5559 Clear 9 1024 87 10000 2.1 100 10:19 12.11.2020
5560 Clouds 7 1024 100 10000 2.6 100 09:40 12.11.2020
5561 Clouds 7 1023 93 10000 2.6 100 09:18 12.11.2020
5562 Clouds 6 1023 93 10000 2.1 110 08:40 12.11.2020
5563 Clouds 6 1023 93 10000 2.1 110 08:40 12.11.2020
5564 Clouds 6 1023 93 10000 2.1 110 08:21 12.11.2020
5565 Clear 6 1023 100 10000 3.1 100 07:56 12.11.2020
5566 Clouds 6 1023 93 10000 3.1 110 07:37 12.11.2020
5567 Clouds 6 1023 100 10000 1.5 70 06:54 12.11.2020
5568 Clouds 6 1022 93 10000 3.6 110 06:27 12.11.2020
5569 Clouds 8 1022 93 10000 3.1 130 03:50 12.11.2020
5570 Clouds 8 1022 93 10000 3.1 140 03:20 12.11.2020
5571 Clouds 9 1023 87 10000 1.5 140 00:45 12.11.2020
5572 Clouds 8 1023 87 10000 2.6 270 23:45 11.11.2020
5573 Clouds 8 1023 87 10000 2.6 270 23:25 11.11.2020
5574 Clouds 8 1023 87 10000 3.1 260 22:48 11.11.2020
5575 Clouds 8 1023 87 10000 2.6 280 22:24 11.11.2020
5576 Clouds 8 1023 87 10000 1 0 21:59 11.11.2020
5577 Clouds 8 1023 87 10000 1.5 0 21:40 11.11.2020
5578 Clouds 9 1023 87 10000 1.5 0 21:20 11.11.2020
5579 Clouds 9 1023 87 10000 1 0 20:54 11.11.2020
5580 Clouds 9 1023 81 10000 0.5 0 20:36 11.11.2020
5581 Clouds 9 1023 87 10000 0.5 0 20:18 11.11.2020
5582 Clouds 9 1023 87 10000 2.1 320 19:41 11.11.2020
5583 Clouds 9 1023 87 10000 2.1 320 19:22 11.11.2020
5584 Clouds 9 1023 81 10000 1.5 260 18:45 11.11.2020
5585 Clouds 9 1023 81 10000 1.5 260 18:26 11.11.2020
5586 Clouds 9 1023 87 10000 1.5 300 17:41 11.11.2020
5587 Clouds 9 1023 87 10000 1.5 300 17:21 11.11.2020
5588 Clouds 9 1023 87 10000 2.6 290 16:44 11.11.2020
5589 Clouds 10 1023 87 10000 2.6 290 16:25 11.11.2020
5590 Clouds 10 1023 87 10000 2.6 310 15:44 11.11.2020
5591 Clouds 10 1023 87 10000 2.6 310 15:24 11.11.2020
5592 Clouds 10 1023 87 10000 2.1 340 14:51 11.11.2020
5593 Clouds 11 1024 87 10000 2.6 310 14:31 11.11.2020
5594 Clouds 12 1024 87 10000 2.1 300 13:50 11.11.2020
5595 Clouds 11 1024 93 6000 1.5 0 13:32 11.11.2020
5596 Clouds 10 1025 100 6000 1 0 12:38 11.11.2020
5597 Clouds 10 1025 100 6000 1 0 12:20 11.11.2020
5598 Mist 9 1026 100 4000 1.5 140 11:47 11.11.2020
5599 Mist 7 1026 100 4000 1.5 140 11:25 11.11.2020
5600 Clouds 6 1026 100 2000 1.5 120 10:39 11.11.2020
5601 Clouds 7 1026 100 2000 1.5 120 10:20 11.11.2020
5602 Mist 6 1026 100 2000 2.6 110 09:44 11.11.2020
5603 Mist 6 1026 100 2000 2.6 110 09:24 11.11.2020
5604 Mist 6 1026 100 2800 2.1 150 08:46 11.11.2020
5605 Mist 6 1026 100 2800 2.1 150 08:27 11.11.2020
5606 Mist 5 1026 100 2700 2.6 160 07:49 11.11.2020
5607 Mist 5 1027 100 3900 1 100 06:33 11.11.2020
5608 Clouds 5 1027 100 6000 1 130 05:59 11.11.2020
5609 Fog 5 1028 100 450 1.5 230 02:48 11.11.2020
5610 Fog 6 1027 100 200 1 0 00:59 11.11.2020
5611 Fog 6 1027 100 200 0.5 0 00:26 11.11.2020
5612 Fog 6 1027 100 250 0.5 0 23:42 10.11.2020
5613 Fog 6 1027 100 250 0.5 0 23:23 10.11.2020
5614 Fog 6 1027 100 350 1 0 22:52 10.11.2020
5615 Fog 6 1027 100 400 1 0 22:27 10.11.2020
5616 Fog 6 1027 100 650 1.5 330 21:44 10.11.2020
5617 Fog 6 1027 100 650 1.5 330 21:25 10.11.2020
5618 Fog 6 1027 100 250 1.5 340 20:58 10.11.2020
5619 Fog 6 1027 100 200 0.5 0 20:40 10.11.2020
5620 Fog 7 1027 100 300 1 0 20:22 10.11.2020
5621 Fog 7 1027 100 300 1 0 19:47 10.11.2020
5622 Fog 7 1027 100 450 1 0 19:28 10.11.2020
5623 Mist 7 1027 100 1800 3.1 300 18:57 10.11.2020
5624 Mist 7 1026 100 1500 2.1 340 18:39 10.11.2020
5625 Mist 7 1026 100 2000 2.6 340 18:18 10.11.2020
5626 Clouds 8 1026 93 6000 2.6 330 17:42 10.11.2020
5627 Clouds 8 1026 93 6000 2.6 330 17:24 10.11.2020
5628 Clear 10 1026 87 10000 2.6 350 16:43 10.11.2020
5629 Clear 11 1026 87 10000 2.6 350 16:24 10.11.2020
5630 Clear 11 1025 87 10000 3.1 340 15:55 10.11.2020
5631 Clear 12 1025 81 10000 2.6 330 15:37 10.11.2020
5632 Clear 12 1025 81 10000 2.6 330 15:19 10.11.2020
5633 Clear 12 1026 81 10000 3.6 310 14:41 10.11.2020
5634 Clear 12 1026 81 10000 3.6 310 14:21 10.11.2020
5635 Clear 12 1026 87 10000 3.1 310 13:41 10.11.2020
5636 Clear 12 1026 87 10000 3.1 310 13:23 10.11.2020
5637 Clear 12 1026 81 10000 3.1 320 12:58 10.11.2020
5638 Clouds 10 1026 100 10000 1 0 12:38 10.11.2020
5639 Clouds 9 1026 100 10000 1 0 12:20 10.11.2020
5640 Clouds 8 1026 100 6000 1 0 11:38 10.11.2020
5641 Clouds 8 1026 100 6000 1 0 11:19 10.11.2020
5642 Fog 8 1026 100 350 2.1 310 10:42 10.11.2020
5643 Fog 7 1026 100 350 2.1 310 10:24 10.11.2020
5644 Fog 7 1026 100 200 0.5 0 09:49 10.11.2020
5645 Fog 5 1026 100 200 0.5 0 09:26 10.11.2020
5646 Fog 4 1026 100 200 0.5 0 08:57 10.11.2020
5647 Fog 4 1026 100 150 0.46 156 08:30 10.11.2020
5648 Fog 4 1026 100 100 1 170 07:47 10.11.2020
5649 Fog 4 1025 100 150 1 170 07:26 10.11.2020
5650 Fog 4 1025 100 150 1 160 06:58 10.11.2020
5651 Fog 4 1025 100 150 1 180 06:37 10.11.2020
5652 Fog 5 1025 100 150 1 0 05:27 10.11.2020
5653 Fog 5 1025 100 300 1 0 02:57 10.11.2020
5654 Fog 5 1025 100 200 0.51 166 01:38 10.11.2020
5655 Fog 5 1025 100 250 0.5 0 00:24 10.11.2020
5656 Fog 5 1025 100 350 0.5 0 23:42 09.11.2020
5657 Fog 5 1025 100 150 0.5 0 22:57 09.11.2020
5658 Fog 5 1025 100 5000 0.5 0 22:38 09.11.2020
5659 Fog 5 1025 100 5000 0.5 0 22:19 09.11.2020
5660 Fog 6 1025 100 3600 1 330 21:39 09.11.2020
5661 Fog 5 1025 100 3600 1 330 21:20 09.11.2020
5662 Clear 7 1024 100 6000 0.5 0 20:41 09.11.2020
5663 Clear 7 1024 100 6000 0.5 0 20:21 09.11.2020
5664 Clear 7 1024 100 10000 1 140 19:43 09.11.2020
5665 Clear 8 1024 100 10000 1 140 19:23 09.11.2020
5666 Clear 8 1024 100 10000 1 90 18:56 09.11.2020
5667 Clear 8 1024 100 10000 1 90 18:56 09.11.2020
5668 Clear 8 1024 100 10000 0.5 0 18:37 09.11.2020
5669 Clear 9 1023 93 10000 1 290 18:18 09.11.2020
5670 Clear 10 1023 76 10000 2.1 290 17:43 09.11.2020
5671 Clear 10 1023 76 10000 2.1 290 17:24 09.11.2020
5672 Clear 12 1023 72 10000 3.1 280 16:41 09.11.2020
5673 Clear 13 1023 67 10000 2.6 280 16:20 09.11.2020
5674 Clear 13 1023 63 10000 3.1 310 15:44 09.11.2020
5675 Clear 14 1023 63 10000 3.1 310 15:25 09.11.2020
5676 Clear 14 1023 67 10000 1 0 14:46 09.11.2020
5677 Clear 14 1023 67 10000 1 0 14:28 09.11.2020
5678 Clear 14 1024 62 10000 1 0 13:52 09.11.2020
5679 Clear 13 1024 66 10000 1 200 13:24 09.11.2020
5680 Clear 14 1024 71 10000 1 190 12:57 09.11.2020
5681 Clear 13 1024 71 10000 1.5 0 12:37 09.11.2020
5682 Clear 12 1025 76 10000 0.5 0 12:19 09.11.2020
5683 Clear 11 1025 87 10000 1 130 11:41 09.11.2020
5684 Clear 11 1025 87 10000 1 130 11:22 09.11.2020
5685 Fog 9 1025 100 10000 0.6 328 10:43 09.11.2020
5686 Fog 9 1025 100 10000 0.34 313 10:25 09.11.2020
5687 Fog 8 1025 100 8000 0.34 313 09:52 09.11.2020
5688 Fog 6 1025 100 3000 0.33 142 09:28 09.11.2020
5689 Fog 4 1025 100 150 0.5 0 08:45 09.11.2020
5690 Fog 4 1025 100 150 0.5 0 08:26 09.11.2020
5691 Fog 3 1024 100 1000 1 0 07:41 09.11.2020
5692 Fog 4 1024 100 1000 1 0 07:21 09.11.2020
5693 Fog 4 1024 100 200 0.5 0 06:48 09.11.2020
5694 Mist 6 1024 100 750 0.5 0 03:49 09.11.2020
5695 Clouds 6 1024 100 10000 1 0 01:55 09.11.2020
5696 Clear 6 1024 100 7000 0.5 0 01:37 09.11.2020
5697 Clouds 7 1024 100 10000 1 0 23:55 08.11.2020
5698 Clouds 7 1024 100 10000 0.53 207 23:37 08.11.2020
5699 Clouds 7 1024 100 9000 0.5 260 23:18 08.11.2020
5700 Clouds 7 1024 100 10000 1 0 22:41 08.11.2020
5701 Clouds 7 1024 100 10000 1 0 22:20 08.11.2020
5702 Clouds 7 1024 100 7000 0.5 0 21:42 08.11.2020
5703 Clouds 7 1024 100 10000 0.5 0 21:20 08.11.2020
5704 Clouds 7 1024 100 10000 0.5 0 20:55 08.11.2020
5705 Clouds 8 1024 100 10000 2.1 90 20:36 08.11.2020
5706 Clouds 8 1024 100 10000 2.6 90 20:18 08.11.2020
5707 Clouds 8 1024 100 10000 1 0 19:42 08.11.2020
5708 Clouds 9 1024 100 10000 1 0 19:21 08.11.2020
5709 Clouds 9 1024 93 10000 0.5 0 18:48 08.11.2020
5710 Clouds 9 1024 93 10000 0.5 0 18:48 08.11.2020
5711 Clouds 10 1024 87 10000 0.5 0 18:22 08.11.2020
5712 Clouds 10 1023 87 10000 1.5 290 17:58 08.11.2020
5713 Clouds 10 1023 87 10000 1.5 290 17:58 08.11.2020
5714 Clear 10 1023 81 10000 2.1 290 17:38 08.11.2020
5715 Clear 11 1024 76 10000 2.1 300 17:19 08.11.2020
5716 Clear 11 1024 76 10000 2.1 300 16:48 08.11.2020
5717 Clear 12 1024 71 10000 1 340 16:22 08.11.2020
5718 Clear 12 1023 67 10000 1.5 320 15:58 08.11.2020
5719 Clear 13 1023 62 10000 1.5 310 15:40 08.11.2020
5720 Clear 14 1023 62 10000 1.5 310 15:21 08.11.2020
5721 Clear 14 1024 62 10000 2.1 80 14:41 08.11.2020
5722 Clear 14 1024 62 10000 2.1 80 14:21 08.11.2020
5723 Clear 14 1024 71 10000 2.1 340 13:46 08.11.2020
5724 Clear 13 1025 76 10000 3.1 320 13:23 08.11.2020
5725 Clear 13 1025 76 10000 3.1 320 13:23 08.11.2020
5726 Clouds 12 1025 87 10000 1 0 12:44 08.11.2020
5727 Clouds 12 1025 87 10000 1 0 12:25 08.11.2020
5728 Clouds 11 1025 100 10000 2.1 310 11:58 08.11.2020
5729 Clouds 10 1026 100 8000 2.1 280 11:39 08.11.2020
5730 Clouds 10 1026 100 8000 2.1 280 11:20 08.11.2020
5731 Mist 10 1025 100 2500 1 0 10:50 08.11.2020
5732 Mist 9 1025 100 2500 1 0 10:19 08.11.2020
5733 Clouds 7 1025 100 1500 1.5 0 09:44 08.11.2020
5734 Clouds 6 1025 100 1500 1.5 0 09:24 08.11.2020
5735 Fog 6 1025 100 300 3.6 90 08:58 08.11.2020
5736 Rain 5 1025 100 500 4.1 90 08:39 08.11.2020
5737 Rain 5 1025 100 500 4.1 90 08:39 08.11.2020
5738 Mist 5 1025 100 1300 4.1 100 08:18 08.11.2020
5739 Mist 5 1025 100 1300 4.1 100 07:51 08.11.2020
5740 Fog 5 1025 100 400 2.6 120 07:21 08.11.2020
5741 Fog 5 1025 100 250 1.5 110 05:56 08.11.2020
5742 Fog 5 1025 100 200 2.1 150 05:31 08.11.2020
5743 Fog 6 1025 100 200 0.5 0 04:18 08.11.2020
5744 Fog 6 1025 100 250 0.5 0 01:50 08.11.2020
5745 Fog 6 1025 100 3700 1 200 01:18 08.11.2020
5746 Fog 6 1025 100 2100 0.5 0 00:27 08.11.2020
5747 Fog 6 1025 100 2100 0.5 0 00:27 08.11.2020
5748 Fog 6 1025 100 550 1.5 0 23:46 07.11.2020
5749 Fog 6 1025 100 550 1.5 0 23:28 07.11.2020
5750 Fog 6 1025 100 250 2.6 310 22:43 07.11.2020
5751 Fog 6 1025 100 200 2.1 310 22:25 07.11.2020
5752 Fog 6 1025 100 250 0.5 0 21:46 07.11.2020
5753 Fog 6 1025 100 250 0.5 0 21:22 07.11.2020
5754 Fog 6 1025 100 350 1.5 330 20:55 07.11.2020
5755 Mist 6 1025 100 3000 2.1 290 20:36 07.11.2020
5756 Clouds 7 1025 100 8000 2.6 310 20:18 07.11.2020
5757 Clouds 7 1025 100 6000 1 330 19:41 07.11.2020
5758 Clouds 7 1025 100 6000 1 330 19:22 07.11.2020
5759 Clouds 7 1025 100 10000 0.5 0 18:39 07.11.2020
5760 Clouds 7 1025 100 10000 0.5 0 18:21 07.11.2020
5761 Clouds 8 1025 87 10000 0.5 0 17:46 07.11.2020
5762 Clouds 9 1025 87 10000 0.5 0 17:26 07.11.2020
5763 Clouds 9 1025 87 10000 1.5 290 16:44 07.11.2020
5764 Clouds 10 1025 87 10000 1.5 290 16:24 07.11.2020
5765 Clear 11 1025 81 10000 2.1 310 15:48 07.11.2020
5766 Clear 10 1025 81 10000 2.6 290 15:24 07.11.2020
5767 Clear 11 1025 81 10000 1 0 14:58 07.11.2020
5768 Clear 11 1025 81 10000 1 0 14:58 07.11.2020
5769 Clouds 10 1025 100 10000 1 0 14:40 07.11.2020
5770 Clouds 9 1026 100 9000 0.87 19 14:19 07.11.2020
5771 Mist 9 1026 100 4000 0.5 0 13:39 07.11.2020
5772 Mist 9 1026 100 4000 0.5 0 13:21 07.11.2020
5773 Mist 9 1027 100 3000 0.68 343 12:35 07.11.2020
5774 Mist 9 1027 100 3000 0.68 343 12:35 07.11.2020
5775 Clouds 8 1027 100 2000 0.5 0 11:46 07.11.2020
5776 Clouds 8 1027 100 2000 0.5 0 11:25 07.11.2020
5777 Clouds 8 1027 100 1500 0.5 0 10:57 07.11.2020
5778 Mist 6 1028 100 1500 1 0 10:39 07.11.2020
5779 Fog 6 1028 100 650 1 0 10:20 07.11.2020
5780 Fog 8 1028 100 500 0.31 358 09:47 07.11.2020
5781 Fog 5 1028 100 500 0.08 118 09:21 07.11.2020
5782 Mist 5 1028 100 1000 1.5 250 08:47 07.11.2020
5783 Mist 5 1028 100 1000 1.5 250 08:28 07.11.2020
5784 Mist 5 1027 100 1400 2.1 240 07:48 07.11.2020
5785 Mist 5 1028 100 2600 1 0 06:50 07.11.2020
5786 Mist 5 1028 100 2600 0.5 0 05:48 07.11.2020
5787 Mist 5 1028 100 2900 0.5 0 03:26 07.11.2020
5788 Fog 5 1028 100 650 0.5 170 02:38 07.11.2020
5789 Fog 5 1029 100 450 1.5 150 01:27 07.11.2020
5790 Fog 5 1029 100 450 1.5 150 01:27 07.11.2020
5791 Fog 4 1029 100 400 1 100 00:37 07.11.2020
5792 Fog 4 1029 100 400 0.5 0 23:39 06.11.2020
5793 Fog 4 1029 100 6000 1 0 23:18 06.11.2020
5794 Fog 4 1029 100 5000 0.54 96 22:40 06.11.2020
5795 Fog 4 1029 100 2900 0.5 0 22:18 06.11.2020
5796 Fog 5 1029 100 7000 1 0 21:42 06.11.2020
5797 Fog 5 1029 100 7000 1 0 21:20 06.11.2020
5798 Clear 5 1029 100 10000 0.52 98 20:45 06.11.2020
5799 Clear 6 1029 100 10000 0.64 88 20:20 06.11.2020
5800 Clear 6 1029 100 10000 0.64 88 20:20 06.11.2020
5801 Clear 6 1029 100 10000 1.5 90 19:45 06.11.2020
5802 Clear 6 1029 100 10000 1.5 90 19:27 06.11.2020
5803 Clear 6 1029 100 10000 2.1 100 18:57 06.11.2020
5804 Clear 7 1029 93 10000 2.1 110 18:39 06.11.2020
5805 Clear 7 1029 93 10000 2.1 100 18:19 06.11.2020
5806 Clear 8 1029 87 10000 2.1 140 17:46 06.11.2020
5807 Clear 8 1029 87 10000 2.1 140 17:24 06.11.2020
5808 Clear 9 1029 76 10000 2.1 150 16:43 06.11.2020
5809 Clear 10 1029 76 10000 2.1 150 16:22 06.11.2020
5810 Clouds 10 1030 76 10000 2.1 200 15:47 06.11.2020
5811 Clouds 10 1030 76 10000 2.1 200 15:26 06.11.2020
5812 Clouds 11 1030 81 10000 2.1 130 14:50 06.11.2020
5813 Clouds 11 1031 81 10000 3.1 140 14:23 06.11.2020
5814 Clouds 11 1031 76 10000 2.6 130 13:42 06.11.2020
5815 Clouds 11 1031 81 10000 2.6 150 13:21 06.11.2020
5816 Clouds 11 1031 81 10000 3.1 160 12:43 06.11.2020
5817 Clouds 9 1031 81 10000 3.1 160 12:23 06.11.2020
5818 Clouds 8 1032 87 10000 3.1 160 11:40 06.11.2020
5819 Clouds 8 1031 87 10000 2.6 140 11:21 06.11.2020
5820 Clouds 8 1031 87 10000 2.1 140 10:37 06.11.2020
5821 Clouds 8 1031 87 10000 2.6 160 10:18 06.11.2020
5822 Clouds 8 1031 87 10000 2.1 160 09:44 06.11.2020
5823 Clouds 7 1031 87 10000 2.6 200 09:21 06.11.2020
5824 Clouds 7 1031 87 10000 2.1 200 08:48 06.11.2020
5825 Clouds 7 1031 87 10000 2.1 200 08:28 06.11.2020
5826 Clouds 8 1031 87 10000 1 0 07:46 06.11.2020
5827 Clouds 8 1031 87 10000 1 0 07:27 06.11.2020
5828 Clouds 8 1031 87 10000 1 0 06:48 06.11.2020
5829 Clouds 8 1031 87 10000 1.5 150 05:42 06.11.2020
5830 Clouds 8 1032 87 10000 1 110 02:53 06.11.2020
5831 Clouds 8 1032 93 10000 0.5 0 00:43 06.11.2020
5832 Clouds 8 1032 93 10000 0.5 0 00:18 06.11.2020
5833 Clouds 8 1032 93 10000 0.5 30 23:26 05.11.2020
5834 Clouds 8 1032 93 10000 1 0 22:50 05.11.2020
5835 Clouds 8 1032 93 10000 1 0 22:50 05.11.2020
5836 Clouds 8 1032 93 10000 1 0 22:26 05.11.2020
5837 Clouds 8 1032 87 10000 0.5 0 21:59 05.11.2020
5838 Clouds 8 1032 87 10000 1 0 21:41 05.11.2020
5839 Clouds 8 1032 87 10000 1 0 21:21 05.11.2020
5840 Clouds 8 1032 87 10000 1 0 20:44 05.11.2020
5841 Clouds 8 1032 87 10000 1 0 20:25 05.11.2020
5842 Clouds 8 1032 81 10000 1 0 19:57 05.11.2020
5843 Clouds 8 1032 81 10000 2.1 80 19:38 05.11.2020
5844 Clouds 8 1032 81 10000 2.1 100 19:19 05.11.2020
5845 Clouds 8 1032 87 10000 2.6 120 18:41 05.11.2020
5846 Clouds 8 1032 87 10000 2.6 120 18:22 05.11.2020
5847 Clouds 8 1032 81 10000 2.1 110 17:47 05.11.2020
5848 Clouds 8 1032 81 10000 2.1 110 17:26 05.11.2020
5849 Clouds 8 1032 81 10000 1.5 0 16:50 05.11.2020
5850 Clouds 8 1032 81 10000 1 0 16:29 05.11.2020
5851 Clouds 8 1032 81 10000 1 0 15:55 05.11.2020
5852 Clouds 8 1032 81 10000 1 0 15:37 05.11.2020
5853 Clouds 9 1032 87 10000 1.5 0 15:18 05.11.2020
5854 Clouds 9 1033 81 10000 1 0 14:44 05.11.2020
5855 Clouds 9 1033 81 10000 1 0 14:24 05.11.2020
5856 Clouds 8 1033 81 10000 1.5 30 13:41 05.11.2020
5857 Clouds 8 1033 81 10000 1.5 30 13:20 05.11.2020
5858 Clouds 8 1034 87 10000 1.5 0 12:43 05.11.2020
5859 Clouds 8 1034 87 10000 1.5 0 12:23 05.11.2020
5860 Clouds 8 1034 87 10000 1.5 0 11:44 05.11.2020
5861 Clouds 8 1034 87 10000 1.5 0 11:24 05.11.2020
5862 Clouds 8 1034 87 10000 2.1 40 10:52 05.11.2020
5863 Clouds 7 1034 87 10000 2.1 40 10:28 05.11.2020
5864 Clouds 7 1033 93 10000 1 40 09:50 05.11.2020
5865 Clouds 7 1033 93 10000 1 40 09:25 05.11.2020
5866 Clouds 7 1033 93 10000 1 40 08:59 05.11.2020
5867 Clouds 7 1033 93 10000 0.5 0 08:41 05.11.2020
5868 Clouds 6 1033 93 10000 0.5 0 08:23 05.11.2020
5869 Clouds 6 1032 93 10000 1 300 07:29 05.11.2020
5870 Clouds 6 1032 87 10000 1.5 270 06:51 05.11.2020
5871 Clouds 6 1032 93 10000 1.5 270 06:32 05.11.2020
5872 Clouds 6 1032 87 10000 1 0 03:45 05.11.2020
5873 Clouds 6 1032 87 10000 1 0 00:45 05.11.2020
5874 Clouds 6 1032 87 10000 1 0 00:20 05.11.2020
5875 Clouds 6 1031 93 10000 1 0 23:43 04.11.2020
5876 Clouds 6 1031 93 10000 1 0 23:24 04.11.2020
5877 Clouds 7 1031 93 10000 3.1 40 22:42 04.11.2020
5878 Clouds 7 1030 81 10000 1 0 22:22 04.11.2020
5879 Clouds 7 1030 81 10000 1 0 22:22 04.11.2020
5880 Clouds 7 1030 81 10000 1 0 21:47 04.11.2020
5881 Clouds 7 1030 81 10000 1 0 21:27 04.11.2020
5882 Clouds 7 1030 81 10000 1 0 20:54 04.11.2020
5883 Clouds 7 1029 87 10000 1.5 0 20:35 04.11.2020
5884 Clouds 7 1029 81 10000 1.5 0 19:59 04.11.2020
5885 Clouds 7 1029 87 10000 2.1 70 19:40 04.11.2020
5886 Clouds 7 1029 87 10000 2.1 70 19:22 04.11.2020
5887 Clouds 6 1029 87 10000 2.6 90 18:41 04.11.2020
5888 Clouds 6 1029 87 10000 2.6 90 18:23 04.11.2020
5889 Clouds 6 1028 87 10000 1 0 17:48 04.11.2020
5890 Clouds 6 1028 87 10000 1 0 17:27 04.11.2020
5891 Clouds 6 1028 87 10000 1.5 0 17:27 04.11.2020
5892 Clouds 6 1028 87 10000 1.5 0 16:56 04.11.2020
5893 Clouds 6 1028 87 10000 1.5 0 16:36 04.11.2020
5894 Clouds 6 1027 87 10000 2.6 0 16:18 04.11.2020
5895 Clouds 6 1027 87 10000 2.6 50 15:41 04.11.2020
5896 Clouds 6 1027 87 10000 2.6 50 15:23 04.11.2020
5897 Rain 6 1027 93 10000 1.5 340 14:45 04.11.2020
5898 Clouds 6 1027 93 10000 1.5 340 14:25 04.11.2020
5899 Clouds 6 1027 93 10000 2.6 0 13:52 04.11.2020
5900 Clouds 6 1027 93 10000 1.5 0 13:22 04.11.2020
5901 Clouds 6 1026 93 10000 2.1 0 12:58 04.11.2020
5902 Drizzle 6 1026 87 10000 3.1 330 12:40 04.11.2020
5903 Drizzle 6 1026 87 10000 3.1 330 12:22 04.11.2020
5904 Clouds 6 1026 87 10000 2.1 0 11:45 04.11.2020
5905 Clouds 6 1026 87 10000 2.1 0 11:22 04.11.2020
5906 Drizzle 7 1027 87 10000 2.1 0 10:49 04.11.2020
5907 Rain 6 1027 93 10000 1 0 10:24 04.11.2020
5908 Rain 6 1026 93 10000 1.5 50 10:24 04.11.2020
5909 Rain 6 1027 93 10000 1 0 09:55 04.11.2020
5910 Rain 6 1027 93 10000 1.5 330 09:28 04.11.2020
5911 Clouds 6 1027 93 10000 1 0 08:49 04.11.2020
5912 Rain 6 1027 93 8000 1 0 08:23 04.11.2020
5913 Rain 6 1027 100 10000 2.1 280 07:57 04.11.2020
5914 Rain 6 1026 100 10000 1 0 07:31 04.11.2020
5915 Rain 7 1026 100 10000 0.5 0 06:59 04.11.2020
5916 Rain 7 1027 93 10000 0.5 0 06:39 04.11.2020
5917 Rain 7 1027 100 9000 1 170 04:59 04.11.2020
5918 Rain 7 1027 100 10000 0.5 0 02:31 04.11.2020
5919 Rain 8 1027 100 10000 0.5 0 01:38 04.11.2020
5920 Clouds 8 1027 100 10000 0.5 0 23:56 03.11.2020
5921 Rain 8 1028 100 10000 0.5 0 23:25 03.11.2020
5922 Clouds 8 1027 100 10000 1 0 22:54 03.11.2020
5923 Rain 8 1028 87 10000 1 0 22:36 03.11.2020
5924 Clouds 8 1028 87 10000 1.5 320 22:18 03.11.2020
5925 Clouds 8 1027 93 10000 1 0 21:41 03.11.2020
5926 Clouds 8 1027 93 10000 1 0 21:23 03.11.2020
5927 Rain 9 1027 81 10000 1.5 0 20:48 03.11.2020
5928 Rain 9 1027 100 10000 1.5 260 20:26 03.11.2020
5929 Rain 9 1027 87 10000 3.1 240 19:49 03.11.2020
5930 Rain 9 1027 93 10000 3.1 280 19:29 03.11.2020
5931 Clouds 9 1027 93 10000 1 0 18:58 03.11.2020
5932 Rain 9 1026 93 10000 2.1 310 18:40 03.11.2020
5933 Rain 9 1026 93 10000 2.1 300 18:18 03.11.2020
5934 Rain 10 1026 93 10000 2.6 300 17:45 03.11.2020
5935 Rain 10 1026 93 10000 2.6 300 17:26 03.11.2020
5936 Rain 10 1025 100 4700 3.6 290 16:45 03.11.2020
5937 Rain 10 1025 100 4700 3.6 290 16:27 03.11.2020
5938 Rain 11 1025 100 3000 3.1 280 15:53 03.11.2020
5939 Drizzle 11 1024 100 3000 4.1 340 15:30 03.11.2020
5940 Drizzle 11 1024 100 3000 4.1 340 15:30 03.11.2020
5941 Drizzle 11 1024 100 4100 4.1 310 14:54 03.11.2020
5942 Clouds 12 1024 93 6000 4.6 300 14:33 03.11.2020
5943 Clouds 12 1023 82 10000 3.1 330 13:59 03.11.2020
5944 Clouds 13 1023 82 10000 2.6 320 13:40 03.11.2020
5945 Rain 13 1023 82 10000 2.6 320 13:20 03.11.2020
5946 Clouds 14 1023 82 10000 3.1 300 12:44 03.11.2020
5947 Clouds 14 1023 82 10000 3.1 300 12:21 03.11.2020
5948 Clouds 14 1023 82 10000 3.6 290 11:46 03.11.2020
5949 Clouds 14 1023 82 10000 3.6 290 11:23 03.11.2020
5950 Clouds 14 1023 93 10000 3.1 310 10:55 03.11.2020
5951 Clouds 14 1023 93 10000 3.1 310 10:55 03.11.2020
5952 Clouds 14 1023 93 10000 0.5 0 10:36 03.11.2020
5953 Clouds 13 1023 100 10000 1 0 10:18 03.11.2020
5954 Clouds 13 1023 93 10000 1 0 09:44 03.11.2020
5955 Clouds 13 1023 93 10000 1 0 09:20 03.11.2020
5956 Clouds 12 1023 100 10000 1.5 130 08:45 03.11.2020
5957 Clouds 12 1023 100 10000 1.5 130 08:26 03.11.2020
5958 Clouds 12 1023 100 10000 1 0 07:41 03.11.2020
5959 Clouds 12 1022 100 10000 0.5 0 07:19 03.11.2020
5960 Clouds 12 1022 100 10000 0.5 0 06:21 03.11.2020
5961 Clouds 14 1022 82 10000 1 0 03:59 03.11.2020
5962 Clouds 14 1022 100 10000 1 0 00:44 03.11.2020
5963 Clouds 14 1022 100 10000 1 0 00:20 03.11.2020
5964 Clouds 14 1021 100 10000 0.5 0 23:42 02.11.2020
5965 Clouds 14 1021 93 10000 1 0 22:57 02.11.2020
5966 Clouds 14 1021 93 10000 1 0 22:39 02.11.2020
5967 Clouds 14 1021 93 10000 1 0 22:21 02.11.2020
5968 Clouds 15 1021 93 10000 0.5 0 21:39 02.11.2020
5969 Clouds 14 1021 93 10000 0.5 0 21:20 02.11.2020
5970 Clouds 14 1021 93 10000 1 0 20:55 02.11.2020
5971 Clouds 15 1021 93 10000 1 0 20:36 02.11.2020
5972 Clouds 15 1020 93 10000 1 0 20:18 02.11.2020
5973 Clouds 15 1020 82 10000 1 0 19:42 02.11.2020
5974 Clouds 15 1020 82 10000 1 0 19:22 02.11.2020
5975 Clouds 15 1019 82 10000 0.5 0 18:42 02.11.2020
5976 Clouds 15 1019 82 10000 0.5 0 18:21 02.11.2020
5977 Clouds 16 1019 77 10000 1.5 0 17:56 02.11.2020
5978 Clouds 17 1019 77 10000 1 0 17:38 02.11.2020
5979 Clouds 17 1019 77 10000 1 0 17:19 02.11.2020
5980 Clear 18 1019 64 10000 1.5 140 16:40 02.11.2020
5981 Clear 18 1019 64 10000 1.5 140 16:40 02.11.2020
5982 Clear 18 1019 64 10000 1.5 140 16:22 02.11.2020
5983 Clear 20 1019 46 10000 0.5 0 15:40 02.11.2020
5984 Clear 20 1019 46 10000 0.5 0 15:21 02.11.2020
5985 Clear 20 1019 49 10000 1 0 14:53 02.11.2020
5986 Clear 21 1019 49 10000 1 0 14:53 02.11.2020
5987 Clear 20 1019 46 10000 1 0 14:20 02.11.2020
5988 Clear 20 1019 52 10000 1 0 13:54 02.11.2020
5989 Clouds 20 1020 59 10000 1.5 0 13:23 02.11.2020
5990 Clouds 19 1020 59 10000 1.5 0 12:59 02.11.2020
5991 Clouds 19 1020 72 10000 2.1 310 12:31 02.11.2020
5992 Clouds 18 1021 72 10000 1 0 11:56 02.11.2020
5993 Clouds 18 1021 67 10000 1.5 320 11:37 02.11.2020
5994 Clouds 17 1021 77 10000 1 150 11:19 02.11.2020
5995 Clouds 15 1021 82 10000 1.5 160 10:41 02.11.2020
5996 Clouds 15 1021 87 10000 3.1 100 10:20 02.11.2020
5997 Clouds 16 1021 87 10000 3.1 100 09:49 02.11.2020
5998 Clouds 14 1021 93 10000 0.5 0 09:23 02.11.2020
5999 Clouds 12 1021 100 10000 2.6 100 08:42 02.11.2020
6000 Clouds 12 1021 100 10000 3.1 100 08:22 02.11.2020
6001 Clouds 12 1021 100 10000 3.1 100 07:50 02.11.2020
6002 Clouds 12 1021 100 10000 3.1 100 07:50 02.11.2020
6003 Clouds 11 1021 100 10000 1.36 177 06:59 02.11.2020
6004 Clouds 12 1021 93 10000 0.5 0 06:36 02.11.2020
6005 Clouds 12 1021 100 10000 0.5 0 03:27 02.11.2020
6006 Clouds 11 1021 100 10000 0.5 0 01:24 02.11.2020
6007 Clouds 11 1021 100 10000 0.5 0 01:24 02.11.2020
6008 Clouds 11 1021 100 10000 1 0 00:35 02.11.2020
6009 Clouds 11 1021 93 10000 1.5 120 23:41 01.11.2020
6010 Clouds 12 1021 93 10000 1.5 120 23:23 01.11.2020
6011 Clouds 12 1021 93 10000 1 0 22:46 01.11.2020
6012 Clouds 12 1021 93 10000 0.5 0 22:25 01.11.2020
6013 Clouds 12 1021 93 10000 0.5 0 22:25 01.11.2020
6014 Clouds 12 1021 87 10000 1 0 21:58 01.11.2020
6015 Clouds 12 1021 87 10000 3.1 110 21:38 01.11.2020
6016 Clouds 12 1021 93 10000 3.1 90 21:20 01.11.2020
6017 Clouds 11 1021 100 10000 2.1 140 20:41 01.11.2020
6018 Clouds 11 1021 100 10000 2.1 140 20:23 01.11.2020
6019 Rain 12 1021 93 10000 0.5 0 19:43 01.11.2020
6020 Clouds 12 1021 93 10000 0.5 0 19:24 01.11.2020
6021 Rain 12 1021 87 10000 0.5 0 18:44 01.11.2020
6022 Rain 12 1021 87 10000 0.5 0 18:20 01.11.2020
6023 Rain 12 1021 87 10000 0.5 0 18:20 01.11.2020
6024 Clouds 12 1021 82 10000 1 150 17:59 01.11.2020
6025 Clouds 12 1021 82 10000 1.5 160 17:41 01.11.2020
6026 Clouds 13 1021 82 10000 1.5 160 17:21 01.11.2020
6027 Clouds 13 1021 76 10000 2.6 100 16:41 01.11.2020
6028 Clouds 14 1021 67 10000 1.5 0 16:19 01.11.2020
6029 Rain 14 1021 67 10000 1.5 0 15:54 01.11.2020
6030 Clouds 14 1021 62 10000 1.5 170 15:36 01.11.2020
6031 Clouds 14 1021 62 10000 1.5 170 15:18 01.11.2020
6032 Clouds 13 1022 67 10000 1 0 14:43 01.11.2020
6033 Clouds 13 1022 67 10000 1 0 14:21 01.11.2020
6034 Clouds 13 1022 71 10000 1 0 13:49 01.11.2020
6035 Clouds 12 1022 71 10000 1.5 180 13:31 01.11.2020
6036 Clouds 11 1023 93 10000 1.5 150 12:44 01.11.2020
6037 Rain 11 1023 93 10000 1.5 150 12:24 01.11.2020
6038 Clouds 10 1023 100 10000 1 0 11:53 01.11.2020
6039 Rain 9 1023 100 10000 1 150 11:19 01.11.2020
6040 Clouds 8 1023 100 10000 1 150 10:59 01.11.2020
6041 Rain 8 1023 100 10000 0.5 0 10:40 01.11.2020
6042 Rain 8 1023 100 10000 0.5 0 10:21 01.11.2020
6043 Rain 7 1023 100 10000 1 0 09:46 01.11.2020
6044 Clouds 7 1023 100 10000 1 0 08:49 01.11.2020
6045 Clouds 6 1022 100 10000 1 140 08:24 01.11.2020
6046 Clear 6 1022 100 10000 1 270 07:43 01.11.2020
6047 Fog 6 1023 100 200 1 190 05:23 01.11.2020
6048 Fog 6 1023 100 250 1 0 01:52 01.11.2020
6049 Fog 6 1023 100 100 2.1 130 00:53 01.11.2020
6050 Fog 6 1023 100 200 2.1 330 23:29 31.10.2020
6051 Mist 6 1023 100 3300 1.5 300 22:59 31.10.2020
6052 Fog 6 1022 100 250 1.5 0 22:41 31.10.2020
6053 Fog 6 1022 100 250 1.5 0 22:22 31.10.2020
6054 Clouds 7 1023 100 4900 1 0 21:44 31.10.2020
6055 Clear 7 1023 100 4900 1 0 21:20 31.10.2020
6056 Fog 7 1023 100 4000 1 90 20:39 31.10.2020
6057 Fog 7 1023 100 4000 1 90 20:18 31.10.2020
6058 Clear 8 1023 100 9000 2.1 300 19:41 31.10.2020
6059 Clear 8 1023 100 9000 2.1 300 19:23 31.10.2020
6060 Clear 8 1022 93 10000 1 0 18:48 31.10.2020
6061 Clear 10 1022 87 10000 2.1 300 18:30 31.10.2020
6062 Clear 11 1022 82 10000 1.5 260 17:41 31.10.2020
6063 Clear 12 1022 82 10000 1.5 260 17:23 31.10.2020
6064 Clear 11 1022 71 10000 3.1 310 16:48 31.10.2020
6065 Clear 14 1022 67 10000 3.6 310 16:29 31.10.2020
6066 Clear 15 1022 55 10000 1 0 15:54 31.10.2020
6067 Clear 17 1022 55 10000 1 0 15:25 31.10.2020
6068 Clear 17 1022 59 10000 1 0 14:53 31.10.2020
6069 Clear 16 1023 63 10000 1 0 14:31 31.10.2020
6070 Clear 15 1023 67 10000 1 0 13:52 31.10.2020
6071 Clear 15 1024 62 10000 0.5 0 13:28 31.10.2020
6072 Clear 13 1024 71 10000 0.5 0 12:55 31.10.2020
6073 Clear 12 1025 76 10000 1 0 12:22 31.10.2020
6074 Clear 8 1025 100 10000 0.97 258 11:41 31.10.2020
6075 Clear 9 1025 100 10000 0.81 274 11:22 31.10.2020
6076 Fog 5 1026 100 300 0.5 0 10:41 31.10.2020
6077 Fog 6 1026 100 150 0.5 0 09:57 31.10.2020
6078 Fog 5 1026 100 150 0.5 0 09:37 31.10.2020
6079 Fog 5 1026 100 150 0.5 0 09:19 31.10.2020
6080 Fog 4 1025 100 150 1 170 08:26 31.10.2020
6081 Fog 4 1025 100 100 0.88 174 07:30 31.10.2020
6082 Fog 4 1025 100 150 0.94 183 06:57 31.10.2020
6083 Fog 4 1025 100 250 1 160 06:36 31.10.2020
6084 Fog 4 1026 100 650 0.5 0 03:48 31.10.2020
6085 Fog 5 1026 100 300 0.5 0 02:39 31.10.2020
6086 Fog 6 1026 100 8000 0.37 129 00:55 31.10.2020
6087 Fog 7 1027 100 800 0.5 0 23:56 30.10.2020
6088 Clear 7 1027 100 10000 1 320 23:31 30.10.2020
6089 Clear 7 1027 100 9000 0.5 0 22:59 30.10.2020
6090 Clear 8 1027 100 10000 0.5 0 22:39 30.10.2020
6091 Clear 8 1027 100 10000 0.5 0 22:20 30.10.2020
6092 Clear 8 1027 100 10000 0.5 0 21:49 30.10.2020
6093 Clear 8 1027 73 10000 0.46 100 21:26 30.10.2020
6094 Clear 9 1027 100 10000 0.5 0 20:46 30.10.2020
6095 Clear 9 1027 100 10000 1.5 0 20:27 30.10.2020
6096 Clear 9 1027 100 10000 1.5 0 20:27 30.10.2020
6097 Clear 9 1027 100 10000 1 0 19:59 30.10.2020
6098 Clear 9 1026 100 10000 1.5 50 19:40 30.10.2020
6099 Clear 10 1026 100 10000 1.5 50 19:18 30.10.2020
6100 Clear 11 1026 87 10000 0.5 0 18:42 30.10.2020
6101 Clear 11 1026 87 10000 0.5 0 18:23 30.10.2020
6102 Clear 12 1025 76 10000 1 0 17:47 30.10.2020
6103 Clear 13 1025 72 10000 2.1 190 17:22 30.10.2020
6104 Clear 14 1025 72 10000 2.1 190 16:52 30.10.2020
6105 Clear 15 1025 63 10000 1.5 190 16:25 30.10.2020
6106 Clear 16 1025 52 10000 1.5 260 15:56 30.10.2020
6107 Clear 16 1025 55 10000 1 320 15:37 30.10.2020
6108 Clear 17 1025 55 10000 1.5 300 15:18 30.10.2020
6109 Clear 16 1025 59 10000 2.6 310 14:42 30.10.2020
6110 Clear 16 1025 59 10000 2.6 310 14:23 30.10.2020
6111 Clear 16 1026 59 10000 0.76 267 13:44 30.10.2020
6112 Clear 15 1026 67 10000 0.5 0 13:20 30.10.2020
6113 Clear 15 1026 67 10000 0.5 0 12:49 30.10.2020
6114 Clear 15 1026 62 10000 0.5 0 12:22 30.10.2020
6115 Clear 14 1027 67 10000 1 0 11:56 30.10.2020
6116 Clear 13 1027 71 10000 1 0 11:22 30.10.2020
6117 Clear 13 1027 76 10000 1 0 10:50 30.10.2020
6118 Clear 12 1027 87 10000 2.6 120 10:26 30.10.2020
6119 Clear 12 1027 93 10000 2.6 80 09:56 30.10.2020
6120 Clear 10 1027 100 10000 2.6 110 09:38 30.10.2020
6121 Clear 10 1027 100 10000 2.6 110 09:19 30.10.2020
6122 Clear 8 1027 100 10000 2.1 150 08:32 30.10.2020
6123 Clear 7 1027 100 10000 1.5 180 07:54 30.10.2020
6124 Clear 7 1026 100 10000 2.6 100 07:36 30.10.2020
6125 Clear 7 1026 100 10000 2.1 90 06:59 30.10.2020
6126 Clear 8 1026 100 10000 3.6 100 05:53 30.10.2020
6127 Clouds 10 1026 100 10000 0.5 0 02:53 30.10.2020
6128 Clouds 10 1026 100 10000 1 0 01:20 30.10.2020
6129 Clouds 10 1026 100 10000 1 140 23:59 29.10.2020
6130 Clouds 10 1026 100 10000 1.5 0 23:41 29.10.2020
6131 Clouds 11 1026 100 10000 1.5 90 23:21 29.10.2020
6132 Clouds 11 1026 93 10000 1 0 22:44 29.10.2020
6133 Clouds 11 1026 93 10000 1 0 22:25 29.10.2020
6134 Clouds 11 1025 93 10000 2.1 0 21:43 29.10.2020
6135 Clouds 11 1025 93 10000 2.1 0 21:22 29.10.2020
6136 Clouds 11 1025 81 10000 1.5 0 20:43 29.10.2020
6137 Clouds 11 1025 81 10000 1.5 0 20:23 29.10.2020
6138 Clouds 11 1025 76 10000 1.5 250 19:56 29.10.2020
6139 Clouds 11 1025 76 10000 1.5 0 19:37 29.10.2020
6140 Clouds 11 1025 76 10000 1.5 0 19:18 29.10.2020
6141 Clouds 11 1025 76 10000 2.1 0 18:41 29.10.2020
6142 Clouds 11 1025 76 10000 2.1 0 18:21 29.10.2020
6143 Clouds 12 1024 71 10000 4.1 260 17:42 29.10.2020
6144 Clouds 12 1024 71 10000 4.1 260 17:22 29.10.2020
6145 Clouds 12 1024 71 10000 3.1 290 16:52 29.10.2020
6146 Clouds 12 1024 71 10000 3.6 280 16:23 29.10.2020
6147 Clouds 12 1024 71 10000 4.6 260 15:57 29.10.2020
6148 Clouds 12 1024 71 10000 4.1 280 15:39 29.10.2020
6149 Clouds 12 1024 71 10000 6.7 270 15:21 29.10.2020
6150 Clouds 13 1023 67 10000 5.1 260 14:46 29.10.2020
6151 Clouds 13 1023 67 10000 5.1 260 14:24 29.10.2020
6152 Clouds 12 1023 62 10000 3.6 270 13:49 29.10.2020
6153 Clouds 13 1023 67 10000 5.1 260 13:28 29.10.2020
6154 Clouds 12 1023 71 10000 3.6 270 12:59 29.10.2020
6155 Clouds 12 1024 71 10000 3.6 280 12:39 29.10.2020
6156 Clouds 12 1024 76 10000 4.1 280 12:19 29.10.2020
6157 Clouds 11 1024 76 9000 3.1 230 11:44 29.10.2020
6158 Clouds 11 1024 76 9000 3.1 230 11:24 29.10.2020
6159 Clouds 11 1024 76 9000 3.1 230 11:24 29.10.2020
6160 Clouds 11 1024 76 10000 4.1 240 10:37 29.10.2020
6161 Clouds 11 1024 76 10000 4.1 240 10:19 29.10.2020
6162 Clouds 10 1023 81 10000 2.6 240 09:51 29.10.2020
6163 Clouds 10 1023 81 10000 2.1 220 09:28 29.10.2020
6164 Clouds 10 1022 76 10000 2.6 270 08:55 29.10.2020
6165 Clouds 10 1022 76 10000 2.6 240 08:31 29.10.2020
6166 Clouds 10 1021 76 10000 3.6 250 07:53 29.10.2020
6167 Clouds 11 1021 76 10000 2.1 0 07:35 29.10.2020
6168 Clouds 10 1021 76 10000 2.6 240 06:55 29.10.2020
6169 Rain 10 1020 81 10000 2.6 0 04:51 29.10.2020
6170 Rain 10 1019 87 10000 1 0 02:51 29.10.2020
6171 Clouds 11 1020 89 10000 2.68 300 00:51 29.10.2020
6172 Clouds 11 1020 89 10000 1.79 290 00:30 29.10.2020
6173 Clouds 11 1020 88 10000 3.18 235 23:45 28.10.2020
6174 Rain 11 1020 86 10000 3.63 223 23:21 28.10.2020
6175 Clouds 11 1018 81 10000 1 0 22:44 28.10.2020
6176 Clouds 11 1018 81 10000 1 0 22:26 28.10.2020
6177 Clouds 11 1018 81 10000 1 0 22:26 28.10.2020
6178 Clouds 11 1018 81 10000 1 0 21:58 28.10.2020
6179 Rain 10 1018 100 10000 1.5 0 21:39 28.10.2020
6180 Rain 10 1018 100 8000 2.1 340 21:18 28.10.2020
6181 Rain 10 1018 93 10000 1.5 0 20:41 28.10.2020
6182 Rain 10 1018 93 10000 1.5 0 20:20 28.10.2020
6183 Rain 11 1017 87 10000 1.5 100 19:49 28.10.2020
6184 Rain 11 1017 93 10000 1 0 19:28 28.10.2020
6185 Clouds 11 1017 93 10000 1 0 18:47 28.10.2020
6186 Clouds 11 1017 76 10000 2.6 300 18:21 28.10.2020
6187 Clouds 12 1017 71 10000 2.1 330 17:44 28.10.2020
6188 Clouds 12 1017 71 10000 2.1 330 17:25 28.10.2020
6189 Clouds 13 1017 67 10000 3.6 270 16:56 28.10.2020
6190 Clouds 13 1017 67 10000 3.1 260 16:38 28.10.2020
6191 Clouds 13 1017 62 10000 5.1 280 16:19 28.10.2020
6192 Clouds 13 1017 62 10000 4.6 270 15:37 28.10.2020
6193 Clouds 13 1019 70 10000 3.58 207 15:18 28.10.2020
6194 Clouds 13 1017 71 10000 1 0 14:42 28.10.2020
6195 Clouds 13 1017 71 10000 1 0 14:22 28.10.2020
6196 Clouds 12 1020 78 10000 2.24 199 12:41 28.10.2020
6197 Clouds 11 1020 78 10000 4.47 265 12:22 28.10.2020
6198 Clouds 10 1020 80 10000 3.58 244 11:55 28.10.2020
6199 Clouds 10 1020 84 10000 3.13 219 11:36 28.10.2020
6200 Clouds 11 1093 96 10000 3.87 237 11:18 28.10.2020
6201 Clouds 9 1017 100 10000 3.1 130 10:42 28.10.2020
6202 Clouds 9 1017 100 10000 3.1 130 10:24 28.10.2020
6203 Clouds 9 1017 100 10000 1.5 130 09:43 28.10.2020
6204 Clouds 8 1017 100 10000 1.5 130 09:22 28.10.2020
6205 Rain 7 1017 100 10000 1.5 180 08:49 28.10.2020
6206 Clouds 7 1016 100 10000 0.5 0 08:28 28.10.2020
6207 Clouds 7 1015 100 10000 0.5 0 07:50 28.10.2020
6208 Drizzle 7 1015 100 10000 0.5 0 07:30 28.10.2020
6209 Clouds 7 1015 87 10000 1.5 80 06:42 28.10.2020
6210 Clouds 7 1014 100 10000 0.5 0 05:53 28.10.2020
6211 Clouds 7 1014 93 10000 0.5 0 05:22 28.10.2020
6212 Rain 6 1014 100 10000 0.5 0 04:28 28.10.2020
6213 Clouds 7 1014 93 10000 2.1 120 02:26 28.10.2020
6214 Clouds 7 1014 93 10000 2.1 120 02:26 28.10.2020
6215 Clouds 7 1014 100 10000 1.5 150 01:52 28.10.2020
6216 Clouds 7 1014 100 10000 1.5 130 00:29 28.10.2020
6217 Clouds 7 1014 100 10000 0.5 0 23:47 27.10.2020
6218 Clouds 7 1014 100 10000 0.5 0 23:21 27.10.2020
6219 Clouds 6 1014 100 10000 0.5 0 22:44 27.10.2020
6220 Clouds 6 1014 100 10000 0.5 0 22:19 27.10.2020
6221 Clouds 6 1014 100 10000 0.5 0 21:56 27.10.2020
6222 Clouds 6 1014 100 10000 0.5 0 21:37 27.10.2020
6223 Clouds 6 1014 100 10000 0.5 0 21:19 27.10.2020
6224 Clouds 6 1014 100 10000 1 0 20:46 27.10.2020
6225 Clouds 6 1014 100 10000 1 0 20:24 27.10.2020
6226 Clear 6 1013 100 10000 2.1 140 19:55 27.10.2020
6227 Clear 6 1013 100 10000 1 0 19:36 27.10.2020
6228 Clear 6 1013 100 10000 1 0 19:18 27.10.2020
6229 Clear 7 1013 75 10000 0.5 0 18:44 27.10.2020
6230 Clear 7 1013 75 10000 0.5 0 18:21 27.10.2020
6231 Clouds 8 1012 66 10000 0.5 0 17:57 27.10.2020
6232 Clear 9 1012 61 10000 2.6 310 17:36 27.10.2020
6233 Clear 9 1012 66 10000 3.6 290 17:18 27.10.2020
6234 Clouds 10 1013 57 10000 4.1 280 16:41 27.10.2020
6235 Clouds 10 1013 57 10000 4.1 280 16:22 27.10.2020
6236 Clouds 10 1013 57 10000 4.1 270 15:41 27.10.2020
6237 Clouds 10 1013 54 10000 4.6 270 15:23 27.10.2020
6238 Clouds 11 1013 54 10000 4.6 270 14:48 27.10.2020
6239 Clouds 11 1013 62 10000 4.6 250 14:29 27.10.2020
6240 Clouds 11 1013 57 10000 4.6 270 13:58 27.10.2020
6241 Clouds 10 1013 61 10000 3.6 270 13:28 27.10.2020
6242 Clouds 10 1013 61 10000 3.1 240 12:44 27.10.2020
6243 Clouds 9 1013 61 10000 3.1 240 12:25 27.10.2020
6244 Clouds 10 1013 66 10000 4.1 260 11:58 27.10.2020
6245 Clouds 9 1013 76 10000 1.5 230 11:40 27.10.2020
6246 Clouds 9 1013 76 10000 1.5 230 11:20 27.10.2020
6247 Clouds 9 1013 76 10000 1.5 230 11:20 27.10.2020
6248 Clouds 8 1013 87 10000 1 0 10:39 27.10.2020
6249 Clouds 8 1013 87 10000 1 0 10:19 27.10.2020
6250 Clouds 6 1013 100 10000 0.5 0 09:28 27.10.2020
6251 Clouds 6 1012 100 10000 1 0 08:56 27.10.2020
6252 Clouds 5 1012 100 10000 1.5 170 08:29 27.10.2020
6253 Clouds 5 1012 100 10000 1 190 07:52 27.10.2020
6254 Clouds 5 1012 100 10000 1.5 160 07:34 27.10.2020
6255 Clouds 5 1012 100 10000 2.6 110 06:54 27.10.2020
6256 Clouds 5 1011 100 10000 1 0 06:19 27.10.2020
6257 Clouds 5 1011 100 10000 0.5 0 05:45 27.10.2020
6258 Clouds 5 1011 100 10000 0.5 0 05:23 27.10.2020
6259 Clouds 5 1011 100 10000 0.5 0 02:51 27.10.2020
6260 Clouds 5 1011 100 10000 2.1 130 01:18 27.10.2020
6261 Clouds 5 1011 100 10000 2.6 110 23:59 26.10.2020
6262 Clouds 5 1011 100 10000 2.6 100 23:37 26.10.2020
6263 Clouds 5 1011 100 10000 3.1 110 22:58 26.10.2020
6264 Clouds 5 1011 100 10000 1 0 22:39 26.10.2020
6265 Clouds 5 1011 100 10000 2.1 110 22:18 26.10.2020
6266 Clouds 5 1011 100 10000 0.5 0 21:37 26.10.2020
6267 Clouds 5 1011 100 10000 2.6 110 21:18 26.10.2020
6268 Clouds 5 1011 100 10000 2.6 110 20:49 26.10.2020
6269 Clouds 5 1011 100 10000 1.5 100 20:27 26.10.2020
6270 Clouds 5 1011 100 10000 2.1 130 19:49 26.10.2020
6271 Clouds 5 1010 100 10000 1.5 130 19:29 26.10.2020
6272 Clouds 5 1010 93 10000 3.1 150 18:59 26.10.2020
6273 Clouds 6 1010 93 10000 4.1 150 18:39 26.10.2020
6274 Clouds 6 1010 93 10000 4.1 150 18:20 26.10.2020
6275 Clouds 6 1009 93 10000 3.1 120 17:41 26.10.2020
6276 Clouds 6 1009 93 10000 3.1 120 17:23 26.10.2020
6277 Drizzle 6 1009 100 10000 3.6 160 16:45 26.10.2020
6278 Drizzle 6 1009 100 10000 3.6 160 16:22 26.10.2020
6279 Clouds 6 1009 93 10000 3.6 150 15:56 26.10.2020
6280 Rain 6 1009 93 10000 3.1 140 15:38 26.10.2020
6281 Clouds 6 1009 93 10000 3.1 140 15:18 26.10.2020
6282 Rain 6 1009 100 10000 2.6 140 14:44 26.10.2020
6283 Clouds 6 1009 93 10000 2.6 140 14:18 26.10.2020
6284 Rain 6 1009 93 10000 1 0 13:41 26.10.2020
6285 Rain 6 1009 93 10000 1 0 13:22 26.10.2020
6286 Rain 5 1009 86 9000 1 0 12:45 26.10.2020
6287 Rain 6 1009 86 9000 1 0 12:26 26.10.2020
6288 Rain 6 1009 81 10000 1.5 0 11:48 26.10.2020
6289 Rain 6 1009 93 10000 2.1 310 11:27 26.10.2020
6290 Rain 6 1009 93 10000 1 280 10:59 26.10.2020
6291 Rain 6 1009 87 10000 1 300 10:40 26.10.2020
6292 Rain 6 1009 87 10000 1 300 10:20 26.10.2020
6293 Rain 6 1008 93 10000 1.5 0 09:43 26.10.2020
6294 Rain 5 1008 93 10000 1.5 0 09:23 26.10.2020
6295 Rain 6 1008 87 10000 2.04 211 08:29 26.10.2020
6296 Rain 6 1008 93 6000 1.5 0 07:53 26.10.2020
6297 Rain 7 1008 87 10000 2.6 0 07:35 26.10.2020
6298 Rain 6 1007 93 8000 6.2 260 06:37 26.10.2020
6299 Clouds 9 1004 100 10000 3.1 320 04:22 26.10.2020
6300 Clouds 9 1005 100 10000 2.6 320 03:42 26.10.2020
6301 Rain 9 1005 100 10000 1 0 01:40 26.10.2020
6302 Clouds 9 1005 100 10000 1 0 00:57 26.10.2020
6303 Rain 9 1005 100 10000 0.5 0 00:32 26.10.2020
6304 Clouds 9 1005 100 10000 1 0 23:41 25.10.2020
6305 Clouds 9 1005 100 10000 1 0 23:21 25.10.2020
6306 Clear 10 1006 93 10000 1.5 0 22:40 25.10.2020
6307 Clear 10 1006 93 10000 1.5 0 22:21 25.10.2020
6308 Clouds 10 1006 93 10000 2.1 90 21:43 25.10.2020
6309 Clouds 10 1006 93 10000 2.1 90 21:24 25.10.2020
6310 Clouds 10 1007 87 10000 2.1 120 20:56 25.10.2020
6311 Clouds 10 1007 87 10000 2.1 100 20:37 25.10.2020
6312 Clouds 10 1008 93 10000 2.1 130 20:18 25.10.2020
6313 Clouds 11 1008 93 10000 1 0 19:48 25.10.2020
6314 Clouds 11 1008 93 10000 1 0 19:22 25.10.2020
6315 Clouds 11 1008 93 10000 1 0 18:55 25.10.2020
6316 Clouds 11 1008 81 10000 1 0 18:37 25.10.2020
6317 Clouds 11 1008 71 10000 1.5 0 18:18 25.10.2020
6318 Clouds 13 1008 67 10000 2.6 350 17:39 25.10.2020
6319 Clouds 13 1008 67 10000 2.6 350 17:21 25.10.2020
6320 Clear 13 1007 67 10000 3.1 340 16:57 25.10.2020
6321 Clear 14 1007 59 10000 4.1 320 16:38 25.10.2020
6322 Clear 15 1007 59 10000 4.1 320 16:18 25.10.2020
6323 Clear 15 1008 51 10000 1.5 0 15:45 25.10.2020
6324 Clear 15 1008 51 10000 1.5 0 15:25 25.10.2020
6325 Clear 16 1008 54 10000 1 210 14:43 25.10.2020
6326 Clear 16 1008 54 10000 1 210 14:24 25.10.2020
6327 Clear 16 1010 58 10000 2.1 200 13:43 25.10.2020
6328 Clear 16 1010 58 10000 2.1 200 13:20 25.10.2020
6329 Clear 14 1010 71 10000 1.5 170 12:47 25.10.2020
6330 Clear 14 1011 71 10000 1 0 12:26 25.10.2020
6331 Clear 14 1011 71 10000 1 0 11:55 25.10.2020
6332 Clear 14 1011 76 10000 1.5 160 11:36 25.10.2020
6333 Clear 12 1012 87 10000 2.1 150 11:18 25.10.2020
6334 Clear 10 1012 100 10000 2.1 100 10:44 25.10.2020
6335 Clear 10 1012 100 10000 2.1 100 10:24 25.10.2020
6336 Clouds 9 1012 100 10000 1 0 09:46 25.10.2020
6337 Fog 7 1013 100 10000 0.5 0 09:20 25.10.2020
6338 Fog 7 1013 100 10000 0.5 0 08:47 25.10.2020
6339 Fog 5 1013 100 10000 1 140 08:29 25.10.2020
6340 Fog 5 1013 100 10000 1.5 150 07:50 25.10.2020
6341 Fog 5 1013 100 10000 1 50 07:32 25.10.2020
6342 Clouds 5 1013 100 10000 1 130 06:50 25.10.2020
6343 Clouds 6 1013 100 10000 1 0 05:59 25.10.2020
6344 Clouds 6 1014 100 10000 1 0 04:52 25.10.2020
6345 Clouds 6 1014 100 10000 1 0 03:44 25.10.2020
6346 Fog 6 1016 100 10000 0.5 70 01:47 25.10.2020
6347 Clear 7 1016 100 10000 0.5 0 00:49 25.10.2020
6348 Clear 7 1016 100 10000 0.5 0 00:20 25.10.2020
6349 Clear 7 1016 100 10000 1 0 23:54 24.10.2020
6350 Clear 8 1017 100 10000 1.5 0 23:26 24.10.2020
6351 Clear 8 1017 100 10000 2.1 110 22:55 24.10.2020
6352 Clear 8 1017 100 10000 1.5 120 22:37 24.10.2020
6353 Clear 8 1017 100 10000 1.5 120 22:19 24.10.2020
6354 Clear 8 1017 100 10000 1 0 21:41 24.10.2020
6355 Clear 8 1017 100 10000 1 0 21:21 24.10.2020
6356 Clear 9 1018 100 10000 2.1 90 20:47 24.10.2020
6357 Clear 9 1018 100 10000 1 0 20:23 24.10.2020
6358 Clear 9 1017 100 10000 1 0 19:55 24.10.2020
6359 Clear 10 1017 93 10000 1 0 19:37 24.10.2020
6360 Clear 10 1017 93 10000 1 0 19:18 24.10.2020
6361 Clear 12 1017 76 10000 1.5 200 18:42 24.10.2020
6362 Clear 12 1017 76 10000 1.5 200 18:22 24.10.2020
6363 Clouds 14 1018 72 10000 1.5 0 17:39 24.10.2020
6364 Clouds 14 1018 72 10000 1.5 0 17:20 24.10.2020
6365 Clouds 15 1018 59 10000 1.5 280 16:45 24.10.2020
6366 Clouds 16 1018 59 10000 1.5 280 16:23 24.10.2020
6367 Clouds 15 1019 62 10000 2.1 270 15:41 24.10.2020
6368 Clouds 15 1019 62 10000 2.1 270 15:20 24.10.2020
6369 Clouds 15 1019 67 10000 2.6 290 14:54 24.10.2020
6370 Clouds 15 1020 67 10000 3.1 300 14:29 24.10.2020
6371 Clouds 14 1020 67 10000 4.1 290 13:46 24.10.2020
6372 Clouds 14 1020 82 10000 2.1 240 13:24 24.10.2020
6373 Clouds 14 1021 87 10000 1 0 12:55 24.10.2020
6374 Clouds 14 1021 87 10000 0.5 0 12:37 24.10.2020
6375 Clouds 14 1021 87 10000 0.5 0 12:19 24.10.2020
6376 Clouds 12 1021 100 10000 0.5 0 11:42 24.10.2020
6377 Clouds 11 1021 100 10000 0.5 0 10:54 24.10.2020
6378 Clouds 11 1021 100 10000 0.5 0 10:34 24.10.2020
6379 Fog 9 1020 100 10000 0.5 0 09:56 24.10.2020
6380 Fog 9 1020 100 6000 0.5 0 09:38 24.10.2020
6381 Fog 9 1020 100 6000 0.5 0 09:19 24.10.2020
6382 Fog 9 1020 100 10000 0.5 0 08:20 24.10.2020
6383 Clouds 9 1020 100 10000 1.5 0 07:55 24.10.2020
6384 Clouds 9 1020 100 10000 0.5 0 07:37 24.10.2020
6385 Clouds 10 1020 100 10000 2.1 80 07:18 24.10.2020
6386 Clouds 10 1020 100 10000 1.5 120 06:23 24.10.2020
6387 Clouds 10 1019 100 10000 1 0 03:37 24.10.2020
6388 Clouds 10 1019 100 10000 1 0 02:18 24.10.2020
6389 Drizzle 10 1018 100 10000 0.5 0 00:42 24.10.2020
6390 Drizzle 10 1018 100 10000 0.5 0 00:22 24.10.2020
6391 Clouds 11 1018 100 10000 2.1 280 23:49 23.10.2020
6392 Rain 11 1018 100 10000 1.5 0 23:27 23.10.2020
6393 Clouds 11 1018 100 10000 0.5 0 22:58 23.10.2020
6394 Clouds 11 1018 100 10000 0.5 0 22:40 23.10.2020
6395 Clouds 11 1018 100 10000 0.5 0 22:20 23.10.2020
6396 Clouds 11 1018 100 10000 2.6 130 21:50 23.10.2020
6397 Clouds 11 1018 100 10000 1.5 0 21:25 23.10.2020
6398 Rain 12 1017 100 10000 2.6 70 20:42 23.10.2020
6399 Rain 12 1017 100 10000 2.6 70 20:23 23.10.2020
6400 Rain 12 1017 100 10000 2.1 90 19:58 23.10.2020
6401 Rain 12 1016 100 10000 1 0 19:33 23.10.2020
6402 Rain 12 1016 100 6000 1.5 0 18:57 23.10.2020
6403 Rain 12 1016 100 9000 1 360 18:38 23.10.2020
6404 Rain 12 1016 100 9000 1 360 18:19 23.10.2020
6405 Rain 12 1016 100 10000 2.6 310 17:42 23.10.2020
6406 Rain 12 1016 100 10000 2.6 310 17:20 23.10.2020
6407 Rain 12 1015 100 6000 2.6 330 16:44 23.10.2020
6408 Rain 13 1015 100 6000 2.6 330 16:25 23.10.2020
6409 Rain 12 1015 100 5000 1.5 310 15:45 23.10.2020
6410 Rain 13 1015 100 5000 1.5 310 15:24 23.10.2020
6411 Rain 12 1015 100 6000 1 0 14:54 23.10.2020
6412 Rain 12 1015 100 5000 1 0 14:35 23.10.2020
6413 Rain 13 1015 100 8000 1 0 13:59 23.10.2020
6414 Rain 12 1015 100 10000 1.5 0 13:38 23.10.2020
6415 Rain 12 1015 100 10000 1.5 0 13:19 23.10.2020
6416 Rain 12 1016 100 4000 1 0 12:47 23.10.2020
6417 Rain 12 1016 100 4000 1 0 12:24 23.10.2020
6418 Rain 12 1016 100 2500 1 0 11:47 23.10.2020
6419 Rain 12 1016 100 2500 1 0 11:22 23.10.2020
6420 Rain 12 1016 100 5000 2.6 100 10:45 23.10.2020
6421 Rain 12 1016 100 5000 2.6 100 10:25 23.10.2020
6422 Rain 11 1016 100 2500 1.5 130 09:46 23.10.2020
6423 Rain 11 1016 100 2500 1.5 130 09:27 23.10.2020
6424 Rain 11 1016 100 1500 1 0 08:52 23.10.2020
6425 Rain 11 1016 100 2000 0.5 0 08:32 23.10.2020
6426 Rain 11 1017 100 3000 1 0 07:38 23.10.2020
6427 Rain 11 1017 100 3000 1 0 07:19 23.10.2020
6428 Rain 11 1017 100 2800 1 0 06:20 23.10.2020
6429 Rain 11 1017 100 3800 1 100 05:34 23.10.2020
6430 Rain 11 1019 100 2200 1.5 170 02:32 23.10.2020
6431 Rain 11 1019 100 1400 0.5 0 01:24 23.10.2020
6432 Rain 12 1018 100 6000 1 0 00:42 23.10.2020
6433 Rain 12 1019 100 5000 3.1 300 23:45 22.10.2020
6434 Rain 12 1019 100 5000 3.1 300 23:24 22.10.2020
6435 Rain 12 1018 100 4500 0.5 0 22:48 22.10.2020
6436 Rain 12 1019 100 3400 1.5 0 22:27 22.10.2020
6437 Rain 12 1019 100 6000 2.6 110 21:58 22.10.2020
6438 Rain 12 1019 100 7000 1 170 21:40 22.10.2020
6439 Rain 12 1019 100 7000 1 170 21:20 22.10.2020
6440 Rain 12 1019 100 7000 1.5 90 20:45 22.10.2020
6441 Rain 12 1019 100 7000 1.5 90 20:25 22.10.2020
6442 Rain 12 1019 100 7000 1.5 150 19:58 22.10.2020
6443 Rain 12 1019 100 7000 2.1 130 19:39 22.10.2020
6444 Rain 12 1019 100 7000 1.5 110 19:18 22.10.2020
6445 Rain 12 1019 93 9000 1.5 0 18:41 22.10.2020
6446 Rain 13 1019 82 10000 2.6 10 18:19 22.10.2020
6447 Rain 13 1019 82 10000 2.6 10 18:19 22.10.2020
6448 Rain 13 1019 82 10000 1.5 330 17:44 22.10.2020
6449 Rain 14 1019 82 10000 1.5 330 17:21 22.10.2020
6450 Rain 15 1018 67 10000 1.5 340 16:45 22.10.2020
6451 Rain 15 1018 67 10000 1.5 340 16:25 22.10.2020
6452 Rain 16 1018 55 10000 2.1 330 15:50 22.10.2020
6453 Clouds 16 1018 55 10000 2.1 330 15:27 22.10.2020
6454 Rain 16 1018 59 10000 2.6 300 14:56 22.10.2020
6455 Rain 16 1018 63 10000 2.1 300 14:37 22.10.2020
6456 Rain 16 1018 63 10000 1.71 276 14:19 22.10.2020
6457 Clouds 17 1019 67 10000 1 0 13:42 22.10.2020
6458 Clouds 16 1019 67 10000 1 0 13:22 22.10.2020
6459 Clouds 15 1019 76 10000 1 120 12:41 22.10.2020
6460 Clouds 15 1019 76 10000 1 120 12:22 22.10.2020
6461 Clouds 14 1019 87 10000 2.1 0 11:43 22.10.2020
6462 Clouds 13 1019 100 10000 1 0 11:18 22.10.2020
6463 Clouds 12 1019 100 10000 1 0 10:47 22.10.2020
6464 Clouds 10 1019 100 10000 1 0 10:25 22.10.2020
6465 Clouds 9 1019 100 9000 1 140 09:43 22.10.2020
6466 Clouds 7 1019 100 9000 1 140 09:22 22.10.2020
6467 Clouds 7 1018 100 10000 1 0 08:41 22.10.2020
6468 Clouds 7 1018 100 10000 1 0 08:23 22.10.2020
6469 Clouds 7 1018 100 10000 1 0 07:43 22.10.2020
6470 Clouds 7 1018 100 10000 1 0 07:20 22.10.2020
6471 Clouds 7 1018 100 10000 0.5 0 06:45 22.10.2020
6472 Clouds 7 1018 100 10000 0.5 0 06:23 22.10.2020
6473 Clouds 7 1018 100 9000 1 0 05:38 22.10.2020
6474 Fog 7 1017 100 650 0.5 0 03:25 22.10.2020
6475 Clouds 8 1016 100 9000 0.5 0 01:34 22.10.2020
6476 Clouds 8 1016 100 9000 0.5 0 01:34 22.10.2020
6477 Clouds 8 1016 100 9000 0.5 0 01:34 22.10.2020
6478 Clouds 9 1017 100 9000 0.5 0 00:24 22.10.2020
6479 Clouds 9 1016 100 10000 1 0 23:43 21.10.2020
6480 Clouds 10 1016 100 10000 2.6 140 23:19 21.10.2020
6481 Clouds 10 1015 100 10000 1.5 120 22:39 21.10.2020
6482 Clouds 11 1015 93 10000 1 0 22:19 21.10.2020
6483 Clouds 11 1015 93 10000 1 0 21:46 21.10.2020
6484 Clouds 11 1015 93 10000 1 0 21:20 21.10.2020
6485 Clouds 11 1015 93 10000 1.5 0 20:59 21.10.2020
6486 Clouds 11 1014 93 10000 1 90 20:40 21.10.2020
6487 Clouds 12 1014 93 10000 1 90 20:18 21.10.2020
6488 Clouds 12 1013 87 10000 1 0 19:41 21.10.2020
6489 Clouds 13 1013 87 10000 1 0 19:22 21.10.2020
6490 Clouds 14 1014 58 10000 0.38 195 18:53 21.10.2020
6491 Clouds 14 1013 67 10000 0.5 0 18:30 21.10.2020
6492 Clouds 15 1012 72 10000 1.5 0 17:51 21.10.2020
6493 Clouds 16 1012 59 10000 1 260 17:22 21.10.2020
6494 Clouds 16 1012 59 10000 1 0 16:59 21.10.2020
6495 Clouds 17 1012 59 10000 1 0 16:40 21.10.2020
6496 Clouds 17 1012 59 10000 1 0 16:40 21.10.2020
6497 Clouds 18 1012 48 10000 1 0 16:20 21.10.2020
6498 Clouds 17 1012 51 10000 1 0 15:46 21.10.2020
6499 Clouds 17 1012 59 10000 1 0 15:22 21.10.2020
6500 Clouds 17 1013 63 10000 1 0 14:56 21.10.2020
6501 Clouds 17 1013 63 10000 1 0 14:38 21.10.2020
6502 Clouds 16 1013 62 10000 1 0 14:19 21.10.2020
6503 Clouds 16 1013 62 10000 2.1 140 13:41 21.10.2020
6504 Clouds 16 1013 71 10000 2.1 150 13:20 21.10.2020
6505 Clouds 16 1013 71 10000 2.1 180 12:41 21.10.2020
6506 Clouds 15 1013 76 10000 2.1 120 12:20 21.10.2020
6507 Clouds 14 1013 81 10000 3.1 130 11:46 21.10.2020
6508 Clouds 13 1013 76 10000 2.6 140 11:21 21.10.2020
6509 Clouds 12 1013 93 10000 1.5 140 10:57 21.10.2020
6510 Clouds 12 1013 93 10000 1.5 140 10:38 21.10.2020
6511 Clouds 10 1013 93 10000 1 190 10:20 21.10.2020
6512 Clouds 9 1013 100 10000 1.5 130 09:39 21.10.2020
6513 Clouds 8 1011 100 10000 0.5 0 08:59 21.10.2020
6514 Clouds 8 1011 100 10000 0.5 0 08:40 21.10.2020
6515 Clouds 7 1011 100 10000 1.5 0 08:22 21.10.2020
6516 Clouds 7 1011 100 10000 1 190 07:48 21.10.2020
6517 Clouds 7 1011 100 10000 1 0 06:59 21.10.2020
6518 Clouds 7 1011 100 10000 1 0 06:34 21.10.2020
6519 Clouds 7 1011 100 10000 1 120 05:59 21.10.2020
6520 Clouds 8 1012 100 10000 1 0 02:46 21.10.2020
6521 Clouds 9 1014 100 10000 1.5 170 00:25 21.10.2020
6522 Clouds 9 1014 100 10000 2.6 110 23:28 20.10.2020
6523 Clouds 9 1014 81 10000 3.1 110 22:41 20.10.2020
6524 Clouds 9 1014 93 10000 2.6 130 22:23 20.10.2020
6525 Clouds 9 1015 87 10000 4.1 120 21:47 20.10.2020
6526 Clouds 9 1015 93 10000 3.1 100 21:19 20.10.2020
6527 Clouds 9 1015 93 10000 3.6 110 20:43 20.10.2020
6528 Clouds 9 1016 93 10000 3.1 120 20:24 20.10.2020
6529 Clouds 10 1015 87 10000 1 100 19:46 20.10.2020
6530 Clouds 10 1015 93 10000 1 0 19:22 20.10.2020
6531 Clouds 11 1015 87 10000 0.5 0 18:59 20.10.2020
6532 Clouds 11 1015 87 10000 0.5 0 18:59 20.10.2020
6533 Clouds 11 1015 81 10000 0.5 0 18:38 20.10.2020
6534 Clouds 13 1015 62 10000 1 0 17:57 20.10.2020
6535 Clouds 14 1015 58 10000 1 200 17:37 20.10.2020
6536 Clouds 14 1015 58 10000 1 200 17:18 20.10.2020
6537 Clouds 15 1016 51 10000 1 0 16:41 20.10.2020
6538 Clouds 15 1016 54 10000 1 0 16:23 20.10.2020
6539 Clouds 15 1016 54 10000 1.5 210 15:47 20.10.2020
6540 Clouds 16 1016 58 10000 0.5 0 15:28 20.10.2020
6541 Clouds 15 1016 58 10000 1 0 14:46 20.10.2020
6542 Clouds 14 1017 62 10000 1 270 14:25 20.10.2020
6543 Clouds 15 1017 58 10000 1 0 13:59 20.10.2020
6544 Clouds 15 1017 58 10000 1 0 13:40 20.10.2020
6545 Clouds 13 1017 66 10000 1.5 0 13:20 20.10.2020
6546 Clouds 13 1018 76 10000 1.5 110 12:50 20.10.2020
6547 Clouds 12 1018 76 10000 2.1 110 12:30 20.10.2020
6548 Clouds 11 1018 93 10000 2.6 110 11:47 20.10.2020
6549 Clouds 7 1018 93 10000 3.6 100 11:28 20.10.2020
6550 Clouds 8 1019 100 10000 3.1 100 10:46 20.10.2020
6551 Clouds 5 1019 100 10000 2.1 110 10:25 20.10.2020
6552 Clouds 4 1019 100 10000 2.1 130 09:44 20.10.2020
6553 Clouds 4 1019 100 10000 2.1 130 09:44 20.10.2020
6554 Clouds 4 1019 100 10000 0.5 0 09:20 20.10.2020
6555 Clouds 3 1018 100 10000 0.5 0 08:40 20.10.2020
6556 Clouds 3 1018 100 10000 2.6 130 08:19 20.10.2020
6557 Clouds 3 1019 100 10000 2.6 130 07:44 20.10.2020
6558 Clouds 3 1019 100 9000 1 0 07:21 20.10.2020
6559 Clouds 2 1019 100 9000 0.5 0 06:20 20.10.2020
6560 Fog 3 1019 100 4200 0.5 0 04:27 20.10.2020
6561 Mist 3 1019 100 4100 0.5 0 02:30 20.10.2020
6562 Clouds 4 1019 100 9000 1 190 01:22 20.10.2020
6563 Mist 4 1019 100 4100 1 0 00:51 20.10.2020
6564 Fog 4 1019 100 5000 0.5 0 00:26 20.10.2020
6565 Fog 4 1020 100 3800 0.5 0 23:51 19.10.2020
6566 Clouds 4 1020 68 10000 0.97 181 23:26 19.10.2020
6567 Clouds 5 1020 67 10000 0.97 181 22:54 19.10.2020
6568 Fog 5 1020 100 4500 0.5 0 22:26 19.10.2020
6569 Clouds 5 1020 100 7000 0.5 0 21:57 19.10.2020
6570 Clouds 6 1020 65 10000 0.79 154 21:39 19.10.2020
6571 Clouds 6 1020 100 10000 0.5 0 21:18 19.10.2020
6572 Clouds 6 1020 100 10000 1.5 0 20:42 19.10.2020
6573 Clouds 6 1020 100 10000 0.5 0 20:24 19.10.2020
6574 Clouds 7 1020 100 10000 0.5 0 19:45 19.10.2020
6575 Clouds 9 1019 81 10000 0.5 0 19:19 19.10.2020
6576 Clouds 10 1019 76 10000 1 0 18:50 19.10.2020
6577 Clouds 10 1019 71 10000 1.5 230 18:28 19.10.2020
6578 Clouds 11 1020 66 10000 1.5 230 17:47 19.10.2020
6579 Clouds 12 1020 54 10000 1.5 260 17:27 19.10.2020
6580 Clouds 12 1020 62 10000 1.5 280 16:54 19.10.2020
6581 Clouds 12 1020 58 10000 1.5 0 16:30 19.10.2020
6582 Clear 13 1022 66 10000 0.89 296 15:57 19.10.2020
6583 Clear 13 1022 67 10000 1.34 288 15:36 19.10.2020
6584 Clear 13 1022 68 10000 0.89 287 15:18 19.10.2020
6585 Clear 12 1023 69 10000 1.34 260 14:40 19.10.2020
6586 Clouds 13 1100 67 10000 0.62 336 14:21 19.10.2020
6587 Clouds 13 1100 68 10000 0.62 336 13:44 19.10.2020
6588 Clouds 13 1100 70 10000 0.45 71 13:26 19.10.2020
6589 Clouds 10 1100 75 10000 0.45 63 12:45 19.10.2020
6590 Clouds 9 1021 77 10000 0.45 70 12:26 19.10.2020
6591 Clouds 7 1023 100 10000 2.1 110 11:51 19.10.2020
6592 Clouds 6 1023 100 10000 2.1 110 11:24 19.10.2020
6593 Clouds 5 1023 100 9000 1.5 100 10:45 19.10.2020
6594 Clouds 5 1023 100 9000 1.5 100 10:25 19.10.2020
6595 Fog 4 1023 100 8000 0.5 0 09:58 19.10.2020
6596 Fog 3 1023 100 2400 0.5 0 09:37 19.10.2020
6597 Fog 2 1023 100 150 0.5 0 09:18 19.10.2020
6598 Fog 2 1023 100 150 0.5 0 09:18 19.10.2020
6599 Fog 2 1023 100 250 0.5 0 08:44 19.10.2020
6600 Fog 2 1023 87 500 0.5 0 08:21 19.10.2020
6601 Fog 2 1023 88 800 1 110 07:21 19.10.2020
6602 Fog 2 1023 100 150 0.5 0 06:45 19.10.2020
6603 Clouds 3 1024 70 10000 0.59 147 05:36 19.10.2020
6604 Fog 3 1023 100 200 0.48 139 03:46 19.10.2020
6605 Clouds 5 1023 100 6000 0.5 0 01:43 19.10.2020
6606 Clouds 7 1023 100 10000 0.81 90 00:42 19.10.2020
6607 Clouds 7 1023 100 10000 0.69 87 23:57 18.10.2020
6608 Clouds 7 1023 100 10000 1 320 23:38 18.10.2020
6609 Clouds 7 1023 100 10000 1 320 23:19 18.10.2020
6610 Clouds 7 1023 93 10000 1 290 22:44 18.10.2020
6611 Clouds 7 1023 93 10000 1 290 22:19 18.10.2020
6612 Clouds 7 1023 87 10000 0.5 0 21:43 18.10.2020
6613 Clouds 7 1023 87 10000 0.5 0 21:23 18.10.2020
6614 Clouds 8 1023 81 10000 0.5 0 20:46 18.10.2020
6615 Clouds 8 1023 81 10000 0.5 0 20:24 18.10.2020
6616 Clouds 9 1022 76 10000 1 0 19:50 18.10.2020
6617 Clouds 9 1022 71 10000 0.5 0 19:27 18.10.2020
6618 Clouds 10 1022 71 10000 1 340 18:51 18.10.2020
6619 Clouds 11 1021 62 10000 1 0 18:31 18.10.2020
6620 Clouds 11 1021 57 10000 1 0 17:59 18.10.2020
6621 Clouds 11 1021 62 10000 2.1 340 17:41 18.10.2020
6622 Clouds 11 1021 62 10000 2.1 340 17:22 18.10.2020
6623 Clouds 11 1021 62 10000 2.6 310 16:43 18.10.2020
6624 Clouds 11 1021 62 10000 2.6 310 16:24 18.10.2020
6625 Clouds 11 1021 66 10000 2.6 320 15:43 18.10.2020
6626 Clouds 11 1021 66 10000 2.6 320 15:21 18.10.2020
6627 Clouds 11 1022 62 10000 2.6 310 14:58 18.10.2020
6628 Clouds 11 1022 66 10000 2.1 60 14:31 18.10.2020
6629 Clouds 11 1022 66 10000 2.6 320 13:59 18.10.2020
6630 Clouds 10 1022 71 10000 3.6 320 13:40 18.10.2020
6631 Clouds 10 1022 71 10000 3.6 320 13:22 18.10.2020
6632 Clouds 10 1022 76 10000 2.6 290 12:43 18.10.2020
6633 Clouds 10 1022 76 10000 2.6 290 12:23 18.10.2020
6634 Clouds 9 1022 81 10000 1.5 0 11:46 18.10.2020
6635 Clouds 9 1022 81 10000 1.5 0 11:28 18.10.2020
6636 Clouds 8 1022 87 10000 1.5 0 10:55 18.10.2020
6637 Clouds 8 1022 93 10000 1 310 10:37 18.10.2020
6638 Clouds 7 1022 100 10000 1 280 10:18 18.10.2020
6639 Clouds 7 1021 100 10000 1 320 09:42 18.10.2020
6640 Clouds 7 1021 100 10000 1 320 09:42 18.10.2020
6641 Clouds 6 1021 100 10000 0.55 75 09:20 18.10.2020
6642 Clouds 6 1021 100 9000 0.5 0 08:45 18.10.2020
6643 Clouds 7 1021 100 9000 0.5 0 08:25 18.10.2020
6644 Clouds 7 1021 100 10000 0.5 0 07:48 18.10.2020
6645 Clouds 7 1020 100 10000 1 330 05:56 18.10.2020
6646 Clouds 7 1020 100 10000 1 310 03:40 18.10.2020
6647 Clouds 7 1020 100 10000 1 300 02:52 18.10.2020
6648 Clouds 7 1020 100 10000 1 290 01:29 18.10.2020
6649 Clouds 7 1020 100 10000 1 330 00:38 18.10.2020
6650 Clouds 7 1020 100 10000 1 330 00:20 18.10.2020
6651 Clouds 7 1020 100 10000 0.5 0 23:41 17.10.2020
6652 Clouds 7 1019 87 10000 1 300 23:21 17.10.2020
6653 Clouds 7 1019 87 10000 1 300 22:56 17.10.2020
6654 Clouds 7 1019 87 10000 0.5 320 22:36 17.10.2020
6655 Clouds 7 1019 93 10000 0.5 0 22:18 17.10.2020
6656 Clouds 7 1019 93 10000 1 320 21:42 17.10.2020
6657 Clouds 7 1019 93 10000 1 320 21:20 17.10.2020
6658 Clouds 8 1018 81 10000 1 330 20:44 17.10.2020
6659 Clouds 8 1018 81 10000 1 330 20:20 17.10.2020
6660 Clouds 9 1018 76 10000 1.5 20 19:44 17.10.2020
6661 Clouds 9 1018 76 10000 1.5 20 19:21 17.10.2020
6662 Clouds 9 1017 76 10000 1.5 30 18:45 17.10.2020
6663 Clouds 9 1017 76 10000 1.5 30 18:26 17.10.2020
6664 Clouds 10 1017 76 10000 1.5 40 17:51 17.10.2020
6665 Clouds 10 1017 71 10000 1.5 40 17:24 17.10.2020
6666 Clouds 10 1017 71 10000 1.5 360 16:58 17.10.2020
6667 Clouds 10 1017 71 10000 1.5 0 16:38 17.10.2020
6668 Clouds 10 1017 76 10000 1.5 10 16:18 17.10.2020
6669 Clouds 10 1017 71 10000 1.5 0 15:41 17.10.2020
6670 Clouds 10 1017 71 10000 1 0 15:21 17.10.2020
6671 Clouds 10 1017 71 10000 1 0 14:56 17.10.2020
6672 Clouds 10 1017 76 10000 1.5 0 14:37 17.10.2020
6673 Clouds 10 1017 76 10000 2.6 320 14:19 17.10.2020
6674 Clouds 10 1017 81 10000 2.1 330 13:42 17.10.2020
6675 Clouds 10 1017 81 10000 2.1 330 13:22 17.10.2020
6676 Clouds 10 1017 76 10000 2.1 320 12:41 17.10.2020
6677 Clouds 10 1017 76 10000 2.1 320 12:20 17.10.2020
6678 Clouds 9 1017 81 10000 1 0 11:58 17.10.2020
6679 Clouds 8 1017 81 10000 1 0 11:30 17.10.2020
6680 Clouds 8 1017 93 10000 1.5 300 10:47 17.10.2020
6681 Clouds 8 1017 93 10000 1.5 300 10:29 17.10.2020
6682 Clouds 8 1017 93 10000 1.5 300 10:29 17.10.2020
6683 Clouds 7 1017 100 10000 1.5 290 09:50 17.10.2020
6684 Clouds 7 1017 100 10000 1.5 310 09:31 17.10.2020
6685 Clouds 7 1017 100 10000 2.1 280 08:51 17.10.2020
6686 Clouds 7 1017 100 10000 2.1 280 08:23 17.10.2020
6687 Clouds 6 1017 100 10000 2.1 280 07:44 17.10.2020
6688 Clouds 7 1017 100 10000 1 0 06:54 17.10.2020
6689 Clouds 7 1017 100 10000 0.5 0 04:55 17.10.2020
6690 Clouds 8 1017 100 10000 1.5 290 02:30 17.10.2020
6691 Clouds 8 1017 100 10000 1.5 340 01:55 17.10.2020
6692 Clouds 8 1018 100 10000 0.5 0 00:38 17.10.2020
6693 Clouds 8 1018 87 10000 0.5 0 23:45 16.10.2020
6694 Clouds 8 1018 87 10000 1.5 340 23:21 16.10.2020
6695 Clouds 8 1017 81 10000 0.5 0 22:44 16.10.2020
6696 Clouds 8 1017 81 10000 0.5 0 22:24 16.10.2020
6697 Clouds 8 1017 81 10000 1 0 21:49 16.10.2020
6698 Clouds 8 1017 81 10000 2.6 20 21:27 16.10.2020
6699 Clouds 8 1017 81 10000 2.6 350 20:58 16.10.2020
6700 Clouds 8 1017 81 10000 1.5 340 20:38 16.10.2020
6701 Clouds 8 1017 81 10000 2.1 10 20:19 16.10.2020
6702 Clouds 9 1017 76 10000 1.5 360 19:39 16.10.2020
6703 Clouds 9 1016 76 10000 1.5 0 19:21 16.10.2020
6704 Clouds 10 1016 71 10000 2.6 360 18:45 16.10.2020
6705 Clouds 10 1016 71 10000 2.6 360 18:27 16.10.2020
6706 Clouds 10 1016 71 10000 2.1 10 17:45 16.10.2020
6707 Clouds 10 1016 71 10000 2.1 10 17:26 16.10.2020
6708 Clouds 10 1016 66 10000 2.6 340 16:48 16.10.2020
6709 Clouds 10 1016 66 10000 2.1 40 16:29 16.10.2020
6710 Clouds 10 1016 66 10000 2.1 40 16:29 16.10.2020
6711 Clouds 10 1016 66 10000 2.6 70 15:41 16.10.2020
6712 Clouds 10 1016 66 10000 2.6 70 15:21 16.10.2020
6713 Clou